<?xml version="1.0" encoding="UTF-8" standalone="no" ?>
<gpx xmlns="http://www.topografix.com/GPX/1/1" xmlns:xsi="http://www.w3.org/2001/XMLSchema-instance" xsi:schemaLocation="http://www.topografix.com/GPX/1/1 http://www.topografix.com/GPX/1/1/gpx.xsd" version="1.1" creator="VisuGPX - https://www.visugpx.com">
  <metadata>
    <name>20140829 Chapelle d\'abondance Bassachaux</name>
    <desc><![CDATA[4 ème étape du circuit GR5 entre Thonon les Bains et Chamonix]]></desc>
  </metadata>
  <trk>
    <name><![CDATA[20140829 Chapelle d\'abondance Bassachaux_1]]></name>
    <trkseg>
      <trkpt lat="46.29573" lon="6.78669">
        <ele>1020.1</ele>
        <time>2014-08-29T07:38:44Z</time>
      </trkpt>
      <trkpt lat="46.2957" lon="6.78679">
        <ele>1020.1</ele>
        <time>2014-08-29T07:38:59Z</time>
      </trkpt>
      <trkpt lat="46.29564" lon="6.78686">
        <ele>1026.2914</ele>
        <time>2014-08-29T07:39:04Z</time>
      </trkpt>
      <trkpt lat="46.29562" lon="6.78691">
        <ele>1026.2914</ele>
        <time>2014-08-29T07:39:09Z</time>
      </trkpt>
      <trkpt lat="46.2956" lon="6.78694">
        <ele>1026.2914</ele>
        <time>2014-08-29T07:39:14Z</time>
      </trkpt>
      <trkpt lat="46.29558" lon="6.78702">
        <ele>1031.1709</ele>
        <time>2014-08-29T07:39:19Z</time>
      </trkpt>
      <trkpt lat="46.29556" lon="6.78707">
        <ele>1031.1709</ele>
        <time>2014-08-29T07:39:24Z</time>
      </trkpt>
      <trkpt lat="46.29557" lon="6.78715">
        <ele>1035.8992</ele>
        <time>2014-08-29T07:39:29Z</time>
      </trkpt>
      <trkpt lat="46.29556" lon="6.78719">
        <ele>1035.8992</ele>
        <time>2014-08-29T07:39:34Z</time>
      </trkpt>
      <trkpt lat="46.29555" lon="6.7873">
        <ele>1041.0144</ele>
        <time>2014-08-29T07:39:39Z</time>
      </trkpt>
      <trkpt lat="46.29554" lon="6.78743">
        <ele>1041.0144</ele>
        <time>2014-08-29T07:39:44Z</time>
      </trkpt>
      <trkpt lat="46.29554" lon="6.78751">
        <ele>1046.1489</ele>
        <time>2014-08-29T07:39:49Z</time>
      </trkpt>
      <trkpt lat="46.29553" lon="6.78755">
        <ele>1046.1489</ele>
        <time>2014-08-29T07:39:54Z</time>
      </trkpt>
      <trkpt lat="46.29551" lon="6.78765">
        <ele>1050.8785</ele>
        <time>2014-08-29T07:39:59Z</time>
      </trkpt>
      <trkpt lat="46.2955" lon="6.78774">
        <ele>1050.8785</ele>
        <time>2014-08-29T07:40:04Z</time>
      </trkpt>
      <trkpt lat="46.29549" lon="6.78784">
        <ele>1054.9991</ele>
        <time>2014-08-29T07:40:09Z</time>
      </trkpt>
      <trkpt lat="46.29548" lon="6.7879">
        <ele>1054.9991</ele>
        <time>2014-08-29T07:40:14Z</time>
      </trkpt>
      <trkpt lat="46.29547" lon="6.78797">
        <ele>1058.2573</ele>
        <time>2014-08-29T07:40:19Z</time>
      </trkpt>
      <trkpt lat="46.29547" lon="6.78797">
        <ele>1058.2573</ele>
        <time>2014-08-29T07:40:24Z</time>
      </trkpt>
      <trkpt lat="46.29547" lon="6.78797">
        <ele>1058.2573</ele>
        <time>2014-08-29T07:40:29Z</time>
      </trkpt>
      <trkpt lat="46.29547" lon="6.78798">
        <ele>1058.2573</ele>
        <time>2014-08-29T07:40:34Z</time>
      </trkpt>
      <trkpt lat="46.29544" lon="6.78815">
        <ele>1060.3246</ele>
        <time>2014-08-29T07:40:39Z</time>
      </trkpt>
      <trkpt lat="46.29543" lon="6.78818">
        <ele>1060.3246</ele>
        <time>2014-08-29T07:40:44Z</time>
      </trkpt>
      <trkpt lat="46.29543" lon="6.78818">
        <ele>1060.3246</ele>
        <time>2014-08-29T07:40:49Z</time>
      </trkpt>
      <trkpt lat="46.29543" lon="6.78824">
        <ele>1060.3246</ele>
        <time>2014-08-29T07:41:09Z</time>
      </trkpt>
      <trkpt lat="46.29542" lon="6.78827">
        <ele>1060.3246</ele>
        <time>2014-08-29T07:41:14Z</time>
      </trkpt>
      <trkpt lat="46.29539" lon="6.78834">
        <ele>1062.0116</ele>
        <time>2014-08-29T07:41:19Z</time>
      </trkpt>
      <trkpt lat="46.29536" lon="6.78844">
        <ele>1062.0116</ele>
        <time>2014-08-29T07:41:24Z</time>
      </trkpt>
      <trkpt lat="46.29534" lon="6.78856">
        <ele>1063.0488</ele>
        <time>2014-08-29T07:41:29Z</time>
      </trkpt>
      <trkpt lat="46.29532" lon="6.78864">
        <ele>1063.0488</ele>
        <time>2014-08-29T07:41:34Z</time>
      </trkpt>
      <trkpt lat="46.29529" lon="6.78875">
        <ele>1063.5234</ele>
        <time>2014-08-29T07:41:39Z</time>
      </trkpt>
      <trkpt lat="46.29527" lon="6.78884">
        <ele>1063.5234</ele>
        <time>2014-08-29T07:41:44Z</time>
      </trkpt>
      <trkpt lat="46.29526" lon="6.78895">
        <ele>1063.6981</ele>
        <time>2014-08-29T07:41:49Z</time>
      </trkpt>
      <trkpt lat="46.29524" lon="6.78901">
        <ele>1063.6981</ele>
        <time>2014-08-29T07:41:54Z</time>
      </trkpt>
      <trkpt lat="46.29522" lon="6.78908">
        <ele>1063.629</ele>
        <time>2014-08-29T07:41:59Z</time>
      </trkpt>
      <trkpt lat="46.29521" lon="6.78919">
        <ele>1063.629</ele>
        <time>2014-08-29T07:42:04Z</time>
      </trkpt>
      <trkpt lat="46.29516" lon="6.78929">
        <ele>1063.2546</ele>
        <time>2014-08-29T07:42:09Z</time>
      </trkpt>
      <trkpt lat="46.29513" lon="6.78935">
        <ele>1063.2546</ele>
        <time>2014-08-29T07:42:14Z</time>
      </trkpt>
      <trkpt lat="46.29511" lon="6.78943">
        <ele>1062.6826</ele>
        <time>2014-08-29T07:42:19Z</time>
      </trkpt>
      <trkpt lat="46.2951" lon="6.78948">
        <ele>1062.6826</ele>
        <time>2014-08-29T07:42:24Z</time>
      </trkpt>
      <trkpt lat="46.29509" lon="6.78958">
        <ele>1061.824</ele>
        <time>2014-08-29T07:42:29Z</time>
      </trkpt>
      <trkpt lat="46.29508" lon="6.78966">
        <ele>1061.824</ele>
        <time>2014-08-29T07:42:34Z</time>
      </trkpt>
      <trkpt lat="46.29507" lon="6.78974">
        <ele>1061.0459</ele>
        <time>2014-08-29T07:42:39Z</time>
      </trkpt>
      <trkpt lat="46.29506" lon="6.78984">
        <ele>1061.0459</ele>
        <time>2014-08-29T07:42:44Z</time>
      </trkpt>
      <trkpt lat="46.29506" lon="6.78999">
        <ele>1060.423</ele>
        <time>2014-08-29T07:42:49Z</time>
      </trkpt>
      <trkpt lat="46.29504" lon="6.79008">
        <ele>1060.423</ele>
        <time>2014-08-29T07:42:54Z</time>
      </trkpt>
      <trkpt lat="46.295" lon="6.79017">
        <ele>1059.6506</ele>
        <time>2014-08-29T07:42:59Z</time>
      </trkpt>
      <trkpt lat="46.29498" lon="6.79023">
        <ele>1059.6506</ele>
        <time>2014-08-29T07:43:04Z</time>
      </trkpt>
      <trkpt lat="46.29498" lon="6.79029">
        <ele>1059.6506</ele>
        <time>2014-08-29T07:43:09Z</time>
      </trkpt>
      <trkpt lat="46.29498" lon="6.79038">
        <ele>1058.55</ele>
        <time>2014-08-29T07:43:14Z</time>
      </trkpt>
      <trkpt lat="46.29499" lon="6.79048">
        <ele>1058.55</ele>
        <time>2014-08-29T07:43:19Z</time>
      </trkpt>
      <trkpt lat="46.29499" lon="6.79057">
        <ele>1057.5098</ele>
        <time>2014-08-29T07:43:24Z</time>
      </trkpt>
      <trkpt lat="46.29498" lon="6.79065">
        <ele>1057.5098</ele>
        <time>2014-08-29T07:43:29Z</time>
      </trkpt>
      <trkpt lat="46.29496" lon="6.79072">
        <ele>1056.6538</ele>
        <time>2014-08-29T07:43:34Z</time>
      </trkpt>
      <trkpt lat="46.29495" lon="6.79078">
        <ele>1056.6538</ele>
        <time>2014-08-29T07:43:39Z</time>
      </trkpt>
      <trkpt lat="46.29495" lon="6.79085">
        <ele>1055.6431</ele>
        <time>2014-08-29T07:43:44Z</time>
      </trkpt>
      <trkpt lat="46.29495" lon="6.79093">
        <ele>1055.6431</ele>
        <time>2014-08-29T07:43:49Z</time>
      </trkpt>
      <trkpt lat="46.29493" lon="6.79103">
        <ele>1054.6151</ele>
        <time>2014-08-29T07:43:54Z</time>
      </trkpt>
      <trkpt lat="46.2949" lon="6.79113">
        <ele>1054.6151</ele>
        <time>2014-08-29T07:43:59Z</time>
      </trkpt>
      <trkpt lat="46.29488" lon="6.79123">
        <ele>1053.5443</ele>
        <time>2014-08-29T07:44:04Z</time>
      </trkpt>
      <trkpt lat="46.29485" lon="6.79129">
        <ele>1053.5443</ele>
        <time>2014-08-29T07:44:09Z</time>
      </trkpt>
      <trkpt lat="46.2948" lon="6.79137">
        <ele>1052.3353</ele>
        <time>2014-08-29T07:44:14Z</time>
      </trkpt>
      <trkpt lat="46.29477" lon="6.79145">
        <ele>1052.3353</ele>
        <time>2014-08-29T07:44:19Z</time>
      </trkpt>
      <trkpt lat="46.29475" lon="6.79151">
        <ele>1051.0286</ele>
        <time>2014-08-29T07:44:24Z</time>
      </trkpt>
      <trkpt lat="46.29474" lon="6.79156">
        <ele>1051.0286</ele>
        <time>2014-08-29T07:44:29Z</time>
      </trkpt>
      <trkpt lat="46.29471" lon="6.79163">
        <ele>1049.6731</ele>
        <time>2014-08-29T07:44:34Z</time>
      </trkpt>
      <trkpt lat="46.29469" lon="6.79171">
        <ele>1049.6731</ele>
        <time>2014-08-29T07:44:39Z</time>
      </trkpt>
      <trkpt lat="46.29468" lon="6.79179">
        <ele>1048.2157</ele>
        <time>2014-08-29T07:44:44Z</time>
      </trkpt>
      <trkpt lat="46.29466" lon="6.79185">
        <ele>1048.2157</ele>
        <time>2014-08-29T07:44:49Z</time>
      </trkpt>
      <trkpt lat="46.29463" lon="6.79193">
        <ele>1046.7604</ele>
        <time>2014-08-29T07:44:54Z</time>
      </trkpt>
      <trkpt lat="46.29459" lon="6.79201">
        <ele>1046.7604</ele>
        <time>2014-08-29T07:44:59Z</time>
      </trkpt>
      <trkpt lat="46.29456" lon="6.79208">
        <ele>1045.2646</ele>
        <time>2014-08-29T07:45:04Z</time>
      </trkpt>
      <trkpt lat="46.29452" lon="6.79217">
        <ele>1045.2646</ele>
        <time>2014-08-29T07:45:09Z</time>
      </trkpt>
      <trkpt lat="46.29447" lon="6.79225">
        <ele>1043.7734</ele>
        <time>2014-08-29T07:45:14Z</time>
      </trkpt>
      <trkpt lat="46.29442" lon="6.79235">
        <ele>1043.7734</ele>
        <time>2014-08-29T07:45:19Z</time>
      </trkpt>
      <trkpt lat="46.29437" lon="6.79244">
        <ele>1042.455</ele>
        <time>2014-08-29T07:45:24Z</time>
      </trkpt>
      <trkpt lat="46.29434" lon="6.79251">
        <ele>1042.455</ele>
        <time>2014-08-29T07:45:29Z</time>
      </trkpt>
      <trkpt lat="46.29432" lon="6.79258">
        <ele>1041.245</ele>
        <time>2014-08-29T07:45:34Z</time>
      </trkpt>
      <trkpt lat="46.29428" lon="6.79265">
        <ele>1041.245</ele>
        <time>2014-08-29T07:45:39Z</time>
      </trkpt>
      <trkpt lat="46.29423" lon="6.7927">
        <ele>1040.1125</ele>
        <time>2014-08-29T07:45:44Z</time>
      </trkpt>
      <trkpt lat="46.29419" lon="6.79278">
        <ele>1040.1125</ele>
        <time>2014-08-29T07:45:49Z</time>
      </trkpt>
      <trkpt lat="46.29416" lon="6.79284">
        <ele>1038.917</ele>
        <time>2014-08-29T07:45:54Z</time>
      </trkpt>
      <trkpt lat="46.29413" lon="6.79289">
        <ele>1038.917</ele>
        <time>2014-08-29T07:45:59Z</time>
      </trkpt>
      <trkpt lat="46.29409" lon="6.79297">
        <ele>1037.7106</ele>
        <time>2014-08-29T07:46:04Z</time>
      </trkpt>
      <trkpt lat="46.29405" lon="6.79305">
        <ele>1037.7106</ele>
        <time>2014-08-29T07:46:09Z</time>
      </trkpt>
      <trkpt lat="46.29401" lon="6.79313">
        <ele>1036.5433</ele>
        <time>2014-08-29T07:46:14Z</time>
      </trkpt>
      <trkpt lat="46.29397" lon="6.79318">
        <ele>1036.5433</ele>
        <time>2014-08-29T07:46:19Z</time>
      </trkpt>
      <trkpt lat="46.29394" lon="6.79322">
        <ele>1035.3915</ele>
        <time>2014-08-29T07:46:24Z</time>
      </trkpt>
      <trkpt lat="46.2939" lon="6.79329">
        <ele>1035.3915</ele>
        <time>2014-08-29T07:46:29Z</time>
      </trkpt>
      <trkpt lat="46.29386" lon="6.79334">
        <ele>1034.1315</ele>
        <time>2014-08-29T07:46:34Z</time>
      </trkpt>
      <trkpt lat="46.29382" lon="6.7934">
        <ele>1034.1315</ele>
        <time>2014-08-29T07:46:39Z</time>
      </trkpt>
      <trkpt lat="46.29378" lon="6.79348">
        <ele>1032.6754</ele>
        <time>2014-08-29T07:46:44Z</time>
      </trkpt>
      <trkpt lat="46.29373" lon="6.79355">
        <ele>1032.6754</ele>
        <time>2014-08-29T07:46:49Z</time>
      </trkpt>
      <trkpt lat="46.29369" lon="6.79362">
        <ele>1031.205</ele>
        <time>2014-08-29T07:46:54Z</time>
      </trkpt>
      <trkpt lat="46.29367" lon="6.79367">
        <ele>1031.205</ele>
        <time>2014-08-29T07:46:59Z</time>
      </trkpt>
      <trkpt lat="46.29361" lon="6.79374">
        <ele>1029.7444</ele>
        <time>2014-08-29T07:47:04Z</time>
      </trkpt>
      <trkpt lat="46.29357" lon="6.79374">
        <ele>1029.7444</ele>
        <time>2014-08-29T07:47:09Z</time>
      </trkpt>
      <trkpt lat="46.29355" lon="6.79373">
        <ele>1029.7444</ele>
        <time>2014-08-29T07:47:14Z</time>
      </trkpt>
      <trkpt lat="46.29355" lon="6.79373">
        <ele>1029.7444</ele>
        <time>2014-08-29T07:47:19Z</time>
      </trkpt>
      <trkpt lat="46.29355" lon="6.79372">
        <ele>1029.7444</ele>
        <time>2014-08-29T07:47:24Z</time>
      </trkpt>
      <trkpt lat="46.29356" lon="6.79371">
        <ele>1029.7444</ele>
        <time>2014-08-29T07:47:29Z</time>
      </trkpt>
      <trkpt lat="46.29356" lon="6.79371">
        <ele>1029.7444</ele>
        <time>2014-08-29T07:47:34Z</time>
      </trkpt>
      <trkpt lat="46.29357" lon="6.79373">
        <ele>1028.3018</ele>
        <time>2014-08-29T07:47:39Z</time>
      </trkpt>
      <trkpt lat="46.29357" lon="6.79373">
        <ele>1028.3018</ele>
        <time>2014-08-29T07:47:44Z</time>
      </trkpt>
      <trkpt lat="46.29358" lon="6.79373">
        <ele>1028.3018</ele>
        <time>2014-08-29T07:47:49Z</time>
      </trkpt>
      <trkpt lat="46.29358" lon="6.79372">
        <ele>1028.3018</ele>
        <time>2014-08-29T07:47:54Z</time>
      </trkpt>
      <trkpt lat="46.29357" lon="6.79372">
        <ele>1028.3018</ele>
        <time>2014-08-29T07:47:59Z</time>
      </trkpt>
      <trkpt lat="46.29355" lon="6.7937">
        <ele>1028.3018</ele>
        <time>2014-08-29T07:48:04Z</time>
      </trkpt>
      <trkpt lat="46.29353" lon="6.7937">
        <ele>1028.3018</ele>
        <time>2014-08-29T07:48:09Z</time>
      </trkpt>
      <trkpt lat="46.29352" lon="6.79369">
        <ele>1028.3018</ele>
        <time>2014-08-29T07:48:14Z</time>
      </trkpt>
      <trkpt lat="46.29352" lon="6.79369">
        <ele>1026.8096</ele>
        <time>2014-08-29T07:48:19Z</time>
      </trkpt>
      <trkpt lat="46.29351" lon="6.79367">
        <ele>1026.8096</ele>
        <time>2014-08-29T07:48:24Z</time>
      </trkpt>
      <trkpt lat="46.29351" lon="6.7937">
        <ele>1026.8096</ele>
        <time>2014-08-29T07:48:29Z</time>
      </trkpt>
      <trkpt lat="46.29353" lon="6.7937">
        <ele>1026.8096</ele>
        <time>2014-08-29T07:48:34Z</time>
      </trkpt>
      <trkpt lat="46.29355" lon="6.7937">
        <ele>1026.8096</ele>
        <time>2014-08-29T07:48:39Z</time>
      </trkpt>
      <trkpt lat="46.29356" lon="6.7937">
        <ele>1026.8096</ele>
        <time>2014-08-29T07:48:44Z</time>
      </trkpt>
      <trkpt lat="46.29357" lon="6.7937">
        <ele>1026.8096</ele>
        <time>2014-08-29T07:48:49Z</time>
      </trkpt>
      <trkpt lat="46.29357" lon="6.79369">
        <ele>1025.3837</ele>
        <time>2014-08-29T07:48:54Z</time>
      </trkpt>
      <trkpt lat="46.29352" lon="6.79364">
        <ele>1025.3837</ele>
        <time>2014-08-29T07:48:59Z</time>
      </trkpt>
      <trkpt lat="46.29346" lon="6.79358">
        <ele>1024.1317</ele>
        <time>2014-08-29T07:49:04Z</time>
      </trkpt>
      <trkpt lat="46.29341" lon="6.79357">
        <ele>1024.1317</ele>
        <time>2014-08-29T07:49:09Z</time>
      </trkpt>
      <trkpt lat="46.29336" lon="6.79356">
        <ele>1023.0025</ele>
        <time>2014-08-29T07:49:14Z</time>
      </trkpt>
      <trkpt lat="46.29331" lon="6.79355">
        <ele>1023.0025</ele>
        <time>2014-08-29T07:49:19Z</time>
      </trkpt>
      <trkpt lat="46.29325" lon="6.79355">
        <ele>1021.9169</ele>
        <time>2014-08-29T07:49:24Z</time>
      </trkpt>
      <trkpt lat="46.29319" lon="6.79354">
        <ele>1021.9169</ele>
        <time>2014-08-29T07:49:29Z</time>
      </trkpt>
      <trkpt lat="46.29313" lon="6.79355">
        <ele>1020.86084</ele>
        <time>2014-08-29T07:49:34Z</time>
      </trkpt>
      <trkpt lat="46.29306" lon="6.79352">
        <ele>1020.86084</ele>
        <time>2014-08-29T07:49:39Z</time>
      </trkpt>
      <trkpt lat="46.29299" lon="6.7935">
        <ele>1019.85126</ele>
        <time>2014-08-29T07:49:44Z</time>
      </trkpt>
      <trkpt lat="46.29294" lon="6.79349">
        <ele>1019.85126</ele>
        <time>2014-08-29T07:49:49Z</time>
      </trkpt>
      <trkpt lat="46.2929" lon="6.79349">
        <ele>1019.85126</ele>
        <time>2014-08-29T07:49:54Z</time>
      </trkpt>
      <trkpt lat="46.29286" lon="6.79349">
        <ele>1018.7068</ele>
        <time>2014-08-29T07:49:59Z</time>
      </trkpt>
      <trkpt lat="46.29282" lon="6.79351">
        <ele>1018.7068</ele>
        <time>2014-08-29T07:50:04Z</time>
      </trkpt>
      <trkpt lat="46.29278" lon="6.7935">
        <ele>1018.7068</ele>
        <time>2014-08-29T07:50:09Z</time>
      </trkpt>
      <trkpt lat="46.29276" lon="6.79347">
        <ele>1017.50183</ele>
        <time>2014-08-29T07:50:14Z</time>
      </trkpt>
      <trkpt lat="46.29275" lon="6.79345">
        <ele>1017.50183</ele>
        <time>2014-08-29T07:50:19Z</time>
      </trkpt>
      <trkpt lat="46.29273" lon="6.79343">
        <ele>1017.50183</ele>
        <time>2014-08-29T07:50:24Z</time>
      </trkpt>
      <trkpt lat="46.29272" lon="6.79342">
        <ele>1017.50183</ele>
        <time>2014-08-29T07:50:29Z</time>
      </trkpt>
      <trkpt lat="46.29267" lon="6.7934">
        <ele>1016.4106</ele>
        <time>2014-08-29T07:50:34Z</time>
      </trkpt>
      <trkpt lat="46.2926" lon="6.79338">
        <ele>1016.4106</ele>
        <time>2014-08-29T07:50:39Z</time>
      </trkpt>
      <trkpt lat="46.29254" lon="6.79338">
        <ele>1015.3066</ele>
        <time>2014-08-29T07:50:44Z</time>
      </trkpt>
      <trkpt lat="46.29248" lon="6.79334">
        <ele>1015.3066</ele>
        <time>2014-08-29T07:50:49Z</time>
      </trkpt>
      <trkpt lat="46.29241" lon="6.79331">
        <ele>1014.31384</ele>
        <time>2014-08-29T07:50:54Z</time>
      </trkpt>
      <trkpt lat="46.29235" lon="6.79327">
        <ele>1014.31384</ele>
        <time>2014-08-29T07:50:59Z</time>
      </trkpt>
      <trkpt lat="46.29229" lon="6.79323">
        <ele>1013.3807</ele>
        <time>2014-08-29T07:51:04Z</time>
      </trkpt>
      <trkpt lat="46.29224" lon="6.7932">
        <ele>1013.3807</ele>
        <time>2014-08-29T07:51:09Z</time>
      </trkpt>
      <trkpt lat="46.2922" lon="6.79317">
        <ele>1012.4742</ele>
        <time>2014-08-29T07:51:14Z</time>
      </trkpt>
      <trkpt lat="46.29216" lon="6.79314">
        <ele>1012.4742</ele>
        <time>2014-08-29T07:51:19Z</time>
      </trkpt>
      <trkpt lat="46.29211" lon="6.79312">
        <ele>1011.5343</ele>
        <time>2014-08-29T07:51:24Z</time>
      </trkpt>
      <trkpt lat="46.29206" lon="6.79305">
        <ele>1011.5343</ele>
        <time>2014-08-29T07:51:29Z</time>
      </trkpt>
      <trkpt lat="46.29203" lon="6.79304">
        <ele>1010.50586</ele>
        <time>2014-08-29T07:51:34Z</time>
      </trkpt>
      <trkpt lat="46.29197" lon="6.79303">
        <ele>1010.50586</ele>
        <time>2014-08-29T07:51:39Z</time>
      </trkpt>
      <trkpt lat="46.29192" lon="6.79302">
        <ele>1009.38324</ele>
        <time>2014-08-29T07:51:44Z</time>
      </trkpt>
      <trkpt lat="46.29187" lon="6.79301">
        <ele>1009.38324</ele>
        <time>2014-08-29T07:51:49Z</time>
      </trkpt>
      <trkpt lat="46.29178" lon="6.79298">
        <ele>1008.16125</ele>
        <time>2014-08-29T07:51:54Z</time>
      </trkpt>
      <trkpt lat="46.2917" lon="6.79295">
        <ele>1008.16125</ele>
        <time>2014-08-29T07:51:59Z</time>
      </trkpt>
      <trkpt lat="46.29164" lon="6.79293">
        <ele>1006.9834</ele>
        <time>2014-08-29T07:52:04Z</time>
      </trkpt>
      <trkpt lat="46.29157" lon="6.79289">
        <ele>1006.9834</ele>
        <time>2014-08-29T07:52:09Z</time>
      </trkpt>
      <trkpt lat="46.29151" lon="6.79287">
        <ele>1006.01025</ele>
        <time>2014-08-29T07:52:14Z</time>
      </trkpt>
      <trkpt lat="46.29144" lon="6.79289">
        <ele>1006.01025</ele>
        <time>2014-08-29T07:52:19Z</time>
      </trkpt>
      <trkpt lat="46.29134" lon="6.79288">
        <ele>1005.2414</ele>
        <time>2014-08-29T07:52:24Z</time>
      </trkpt>
      <trkpt lat="46.29127" lon="6.79288">
        <ele>1005.2414</ele>
        <time>2014-08-29T07:52:29Z</time>
      </trkpt>
      <trkpt lat="46.29123" lon="6.79289">
        <ele>1004.5876</ele>
        <time>2014-08-29T07:52:34Z</time>
      </trkpt>
      <trkpt lat="46.29119" lon="6.79294">
        <ele>1004.5876</ele>
        <time>2014-08-29T07:52:39Z</time>
      </trkpt>
      <trkpt lat="46.29118" lon="6.79295">
        <ele>1004.5876</ele>
        <time>2014-08-29T07:52:44Z</time>
      </trkpt>
      <trkpt lat="46.29114" lon="6.79301">
        <ele>1004.02545</ele>
        <time>2014-08-29T07:52:49Z</time>
      </trkpt>
      <trkpt lat="46.29111" lon="6.79304">
        <ele>1004.02545</ele>
        <time>2014-08-29T07:52:54Z</time>
      </trkpt>
      <trkpt lat="46.29105" lon="6.79307">
        <ele>1003.47473</ele>
        <time>2014-08-29T07:52:59Z</time>
      </trkpt>
      <trkpt lat="46.29096" lon="6.7931">
        <ele>1003.47473</ele>
        <time>2014-08-29T07:53:04Z</time>
      </trkpt>
      <trkpt lat="46.29088" lon="6.7931">
        <ele>1002.8323</ele>
        <time>2014-08-29T07:53:09Z</time>
      </trkpt>
      <trkpt lat="46.29082" lon="6.79314">
        <ele>1002.45435</ele>
        <time>2014-08-29T07:53:14Z</time>
      </trkpt>
      <trkpt lat="46.2908" lon="6.7931">
        <ele>1002.0764</ele>
        <time>2014-08-29T07:53:19Z</time>
      </trkpt>
      <trkpt lat="46.2908" lon="6.79308">
        <ele>1002.0764</ele>
        <time>2014-08-29T07:53:24Z</time>
      </trkpt>
      <trkpt lat="46.29078" lon="6.79303">
        <ele>1002.0764</ele>
        <time>2014-08-29T07:53:29Z</time>
      </trkpt>
      <trkpt lat="46.29079" lon="6.79301">
        <ele>1002.0764</ele>
        <time>2014-08-29T07:53:34Z</time>
      </trkpt>
      <trkpt lat="46.29079" lon="6.79301">
        <ele>1002.0764</ele>
        <time>2014-08-29T07:53:39Z</time>
      </trkpt>
      <trkpt lat="46.29079" lon="6.79301">
        <ele>1002.0764</ele>
        <time>2014-08-29T07:53:44Z</time>
      </trkpt>
      <trkpt lat="46.29082" lon="6.79304">
        <ele>1001.6382</ele>
        <time>2014-08-29T07:53:49Z</time>
      </trkpt>
      <trkpt lat="46.29082" lon="6.79313">
        <ele>1001.6382</ele>
        <time>2014-08-29T07:53:54Z</time>
      </trkpt>
      <trkpt lat="46.29082" lon="6.79318">
        <ele>1001.289</ele>
        <time>2014-08-29T07:53:59Z</time>
      </trkpt>
      <trkpt lat="46.29082" lon="6.79318">
        <ele>1001.289</ele>
        <time>2014-08-29T07:54:04Z</time>
      </trkpt>
      <trkpt lat="46.29083" lon="6.79317">
        <ele>1001.289</ele>
        <time>2014-08-29T07:54:09Z</time>
      </trkpt>
      <trkpt lat="46.29083" lon="6.79317">
        <ele>1001.289</ele>
        <time>2014-08-29T07:54:14Z</time>
      </trkpt>
      <trkpt lat="46.29083" lon="6.79317">
        <ele>1001.289</ele>
        <time>2014-08-29T07:54:19Z</time>
      </trkpt>
      <trkpt lat="46.29084" lon="6.79316">
        <ele>1001.289</ele>
        <time>2014-08-29T07:54:24Z</time>
      </trkpt>
      <trkpt lat="46.29084" lon="6.79316">
        <ele>1001.289</ele>
        <time>2014-08-29T07:54:29Z</time>
      </trkpt>
      <trkpt lat="46.29084" lon="6.79316">
        <ele>1001.289</ele>
        <time>2014-08-29T07:54:59Z</time>
      </trkpt>
      <trkpt lat="46.29084" lon="6.79316">
        <ele>1001.289</ele>
        <time>2014-08-29T07:55:04Z</time>
      </trkpt>
      <trkpt lat="46.29084" lon="6.79316">
        <ele>1001.289</ele>
        <time>2014-08-29T07:55:19Z</time>
      </trkpt>
      <trkpt lat="46.29084" lon="6.79316">
        <ele>1001.289</ele>
        <time>2014-08-29T07:55:24Z</time>
      </trkpt>
      <trkpt lat="46.29084" lon="6.79316">
        <ele>1001.289</ele>
        <time>2014-08-29T07:55:34Z</time>
      </trkpt>
      <trkpt lat="46.29085" lon="6.79316">
        <ele>1001.289</ele>
        <time>2014-08-29T07:55:39Z</time>
      </trkpt>
      <trkpt lat="46.29086" lon="6.79317">
        <ele>1001.289</ele>
        <time>2014-08-29T07:55:44Z</time>
      </trkpt>
      <trkpt lat="46.29086" lon="6.79317">
        <ele>1001.289</ele>
        <time>2014-08-29T07:55:49Z</time>
      </trkpt>
      <trkpt lat="46.29086" lon="6.79317">
        <ele>1001.289</ele>
        <time>2014-08-29T07:55:54Z</time>
      </trkpt>
      <trkpt lat="46.29087" lon="6.79316">
        <ele>1001.289</ele>
        <time>2014-08-29T07:55:59Z</time>
      </trkpt>
      <trkpt lat="46.2909" lon="6.79315">
        <ele>1001.07916</ele>
        <time>2014-08-29T07:56:04Z</time>
      </trkpt>
      <trkpt lat="46.29094" lon="6.79313">
        <ele>1001.07916</ele>
        <time>2014-08-29T07:56:09Z</time>
      </trkpt>
      <trkpt lat="46.29099" lon="6.79311">
        <ele>1000.93884</ele>
        <time>2014-08-29T07:56:14Z</time>
      </trkpt>
      <trkpt lat="46.29103" lon="6.7931">
        <ele>1000.93884</ele>
        <time>2014-08-29T07:56:19Z</time>
      </trkpt>
      <trkpt lat="46.29104" lon="6.79316">
        <ele>1000.93884</ele>
        <time>2014-08-29T07:56:24Z</time>
      </trkpt>
      <trkpt lat="46.29106" lon="6.79323">
        <ele>1000.6876</ele>
        <time>2014-08-29T07:56:29Z</time>
      </trkpt>
      <trkpt lat="46.29106" lon="6.79323">
        <ele>1000.6876</ele>
        <time>2014-08-29T07:56:34Z</time>
      </trkpt>
      <trkpt lat="46.29106" lon="6.79328">
        <ele>1000.6876</ele>
        <time>2014-08-29T07:56:39Z</time>
      </trkpt>
      <trkpt lat="46.29109" lon="6.79343">
        <ele>1000.5062</ele>
        <time>2014-08-29T07:56:44Z</time>
      </trkpt>
      <trkpt lat="46.29113" lon="6.79358">
        <ele>1000.4167</ele>
        <time>2014-08-29T07:56:49Z</time>
      </trkpt>
      <trkpt lat="46.29117" lon="6.79367">
        <ele>1000.4167</ele>
        <time>2014-08-29T07:56:54Z</time>
      </trkpt>
      <trkpt lat="46.29119" lon="6.79374">
        <ele>1000.28046</ele>
        <time>2014-08-29T07:56:59Z</time>
      </trkpt>
      <trkpt lat="46.29121" lon="6.79382">
        <ele>1000.28046</ele>
        <time>2014-08-29T07:57:04Z</time>
      </trkpt>
      <trkpt lat="46.29121" lon="6.79399">
        <ele>1000.05597</ele>
        <time>2014-08-29T07:57:09Z</time>
      </trkpt>
      <trkpt lat="46.2912" lon="6.79411">
        <ele>1000.05597</ele>
        <time>2014-08-29T07:57:14Z</time>
      </trkpt>
      <trkpt lat="46.29119" lon="6.7942">
        <ele>1000.0225</ele>
        <time>2014-08-29T07:57:19Z</time>
      </trkpt>
      <trkpt lat="46.29117" lon="6.79428">
        <ele>1000.0225</ele>
        <time>2014-08-29T07:57:24Z</time>
      </trkpt>
      <trkpt lat="46.29115" lon="6.79436">
        <ele>999.9763</ele>
        <time>2014-08-29T07:57:29Z</time>
      </trkpt>
      <trkpt lat="46.29111" lon="6.79443">
        <ele>999.9763</ele>
        <time>2014-08-29T07:57:34Z</time>
      </trkpt>
      <trkpt lat="46.29107" lon="6.79452">
        <ele>999.9018</ele>
        <time>2014-08-29T07:57:39Z</time>
      </trkpt>
      <trkpt lat="46.29105" lon="6.79456">
        <ele>999.9018</ele>
        <time>2014-08-29T07:57:44Z</time>
      </trkpt>
      <trkpt lat="46.29102" lon="6.79465">
        <ele>999.6837</ele>
        <time>2014-08-29T07:57:49Z</time>
      </trkpt>
      <trkpt lat="46.29102" lon="6.79471">
        <ele>999.6837</ele>
        <time>2014-08-29T07:57:54Z</time>
      </trkpt>
      <trkpt lat="46.29099" lon="6.79479">
        <ele>999.47534</ele>
        <time>2014-08-29T07:57:59Z</time>
      </trkpt>
      <trkpt lat="46.29097" lon="6.79487">
        <ele>999.47534</ele>
        <time>2014-08-29T07:58:04Z</time>
      </trkpt>
      <trkpt lat="46.29091" lon="6.79495">
        <ele>999.40405</ele>
        <time>2014-08-29T07:58:09Z</time>
      </trkpt>
      <trkpt lat="46.29088" lon="6.79502">
        <ele>999.40405</ele>
        <time>2014-08-29T07:58:14Z</time>
      </trkpt>
      <trkpt lat="46.29083" lon="6.79511">
        <ele>999.5587</ele>
        <time>2014-08-29T07:58:19Z</time>
      </trkpt>
      <trkpt lat="46.29079" lon="6.79516">
        <ele>999.5587</ele>
        <time>2014-08-29T07:58:24Z</time>
      </trkpt>
      <trkpt lat="46.29076" lon="6.79519">
        <ele>999.5587</ele>
        <time>2014-08-29T07:58:29Z</time>
      </trkpt>
      <trkpt lat="46.29075" lon="6.7952">
        <ele>1000.02106</ele>
        <time>2014-08-29T07:58:34Z</time>
      </trkpt>
      <trkpt lat="46.29075" lon="6.79521">
        <ele>1000.02106</ele>
        <time>2014-08-29T07:58:39Z</time>
      </trkpt>
      <trkpt lat="46.29075" lon="6.79521">
        <ele>1000.02106</ele>
        <time>2014-08-29T07:58:44Z</time>
      </trkpt>
      <trkpt lat="46.29074" lon="6.79522">
        <ele>1000.02106</ele>
        <time>2014-08-29T07:58:49Z</time>
      </trkpt>
      <trkpt lat="46.29074" lon="6.79524">
        <ele>1000.02106</ele>
        <time>2014-08-29T07:58:54Z</time>
      </trkpt>
      <trkpt lat="46.29068" lon="6.79546">
        <ele>1000.3181</ele>
        <time>2014-08-29T07:58:59Z</time>
      </trkpt>
      <trkpt lat="46.29062" lon="6.79564">
        <ele>1000.55994</ele>
        <time>2014-08-29T07:59:04Z</time>
      </trkpt>
      <trkpt lat="46.29058" lon="6.7958">
        <ele>1000.80554</ele>
        <time>2014-08-29T07:59:09Z</time>
      </trkpt>
      <trkpt lat="46.29054" lon="6.79591">
        <ele>1000.80554</ele>
        <time>2014-08-29T07:59:14Z</time>
      </trkpt>
      <trkpt lat="46.29051" lon="6.79601">
        <ele>1001.05194</ele>
        <time>2014-08-29T07:59:19Z</time>
      </trkpt>
      <trkpt lat="46.29048" lon="6.79607">
        <ele>1001.05194</ele>
        <time>2014-08-29T07:59:24Z</time>
      </trkpt>
      <trkpt lat="46.29044" lon="6.79614">
        <ele>1001.383</ele>
        <time>2014-08-29T07:59:29Z</time>
      </trkpt>
      <trkpt lat="46.29038" lon="6.79621">
        <ele>1001.383</ele>
        <time>2014-08-29T07:59:34Z</time>
      </trkpt>
      <trkpt lat="46.29032" lon="6.79624">
        <ele>1001.83276</ele>
        <time>2014-08-29T07:59:39Z</time>
      </trkpt>
      <trkpt lat="46.29028" lon="6.79627">
        <ele>1001.83276</ele>
        <time>2014-08-29T07:59:44Z</time>
      </trkpt>
      <trkpt lat="46.29024" lon="6.79628">
        <ele>1001.83276</ele>
        <time>2014-08-29T07:59:49Z</time>
      </trkpt>
      <trkpt lat="46.29022" lon="6.79629">
        <ele>1002.2165</ele>
        <time>2014-08-29T07:59:54Z</time>
      </trkpt>
      <trkpt lat="46.29022" lon="6.79629">
        <ele>1002.2165</ele>
        <time>2014-08-29T07:59:59Z</time>
      </trkpt>
      <trkpt lat="46.29013" lon="6.79631">
        <ele>1002.3629</ele>
        <time>2014-08-29T08:00:04Z</time>
      </trkpt>
      <trkpt lat="46.29002" lon="6.79633">
        <ele>1002.475</ele>
        <time>2014-08-29T08:00:09Z</time>
      </trkpt>
      <trkpt lat="46.28994" lon="6.79635">
        <ele>1002.475</ele>
        <time>2014-08-29T08:00:14Z</time>
      </trkpt>
      <trkpt lat="46.28987" lon="6.79637">
        <ele>1002.71185</ele>
        <time>2014-08-29T08:00:19Z</time>
      </trkpt>
      <trkpt lat="46.28983" lon="6.79638">
        <ele>1002.71185</ele>
        <time>2014-08-29T08:00:24Z</time>
      </trkpt>
      <trkpt lat="46.2898" lon="6.79639">
        <ele>1002.71185</ele>
        <time>2014-08-29T08:00:29Z</time>
      </trkpt>
      <trkpt lat="46.28976" lon="6.79641">
        <ele>1003.10535</ele>
        <time>2014-08-29T08:00:34Z</time>
      </trkpt>
      <trkpt lat="46.28973" lon="6.79642">
        <ele>1003.10535</ele>
        <time>2014-08-29T08:00:39Z</time>
      </trkpt>
      <trkpt lat="46.28967" lon="6.79643">
        <ele>1003.10535</ele>
        <time>2014-08-29T08:00:44Z</time>
      </trkpt>
      <trkpt lat="46.28961" lon="6.79643">
        <ele>1003.5549</ele>
        <time>2014-08-29T08:00:49Z</time>
      </trkpt>
      <trkpt lat="46.28955" lon="6.79651">
        <ele>1003.5549</ele>
        <time>2014-08-29T08:00:54Z</time>
      </trkpt>
      <trkpt lat="46.28952" lon="6.79659">
        <ele>1003.9815</ele>
        <time>2014-08-29T08:00:59Z</time>
      </trkpt>
      <trkpt lat="46.28949" lon="6.79667">
        <ele>1003.9815</ele>
        <time>2014-08-29T08:01:04Z</time>
      </trkpt>
      <trkpt lat="46.28947" lon="6.79675">
        <ele>1004.3987</ele>
        <time>2014-08-29T08:01:09Z</time>
      </trkpt>
      <trkpt lat="46.28944" lon="6.79686">
        <ele>1004.3987</ele>
        <time>2014-08-29T08:01:14Z</time>
      </trkpt>
      <trkpt lat="46.28941" lon="6.79703">
        <ele>1004.9924</ele>
        <time>2014-08-29T08:01:19Z</time>
      </trkpt>
      <trkpt lat="46.28941" lon="6.7971">
        <ele>1004.9924</ele>
        <time>2014-08-29T08:01:24Z</time>
      </trkpt>
      <trkpt lat="46.28942" lon="6.79719">
        <ele>1005.7754</ele>
        <time>2014-08-29T08:01:29Z</time>
      </trkpt>
      <trkpt lat="46.28944" lon="6.79724">
        <ele>1005.7754</ele>
        <time>2014-08-29T08:01:34Z</time>
      </trkpt>
      <trkpt lat="46.28942" lon="6.79732">
        <ele>1006.61523</ele>
        <time>2014-08-29T08:01:39Z</time>
      </trkpt>
      <trkpt lat="46.28941" lon="6.79735">
        <ele>1006.61523</ele>
        <time>2014-08-29T08:01:44Z</time>
      </trkpt>
      <trkpt lat="46.28939" lon="6.79745">
        <ele>1007.4033</ele>
        <time>2014-08-29T08:01:49Z</time>
      </trkpt>
      <trkpt lat="46.28934" lon="6.79752">
        <ele>1007.4033</ele>
        <time>2014-08-29T08:01:54Z</time>
      </trkpt>
      <trkpt lat="46.28929" lon="6.79761">
        <ele>1007.9818</ele>
        <time>2014-08-29T08:01:59Z</time>
      </trkpt>
      <trkpt lat="46.28924" lon="6.79772">
        <ele>1007.9818</ele>
        <time>2014-08-29T08:02:04Z</time>
      </trkpt>
      <trkpt lat="46.28919" lon="6.79778">
        <ele>1008.3924</ele>
        <time>2014-08-29T08:02:09Z</time>
      </trkpt>
      <trkpt lat="46.28917" lon="6.79782">
        <ele>1008.3924</ele>
        <time>2014-08-29T08:02:14Z</time>
      </trkpt>
      <trkpt lat="46.28913" lon="6.79784">
        <ele>1008.3924</ele>
        <time>2014-08-29T08:02:19Z</time>
      </trkpt>
      <trkpt lat="46.28905" lon="6.79788">
        <ele>1008.5591</ele>
        <time>2014-08-29T08:02:24Z</time>
      </trkpt>
      <trkpt lat="46.28901" lon="6.7979">
        <ele>1008.5591</ele>
        <time>2014-08-29T08:02:29Z</time>
      </trkpt>
      <trkpt lat="46.28894" lon="6.79793">
        <ele>1008.4987</ele>
        <time>2014-08-29T08:02:34Z</time>
      </trkpt>
      <trkpt lat="46.28891" lon="6.79793">
        <ele>1008.4987</ele>
        <time>2014-08-29T08:02:39Z</time>
      </trkpt>
      <trkpt lat="46.28887" lon="6.79795">
        <ele>1008.4987</ele>
        <time>2014-08-29T08:02:44Z</time>
      </trkpt>
      <trkpt lat="46.28886" lon="6.79796">
        <ele>1008.4987</ele>
        <time>2014-08-29T08:02:49Z</time>
      </trkpt>
      <trkpt lat="46.28883" lon="6.79802">
        <ele>1008.4007</ele>
        <time>2014-08-29T08:02:54Z</time>
      </trkpt>
      <trkpt lat="46.28883" lon="6.79802">
        <ele>1008.4007</ele>
        <time>2014-08-29T08:02:59Z</time>
      </trkpt>
      <trkpt lat="46.28875" lon="6.79802">
        <ele>1008.4007</ele>
        <time>2014-08-29T08:03:04Z</time>
      </trkpt>
      <trkpt lat="46.2887" lon="6.79807">
        <ele>1008.3973</ele>
        <time>2014-08-29T08:03:09Z</time>
      </trkpt>
      <trkpt lat="46.28864" lon="6.7981">
        <ele>1008.3973</ele>
        <time>2014-08-29T08:03:14Z</time>
      </trkpt>
      <trkpt lat="46.28855" lon="6.79811">
        <ele>1008.164</ele>
        <time>2014-08-29T08:03:19Z</time>
      </trkpt>
      <trkpt lat="46.2885" lon="6.79813">
        <ele>1008.164</ele>
        <time>2014-08-29T08:03:24Z</time>
      </trkpt>
      <trkpt lat="46.28848" lon="6.79814">
        <ele>1008.164</ele>
        <time>2014-08-29T08:03:29Z</time>
      </trkpt>
      <trkpt lat="46.28844" lon="6.79816">
        <ele>1008.0497</ele>
        <time>2014-08-29T08:03:34Z</time>
      </trkpt>
      <trkpt lat="46.28839" lon="6.79822">
        <ele>1008.0497</ele>
        <time>2014-08-29T08:03:39Z</time>
      </trkpt>
      <trkpt lat="46.28836" lon="6.79827">
        <ele>1008.0888</ele>
        <time>2014-08-29T08:03:44Z</time>
      </trkpt>
      <trkpt lat="46.28836" lon="6.79827">
        <ele>1008.0888</ele>
        <time>2014-08-29T08:03:49Z</time>
      </trkpt>
      <trkpt lat="46.28838" lon="6.7983">
        <ele>1008.0888</ele>
        <time>2014-08-29T08:03:54Z</time>
      </trkpt>
      <trkpt lat="46.28843" lon="6.79846">
        <ele>1008.4428</ele>
        <time>2014-08-29T08:03:59Z</time>
      </trkpt>
      <trkpt lat="46.28847" lon="6.79865">
        <ele>1008.87115</ele>
        <time>2014-08-29T08:04:04Z</time>
      </trkpt>
      <trkpt lat="46.2885" lon="6.79868">
        <ele>1008.87115</ele>
        <time>2014-08-29T08:04:09Z</time>
      </trkpt>
      <trkpt lat="46.28852" lon="6.79876">
        <ele>1008.87115</ele>
        <time>2014-08-29T08:04:14Z</time>
      </trkpt>
      <trkpt lat="46.28852" lon="6.79893">
        <ele>1009.5977</ele>
        <time>2014-08-29T08:04:19Z</time>
      </trkpt>
      <trkpt lat="46.28852" lon="6.79904">
        <ele>1009.5977</ele>
        <time>2014-08-29T08:04:24Z</time>
      </trkpt>
      <trkpt lat="46.28853" lon="6.79909">
        <ele>1010.26697</ele>
        <time>2014-08-29T08:04:29Z</time>
      </trkpt>
      <trkpt lat="46.28854" lon="6.79913">
        <ele>1010.26697</ele>
        <time>2014-08-29T08:04:34Z</time>
      </trkpt>
      <trkpt lat="46.28856" lon="6.79926">
        <ele>1010.82367</ele>
        <time>2014-08-29T08:04:39Z</time>
      </trkpt>
      <trkpt lat="46.28858" lon="6.79934">
        <ele>1010.82367</ele>
        <time>2014-08-29T08:04:44Z</time>
      </trkpt>
      <trkpt lat="46.2886" lon="6.79946">
        <ele>1011.28894</ele>
        <time>2014-08-29T08:04:49Z</time>
      </trkpt>
      <trkpt lat="46.28863" lon="6.79954">
        <ele>1011.28894</ele>
        <time>2014-08-29T08:04:54Z</time>
      </trkpt>
      <trkpt lat="46.28865" lon="6.79963">
        <ele>1011.827</ele>
        <time>2014-08-29T08:04:59Z</time>
      </trkpt>
      <trkpt lat="46.28866" lon="6.79969">
        <ele>1011.827</ele>
        <time>2014-08-29T08:05:04Z</time>
      </trkpt>
      <trkpt lat="46.28867" lon="6.7998">
        <ele>1012.41675</ele>
        <time>2014-08-29T08:05:09Z</time>
      </trkpt>
      <trkpt lat="46.28871" lon="6.79987">
        <ele>1012.41675</ele>
        <time>2014-08-29T08:05:14Z</time>
      </trkpt>
      <trkpt lat="46.28869" lon="6.79992">
        <ele>1013.12506</ele>
        <time>2014-08-29T08:05:19Z</time>
      </trkpt>
      <trkpt lat="46.28871" lon="6.79999">
        <ele>1013.12506</ele>
        <time>2014-08-29T08:05:24Z</time>
      </trkpt>
      <trkpt lat="46.2887" lon="6.80008">
        <ele>1013.8118</ele>
        <time>2014-08-29T08:05:29Z</time>
      </trkpt>
      <trkpt lat="46.28869" lon="6.80016">
        <ele>1013.8118</ele>
        <time>2014-08-29T08:05:34Z</time>
      </trkpt>
      <trkpt lat="46.2887" lon="6.8002">
        <ele>1013.8118</ele>
        <time>2014-08-29T08:05:39Z</time>
      </trkpt>
      <trkpt lat="46.28871" lon="6.80028">
        <ele>1014.33295</ele>
        <time>2014-08-29T08:05:44Z</time>
      </trkpt>
      <trkpt lat="46.2887" lon="6.80034">
        <ele>1014.33295</ele>
        <time>2014-08-29T08:05:49Z</time>
      </trkpt>
      <trkpt lat="46.2887" lon="6.80036">
        <ele>1014.33295</ele>
        <time>2014-08-29T08:05:54Z</time>
      </trkpt>
      <trkpt lat="46.28867" lon="6.80041">
        <ele>1014.6996</ele>
        <time>2014-08-29T08:05:59Z</time>
      </trkpt>
      <trkpt lat="46.28862" lon="6.80055">
        <ele>1014.937</ele>
        <time>2014-08-29T08:06:04Z</time>
      </trkpt>
      <trkpt lat="46.28859" lon="6.8007">
        <ele>1015.04016</ele>
        <time>2014-08-29T08:06:09Z</time>
      </trkpt>
      <trkpt lat="46.28857" lon="6.80078">
        <ele>1015.04016</ele>
        <time>2014-08-29T08:06:14Z</time>
      </trkpt>
      <trkpt lat="46.28856" lon="6.80085">
        <ele>1015.0912</ele>
        <time>2014-08-29T08:06:19Z</time>
      </trkpt>
      <trkpt lat="46.28853" lon="6.80093">
        <ele>1015.0912</ele>
        <time>2014-08-29T08:06:24Z</time>
      </trkpt>
      <trkpt lat="46.28853" lon="6.80096">
        <ele>1015.0912</ele>
        <time>2014-08-29T08:06:29Z</time>
      </trkpt>
      <trkpt lat="46.28852" lon="6.80104">
        <ele>1014.86395</ele>
        <time>2014-08-29T08:06:34Z</time>
      </trkpt>
      <trkpt lat="46.28852" lon="6.80104">
        <ele>1014.86395</ele>
        <time>2014-08-29T08:06:39Z</time>
      </trkpt>
      <trkpt lat="46.2885" lon="6.80117">
        <ele>1014.86395</ele>
        <time>2014-08-29T08:06:44Z</time>
      </trkpt>
      <trkpt lat="46.28849" lon="6.80134">
        <ele>1014.53864</ele>
        <time>2014-08-29T08:06:49Z</time>
      </trkpt>
      <trkpt lat="46.28849" lon="6.80145">
        <ele>1014.53864</ele>
        <time>2014-08-29T08:06:54Z</time>
      </trkpt>
      <trkpt lat="46.28848" lon="6.80153">
        <ele>1014.25385</ele>
        <time>2014-08-29T08:06:59Z</time>
      </trkpt>
      <trkpt lat="46.28848" lon="6.8016">
        <ele>1014.25385</ele>
        <time>2014-08-29T08:07:04Z</time>
      </trkpt>
      <trkpt lat="46.28848" lon="6.80167">
        <ele>1014.00806</ele>
        <time>2014-08-29T08:07:09Z</time>
      </trkpt>
      <trkpt lat="46.28847" lon="6.8018">
        <ele>1013.7567</ele>
        <time>2014-08-29T08:07:14Z</time>
      </trkpt>
      <trkpt lat="46.28848" lon="6.80184">
        <ele>1013.7567</ele>
        <time>2014-08-29T08:07:19Z</time>
      </trkpt>
      <trkpt lat="46.28846" lon="6.80191">
        <ele>1013.7567</ele>
        <time>2014-08-29T08:07:24Z</time>
      </trkpt>
      <trkpt lat="46.28844" lon="6.80208">
        <ele>1013.37195</ele>
        <time>2014-08-29T08:07:29Z</time>
      </trkpt>
      <trkpt lat="46.28843" lon="6.80221">
        <ele>1013.37195</ele>
        <time>2014-08-29T08:07:34Z</time>
      </trkpt>
      <trkpt lat="46.28842" lon="6.80229">
        <ele>1013.0095</ele>
        <time>2014-08-29T08:07:39Z</time>
      </trkpt>
      <trkpt lat="46.28842" lon="6.80238">
        <ele>1013.0095</ele>
        <time>2014-08-29T08:07:44Z</time>
      </trkpt>
      <trkpt lat="46.28845" lon="6.80244">
        <ele>1012.78485</ele>
        <time>2014-08-29T08:07:49Z</time>
      </trkpt>
      <trkpt lat="46.28845" lon="6.80248">
        <ele>1012.78485</ele>
        <time>2014-08-29T08:07:54Z</time>
      </trkpt>
      <trkpt lat="46.28845" lon="6.80256">
        <ele>1012.78485</ele>
        <time>2014-08-29T08:07:59Z</time>
      </trkpt>
      <trkpt lat="46.28846" lon="6.80267">
        <ele>1012.58844</ele>
        <time>2014-08-29T08:08:04Z</time>
      </trkpt>
      <trkpt lat="46.28846" lon="6.80274">
        <ele>1012.58844</ele>
        <time>2014-08-29T08:08:09Z</time>
      </trkpt>
      <trkpt lat="46.28846" lon="6.80285">
        <ele>1012.3474</ele>
        <time>2014-08-29T08:08:14Z</time>
      </trkpt>
      <trkpt lat="46.28847" lon="6.80296">
        <ele>1012.3474</ele>
        <time>2014-08-29T08:08:19Z</time>
      </trkpt>
      <trkpt lat="46.28846" lon="6.80304">
        <ele>1012.25385</ele>
        <time>2014-08-29T08:08:24Z</time>
      </trkpt>
      <trkpt lat="46.28848" lon="6.80312">
        <ele>1012.25385</ele>
        <time>2014-08-29T08:08:29Z</time>
      </trkpt>
      <trkpt lat="46.28848" lon="6.8032">
        <ele>1012.2114</ele>
        <time>2014-08-29T08:08:34Z</time>
      </trkpt>
      <trkpt lat="46.28849" lon="6.80326">
        <ele>1012.2114</ele>
        <time>2014-08-29T08:08:39Z</time>
      </trkpt>
      <trkpt lat="46.2885" lon="6.80331">
        <ele>1012.2114</ele>
        <time>2014-08-29T08:08:44Z</time>
      </trkpt>
      <trkpt lat="46.28851" lon="6.80334">
        <ele>1012.3326</ele>
        <time>2014-08-29T08:08:49Z</time>
      </trkpt>
      <trkpt lat="46.2885" lon="6.80335">
        <ele>1012.3326</ele>
        <time>2014-08-29T08:08:54Z</time>
      </trkpt>
      <trkpt lat="46.28849" lon="6.80335">
        <ele>1012.3326</ele>
        <time>2014-08-29T08:08:59Z</time>
      </trkpt>
      <trkpt lat="46.28849" lon="6.80335">
        <ele>1012.3326</ele>
        <time>2014-08-29T08:09:04Z</time>
      </trkpt>
      <trkpt lat="46.2885" lon="6.80335">
        <ele>1012.3326</ele>
        <time>2014-08-29T08:09:09Z</time>
      </trkpt>
      <trkpt lat="46.2885" lon="6.80336">
        <ele>1012.3326</ele>
        <time>2014-08-29T08:09:14Z</time>
      </trkpt>
      <trkpt lat="46.2885" lon="6.80337">
        <ele>1012.3326</ele>
        <time>2014-08-29T08:09:19Z</time>
      </trkpt>
      <trkpt lat="46.28849" lon="6.80337">
        <ele>1012.3326</ele>
        <time>2014-08-29T08:09:24Z</time>
      </trkpt>
      <trkpt lat="46.28849" lon="6.80337">
        <ele>1012.3326</ele>
        <time>2014-08-29T08:09:29Z</time>
      </trkpt>
      <trkpt lat="46.28851" lon="6.80343">
        <ele>1012.3462</ele>
        <time>2014-08-29T08:09:34Z</time>
      </trkpt>
      <trkpt lat="46.28854" lon="6.80355">
        <ele>1012.26086</ele>
        <time>2014-08-29T08:09:39Z</time>
      </trkpt>
      <trkpt lat="46.28854" lon="6.80362">
        <ele>1012.26086</ele>
        <time>2014-08-29T08:09:44Z</time>
      </trkpt>
      <trkpt lat="46.28853" lon="6.8037">
        <ele>1012.301</ele>
        <time>2014-08-29T08:09:49Z</time>
      </trkpt>
      <trkpt lat="46.28853" lon="6.8038">
        <ele>1012.301</ele>
        <time>2014-08-29T08:09:54Z</time>
      </trkpt>
      <trkpt lat="46.28852" lon="6.80389">
        <ele>1012.3714</ele>
        <time>2014-08-29T08:09:59Z</time>
      </trkpt>
      <trkpt lat="46.28851" lon="6.80397">
        <ele>1012.3714</ele>
        <time>2014-08-29T08:10:04Z</time>
      </trkpt>
      <trkpt lat="46.28851" lon="6.80405">
        <ele>1012.6432</ele>
        <time>2014-08-29T08:10:09Z</time>
      </trkpt>
      <trkpt lat="46.28849" lon="6.80412">
        <ele>1012.6432</ele>
        <time>2014-08-29T08:10:14Z</time>
      </trkpt>
      <trkpt lat="46.2885" lon="6.80421">
        <ele>1013.0439</ele>
        <time>2014-08-29T08:10:19Z</time>
      </trkpt>
      <trkpt lat="46.28852" lon="6.80426">
        <ele>1013.0439</ele>
        <time>2014-08-29T08:10:24Z</time>
      </trkpt>
      <trkpt lat="46.28851" lon="6.8043">
        <ele>1013.0439</ele>
        <time>2014-08-29T08:10:29Z</time>
      </trkpt>
      <trkpt lat="46.28848" lon="6.80435">
        <ele>1013.41925</ele>
        <time>2014-08-29T08:10:34Z</time>
      </trkpt>
      <trkpt lat="46.28844" lon="6.80441">
        <ele>1013.41925</ele>
        <time>2014-08-29T08:10:39Z</time>
      </trkpt>
      <trkpt lat="46.28841" lon="6.80441">
        <ele>1013.41925</ele>
        <time>2014-08-29T08:10:44Z</time>
      </trkpt>
      <trkpt lat="46.28834" lon="6.80445">
        <ele>1013.6123</ele>
        <time>2014-08-29T08:10:49Z</time>
      </trkpt>
      <trkpt lat="46.28829" lon="6.80448">
        <ele>1013.6123</ele>
        <time>2014-08-29T08:10:54Z</time>
      </trkpt>
      <trkpt lat="46.28822" lon="6.80451">
        <ele>1013.5931</ele>
        <time>2014-08-29T08:10:59Z</time>
      </trkpt>
      <trkpt lat="46.28818" lon="6.8045">
        <ele>1013.5931</ele>
        <time>2014-08-29T08:11:04Z</time>
      </trkpt>
      <trkpt lat="46.28816" lon="6.80451">
        <ele>1013.5931</ele>
        <time>2014-08-29T08:11:09Z</time>
      </trkpt>
      <trkpt lat="46.28816" lon="6.80451">
        <ele>1013.5931</ele>
        <time>2014-08-29T08:11:14Z</time>
      </trkpt>
      <trkpt lat="46.28811" lon="6.80453">
        <ele>1013.8679</ele>
        <time>2014-08-29T08:11:19Z</time>
      </trkpt>
      <trkpt lat="46.28807" lon="6.80452">
        <ele>1013.8679</ele>
        <time>2014-08-29T08:11:24Z</time>
      </trkpt>
      <trkpt lat="46.28799" lon="6.80448">
        <ele>1014.2996</ele>
        <time>2014-08-29T08:11:29Z</time>
      </trkpt>
      <trkpt lat="46.2879" lon="6.80455">
        <ele>1014.7751</ele>
        <time>2014-08-29T08:11:34Z</time>
      </trkpt>
      <trkpt lat="46.28784" lon="6.80459">
        <ele>1014.7751</ele>
        <time>2014-08-29T08:11:39Z</time>
      </trkpt>
      <trkpt lat="46.2878" lon="6.80458">
        <ele>1015.2328</ele>
        <time>2014-08-29T08:11:44Z</time>
      </trkpt>
      <trkpt lat="46.28774" lon="6.80459">
        <ele>1015.2328</ele>
        <time>2014-08-29T08:11:49Z</time>
      </trkpt>
      <trkpt lat="46.28768" lon="6.80463">
        <ele>1015.4714</ele>
        <time>2014-08-29T08:11:54Z</time>
      </trkpt>
      <trkpt lat="46.28763" lon="6.8047">
        <ele>1015.4714</ele>
        <time>2014-08-29T08:11:59Z</time>
      </trkpt>
      <trkpt lat="46.2876" lon="6.80477">
        <ele>1015.66534</ele>
        <time>2014-08-29T08:12:04Z</time>
      </trkpt>
      <trkpt lat="46.28757" lon="6.80485">
        <ele>1015.66534</ele>
        <time>2014-08-29T08:12:09Z</time>
      </trkpt>
      <trkpt lat="46.28758" lon="6.80494">
        <ele>1015.8757</ele>
        <time>2014-08-29T08:12:14Z</time>
      </trkpt>
      <trkpt lat="46.28762" lon="6.80507">
        <ele>1016.0867</ele>
        <time>2014-08-29T08:12:19Z</time>
      </trkpt>
      <trkpt lat="46.28771" lon="6.80524">
        <ele>1016.45667</ele>
        <time>2014-08-29T08:12:24Z</time>
      </trkpt>
      <trkpt lat="46.28775" lon="6.8053">
        <ele>1016.45667</ele>
        <time>2014-08-29T08:12:29Z</time>
      </trkpt>
      <trkpt lat="46.28777" lon="6.80535">
        <ele>1017.0167</ele>
        <time>2014-08-29T08:12:34Z</time>
      </trkpt>
      <trkpt lat="46.28776" lon="6.80542">
        <ele>1017.0167</ele>
        <time>2014-08-29T08:12:39Z</time>
      </trkpt>
      <trkpt lat="46.28774" lon="6.80548">
        <ele>1017.5357</ele>
        <time>2014-08-29T08:12:44Z</time>
      </trkpt>
      <trkpt lat="46.28774" lon="6.8055">
        <ele>1017.5357</ele>
        <time>2014-08-29T08:12:49Z</time>
      </trkpt>
      <trkpt lat="46.28774" lon="6.80552">
        <ele>1017.5357</ele>
        <time>2014-08-29T08:12:54Z</time>
      </trkpt>
      <trkpt lat="46.28779" lon="6.80563">
        <ele>1018.05884</ele>
        <time>2014-08-29T08:12:59Z</time>
      </trkpt>
      <trkpt lat="46.28781" lon="6.80582">
        <ele>1018.5418</ele>
        <time>2014-08-29T08:13:04Z</time>
      </trkpt>
      <trkpt lat="46.28783" lon="6.8059">
        <ele>1018.5418</ele>
        <time>2014-08-29T08:13:09Z</time>
      </trkpt>
      <trkpt lat="46.28784" lon="6.80597">
        <ele>1018.9866</ele>
        <time>2014-08-29T08:13:14Z</time>
      </trkpt>
      <trkpt lat="46.28784" lon="6.80609">
        <ele>1018.9866</ele>
        <time>2014-08-29T08:13:19Z</time>
      </trkpt>
      <trkpt lat="46.28784" lon="6.80614">
        <ele>1019.3809</ele>
        <time>2014-08-29T08:13:24Z</time>
      </trkpt>
      <trkpt lat="46.28782" lon="6.80624">
        <ele>1019.3809</ele>
        <time>2014-08-29T08:13:29Z</time>
      </trkpt>
      <trkpt lat="46.28782" lon="6.80633">
        <ele>1019.8001</ele>
        <time>2014-08-29T08:13:34Z</time>
      </trkpt>
      <trkpt lat="46.28781" lon="6.80637">
        <ele>1019.8001</ele>
        <time>2014-08-29T08:13:39Z</time>
      </trkpt>
      <trkpt lat="46.2878" lon="6.80639">
        <ele>1019.8001</ele>
        <time>2014-08-29T08:13:44Z</time>
      </trkpt>
      <trkpt lat="46.28775" lon="6.80647">
        <ele>1020.21277</ele>
        <time>2014-08-29T08:13:49Z</time>
      </trkpt>
      <trkpt lat="46.28768" lon="6.8066">
        <ele>1020.6045</ele>
        <time>2014-08-29T08:13:54Z</time>
      </trkpt>
      <trkpt lat="46.28763" lon="6.80669">
        <ele>1020.6045</ele>
        <time>2014-08-29T08:13:59Z</time>
      </trkpt>
      <trkpt lat="46.2876" lon="6.80677">
        <ele>1020.9043</ele>
        <time>2014-08-29T08:14:04Z</time>
      </trkpt>
      <trkpt lat="46.28758" lon="6.80685">
        <ele>1020.9043</ele>
        <time>2014-08-29T08:14:09Z</time>
      </trkpt>
      <trkpt lat="46.28752" lon="6.80697">
        <ele>1021.1186</ele>
        <time>2014-08-29T08:14:14Z</time>
      </trkpt>
      <trkpt lat="46.28748" lon="6.80702">
        <ele>1021.1186</ele>
        <time>2014-08-29T08:14:19Z</time>
      </trkpt>
      <trkpt lat="46.28741" lon="6.80706">
        <ele>1021.297</ele>
        <time>2014-08-29T08:14:24Z</time>
      </trkpt>
      <trkpt lat="46.28735" lon="6.80708">
        <ele>1021.297</ele>
        <time>2014-08-29T08:14:29Z</time>
      </trkpt>
      <trkpt lat="46.28731" lon="6.80709">
        <ele>1021.41345</ele>
        <time>2014-08-29T08:14:34Z</time>
      </trkpt>
      <trkpt lat="46.2873" lon="6.80709">
        <ele>1021.41345</ele>
        <time>2014-08-29T08:14:39Z</time>
      </trkpt>
      <trkpt lat="46.2873" lon="6.80709">
        <ele>1021.41345</ele>
        <time>2014-08-29T08:14:44Z</time>
      </trkpt>
      <trkpt lat="46.28729" lon="6.80708">
        <ele>1021.41345</ele>
        <time>2014-08-29T08:14:49Z</time>
      </trkpt>
      <trkpt lat="46.2873" lon="6.80707">
        <ele>1021.41345</ele>
        <time>2014-08-29T08:14:54Z</time>
      </trkpt>
      <trkpt lat="46.2873" lon="6.80706">
        <ele>1021.41345</ele>
        <time>2014-08-29T08:14:59Z</time>
      </trkpt>
      <trkpt lat="46.2873" lon="6.80706">
        <ele>1021.41345</ele>
        <time>2014-08-29T08:15:04Z</time>
      </trkpt>
      <trkpt lat="46.28729" lon="6.80706">
        <ele>1021.41345</ele>
        <time>2014-08-29T08:15:29Z</time>
      </trkpt>
      <trkpt lat="46.28728" lon="6.80705">
        <ele>1021.41345</ele>
        <time>2014-08-29T08:15:34Z</time>
      </trkpt>
      <trkpt lat="46.28727" lon="6.80705">
        <ele>1021.41345</ele>
        <time>2014-08-29T08:15:39Z</time>
      </trkpt>
      <trkpt lat="46.28727" lon="6.80705">
        <ele>1021.41345</ele>
        <time>2014-08-29T08:15:44Z</time>
      </trkpt>
      <trkpt lat="46.28728" lon="6.80705">
        <ele>1021.41345</ele>
        <time>2014-08-29T08:15:49Z</time>
      </trkpt>
      <trkpt lat="46.28728" lon="6.80706">
        <ele>1021.41345</ele>
        <time>2014-08-29T08:15:54Z</time>
      </trkpt>
      <trkpt lat="46.28728" lon="6.80707">
        <ele>1021.41345</ele>
        <time>2014-08-29T08:15:59Z</time>
      </trkpt>
      <trkpt lat="46.28725" lon="6.80706">
        <ele>1021.86194</ele>
        <time>2014-08-29T08:16:04Z</time>
      </trkpt>
      <trkpt lat="46.28721" lon="6.80705">
        <ele>1021.86194</ele>
        <time>2014-08-29T08:16:09Z</time>
      </trkpt>
      <trkpt lat="46.28715" lon="6.80702">
        <ele>1022.0698</ele>
        <time>2014-08-29T08:16:14Z</time>
      </trkpt>
      <trkpt lat="46.28709" lon="6.80694">
        <ele>1022.0698</ele>
        <time>2014-08-29T08:16:19Z</time>
      </trkpt>
      <trkpt lat="46.28703" lon="6.80684">
        <ele>1022.12695</ele>
        <time>2014-08-29T08:16:24Z</time>
      </trkpt>
      <trkpt lat="46.287" lon="6.80677">
        <ele>1022.12695</ele>
        <time>2014-08-29T08:16:29Z</time>
      </trkpt>
      <trkpt lat="46.28696" lon="6.80672">
        <ele>1022.2035</ele>
        <time>2014-08-29T08:16:34Z</time>
      </trkpt>
      <trkpt lat="46.28693" lon="6.80666">
        <ele>1022.2035</ele>
        <time>2014-08-29T08:16:39Z</time>
      </trkpt>
      <trkpt lat="46.28691" lon="6.80658">
        <ele>1022.2984</ele>
        <time>2014-08-29T08:16:44Z</time>
      </trkpt>
      <trkpt lat="46.28689" lon="6.80652">
        <ele>1022.2984</ele>
        <time>2014-08-29T08:16:49Z</time>
      </trkpt>
      <trkpt lat="46.28687" lon="6.80638">
        <ele>1022.3676</ele>
        <time>2014-08-29T08:16:54Z</time>
      </trkpt>
      <trkpt lat="46.28685" lon="6.8063">
        <ele>1022.3676</ele>
        <time>2014-08-29T08:16:59Z</time>
      </trkpt>
      <trkpt lat="46.2868" lon="6.80624">
        <ele>1022.4999</ele>
        <time>2014-08-29T08:17:04Z</time>
      </trkpt>
      <trkpt lat="46.28675" lon="6.8062">
        <ele>1022.4999</ele>
        <time>2014-08-29T08:17:09Z</time>
      </trkpt>
      <trkpt lat="46.28669" lon="6.80614">
        <ele>1022.60455</ele>
        <time>2014-08-29T08:17:14Z</time>
      </trkpt>
      <trkpt lat="46.28664" lon="6.80609">
        <ele>1022.60455</ele>
        <time>2014-08-29T08:17:19Z</time>
      </trkpt>
      <trkpt lat="46.2866" lon="6.80605">
        <ele>1022.68396</ele>
        <time>2014-08-29T08:17:24Z</time>
      </trkpt>
      <trkpt lat="46.28657" lon="6.80601">
        <ele>1022.68396</ele>
        <time>2014-08-29T08:17:29Z</time>
      </trkpt>
      <trkpt lat="46.28654" lon="6.80595">
        <ele>1022.89905</ele>
        <time>2014-08-29T08:17:34Z</time>
      </trkpt>
      <trkpt lat="46.28651" lon="6.80591">
        <ele>1022.89905</ele>
        <time>2014-08-29T08:17:39Z</time>
      </trkpt>
      <trkpt lat="46.28648" lon="6.80588">
        <ele>1022.89905</ele>
        <time>2014-08-29T08:17:44Z</time>
      </trkpt>
      <trkpt lat="46.28644" lon="6.80584">
        <ele>1023.1679</ele>
        <time>2014-08-29T08:17:49Z</time>
      </trkpt>
      <trkpt lat="46.2864" lon="6.80578">
        <ele>1023.1679</ele>
        <time>2014-08-29T08:17:54Z</time>
      </trkpt>
      <trkpt lat="46.28637" lon="6.80573">
        <ele>1023.52966</ele>
        <time>2014-08-29T08:17:59Z</time>
      </trkpt>
      <trkpt lat="46.28633" lon="6.80567">
        <ele>1023.52966</ele>
        <time>2014-08-29T08:18:04Z</time>
      </trkpt>
      <trkpt lat="46.28627" lon="6.80562">
        <ele>1023.99164</ele>
        <time>2014-08-29T08:18:09Z</time>
      </trkpt>
      <trkpt lat="46.28625" lon="6.8056">
        <ele>1023.99164</ele>
        <time>2014-08-29T08:18:14Z</time>
      </trkpt>
      <trkpt lat="46.28621" lon="6.80554">
        <ele>1023.99164</ele>
        <time>2014-08-29T08:18:19Z</time>
      </trkpt>
      <trkpt lat="46.28619" lon="6.80553">
        <ele>1024.6035</ele>
        <time>2014-08-29T08:18:24Z</time>
      </trkpt>
      <trkpt lat="46.28614" lon="6.80548">
        <ele>1024.6035</ele>
        <time>2014-08-29T08:18:29Z</time>
      </trkpt>
      <trkpt lat="46.28611" lon="6.80544">
        <ele>1025.31</ele>
        <time>2014-08-29T08:18:34Z</time>
      </trkpt>
      <trkpt lat="46.28605" lon="6.80539">
        <ele>1025.31</ele>
        <time>2014-08-29T08:18:39Z</time>
      </trkpt>
      <trkpt lat="46.286" lon="6.80534">
        <ele>1026.2471</ele>
        <time>2014-08-29T08:18:44Z</time>
      </trkpt>
      <trkpt lat="46.28595" lon="6.80529">
        <ele>1026.2471</ele>
        <time>2014-08-29T08:18:49Z</time>
      </trkpt>
      <trkpt lat="46.28593" lon="6.80526">
        <ele>1026.2471</ele>
        <time>2014-08-29T08:18:54Z</time>
      </trkpt>
      <trkpt lat="46.28589" lon="6.80521">
        <ele>1027.4535</ele>
        <time>2014-08-29T08:18:59Z</time>
      </trkpt>
      <trkpt lat="46.28588" lon="6.8052">
        <ele>1027.4535</ele>
        <time>2014-08-29T08:19:04Z</time>
      </trkpt>
      <trkpt lat="46.28583" lon="6.80514">
        <ele>1027.4535</ele>
        <time>2014-08-29T08:19:09Z</time>
      </trkpt>
      <trkpt lat="46.28579" lon="6.80509">
        <ele>1028.8491</ele>
        <time>2014-08-29T08:19:14Z</time>
      </trkpt>
      <trkpt lat="46.28578" lon="6.80507">
        <ele>1028.8491</ele>
        <time>2014-08-29T08:19:19Z</time>
      </trkpt>
      <trkpt lat="46.28573" lon="6.80501">
        <ele>1028.8491</ele>
        <time>2014-08-29T08:19:24Z</time>
      </trkpt>
      <trkpt lat="46.2857" lon="6.80498">
        <ele>1030.3593</ele>
        <time>2014-08-29T08:19:29Z</time>
      </trkpt>
      <trkpt lat="46.28567" lon="6.80498">
        <ele>1030.3593</ele>
        <time>2014-08-29T08:19:34Z</time>
      </trkpt>
      <trkpt lat="46.28564" lon="6.80498">
        <ele>1030.3593</ele>
        <time>2014-08-29T08:19:39Z</time>
      </trkpt>
      <trkpt lat="46.28562" lon="6.80497">
        <ele>1030.3593</ele>
        <time>2014-08-29T08:19:44Z</time>
      </trkpt>
      <trkpt lat="46.2856" lon="6.80497">
        <ele>1031.8999</ele>
        <time>2014-08-29T08:19:49Z</time>
      </trkpt>
      <trkpt lat="46.28559" lon="6.80495">
        <ele>1031.8999</ele>
        <time>2014-08-29T08:19:54Z</time>
      </trkpt>
      <trkpt lat="46.28556" lon="6.80495">
        <ele>1031.8999</ele>
        <time>2014-08-29T08:19:59Z</time>
      </trkpt>
      <trkpt lat="46.28552" lon="6.80494">
        <ele>1031.8999</ele>
        <time>2014-08-29T08:20:04Z</time>
      </trkpt>
      <trkpt lat="46.28551" lon="6.80495">
        <ele>1032.9756</ele>
        <time>2014-08-29T08:20:09Z</time>
      </trkpt>
      <trkpt lat="46.28547" lon="6.80497">
        <ele>1032.9756</ele>
        <time>2014-08-29T08:20:14Z</time>
      </trkpt>
      <trkpt lat="46.28544" lon="6.80496">
        <ele>1032.9756</ele>
        <time>2014-08-29T08:20:19Z</time>
      </trkpt>
      <trkpt lat="46.28542" lon="6.80494">
        <ele>1033.8054</ele>
        <time>2014-08-29T08:20:24Z</time>
      </trkpt>
      <trkpt lat="46.2854" lon="6.80496">
        <ele>1033.8054</ele>
        <time>2014-08-29T08:20:29Z</time>
      </trkpt>
      <trkpt lat="46.28538" lon="6.80497">
        <ele>1033.8054</ele>
        <time>2014-08-29T08:20:34Z</time>
      </trkpt>
      <trkpt lat="46.28535" lon="6.80497">
        <ele>1033.8054</ele>
        <time>2014-08-29T08:20:39Z</time>
      </trkpt>
      <trkpt lat="46.28533" lon="6.80496">
        <ele>1034.3196</ele>
        <time>2014-08-29T08:20:44Z</time>
      </trkpt>
      <trkpt lat="46.28534" lon="6.80499">
        <ele>1034.3196</ele>
        <time>2014-08-29T08:20:49Z</time>
      </trkpt>
      <trkpt lat="46.28534" lon="6.80499">
        <ele>1034.3196</ele>
        <time>2014-08-29T08:20:54Z</time>
      </trkpt>
      <trkpt lat="46.28532" lon="6.805">
        <ele>1034.3196</ele>
        <time>2014-08-29T08:20:59Z</time>
      </trkpt>
      <trkpt lat="46.2853" lon="6.80501">
        <ele>1034.3196</ele>
        <time>2014-08-29T08:21:04Z</time>
      </trkpt>
      <trkpt lat="46.2853" lon="6.80501">
        <ele>1034.3196</ele>
        <time>2014-08-29T08:21:09Z</time>
      </trkpt>
      <trkpt lat="46.28529" lon="6.80501">
        <ele>1034.3196</ele>
        <time>2014-08-29T08:21:14Z</time>
      </trkpt>
      <trkpt lat="46.28528" lon="6.80501">
        <ele>1034.3196</ele>
        <time>2014-08-29T08:21:19Z</time>
      </trkpt>
      <trkpt lat="46.2852" lon="6.80513">
        <ele>1037.4519</ele>
        <time>2014-08-29T08:21:24Z</time>
      </trkpt>
      <trkpt lat="46.28516" lon="6.8052">
        <ele>1037.4519</ele>
        <time>2014-08-29T08:21:29Z</time>
      </trkpt>
      <trkpt lat="46.28513" lon="6.80524">
        <ele>1041.1</ele>
        <time>2014-08-29T08:21:34Z</time>
      </trkpt>
      <trkpt lat="46.28509" lon="6.80523">
        <ele>1041.1</ele>
        <time>2014-08-29T08:21:39Z</time>
      </trkpt>
      <trkpt lat="46.28498" lon="6.80526">
        <ele>1044.7843</ele>
        <time>2014-08-29T08:21:44Z</time>
      </trkpt>
      <trkpt lat="46.28494" lon="6.80532">
        <ele>1044.7843</ele>
        <time>2014-08-29T08:21:49Z</time>
      </trkpt>
      <trkpt lat="46.28491" lon="6.80535">
        <ele>1048.4789</ele>
        <time>2014-08-29T08:21:54Z</time>
      </trkpt>
      <trkpt lat="46.28485" lon="6.80541">
        <ele>1048.4789</ele>
        <time>2014-08-29T08:21:59Z</time>
      </trkpt>
      <trkpt lat="46.28481" lon="6.80542">
        <ele>1051.9431</ele>
        <time>2014-08-29T08:22:04Z</time>
      </trkpt>
      <trkpt lat="46.28475" lon="6.80544">
        <ele>1051.9431</ele>
        <time>2014-08-29T08:22:09Z</time>
      </trkpt>
      <trkpt lat="46.28468" lon="6.80545">
        <ele>1054.9407</ele>
        <time>2014-08-29T08:22:14Z</time>
      </trkpt>
      <trkpt lat="46.28461" lon="6.8055">
        <ele>1054.9407</ele>
        <time>2014-08-29T08:22:19Z</time>
      </trkpt>
      <trkpt lat="46.28458" lon="6.8055">
        <ele>1057.7152</ele>
        <time>2014-08-29T08:22:24Z</time>
      </trkpt>
      <trkpt lat="46.28453" lon="6.80549">
        <ele>1057.7152</ele>
        <time>2014-08-29T08:22:29Z</time>
      </trkpt>
      <trkpt lat="46.28447" lon="6.80553">
        <ele>1060.3489</ele>
        <time>2014-08-29T08:22:34Z</time>
      </trkpt>
      <trkpt lat="46.28445" lon="6.80554">
        <ele>1060.3489</ele>
        <time>2014-08-29T08:22:39Z</time>
      </trkpt>
      <trkpt lat="46.28443" lon="6.80553">
        <ele>1060.3489</ele>
        <time>2014-08-29T08:22:44Z</time>
      </trkpt>
      <trkpt lat="46.28441" lon="6.80554">
        <ele>1060.3489</ele>
        <time>2014-08-29T08:22:49Z</time>
      </trkpt>
      <trkpt lat="46.28439" lon="6.80554">
        <ele>1060.3489</ele>
        <time>2014-08-29T08:22:54Z</time>
      </trkpt>
      <trkpt lat="46.28436" lon="6.80552">
        <ele>1063.6538</ele>
        <time>2014-08-29T08:22:59Z</time>
      </trkpt>
      <trkpt lat="46.28433" lon="6.80552">
        <ele>1063.6538</ele>
        <time>2014-08-29T08:23:04Z</time>
      </trkpt>
      <trkpt lat="46.2843" lon="6.80551">
        <ele>1063.6538</ele>
        <time>2014-08-29T08:23:09Z</time>
      </trkpt>
      <trkpt lat="46.2843" lon="6.8055">
        <ele>1063.6538</ele>
        <time>2014-08-29T08:23:14Z</time>
      </trkpt>
      <trkpt lat="46.28428" lon="6.80551">
        <ele>1066.9823</ele>
        <time>2014-08-29T08:23:19Z</time>
      </trkpt>
      <trkpt lat="46.28423" lon="6.80552">
        <ele>1066.9823</ele>
        <time>2014-08-29T08:23:24Z</time>
      </trkpt>
      <trkpt lat="46.28422" lon="6.80553">
        <ele>1066.9823</ele>
        <time>2014-08-29T08:23:29Z</time>
      </trkpt>
      <trkpt lat="46.2842" lon="6.80553">
        <ele>1066.9823</ele>
        <time>2014-08-29T08:23:34Z</time>
      </trkpt>
      <trkpt lat="46.28419" lon="6.80554">
        <ele>1070.4985</ele>
        <time>2014-08-29T08:23:39Z</time>
      </trkpt>
      <trkpt lat="46.28418" lon="6.80554">
        <ele>1070.4985</ele>
        <time>2014-08-29T08:23:44Z</time>
      </trkpt>
      <trkpt lat="46.28418" lon="6.80554">
        <ele>1070.4985</ele>
        <time>2014-08-29T08:23:49Z</time>
      </trkpt>
      <trkpt lat="46.28418" lon="6.80554">
        <ele>1070.4985</ele>
        <time>2014-08-29T08:23:59Z</time>
      </trkpt>
      <trkpt lat="46.28412" lon="6.80551">
        <ele>1070.4985</ele>
        <time>2014-08-29T08:24:04Z</time>
      </trkpt>
      <trkpt lat="46.2841" lon="6.80551">
        <ele>1074.0227</ele>
        <time>2014-08-29T08:24:09Z</time>
      </trkpt>
      <trkpt lat="46.28405" lon="6.8054">
        <ele>1074.0227</ele>
        <time>2014-08-29T08:24:14Z</time>
      </trkpt>
      <trkpt lat="46.28405" lon="6.80535">
        <ele>1077.2875</ele>
        <time>2014-08-29T08:24:19Z</time>
      </trkpt>
      <trkpt lat="46.28404" lon="6.80533">
        <ele>1077.2875</ele>
        <time>2014-08-29T08:24:24Z</time>
      </trkpt>
      <trkpt lat="46.28403" lon="6.80524">
        <ele>1077.2875</ele>
        <time>2014-08-29T08:24:29Z</time>
      </trkpt>
      <trkpt lat="46.28402" lon="6.80521">
        <ele>1080.4929</ele>
        <time>2014-08-29T08:24:34Z</time>
      </trkpt>
      <trkpt lat="46.28402" lon="6.80521">
        <ele>1080.4929</ele>
        <time>2014-08-29T08:24:39Z</time>
      </trkpt>
      <trkpt lat="46.28403" lon="6.80517">
        <ele>1080.4929</ele>
        <time>2014-08-29T08:24:44Z</time>
      </trkpt>
      <trkpt lat="46.28403" lon="6.80517">
        <ele>1080.4929</ele>
        <time>2014-08-29T08:24:49Z</time>
      </trkpt>
      <trkpt lat="46.28404" lon="6.80514">
        <ele>1080.4929</ele>
        <time>2014-08-29T08:25:04Z</time>
      </trkpt>
      <trkpt lat="46.28407" lon="6.80511">
        <ele>1080.4929</ele>
        <time>2014-08-29T08:25:09Z</time>
      </trkpt>
      <trkpt lat="46.28409" lon="6.80508">
        <ele>1083.2339</ele>
        <time>2014-08-29T08:25:14Z</time>
      </trkpt>
      <trkpt lat="46.28408" lon="6.80504">
        <ele>1083.2339</ele>
        <time>2014-08-29T08:25:19Z</time>
      </trkpt>
      <trkpt lat="46.28408" lon="6.80502">
        <ele>1083.2339</ele>
        <time>2014-08-29T08:25:24Z</time>
      </trkpt>
      <trkpt lat="46.28408" lon="6.80501">
        <ele>1083.2339</ele>
        <time>2014-08-29T08:25:29Z</time>
      </trkpt>
      <trkpt lat="46.28408" lon="6.805">
        <ele>1083.2339</ele>
        <time>2014-08-29T08:25:34Z</time>
      </trkpt>
      <trkpt lat="46.28408" lon="6.80495">
        <ele>1086.1162</ele>
        <time>2014-08-29T08:25:39Z</time>
      </trkpt>
      <trkpt lat="46.28408" lon="6.80495">
        <ele>1086.1162</ele>
        <time>2014-08-29T08:25:44Z</time>
      </trkpt>
      <trkpt lat="46.28409" lon="6.80494">
        <ele>1086.1162</ele>
        <time>2014-08-29T08:25:49Z</time>
      </trkpt>
      <trkpt lat="46.28409" lon="6.80491">
        <ele>1086.1162</ele>
        <time>2014-08-29T08:25:54Z</time>
      </trkpt>
      <trkpt lat="46.28409" lon="6.80485">
        <ele>1086.1162</ele>
        <time>2014-08-29T08:25:59Z</time>
      </trkpt>
      <trkpt lat="46.28408" lon="6.80481">
        <ele>1089.4277</ele>
        <time>2014-08-29T08:26:04Z</time>
      </trkpt>
      <trkpt lat="46.28408" lon="6.80481">
        <ele>1089.4277</ele>
        <time>2014-08-29T08:26:09Z</time>
      </trkpt>
      <trkpt lat="46.28407" lon="6.80479">
        <ele>1089.4277</ele>
        <time>2014-08-29T08:26:14Z</time>
      </trkpt>
      <trkpt lat="46.28406" lon="6.80476">
        <ele>1089.4277</ele>
        <time>2014-08-29T08:26:19Z</time>
      </trkpt>
      <trkpt lat="46.28404" lon="6.80474">
        <ele>1089.4277</ele>
        <time>2014-08-29T08:26:24Z</time>
      </trkpt>
      <trkpt lat="46.28405" lon="6.80474">
        <ele>1089.4277</ele>
        <time>2014-08-29T08:26:29Z</time>
      </trkpt>
      <trkpt lat="46.28403" lon="6.80473">
        <ele>1089.4277</ele>
        <time>2014-08-29T08:26:34Z</time>
      </trkpt>
      <trkpt lat="46.28403" lon="6.80473">
        <ele>1094.2695</ele>
        <time>2014-08-29T08:26:39Z</time>
      </trkpt>
      <trkpt lat="46.28403" lon="6.8047">
        <ele>1094.2695</ele>
        <time>2014-08-29T08:26:44Z</time>
      </trkpt>
      <trkpt lat="46.28402" lon="6.80467">
        <ele>1094.2695</ele>
        <time>2014-08-29T08:26:49Z</time>
      </trkpt>
      <trkpt lat="46.28402" lon="6.80466">
        <ele>1094.2695</ele>
        <time>2014-08-29T08:26:54Z</time>
      </trkpt>
      <trkpt lat="46.284" lon="6.80465">
        <ele>1094.2695</ele>
        <time>2014-08-29T08:26:59Z</time>
      </trkpt>
      <trkpt lat="46.284" lon="6.80464">
        <ele>1094.2695</ele>
        <time>2014-08-29T08:27:04Z</time>
      </trkpt>
      <trkpt lat="46.284" lon="6.80459">
        <ele>1099.9862</ele>
        <time>2014-08-29T08:27:09Z</time>
      </trkpt>
      <trkpt lat="46.28399" lon="6.80458">
        <ele>1099.9862</ele>
        <time>2014-08-29T08:27:14Z</time>
      </trkpt>
      <trkpt lat="46.28397" lon="6.80456">
        <ele>1099.9862</ele>
        <time>2014-08-29T08:27:19Z</time>
      </trkpt>
      <trkpt lat="46.28398" lon="6.80454">
        <ele>1099.9862</ele>
        <time>2014-08-29T08:27:24Z</time>
      </trkpt>
      <trkpt lat="46.28398" lon="6.80448">
        <ele>1105.8674</ele>
        <time>2014-08-29T08:27:29Z</time>
      </trkpt>
      <trkpt lat="46.28396" lon="6.80446">
        <ele>1105.8674</ele>
        <time>2014-08-29T08:27:34Z</time>
      </trkpt>
      <trkpt lat="46.2839" lon="6.80432">
        <ele>1111.4276</ele>
        <time>2014-08-29T08:27:39Z</time>
      </trkpt>
      <trkpt lat="46.28386" lon="6.80428">
        <ele>1111.4276</ele>
        <time>2014-08-29T08:27:44Z</time>
      </trkpt>
      <trkpt lat="46.28384" lon="6.8043">
        <ele>1111.4276</ele>
        <time>2014-08-29T08:27:49Z</time>
      </trkpt>
      <trkpt lat="46.28385" lon="6.80431">
        <ele>1111.4276</ele>
        <time>2014-08-29T08:27:54Z</time>
      </trkpt>
      <trkpt lat="46.28385" lon="6.80433">
        <ele>1116.7225</ele>
        <time>2014-08-29T08:27:59Z</time>
      </trkpt>
      <trkpt lat="46.28385" lon="6.80433">
        <ele>1116.7225</ele>
        <time>2014-08-29T08:28:04Z</time>
      </trkpt>
      <trkpt lat="46.28385" lon="6.80433">
        <ele>1116.7225</ele>
        <time>2014-08-29T08:28:09Z</time>
      </trkpt>
      <trkpt lat="46.28384" lon="6.80432">
        <ele>1116.7225</ele>
        <time>2014-08-29T08:28:59Z</time>
      </trkpt>
      <trkpt lat="46.28384" lon="6.80432">
        <ele>1116.7225</ele>
        <time>2014-08-29T08:29:04Z</time>
      </trkpt>
      <trkpt lat="46.28384" lon="6.80432">
        <ele>1116.7225</ele>
        <time>2014-08-29T08:29:19Z</time>
      </trkpt>
      <trkpt lat="46.28383" lon="6.80435">
        <ele>1116.7225</ele>
        <time>2014-08-29T08:29:24Z</time>
      </trkpt>
      <trkpt lat="46.28383" lon="6.80437">
        <ele>1116.7225</ele>
        <time>2014-08-29T08:29:29Z</time>
      </trkpt>
      <trkpt lat="46.28383" lon="6.80438">
        <ele>1116.7225</ele>
        <time>2014-08-29T08:29:34Z</time>
      </trkpt>
      <trkpt lat="46.28384" lon="6.80441">
        <ele>1116.7225</ele>
        <time>2014-08-29T08:29:39Z</time>
      </trkpt>
      <trkpt lat="46.28385" lon="6.80442">
        <ele>1120.4215</ele>
        <time>2014-08-29T08:29:44Z</time>
      </trkpt>
      <trkpt lat="46.28385" lon="6.80443">
        <ele>1120.4215</ele>
        <time>2014-08-29T08:29:49Z</time>
      </trkpt>
      <trkpt lat="46.28385" lon="6.80453">
        <ele>1120.4215</ele>
        <time>2014-08-29T08:29:54Z</time>
      </trkpt>
      <trkpt lat="46.28386" lon="6.80454">
        <ele>1120.4215</ele>
        <time>2014-08-29T08:29:59Z</time>
      </trkpt>
      <trkpt lat="46.28389" lon="6.80469">
        <ele>1123.6018</ele>
        <time>2014-08-29T08:30:04Z</time>
      </trkpt>
      <trkpt lat="46.28391" lon="6.80472">
        <ele>1123.6018</ele>
        <time>2014-08-29T08:30:09Z</time>
      </trkpt>
      <trkpt lat="46.28393" lon="6.80475">
        <ele>1123.6018</ele>
        <time>2014-08-29T08:30:14Z</time>
      </trkpt>
      <trkpt lat="46.28393" lon="6.80481">
        <ele>1126.687</ele>
        <time>2014-08-29T08:30:19Z</time>
      </trkpt>
      <trkpt lat="46.28392" lon="6.80488">
        <ele>1126.687</ele>
        <time>2014-08-29T08:30:24Z</time>
      </trkpt>
      <trkpt lat="46.28393" lon="6.80498">
        <ele>1129.5515</ele>
        <time>2014-08-29T08:30:29Z</time>
      </trkpt>
      <trkpt lat="46.28393" lon="6.805">
        <ele>1129.5515</ele>
        <time>2014-08-29T08:30:34Z</time>
      </trkpt>
      <trkpt lat="46.28393" lon="6.80501">
        <ele>1129.5515</ele>
        <time>2014-08-29T08:30:39Z</time>
      </trkpt>
      <trkpt lat="46.28393" lon="6.80501">
        <ele>1129.5515</ele>
        <time>2014-08-29T08:30:44Z</time>
      </trkpt>
      <trkpt lat="46.28392" lon="6.80502">
        <ele>1129.5515</ele>
        <time>2014-08-29T08:30:49Z</time>
      </trkpt>
      <trkpt lat="46.2839" lon="6.80505">
        <ele>1129.5515</ele>
        <time>2014-08-29T08:30:54Z</time>
      </trkpt>
      <trkpt lat="46.28388" lon="6.80507">
        <ele>1129.5515</ele>
        <time>2014-08-29T08:30:59Z</time>
      </trkpt>
      <trkpt lat="46.28388" lon="6.80507">
        <ele>1129.5515</ele>
        <time>2014-08-29T08:31:04Z</time>
      </trkpt>
      <trkpt lat="46.28388" lon="6.80508">
        <ele>1131.5464</ele>
        <time>2014-08-29T08:31:14Z</time>
      </trkpt>
      <trkpt lat="46.28388" lon="6.80508">
        <ele>1131.5464</ele>
        <time>2014-08-29T08:31:19Z</time>
      </trkpt>
      <trkpt lat="46.28387" lon="6.8051">
        <ele>1131.5464</ele>
        <time>2014-08-29T08:31:29Z</time>
      </trkpt>
      <trkpt lat="46.28383" lon="6.80514">
        <ele>1131.5464</ele>
        <time>2014-08-29T08:31:34Z</time>
      </trkpt>
      <trkpt lat="46.28379" lon="6.80519">
        <ele>1133.0096</ele>
        <time>2014-08-29T08:31:39Z</time>
      </trkpt>
      <trkpt lat="46.28375" lon="6.80524">
        <ele>1133.0096</ele>
        <time>2014-08-29T08:31:44Z</time>
      </trkpt>
      <trkpt lat="46.28366" lon="6.80525">
        <ele>1134.0835</ele>
        <time>2014-08-29T08:31:49Z</time>
      </trkpt>
      <trkpt lat="46.28366" lon="6.80525">
        <ele>1134.0835</ele>
        <time>2014-08-29T08:31:54Z</time>
      </trkpt>
      <trkpt lat="46.28363" lon="6.80531">
        <ele>1134.0835</ele>
        <time>2014-08-29T08:31:59Z</time>
      </trkpt>
      <trkpt lat="46.28362" lon="6.80533">
        <ele>1134.0835</ele>
        <time>2014-08-29T08:32:04Z</time>
      </trkpt>
      <trkpt lat="46.28362" lon="6.80533">
        <ele>1134.0835</ele>
        <time>2014-08-29T08:32:09Z</time>
      </trkpt>
      <trkpt lat="46.28361" lon="6.80535">
        <ele>1134.0835</ele>
        <time>2014-08-29T08:32:39Z</time>
      </trkpt>
      <trkpt lat="46.28361" lon="6.80535">
        <ele>1134.0835</ele>
        <time>2014-08-29T08:32:44Z</time>
      </trkpt>
      <trkpt lat="46.2836" lon="6.80537">
        <ele>1134.8433</ele>
        <time>2014-08-29T08:32:54Z</time>
      </trkpt>
      <trkpt lat="46.28355" lon="6.80545">
        <ele>1134.8433</ele>
        <time>2014-08-29T08:32:59Z</time>
      </trkpt>
      <trkpt lat="46.2835" lon="6.80556">
        <ele>1135.4895</ele>
        <time>2014-08-29T08:33:04Z</time>
      </trkpt>
      <trkpt lat="46.2835" lon="6.80556">
        <ele>1135.4895</ele>
        <time>2014-08-29T08:33:09Z</time>
      </trkpt>
      <trkpt lat="46.28346" lon="6.80558">
        <ele>1135.4895</ele>
        <time>2014-08-29T08:33:19Z</time>
      </trkpt>
      <trkpt lat="46.28342" lon="6.8056">
        <ele>1135.4895</ele>
        <time>2014-08-29T08:33:24Z</time>
      </trkpt>
      <trkpt lat="46.28342" lon="6.8056">
        <ele>1135.4895</ele>
        <time>2014-08-29T08:33:29Z</time>
      </trkpt>
      <trkpt lat="46.28342" lon="6.80563">
        <ele>1136.4246</ele>
        <time>2014-08-29T08:33:54Z</time>
      </trkpt>
      <trkpt lat="46.28342" lon="6.80563">
        <ele>1136.4246</ele>
        <time>2014-08-29T08:33:59Z</time>
      </trkpt>
      <trkpt lat="46.28342" lon="6.80563">
        <ele>1136.4246</ele>
        <time>2014-08-29T08:34:49Z</time>
      </trkpt>
      <trkpt lat="46.28342" lon="6.80563">
        <ele>1136.4246</ele>
        <time>2014-08-29T08:34:54Z</time>
      </trkpt>
      <trkpt lat="46.28339" lon="6.80564">
        <ele>1136.4246</ele>
        <time>2014-08-29T08:35:34Z</time>
      </trkpt>
      <trkpt lat="46.28339" lon="6.80564">
        <ele>1136.4246</ele>
        <time>2014-08-29T08:35:39Z</time>
      </trkpt>
      <trkpt lat="46.28339" lon="6.80563">
        <ele>1136.4246</ele>
        <time>2014-08-29T08:36:54Z</time>
      </trkpt>
      <trkpt lat="46.28339" lon="6.80563">
        <ele>1136.4246</ele>
        <time>2014-08-29T08:36:59Z</time>
      </trkpt>
      <trkpt lat="46.28337" lon="6.80557">
        <ele>1136.4246</ele>
        <time>2014-08-29T08:37:09Z</time>
      </trkpt>
      <trkpt lat="46.28337" lon="6.80556">
        <ele>1137.9486</ele>
        <time>2014-08-29T08:37:14Z</time>
      </trkpt>
      <trkpt lat="46.28337" lon="6.80555">
        <ele>1137.9486</ele>
        <time>2014-08-29T08:37:19Z</time>
      </trkpt>
      <trkpt lat="46.28337" lon="6.80555">
        <ele>1137.9486</ele>
        <time>2014-08-29T08:37:24Z</time>
      </trkpt>
      <trkpt lat="46.28338" lon="6.80552">
        <ele>1137.9486</ele>
        <time>2014-08-29T08:37:29Z</time>
      </trkpt>
      <trkpt lat="46.28338" lon="6.80552">
        <ele>1137.9486</ele>
        <time>2014-08-29T08:37:34Z</time>
      </trkpt>
      <trkpt lat="46.28335" lon="6.80548">
        <ele>1137.9486</ele>
        <time>2014-08-29T08:37:39Z</time>
      </trkpt>
      <trkpt lat="46.2833" lon="6.80543">
        <ele>1139.8339</ele>
        <time>2014-08-29T08:37:44Z</time>
      </trkpt>
      <trkpt lat="46.2833" lon="6.80543">
        <ele>1139.8339</ele>
        <time>2014-08-29T08:37:49Z</time>
      </trkpt>
      <trkpt lat="46.28325" lon="6.80539">
        <ele>1139.8339</ele>
        <time>2014-08-29T08:37:59Z</time>
      </trkpt>
      <trkpt lat="46.28325" lon="6.80539">
        <ele>1139.8339</ele>
        <time>2014-08-29T08:38:04Z</time>
      </trkpt>
      <trkpt lat="46.28324" lon="6.80536">
        <ele>1139.8339</ele>
        <time>2014-08-29T08:38:09Z</time>
      </trkpt>
      <trkpt lat="46.28317" lon="6.80521">
        <ele>1142.041</ele>
        <time>2014-08-29T08:38:14Z</time>
      </trkpt>
      <trkpt lat="46.28314" lon="6.80505">
        <ele>1143.9856</ele>
        <time>2014-08-29T08:38:19Z</time>
      </trkpt>
      <trkpt lat="46.28313" lon="6.80496">
        <ele>1143.9856</ele>
        <time>2014-08-29T08:38:24Z</time>
      </trkpt>
      <trkpt lat="46.28313" lon="6.80492">
        <ele>1145.7318</ele>
        <time>2014-08-29T08:38:29Z</time>
      </trkpt>
      <trkpt lat="46.28312" lon="6.80486">
        <ele>1145.7318</ele>
        <time>2014-08-29T08:38:34Z</time>
      </trkpt>
      <trkpt lat="46.28311" lon="6.80487">
        <ele>1145.7318</ele>
        <time>2014-08-29T08:38:39Z</time>
      </trkpt>
      <trkpt lat="46.2831" lon="6.80485">
        <ele>1145.7318</ele>
        <time>2014-08-29T08:38:44Z</time>
      </trkpt>
      <trkpt lat="46.28309" lon="6.80482">
        <ele>1145.7318</ele>
        <time>2014-08-29T08:38:49Z</time>
      </trkpt>
      <trkpt lat="46.28309" lon="6.80482">
        <ele>1145.7318</ele>
        <time>2014-08-29T08:38:54Z</time>
      </trkpt>
      <trkpt lat="46.28308" lon="6.80481">
        <ele>1147.239</ele>
        <time>2014-08-29T08:38:59Z</time>
      </trkpt>
      <trkpt lat="46.28307" lon="6.8048">
        <ele>1147.239</ele>
        <time>2014-08-29T08:39:04Z</time>
      </trkpt>
      <trkpt lat="46.28307" lon="6.8048">
        <ele>1147.239</ele>
        <time>2014-08-29T08:39:09Z</time>
      </trkpt>
      <trkpt lat="46.28304" lon="6.80481">
        <ele>1147.239</ele>
        <time>2014-08-29T08:39:24Z</time>
      </trkpt>
      <trkpt lat="46.28298" lon="6.80479">
        <ele>1148.672</ele>
        <time>2014-08-29T08:39:29Z</time>
      </trkpt>
      <trkpt lat="46.28298" lon="6.80479">
        <ele>1148.672</ele>
        <time>2014-08-29T08:39:34Z</time>
      </trkpt>
      <trkpt lat="46.28298" lon="6.80479">
        <ele>1148.672</ele>
        <time>2014-08-29T08:39:39Z</time>
      </trkpt>
      <trkpt lat="46.28295" lon="6.80478">
        <ele>1148.672</ele>
        <time>2014-08-29T08:39:44Z</time>
      </trkpt>
      <trkpt lat="46.28295" lon="6.80478">
        <ele>1148.672</ele>
        <time>2014-08-29T08:39:49Z</time>
      </trkpt>
      <trkpt lat="46.28293" lon="6.80477">
        <ele>1148.672</ele>
        <time>2014-08-29T08:40:04Z</time>
      </trkpt>
      <trkpt lat="46.28293" lon="6.80477">
        <ele>1148.672</ele>
        <time>2014-08-29T08:40:09Z</time>
      </trkpt>
      <trkpt lat="46.28293" lon="6.80477">
        <ele>1148.672</ele>
        <time>2014-08-29T08:40:19Z</time>
      </trkpt>
      <trkpt lat="46.28293" lon="6.80477">
        <ele>1148.672</ele>
        <time>2014-08-29T08:40:24Z</time>
      </trkpt>
      <trkpt lat="46.28293" lon="6.80474">
        <ele>1148.672</ele>
        <time>2014-08-29T08:40:44Z</time>
      </trkpt>
      <trkpt lat="46.28293" lon="6.80471">
        <ele>1150.3276</ele>
        <time>2014-08-29T08:40:49Z</time>
      </trkpt>
      <trkpt lat="46.28293" lon="6.80468">
        <ele>1150.3276</ele>
        <time>2014-08-29T08:40:54Z</time>
      </trkpt>
      <trkpt lat="46.28293" lon="6.80465">
        <ele>1150.3276</ele>
        <time>2014-08-29T08:40:59Z</time>
      </trkpt>
      <trkpt lat="46.28294" lon="6.80462">
        <ele>1150.3276</ele>
        <time>2014-08-29T08:41:04Z</time>
      </trkpt>
      <trkpt lat="46.28294" lon="6.80462">
        <ele>1150.3276</ele>
        <time>2014-08-29T08:41:09Z</time>
      </trkpt>
      <trkpt lat="46.28286" lon="6.80434">
        <ele>1152.4231</ele>
        <time>2014-08-29T08:41:14Z</time>
      </trkpt>
      <trkpt lat="46.28286" lon="6.80434">
        <ele>1152.4231</ele>
        <time>2014-08-29T08:41:19Z</time>
      </trkpt>
      <trkpt lat="46.28285" lon="6.80431">
        <ele>1152.4231</ele>
        <time>2014-08-29T08:41:29Z</time>
      </trkpt>
      <trkpt lat="46.28273" lon="6.80416">
        <ele>1154.8987</ele>
        <time>2014-08-29T08:41:34Z</time>
      </trkpt>
      <trkpt lat="46.2827" lon="6.80413">
        <ele>1154.8987</ele>
        <time>2014-08-29T08:41:39Z</time>
      </trkpt>
      <trkpt lat="46.2827" lon="6.80411">
        <ele>1154.8987</ele>
        <time>2014-08-29T08:41:44Z</time>
      </trkpt>
      <trkpt lat="46.28267" lon="6.80397">
        <ele>1157.525</ele>
        <time>2014-08-29T08:41:49Z</time>
      </trkpt>
      <trkpt lat="46.28267" lon="6.80386">
        <ele>1157.525</ele>
        <time>2014-08-29T08:41:54Z</time>
      </trkpt>
      <trkpt lat="46.28264" lon="6.80383">
        <ele>1159.859</ele>
        <time>2014-08-29T08:41:59Z</time>
      </trkpt>
      <trkpt lat="46.28261" lon="6.80378">
        <ele>1159.859</ele>
        <time>2014-08-29T08:42:04Z</time>
      </trkpt>
      <trkpt lat="46.28259" lon="6.80373">
        <ele>1159.859</ele>
        <time>2014-08-29T08:42:09Z</time>
      </trkpt>
      <trkpt lat="46.28257" lon="6.80367">
        <ele>1161.793</ele>
        <time>2014-08-29T08:42:14Z</time>
      </trkpt>
      <trkpt lat="46.28254" lon="6.80365">
        <ele>1161.793</ele>
        <time>2014-08-29T08:42:19Z</time>
      </trkpt>
      <trkpt lat="46.28252" lon="6.80361">
        <ele>1161.793</ele>
        <time>2014-08-29T08:42:24Z</time>
      </trkpt>
      <trkpt lat="46.28251" lon="6.8036">
        <ele>1161.793</ele>
        <time>2014-08-29T08:42:29Z</time>
      </trkpt>
      <trkpt lat="46.28252" lon="6.8036">
        <ele>1161.793</ele>
        <time>2014-08-29T08:42:34Z</time>
      </trkpt>
      <trkpt lat="46.28253" lon="6.8036">
        <ele>1163.3441</ele>
        <time>2014-08-29T08:42:39Z</time>
      </trkpt>
      <trkpt lat="46.28252" lon="6.8036">
        <ele>1163.3441</ele>
        <time>2014-08-29T08:42:44Z</time>
      </trkpt>
      <trkpt lat="46.28251" lon="6.80359">
        <ele>1163.3441</ele>
        <time>2014-08-29T08:42:49Z</time>
      </trkpt>
      <trkpt lat="46.28251" lon="6.80357">
        <ele>1163.3441</ele>
        <time>2014-08-29T08:42:54Z</time>
      </trkpt>
      <trkpt lat="46.28248" lon="6.80356">
        <ele>1163.3441</ele>
        <time>2014-08-29T08:42:59Z</time>
      </trkpt>
      <trkpt lat="46.28248" lon="6.80356">
        <ele>1163.3441</ele>
        <time>2014-08-29T08:43:04Z</time>
      </trkpt>
      <trkpt lat="46.28244" lon="6.80352">
        <ele>1165.3649</ele>
        <time>2014-08-29T08:43:24Z</time>
      </trkpt>
      <trkpt lat="46.2824" lon="6.80347">
        <ele>1165.3649</ele>
        <time>2014-08-29T08:43:29Z</time>
      </trkpt>
      <trkpt lat="46.28236" lon="6.80343">
        <ele>1167.0874</ele>
        <time>2014-08-29T08:43:34Z</time>
      </trkpt>
      <trkpt lat="46.28237" lon="6.8034">
        <ele>1167.0874</ele>
        <time>2014-08-29T08:43:39Z</time>
      </trkpt>
      <trkpt lat="46.28234" lon="6.80337">
        <ele>1167.0874</ele>
        <time>2014-08-29T08:43:44Z</time>
      </trkpt>
      <trkpt lat="46.28234" lon="6.80337">
        <ele>1167.0874</ele>
        <time>2014-08-29T08:43:49Z</time>
      </trkpt>
      <trkpt lat="46.28233" lon="6.80337">
        <ele>1167.0874</ele>
        <time>2014-08-29T08:43:54Z</time>
      </trkpt>
      <trkpt lat="46.2823" lon="6.80335">
        <ele>1169.1127</ele>
        <time>2014-08-29T08:43:59Z</time>
      </trkpt>
      <trkpt lat="46.2823" lon="6.80334">
        <ele>1169.1127</ele>
        <time>2014-08-29T08:44:04Z</time>
      </trkpt>
      <trkpt lat="46.28228" lon="6.80334">
        <ele>1169.1127</ele>
        <time>2014-08-29T08:44:09Z</time>
      </trkpt>
      <trkpt lat="46.28228" lon="6.80334">
        <ele>1169.1127</ele>
        <time>2014-08-29T08:44:14Z</time>
      </trkpt>
      <trkpt lat="46.28228" lon="6.80334">
        <ele>1169.1127</ele>
        <time>2014-08-29T08:44:19Z</time>
      </trkpt>
      <trkpt lat="46.28223" lon="6.80334">
        <ele>1169.1127</ele>
        <time>2014-08-29T08:44:29Z</time>
      </trkpt>
      <trkpt lat="46.28222" lon="6.80334">
        <ele>1169.1127</ele>
        <time>2014-08-29T08:44:34Z</time>
      </trkpt>
      <trkpt lat="46.28222" lon="6.80333">
        <ele>1171.4634</ele>
        <time>2014-08-29T08:44:49Z</time>
      </trkpt>
      <trkpt lat="46.28222" lon="6.80333">
        <ele>1171.4634</ele>
        <time>2014-08-29T08:44:54Z</time>
      </trkpt>
      <trkpt lat="46.28217" lon="6.8033">
        <ele>1171.4634</ele>
        <time>2014-08-29T08:45:04Z</time>
      </trkpt>
      <trkpt lat="46.28217" lon="6.8033">
        <ele>1171.4634</ele>
        <time>2014-08-29T08:45:09Z</time>
      </trkpt>
      <trkpt lat="46.28216" lon="6.80329">
        <ele>1171.4634</ele>
        <time>2014-08-29T08:45:24Z</time>
      </trkpt>
      <trkpt lat="46.28212" lon="6.80324">
        <ele>1173.9432</ele>
        <time>2014-08-29T08:45:29Z</time>
      </trkpt>
      <trkpt lat="46.2821" lon="6.80323">
        <ele>1173.9432</ele>
        <time>2014-08-29T08:45:34Z</time>
      </trkpt>
      <trkpt lat="46.2821" lon="6.80323">
        <ele>1173.9432</ele>
        <time>2014-08-29T08:45:39Z</time>
      </trkpt>
      <trkpt lat="46.2821" lon="6.80322">
        <ele>1173.9432</ele>
        <time>2014-08-29T08:46:19Z</time>
      </trkpt>
      <trkpt lat="46.2821" lon="6.80322">
        <ele>1173.9432</ele>
        <time>2014-08-29T08:46:24Z</time>
      </trkpt>
      <trkpt lat="46.28209" lon="6.80321">
        <ele>1173.9432</ele>
        <time>2014-08-29T08:46:39Z</time>
      </trkpt>
      <trkpt lat="46.28205" lon="6.80318">
        <ele>1173.9432</ele>
        <time>2014-08-29T08:46:44Z</time>
      </trkpt>
      <trkpt lat="46.28205" lon="6.80318">
        <ele>1173.9432</ele>
        <time>2014-08-29T08:46:49Z</time>
      </trkpt>
      <trkpt lat="46.282" lon="6.80316">
        <ele>1178.0131</ele>
        <time>2014-08-29T08:47:24Z</time>
      </trkpt>
      <trkpt lat="46.28199" lon="6.80315">
        <ele>1178.0131</ele>
        <time>2014-08-29T08:47:29Z</time>
      </trkpt>
      <trkpt lat="46.28199" lon="6.80314">
        <ele>1178.0131</ele>
        <time>2014-08-29T08:47:34Z</time>
      </trkpt>
      <trkpt lat="46.28199" lon="6.80314">
        <ele>1178.0131</ele>
        <time>2014-08-29T08:47:39Z</time>
      </trkpt>
      <trkpt lat="46.28198" lon="6.80312">
        <ele>1178.0131</ele>
        <time>2014-08-29T08:47:49Z</time>
      </trkpt>
      <trkpt lat="46.28195" lon="6.80308">
        <ele>1178.0131</ele>
        <time>2014-08-29T08:47:54Z</time>
      </trkpt>
      <trkpt lat="46.28195" lon="6.80308">
        <ele>1178.0131</ele>
        <time>2014-08-29T08:47:59Z</time>
      </trkpt>
      <trkpt lat="46.28195" lon="6.80307">
        <ele>1178.0131</ele>
        <time>2014-08-29T08:48:04Z</time>
      </trkpt>
      <trkpt lat="46.28195" lon="6.80307">
        <ele>1178.0131</ele>
        <time>2014-08-29T08:48:09Z</time>
      </trkpt>
      <trkpt lat="46.28193" lon="6.80304">
        <ele>1181.9233</ele>
        <time>2014-08-29T08:48:19Z</time>
      </trkpt>
      <trkpt lat="46.28193" lon="6.80304">
        <ele>1181.9233</ele>
        <time>2014-08-29T08:48:24Z</time>
      </trkpt>
      <trkpt lat="46.2819" lon="6.80301">
        <ele>1181.9233</ele>
        <time>2014-08-29T08:48:34Z</time>
      </trkpt>
      <trkpt lat="46.2819" lon="6.80301">
        <ele>1181.9233</ele>
        <time>2014-08-29T08:48:39Z</time>
      </trkpt>
      <trkpt lat="46.28187" lon="6.80295">
        <ele>1181.9233</ele>
        <time>2014-08-29T08:48:44Z</time>
      </trkpt>
      <trkpt lat="46.28187" lon="6.80289">
        <ele>1186.2875</ele>
        <time>2014-08-29T08:48:49Z</time>
      </trkpt>
      <trkpt lat="46.28187" lon="6.80289">
        <ele>1186.2875</ele>
        <time>2014-08-29T08:48:54Z</time>
      </trkpt>
      <trkpt lat="46.28185" lon="6.80282">
        <ele>1186.2875</ele>
        <time>2014-08-29T08:48:59Z</time>
      </trkpt>
      <trkpt lat="46.28182" lon="6.8028">
        <ele>1186.2875</ele>
        <time>2014-08-29T08:49:04Z</time>
      </trkpt>
      <trkpt lat="46.28181" lon="6.80279">
        <ele>1190.7499</ele>
        <time>2014-08-29T08:49:09Z</time>
      </trkpt>
      <trkpt lat="46.28179" lon="6.80278">
        <ele>1190.7499</ele>
        <time>2014-08-29T08:49:14Z</time>
      </trkpt>
      <trkpt lat="46.28162" lon="6.80263">
        <ele>1195.154</ele>
        <time>2014-08-29T08:49:19Z</time>
      </trkpt>
      <trkpt lat="46.28162" lon="6.80263">
        <ele>1195.154</ele>
        <time>2014-08-29T08:49:24Z</time>
      </trkpt>
      <trkpt lat="46.2816" lon="6.80262">
        <ele>1195.154</ele>
        <time>2014-08-29T08:49:44Z</time>
      </trkpt>
      <trkpt lat="46.28159" lon="6.80261">
        <ele>1195.154</ele>
        <time>2014-08-29T08:49:49Z</time>
      </trkpt>
      <trkpt lat="46.28159" lon="6.80261">
        <ele>1195.154</ele>
        <time>2014-08-29T08:49:54Z</time>
      </trkpt>
      <trkpt lat="46.28159" lon="6.8026">
        <ele>1195.154</ele>
        <time>2014-08-29T08:50:04Z</time>
      </trkpt>
      <trkpt lat="46.28159" lon="6.8026">
        <ele>1195.154</ele>
        <time>2014-08-29T08:50:09Z</time>
      </trkpt>
      <trkpt lat="46.28157" lon="6.80259">
        <ele>1195.154</ele>
        <time>2014-08-29T08:50:29Z</time>
      </trkpt>
      <trkpt lat="46.28157" lon="6.80259">
        <ele>1195.154</ele>
        <time>2014-08-29T08:50:34Z</time>
      </trkpt>
      <trkpt lat="46.28155" lon="6.80258">
        <ele>1195.154</ele>
        <time>2014-08-29T08:50:54Z</time>
      </trkpt>
      <trkpt lat="46.28155" lon="6.80258">
        <ele>1195.154</ele>
        <time>2014-08-29T08:50:59Z</time>
      </trkpt>
      <trkpt lat="46.28155" lon="6.80257">
        <ele>1195.154</ele>
        <time>2014-08-29T08:51:04Z</time>
      </trkpt>
      <trkpt lat="46.28153" lon="6.80258">
        <ele>1199.7587</ele>
        <time>2014-08-29T08:51:09Z</time>
      </trkpt>
      <trkpt lat="46.28149" lon="6.80258">
        <ele>1199.7587</ele>
        <time>2014-08-29T08:51:14Z</time>
      </trkpt>
      <trkpt lat="46.28149" lon="6.80257">
        <ele>1199.7587</ele>
        <time>2014-08-29T08:51:19Z</time>
      </trkpt>
      <trkpt lat="46.28145" lon="6.80257">
        <ele>1199.7587</ele>
        <time>2014-08-29T08:51:24Z</time>
      </trkpt>
      <trkpt lat="46.28145" lon="6.80257">
        <ele>1199.7587</ele>
        <time>2014-08-29T08:51:29Z</time>
      </trkpt>
      <trkpt lat="46.2814" lon="6.80258">
        <ele>1204.4712</ele>
        <time>2014-08-29T08:51:34Z</time>
      </trkpt>
      <trkpt lat="46.28137" lon="6.80261">
        <ele>1204.4712</ele>
        <time>2014-08-29T08:51:39Z</time>
      </trkpt>
      <trkpt lat="46.28133" lon="6.80265">
        <ele>1209.0618</ele>
        <time>2014-08-29T08:51:44Z</time>
      </trkpt>
      <trkpt lat="46.28126" lon="6.80268">
        <ele>1209.0618</ele>
        <time>2014-08-29T08:51:49Z</time>
      </trkpt>
      <trkpt lat="46.28121" lon="6.80268">
        <ele>1213.4474</ele>
        <time>2014-08-29T08:51:54Z</time>
      </trkpt>
      <trkpt lat="46.28114" lon="6.80266">
        <ele>1213.4474</ele>
        <time>2014-08-29T08:51:59Z</time>
      </trkpt>
      <trkpt lat="46.28112" lon="6.80267">
        <ele>1213.4474</ele>
        <time>2014-08-29T08:52:04Z</time>
      </trkpt>
      <trkpt lat="46.28111" lon="6.80267">
        <ele>1217.6959</ele>
        <time>2014-08-29T08:52:09Z</time>
      </trkpt>
      <trkpt lat="46.28111" lon="6.80267">
        <ele>1217.6959</ele>
        <time>2014-08-29T08:52:14Z</time>
      </trkpt>
      <trkpt lat="46.28109" lon="6.80268">
        <ele>1217.6959</ele>
        <time>2014-08-29T08:52:29Z</time>
      </trkpt>
      <trkpt lat="46.28109" lon="6.80268">
        <ele>1217.6959</ele>
        <time>2014-08-29T08:52:34Z</time>
      </trkpt>
      <trkpt lat="46.28108" lon="6.80268">
        <ele>1217.6959</ele>
        <time>2014-08-29T08:53:04Z</time>
      </trkpt>
      <trkpt lat="46.28108" lon="6.80268">
        <ele>1217.6959</ele>
        <time>2014-08-29T08:53:09Z</time>
      </trkpt>
      <trkpt lat="46.28105" lon="6.80269">
        <ele>1217.6959</ele>
        <time>2014-08-29T08:54:19Z</time>
      </trkpt>
      <trkpt lat="46.28101" lon="6.80274">
        <ele>1221.6548</ele>
        <time>2014-08-29T08:54:24Z</time>
      </trkpt>
      <trkpt lat="46.28101" lon="6.80278">
        <ele>1221.6548</ele>
        <time>2014-08-29T08:54:29Z</time>
      </trkpt>
      <trkpt lat="46.28099" lon="6.80284">
        <ele>1221.6548</ele>
        <time>2014-08-29T08:54:34Z</time>
      </trkpt>
      <trkpt lat="46.28098" lon="6.80292">
        <ele>1225.2551</ele>
        <time>2014-08-29T08:54:39Z</time>
      </trkpt>
      <trkpt lat="46.28096" lon="6.80301">
        <ele>1225.2551</ele>
        <time>2014-08-29T08:54:44Z</time>
      </trkpt>
      <trkpt lat="46.28096" lon="6.80311">
        <ele>1228.6365</ele>
        <time>2014-08-29T08:54:49Z</time>
      </trkpt>
      <trkpt lat="46.28095" lon="6.8032">
        <ele>1228.6365</ele>
        <time>2014-08-29T08:54:54Z</time>
      </trkpt>
      <trkpt lat="46.28094" lon="6.80329">
        <ele>1231.77</ele>
        <time>2014-08-29T08:54:59Z</time>
      </trkpt>
      <trkpt lat="46.2809" lon="6.80335">
        <ele>1231.77</ele>
        <time>2014-08-29T08:55:04Z</time>
      </trkpt>
      <trkpt lat="46.28088" lon="6.80344">
        <ele>1234.6587</ele>
        <time>2014-08-29T08:55:09Z</time>
      </trkpt>
      <trkpt lat="46.28085" lon="6.80353">
        <ele>1234.6587</ele>
        <time>2014-08-29T08:55:14Z</time>
      </trkpt>
      <trkpt lat="46.28078" lon="6.80362">
        <ele>1237.3492</ele>
        <time>2014-08-29T08:55:19Z</time>
      </trkpt>
      <trkpt lat="46.28076" lon="6.80366">
        <ele>1237.3492</ele>
        <time>2014-08-29T08:55:24Z</time>
      </trkpt>
      <trkpt lat="46.28072" lon="6.80368">
        <ele>1237.3492</ele>
        <time>2014-08-29T08:55:29Z</time>
      </trkpt>
      <trkpt lat="46.28069" lon="6.8037">
        <ele>1239.7561</ele>
        <time>2014-08-29T08:55:34Z</time>
      </trkpt>
      <trkpt lat="46.28066" lon="6.80374">
        <ele>1239.7561</ele>
        <time>2014-08-29T08:55:39Z</time>
      </trkpt>
      <trkpt lat="46.28064" lon="6.80377">
        <ele>1239.7561</ele>
        <time>2014-08-29T08:55:44Z</time>
      </trkpt>
      <trkpt lat="46.2806" lon="6.8038">
        <ele>1241.6276</ele>
        <time>2014-08-29T08:55:49Z</time>
      </trkpt>
      <trkpt lat="46.28058" lon="6.80382">
        <ele>1241.6276</ele>
        <time>2014-08-29T08:55:54Z</time>
      </trkpt>
      <trkpt lat="46.28056" lon="6.80383">
        <ele>1241.6276</ele>
        <time>2014-08-29T08:55:59Z</time>
      </trkpt>
      <trkpt lat="46.28055" lon="6.80383">
        <ele>1241.6276</ele>
        <time>2014-08-29T08:56:04Z</time>
      </trkpt>
      <trkpt lat="46.28056" lon="6.80392">
        <ele>1242.9197</ele>
        <time>2014-08-29T08:56:09Z</time>
      </trkpt>
      <trkpt lat="46.28055" lon="6.80402">
        <ele>1242.9197</ele>
        <time>2014-08-29T08:56:14Z</time>
      </trkpt>
      <trkpt lat="46.28052" lon="6.80407">
        <ele>1243.795</ele>
        <time>2014-08-29T08:56:19Z</time>
      </trkpt>
      <trkpt lat="46.28049" lon="6.80409">
        <ele>1243.795</ele>
        <time>2014-08-29T08:56:24Z</time>
      </trkpt>
      <trkpt lat="46.28045" lon="6.80412">
        <ele>1243.795</ele>
        <time>2014-08-29T08:56:29Z</time>
      </trkpt>
      <trkpt lat="46.28042" lon="6.80418">
        <ele>1244.2755</ele>
        <time>2014-08-29T08:56:34Z</time>
      </trkpt>
      <trkpt lat="46.2804" lon="6.80421">
        <ele>1244.2755</ele>
        <time>2014-08-29T08:56:39Z</time>
      </trkpt>
      <trkpt lat="46.2804" lon="6.80422">
        <ele>1244.2755</ele>
        <time>2014-08-29T08:56:44Z</time>
      </trkpt>
      <trkpt lat="46.2804" lon="6.80426">
        <ele>1244.2755</ele>
        <time>2014-08-29T08:56:49Z</time>
      </trkpt>
      <trkpt lat="46.28039" lon="6.80427">
        <ele>1244.2755</ele>
        <time>2014-08-29T08:56:54Z</time>
      </trkpt>
      <trkpt lat="46.28037" lon="6.80431">
        <ele>1244.2677</ele>
        <time>2014-08-29T08:56:59Z</time>
      </trkpt>
      <trkpt lat="46.28035" lon="6.80432">
        <ele>1244.2677</ele>
        <time>2014-08-29T08:57:04Z</time>
      </trkpt>
      <trkpt lat="46.28035" lon="6.80433">
        <ele>1244.2677</ele>
        <time>2014-08-29T08:57:09Z</time>
      </trkpt>
      <trkpt lat="46.28035" lon="6.80433">
        <ele>1244.2677</ele>
        <time>2014-08-29T08:57:14Z</time>
      </trkpt>
      <trkpt lat="46.2803" lon="6.80443">
        <ele>1244.0463</ele>
        <time>2014-08-29T08:57:19Z</time>
      </trkpt>
      <trkpt lat="46.28028" lon="6.80447">
        <ele>1244.0463</ele>
        <time>2014-08-29T08:57:24Z</time>
      </trkpt>
      <trkpt lat="46.28028" lon="6.80447">
        <ele>1244.0463</ele>
        <time>2014-08-29T08:57:29Z</time>
      </trkpt>
      <trkpt lat="46.28028" lon="6.80447">
        <ele>1244.0463</ele>
        <time>2014-08-29T08:57:34Z</time>
      </trkpt>
      <trkpt lat="46.28026" lon="6.80446">
        <ele>1244.0463</ele>
        <time>2014-08-29T08:57:39Z</time>
      </trkpt>
      <trkpt lat="46.28026" lon="6.80446">
        <ele>1244.0463</ele>
        <time>2014-08-29T08:57:44Z</time>
      </trkpt>
      <trkpt lat="46.28026" lon="6.80445">
        <ele>1244.0463</ele>
        <time>2014-08-29T08:57:54Z</time>
      </trkpt>
      <trkpt lat="46.28026" lon="6.80445">
        <ele>1244.0463</ele>
        <time>2014-08-29T08:57:59Z</time>
      </trkpt>
      <trkpt lat="46.28022" lon="6.80445">
        <ele>1244.2123</ele>
        <time>2014-08-29T08:58:04Z</time>
      </trkpt>
      <trkpt lat="46.28017" lon="6.80439">
        <ele>1244.2123</ele>
        <time>2014-08-29T08:58:09Z</time>
      </trkpt>
      <trkpt lat="46.28013" lon="6.80437">
        <ele>1244.284</ele>
        <time>2014-08-29T08:58:14Z</time>
      </trkpt>
      <trkpt lat="46.28012" lon="6.80437">
        <ele>1244.284</ele>
        <time>2014-08-29T08:58:19Z</time>
      </trkpt>
      <trkpt lat="46.2801" lon="6.80436">
        <ele>1244.284</ele>
        <time>2014-08-29T08:58:24Z</time>
      </trkpt>
      <trkpt lat="46.28009" lon="6.80434">
        <ele>1244.284</ele>
        <time>2014-08-29T08:58:29Z</time>
      </trkpt>
      <trkpt lat="46.28006" lon="6.80434">
        <ele>1244.284</ele>
        <time>2014-08-29T08:58:34Z</time>
      </trkpt>
      <trkpt lat="46.28006" lon="6.80434">
        <ele>1244.284</ele>
        <time>2014-08-29T08:58:39Z</time>
      </trkpt>
      <trkpt lat="46.28004" lon="6.80433">
        <ele>1244.9395</ele>
        <time>2014-08-29T08:58:49Z</time>
      </trkpt>
      <trkpt lat="46.28004" lon="6.80433">
        <ele>1244.9395</ele>
        <time>2014-08-29T08:58:54Z</time>
      </trkpt>
      <trkpt lat="46.28002" lon="6.80434">
        <ele>1244.9395</ele>
        <time>2014-08-29T08:59:04Z</time>
      </trkpt>
      <trkpt lat="46.28001" lon="6.80434">
        <ele>1244.9395</ele>
        <time>2014-08-29T08:59:09Z</time>
      </trkpt>
      <trkpt lat="46.27996" lon="6.80433">
        <ele>1244.9395</ele>
        <time>2014-08-29T08:59:14Z</time>
      </trkpt>
      <trkpt lat="46.27993" lon="6.80435">
        <ele>1245.5652</ele>
        <time>2014-08-29T08:59:19Z</time>
      </trkpt>
      <trkpt lat="46.27992" lon="6.80435">
        <ele>1245.5652</ele>
        <time>2014-08-29T08:59:24Z</time>
      </trkpt>
      <trkpt lat="46.27991" lon="6.80436">
        <ele>1245.5652</ele>
        <time>2014-08-29T08:59:29Z</time>
      </trkpt>
      <trkpt lat="46.27991" lon="6.80436">
        <ele>1245.5652</ele>
        <time>2014-08-29T08:59:34Z</time>
      </trkpt>
      <trkpt lat="46.27991" lon="6.80435">
        <ele>1245.5652</ele>
        <time>2014-08-29T08:59:39Z</time>
      </trkpt>
      <trkpt lat="46.27984" lon="6.80433">
        <ele>1246.3428</ele>
        <time>2014-08-29T08:59:44Z</time>
      </trkpt>
      <trkpt lat="46.2798" lon="6.80435">
        <ele>1246.3428</ele>
        <time>2014-08-29T08:59:49Z</time>
      </trkpt>
      <trkpt lat="46.27978" lon="6.80435">
        <ele>1246.3428</ele>
        <time>2014-08-29T08:59:54Z</time>
      </trkpt>
      <trkpt lat="46.27977" lon="6.80437">
        <ele>1246.3428</ele>
        <time>2014-08-29T08:59:59Z</time>
      </trkpt>
      <trkpt lat="46.27976" lon="6.80437">
        <ele>1246.3428</ele>
        <time>2014-08-29T09:00:04Z</time>
      </trkpt>
      <trkpt lat="46.27976" lon="6.80437">
        <ele>1246.3428</ele>
        <time>2014-08-29T09:00:09Z</time>
      </trkpt>
      <trkpt lat="46.27971" lon="6.80438">
        <ele>1247.3099</ele>
        <time>2014-08-29T09:00:14Z</time>
      </trkpt>
      <trkpt lat="46.2797" lon="6.80439">
        <ele>1247.3099</ele>
        <time>2014-08-29T09:00:19Z</time>
      </trkpt>
      <trkpt lat="46.27969" lon="6.8044">
        <ele>1247.3099</ele>
        <time>2014-08-29T09:00:24Z</time>
      </trkpt>
      <trkpt lat="46.27968" lon="6.80441">
        <ele>1247.3099</ele>
        <time>2014-08-29T09:00:29Z</time>
      </trkpt>
      <trkpt lat="46.27964" lon="6.80442">
        <ele>1247.3099</ele>
        <time>2014-08-29T09:00:34Z</time>
      </trkpt>
      <trkpt lat="46.27958" lon="6.80443">
        <ele>1249.1207</ele>
        <time>2014-08-29T09:00:39Z</time>
      </trkpt>
      <trkpt lat="46.27955" lon="6.80444">
        <ele>1249.1207</ele>
        <time>2014-08-29T09:00:44Z</time>
      </trkpt>
      <trkpt lat="46.27952" lon="6.80448">
        <ele>1249.1207</ele>
        <time>2014-08-29T09:00:49Z</time>
      </trkpt>
      <trkpt lat="46.27952" lon="6.80448">
        <ele>1249.1207</ele>
        <time>2014-08-29T09:00:54Z</time>
      </trkpt>
      <trkpt lat="46.2795" lon="6.80449">
        <ele>1251.2979</ele>
        <time>2014-08-29T09:01:19Z</time>
      </trkpt>
      <trkpt lat="46.27949" lon="6.80449">
        <ele>1251.2979</ele>
        <time>2014-08-29T09:01:24Z</time>
      </trkpt>
      <trkpt lat="46.27949" lon="6.80449">
        <ele>1251.2979</ele>
        <time>2014-08-29T09:01:29Z</time>
      </trkpt>
      <trkpt lat="46.27948" lon="6.8045">
        <ele>1251.2979</ele>
        <time>2014-08-29T09:01:34Z</time>
      </trkpt>
      <trkpt lat="46.27948" lon="6.80448">
        <ele>1251.2979</ele>
        <time>2014-08-29T09:01:39Z</time>
      </trkpt>
      <trkpt lat="46.27946" lon="6.80447">
        <ele>1251.2979</ele>
        <time>2014-08-29T09:01:44Z</time>
      </trkpt>
      <trkpt lat="46.27944" lon="6.80446">
        <ele>1251.2979</ele>
        <time>2014-08-29T09:01:49Z</time>
      </trkpt>
      <trkpt lat="46.27943" lon="6.80443">
        <ele>1254.2769</ele>
        <time>2014-08-29T09:01:54Z</time>
      </trkpt>
      <trkpt lat="46.27943" lon="6.80443">
        <ele>1254.2769</ele>
        <time>2014-08-29T09:01:59Z</time>
      </trkpt>
      <trkpt lat="46.27943" lon="6.80442">
        <ele>1254.2769</ele>
        <time>2014-08-29T09:02:04Z</time>
      </trkpt>
      <trkpt lat="46.27945" lon="6.8044">
        <ele>1254.2769</ele>
        <time>2014-08-29T09:02:09Z</time>
      </trkpt>
      <trkpt lat="46.27945" lon="6.8044">
        <ele>1254.2769</ele>
        <time>2014-08-29T09:02:14Z</time>
      </trkpt>
      <trkpt lat="46.27945" lon="6.8044">
        <ele>1254.2769</ele>
        <time>2014-08-29T09:02:19Z</time>
      </trkpt>
      <trkpt lat="46.27945" lon="6.8044">
        <ele>1254.2769</ele>
        <time>2014-08-29T09:02:24Z</time>
      </trkpt>
      <trkpt lat="46.27944" lon="6.8044">
        <ele>1254.2769</ele>
        <time>2014-08-29T09:02:29Z</time>
      </trkpt>
      <trkpt lat="46.27944" lon="6.8044">
        <ele>1254.2769</ele>
        <time>2014-08-29T09:02:34Z</time>
      </trkpt>
      <trkpt lat="46.27943" lon="6.8044">
        <ele>1254.2769</ele>
        <time>2014-08-29T09:02:39Z</time>
      </trkpt>
      <trkpt lat="46.27942" lon="6.80441">
        <ele>1254.2769</ele>
        <time>2014-08-29T09:02:44Z</time>
      </trkpt>
      <trkpt lat="46.27939" lon="6.8044">
        <ele>1257.5944</ele>
        <time>2014-08-29T09:02:54Z</time>
      </trkpt>
      <trkpt lat="46.27936" lon="6.80439">
        <ele>1257.5944</ele>
        <time>2014-08-29T09:02:59Z</time>
      </trkpt>
      <trkpt lat="46.27935" lon="6.8044">
        <ele>1257.5944</ele>
        <time>2014-08-29T09:03:04Z</time>
      </trkpt>
      <trkpt lat="46.27932" lon="6.80441">
        <ele>1257.5944</ele>
        <time>2014-08-29T09:03:09Z</time>
      </trkpt>
      <trkpt lat="46.27932" lon="6.80441">
        <ele>1257.5944</ele>
        <time>2014-08-29T09:03:14Z</time>
      </trkpt>
      <trkpt lat="46.27929" lon="6.8044">
        <ele>1261.1803</ele>
        <time>2014-08-29T09:03:19Z</time>
      </trkpt>
      <trkpt lat="46.27924" lon="6.80441">
        <ele>1261.1803</ele>
        <time>2014-08-29T09:03:24Z</time>
      </trkpt>
      <trkpt lat="46.2792" lon="6.80442">
        <ele>1264.7671</ele>
        <time>2014-08-29T09:03:29Z</time>
      </trkpt>
      <trkpt lat="46.27919" lon="6.80444">
        <ele>1264.7671</ele>
        <time>2014-08-29T09:03:34Z</time>
      </trkpt>
      <trkpt lat="46.27916" lon="6.80444">
        <ele>1264.7671</ele>
        <time>2014-08-29T09:03:39Z</time>
      </trkpt>
      <trkpt lat="46.27914" lon="6.80444">
        <ele>1264.7671</ele>
        <time>2014-08-29T09:03:44Z</time>
      </trkpt>
      <trkpt lat="46.27913" lon="6.80443">
        <ele>1264.7671</ele>
        <time>2014-08-29T09:03:49Z</time>
      </trkpt>
      <trkpt lat="46.27912" lon="6.80442">
        <ele>1268.8416</ele>
        <time>2014-08-29T09:03:54Z</time>
      </trkpt>
      <trkpt lat="46.27907" lon="6.80441">
        <ele>1268.8416</ele>
        <time>2014-08-29T09:03:59Z</time>
      </trkpt>
      <trkpt lat="46.27905" lon="6.80441">
        <ele>1268.8416</ele>
        <time>2014-08-29T09:04:04Z</time>
      </trkpt>
      <trkpt lat="46.27901" lon="6.80443">
        <ele>1272.5853</ele>
        <time>2014-08-29T09:04:09Z</time>
      </trkpt>
      <trkpt lat="46.27901" lon="6.80444">
        <ele>1272.5853</ele>
        <time>2014-08-29T09:04:14Z</time>
      </trkpt>
      <trkpt lat="46.27898" lon="6.80439">
        <ele>1272.5853</ele>
        <time>2014-08-29T09:04:29Z</time>
      </trkpt>
      <trkpt lat="46.27896" lon="6.80432">
        <ele>1275.6733</ele>
        <time>2014-08-29T09:04:34Z</time>
      </trkpt>
      <trkpt lat="46.27896" lon="6.80432">
        <ele>1275.6733</ele>
        <time>2014-08-29T09:04:39Z</time>
      </trkpt>
      <trkpt lat="46.27896" lon="6.80432">
        <ele>1275.6733</ele>
        <time>2014-08-29T09:04:44Z</time>
      </trkpt>
      <trkpt lat="46.27896" lon="6.80432">
        <ele>1275.6733</ele>
        <time>2014-08-29T09:04:49Z</time>
      </trkpt>
      <trkpt lat="46.27896" lon="6.80431">
        <ele>1275.6733</ele>
        <time>2014-08-29T09:04:54Z</time>
      </trkpt>
      <trkpt lat="46.27895" lon="6.80431">
        <ele>1275.6733</ele>
        <time>2014-08-29T09:04:59Z</time>
      </trkpt>
      <trkpt lat="46.27895" lon="6.80431">
        <ele>1275.6733</ele>
        <time>2014-08-29T09:05:04Z</time>
      </trkpt>
      <trkpt lat="46.27895" lon="6.8043">
        <ele>1275.6733</ele>
        <time>2014-08-29T09:05:34Z</time>
      </trkpt>
      <trkpt lat="46.27894" lon="6.80429">
        <ele>1275.6733</ele>
        <time>2014-08-29T09:05:39Z</time>
      </trkpt>
      <trkpt lat="46.27894" lon="6.80429">
        <ele>1275.6733</ele>
        <time>2014-08-29T09:05:44Z</time>
      </trkpt>
      <trkpt lat="46.27893" lon="6.80429">
        <ele>1275.6733</ele>
        <time>2014-08-29T09:05:49Z</time>
      </trkpt>
      <trkpt lat="46.27893" lon="6.80428">
        <ele>1275.6733</ele>
        <time>2014-08-29T09:05:54Z</time>
      </trkpt>
      <trkpt lat="46.27892" lon="6.80428">
        <ele>1275.6733</ele>
        <time>2014-08-29T09:05:59Z</time>
      </trkpt>
      <trkpt lat="46.27892" lon="6.80428">
        <ele>1275.6733</ele>
        <time>2014-08-29T09:06:04Z</time>
      </trkpt>
      <trkpt lat="46.27891" lon="6.80428">
        <ele>1275.6733</ele>
        <time>2014-08-29T09:06:09Z</time>
      </trkpt>
      <trkpt lat="46.2789" lon="6.80425">
        <ele>1279.9967</ele>
        <time>2014-08-29T09:06:14Z</time>
      </trkpt>
      <trkpt lat="46.27889" lon="6.80423">
        <ele>1279.9967</ele>
        <time>2014-08-29T09:06:19Z</time>
      </trkpt>
      <trkpt lat="46.27888" lon="6.80423">
        <ele>1279.9967</ele>
        <time>2014-08-29T09:06:24Z</time>
      </trkpt>
      <trkpt lat="46.27888" lon="6.80423">
        <ele>1279.9967</ele>
        <time>2014-08-29T09:06:29Z</time>
      </trkpt>
      <trkpt lat="46.27887" lon="6.80422">
        <ele>1279.9967</ele>
        <time>2014-08-29T09:06:34Z</time>
      </trkpt>
      <trkpt lat="46.27885" lon="6.80421">
        <ele>1279.9967</ele>
        <time>2014-08-29T09:06:39Z</time>
      </trkpt>
      <trkpt lat="46.27882" lon="6.80418">
        <ele>1284.6667</ele>
        <time>2014-08-29T09:06:44Z</time>
      </trkpt>
      <trkpt lat="46.27882" lon="6.80418">
        <ele>1284.6667</ele>
        <time>2014-08-29T09:06:49Z</time>
      </trkpt>
      <trkpt lat="46.27882" lon="6.80418">
        <ele>1284.6667</ele>
        <time>2014-08-29T09:06:54Z</time>
      </trkpt>
      <trkpt lat="46.27878" lon="6.80417">
        <ele>1284.6667</ele>
        <time>2014-08-29T09:06:59Z</time>
      </trkpt>
      <trkpt lat="46.27876" lon="6.80417">
        <ele>1284.6667</ele>
        <time>2014-08-29T09:07:04Z</time>
      </trkpt>
      <trkpt lat="46.27874" lon="6.80415">
        <ele>1284.6667</ele>
        <time>2014-08-29T09:07:09Z</time>
      </trkpt>
      <trkpt lat="46.27874" lon="6.80413">
        <ele>1289.3638</ele>
        <time>2014-08-29T09:07:14Z</time>
      </trkpt>
      <trkpt lat="46.27873" lon="6.80413">
        <ele>1289.3638</ele>
        <time>2014-08-29T09:07:19Z</time>
      </trkpt>
      <trkpt lat="46.2787" lon="6.80412">
        <ele>1289.3638</ele>
        <time>2014-08-29T09:07:24Z</time>
      </trkpt>
      <trkpt lat="46.2787" lon="6.80412">
        <ele>1289.3638</ele>
        <time>2014-08-29T09:07:29Z</time>
      </trkpt>
      <trkpt lat="46.27863" lon="6.80405">
        <ele>1293.7623</ele>
        <time>2014-08-29T09:07:34Z</time>
      </trkpt>
      <trkpt lat="46.27863" lon="6.80405">
        <ele>1293.7623</ele>
        <time>2014-08-29T09:07:39Z</time>
      </trkpt>
      <trkpt lat="46.2786" lon="6.80403">
        <ele>1293.7623</ele>
        <time>2014-08-29T09:07:44Z</time>
      </trkpt>
      <trkpt lat="46.27858" lon="6.80403">
        <ele>1293.7623</ele>
        <time>2014-08-29T09:07:49Z</time>
      </trkpt>
      <trkpt lat="46.27857" lon="6.80399">
        <ele>1293.7623</ele>
        <time>2014-08-29T09:07:54Z</time>
      </trkpt>
      <trkpt lat="46.27855" lon="6.80398">
        <ele>1298.1385</ele>
        <time>2014-08-29T09:07:59Z</time>
      </trkpt>
      <trkpt lat="46.27848" lon="6.80397">
        <ele>1298.1385</ele>
        <time>2014-08-29T09:08:04Z</time>
      </trkpt>
      <trkpt lat="46.27847" lon="6.80397">
        <ele>1298.1385</ele>
        <time>2014-08-29T09:08:09Z</time>
      </trkpt>
      <trkpt lat="46.27845" lon="6.80398">
        <ele>1302.3301</ele>
        <time>2014-08-29T09:08:14Z</time>
      </trkpt>
      <trkpt lat="46.27845" lon="6.80398">
        <ele>1302.3301</ele>
        <time>2014-08-29T09:08:19Z</time>
      </trkpt>
      <trkpt lat="46.27843" lon="6.804">
        <ele>1302.3301</ele>
        <time>2014-08-29T09:08:29Z</time>
      </trkpt>
      <trkpt lat="46.27843" lon="6.804">
        <ele>1302.3301</ele>
        <time>2014-08-29T09:08:34Z</time>
      </trkpt>
      <trkpt lat="46.27841" lon="6.80403">
        <ele>1302.3301</ele>
        <time>2014-08-29T09:08:59Z</time>
      </trkpt>
      <trkpt lat="46.27839" lon="6.80403">
        <ele>1302.3301</ele>
        <time>2014-08-29T09:09:04Z</time>
      </trkpt>
      <trkpt lat="46.27839" lon="6.80403">
        <ele>1302.3301</ele>
        <time>2014-08-29T09:09:09Z</time>
      </trkpt>
      <trkpt lat="46.27836" lon="6.80401">
        <ele>1306.2161</ele>
        <time>2014-08-29T09:09:29Z</time>
      </trkpt>
      <trkpt lat="46.27836" lon="6.80401">
        <ele>1306.2161</ele>
        <time>2014-08-29T09:09:34Z</time>
      </trkpt>
      <trkpt lat="46.27828" lon="6.80397">
        <ele>1306.2161</ele>
        <time>2014-08-29T09:09:39Z</time>
      </trkpt>
      <trkpt lat="46.27827" lon="6.80398">
        <ele>1309.5416</ele>
        <time>2014-08-29T09:09:44Z</time>
      </trkpt>
      <trkpt lat="46.27827" lon="6.80398">
        <ele>1309.5416</ele>
        <time>2014-08-29T09:09:49Z</time>
      </trkpt>
      <trkpt lat="46.27824" lon="6.80398">
        <ele>1309.5416</ele>
        <time>2014-08-29T09:09:54Z</time>
      </trkpt>
      <trkpt lat="46.27824" lon="6.80398">
        <ele>1309.5416</ele>
        <time>2014-08-29T09:09:59Z</time>
      </trkpt>
      <trkpt lat="46.27823" lon="6.804">
        <ele>1309.5416</ele>
        <time>2014-08-29T09:10:04Z</time>
      </trkpt>
      <trkpt lat="46.27823" lon="6.804">
        <ele>1309.5416</ele>
        <time>2014-08-29T09:10:09Z</time>
      </trkpt>
      <trkpt lat="46.27822" lon="6.80402">
        <ele>1309.5416</ele>
        <time>2014-08-29T09:10:24Z</time>
      </trkpt>
      <trkpt lat="46.2782" lon="6.80406">
        <ele>1312.3888</ele>
        <time>2014-08-29T09:10:29Z</time>
      </trkpt>
      <trkpt lat="46.27817" lon="6.80419">
        <ele>1312.3888</ele>
        <time>2014-08-29T09:10:34Z</time>
      </trkpt>
      <trkpt lat="46.27815" lon="6.80421">
        <ele>1314.619</ele>
        <time>2014-08-29T09:10:39Z</time>
      </trkpt>
      <trkpt lat="46.27815" lon="6.80426">
        <ele>1314.619</ele>
        <time>2014-08-29T09:10:44Z</time>
      </trkpt>
      <trkpt lat="46.27815" lon="6.80426">
        <ele>1314.619</ele>
        <time>2014-08-29T09:10:49Z</time>
      </trkpt>
      <trkpt lat="46.27805" lon="6.80426">
        <ele>1316.5671</ele>
        <time>2014-08-29T09:10:54Z</time>
      </trkpt>
      <trkpt lat="46.27797" lon="6.80425">
        <ele>1316.5671</ele>
        <time>2014-08-29T09:10:59Z</time>
      </trkpt>
      <trkpt lat="46.27797" lon="6.80425">
        <ele>1316.5671</ele>
        <time>2014-08-29T09:11:04Z</time>
      </trkpt>
      <trkpt lat="46.27794" lon="6.80426">
        <ele>1318.3132</ele>
        <time>2014-08-29T09:11:09Z</time>
      </trkpt>
      <trkpt lat="46.27794" lon="6.80426">
        <ele>1318.3132</ele>
        <time>2014-08-29T09:11:14Z</time>
      </trkpt>
      <trkpt lat="46.27792" lon="6.80429">
        <ele>1318.3132</ele>
        <time>2014-08-29T09:11:24Z</time>
      </trkpt>
      <trkpt lat="46.27792" lon="6.80429">
        <ele>1318.3132</ele>
        <time>2014-08-29T09:11:29Z</time>
      </trkpt>
      <trkpt lat="46.27792" lon="6.8043">
        <ele>1318.3132</ele>
        <time>2014-08-29T09:11:34Z</time>
      </trkpt>
      <trkpt lat="46.27792" lon="6.8043">
        <ele>1318.3132</ele>
        <time>2014-08-29T09:11:39Z</time>
      </trkpt>
      <trkpt lat="46.27785" lon="6.80431">
        <ele>1319.8026</ele>
        <time>2014-08-29T09:11:44Z</time>
      </trkpt>
      <trkpt lat="46.27782" lon="6.80432">
        <ele>1319.8026</ele>
        <time>2014-08-29T09:11:49Z</time>
      </trkpt>
      <trkpt lat="46.27781" lon="6.80433">
        <ele>1319.8026</ele>
        <time>2014-08-29T09:11:54Z</time>
      </trkpt>
      <trkpt lat="46.27781" lon="6.80433">
        <ele>1319.8026</ele>
        <time>2014-08-29T09:11:59Z</time>
      </trkpt>
      <trkpt lat="46.2778" lon="6.80433">
        <ele>1319.8026</ele>
        <time>2014-08-29T09:12:09Z</time>
      </trkpt>
      <trkpt lat="46.27779" lon="6.80434">
        <ele>1319.8026</ele>
        <time>2014-08-29T09:12:14Z</time>
      </trkpt>
      <trkpt lat="46.27779" lon="6.80434">
        <ele>1319.8026</ele>
        <time>2014-08-29T09:12:19Z</time>
      </trkpt>
      <trkpt lat="46.27778" lon="6.80434">
        <ele>1319.8026</ele>
        <time>2014-08-29T09:12:24Z</time>
      </trkpt>
      <trkpt lat="46.27778" lon="6.80434">
        <ele>1319.8026</ele>
        <time>2014-08-29T09:12:29Z</time>
      </trkpt>
      <trkpt lat="46.27777" lon="6.80434">
        <ele>1319.8026</ele>
        <time>2014-08-29T09:12:44Z</time>
      </trkpt>
      <trkpt lat="46.27773" lon="6.80426">
        <ele>1321.2305</ele>
        <time>2014-08-29T09:12:49Z</time>
      </trkpt>
      <trkpt lat="46.27771" lon="6.80424">
        <ele>1321.2305</ele>
        <time>2014-08-29T09:12:54Z</time>
      </trkpt>
      <trkpt lat="46.27771" lon="6.80424">
        <ele>1321.2305</ele>
        <time>2014-08-29T09:12:59Z</time>
      </trkpt>
      <trkpt lat="46.2777" lon="6.80424">
        <ele>1321.2305</ele>
        <time>2014-08-29T09:13:39Z</time>
      </trkpt>
      <trkpt lat="46.2776" lon="6.80417">
        <ele>1321.841</ele>
        <time>2014-08-29T09:13:44Z</time>
      </trkpt>
      <trkpt lat="46.27757" lon="6.80418">
        <ele>1321.841</ele>
        <time>2014-08-29T09:13:49Z</time>
      </trkpt>
      <trkpt lat="46.27755" lon="6.80417">
        <ele>1321.841</ele>
        <time>2014-08-29T09:13:54Z</time>
      </trkpt>
      <trkpt lat="46.2775" lon="6.80409">
        <ele>1322.5502</ele>
        <time>2014-08-29T09:13:59Z</time>
      </trkpt>
      <trkpt lat="46.27748" lon="6.80407">
        <ele>1322.5502</ele>
        <time>2014-08-29T09:14:04Z</time>
      </trkpt>
      <trkpt lat="46.27747" lon="6.80406">
        <ele>1322.5502</ele>
        <time>2014-08-29T09:14:09Z</time>
      </trkpt>
      <trkpt lat="46.27747" lon="6.80406">
        <ele>1322.5502</ele>
        <time>2014-08-29T09:14:14Z</time>
      </trkpt>
      <trkpt lat="46.27746" lon="6.80405">
        <ele>1322.5502</ele>
        <time>2014-08-29T09:14:19Z</time>
      </trkpt>
      <trkpt lat="46.27746" lon="6.80405">
        <ele>1322.5502</ele>
        <time>2014-08-29T09:14:24Z</time>
      </trkpt>
      <trkpt lat="46.27744" lon="6.80403">
        <ele>1322.5502</ele>
        <time>2014-08-29T09:14:34Z</time>
      </trkpt>
      <trkpt lat="46.27738" lon="6.80399">
        <ele>1324.2356</ele>
        <time>2014-08-29T09:14:39Z</time>
      </trkpt>
      <trkpt lat="46.27738" lon="6.804">
        <ele>1324.2356</ele>
        <time>2014-08-29T09:14:44Z</time>
      </trkpt>
      <trkpt lat="46.27737" lon="6.804">
        <ele>1324.2356</ele>
        <time>2014-08-29T09:14:49Z</time>
      </trkpt>
      <trkpt lat="46.27736" lon="6.804">
        <ele>1324.2356</ele>
        <time>2014-08-29T09:14:54Z</time>
      </trkpt>
      <trkpt lat="46.27734" lon="6.804">
        <ele>1324.2356</ele>
        <time>2014-08-29T09:14:59Z</time>
      </trkpt>
      <trkpt lat="46.27733" lon="6.80403">
        <ele>1324.2356</ele>
        <time>2014-08-29T09:15:04Z</time>
      </trkpt>
      <trkpt lat="46.27729" lon="6.80402">
        <ele>1327.4044</ele>
        <time>2014-08-29T09:15:09Z</time>
      </trkpt>
      <trkpt lat="46.27728" lon="6.80403">
        <ele>1327.4044</ele>
        <time>2014-08-29T09:15:14Z</time>
      </trkpt>
      <trkpt lat="46.27728" lon="6.80403">
        <ele>1327.4044</ele>
        <time>2014-08-29T09:15:19Z</time>
      </trkpt>
      <trkpt lat="46.27727" lon="6.80405">
        <ele>1327.4044</ele>
        <time>2014-08-29T09:15:24Z</time>
      </trkpt>
      <trkpt lat="46.27724" lon="6.80407">
        <ele>1327.4044</ele>
        <time>2014-08-29T09:15:29Z</time>
      </trkpt>
      <trkpt lat="46.27722" lon="6.80407">
        <ele>1327.4044</ele>
        <time>2014-08-29T09:15:34Z</time>
      </trkpt>
      <trkpt lat="46.27721" lon="6.80408">
        <ele>1331.0098</ele>
        <time>2014-08-29T09:15:39Z</time>
      </trkpt>
      <trkpt lat="46.27719" lon="6.80408">
        <ele>1331.0098</ele>
        <time>2014-08-29T09:15:44Z</time>
      </trkpt>
      <trkpt lat="46.27717" lon="6.80408">
        <ele>1331.0098</ele>
        <time>2014-08-29T09:15:49Z</time>
      </trkpt>
      <trkpt lat="46.27716" lon="6.80407">
        <ele>1331.0098</ele>
        <time>2014-08-29T09:15:54Z</time>
      </trkpt>
      <trkpt lat="46.27715" lon="6.80407">
        <ele>1331.0098</ele>
        <time>2014-08-29T09:15:59Z</time>
      </trkpt>
      <trkpt lat="46.27714" lon="6.80407">
        <ele>1331.0098</ele>
        <time>2014-08-29T09:16:04Z</time>
      </trkpt>
      <trkpt lat="46.27714" lon="6.80407">
        <ele>1331.0098</ele>
        <time>2014-08-29T09:16:09Z</time>
      </trkpt>
      <trkpt lat="46.2771" lon="6.80409">
        <ele>1334.9016</ele>
        <time>2014-08-29T09:16:29Z</time>
      </trkpt>
      <trkpt lat="46.2771" lon="6.80409">
        <ele>1334.9016</ele>
        <time>2014-08-29T09:16:34Z</time>
      </trkpt>
      <trkpt lat="46.27702" lon="6.80415">
        <ele>1338.7815</ele>
        <time>2014-08-29T09:16:59Z</time>
      </trkpt>
      <trkpt lat="46.27698" lon="6.80416">
        <ele>1338.7815</ele>
        <time>2014-08-29T09:17:04Z</time>
      </trkpt>
      <trkpt lat="46.27698" lon="6.80416">
        <ele>1338.7815</ele>
        <time>2014-08-29T09:17:09Z</time>
      </trkpt>
      <trkpt lat="46.27689" lon="6.80418">
        <ele>1342.6614</ele>
        <time>2014-08-29T09:17:14Z</time>
      </trkpt>
      <trkpt lat="46.27686" lon="6.80418">
        <ele>1342.6614</ele>
        <time>2014-08-29T09:17:19Z</time>
      </trkpt>
      <trkpt lat="46.27686" lon="6.80418">
        <ele>1342.6614</ele>
        <time>2014-08-29T09:17:24Z</time>
      </trkpt>
      <trkpt lat="46.27685" lon="6.80419">
        <ele>1342.6614</ele>
        <time>2014-08-29T09:17:54Z</time>
      </trkpt>
      <trkpt lat="46.27684" lon="6.80419">
        <ele>1342.6614</ele>
        <time>2014-08-29T09:17:59Z</time>
      </trkpt>
      <trkpt lat="46.27684" lon="6.80419">
        <ele>1342.6614</ele>
        <time>2014-08-29T09:18:04Z</time>
      </trkpt>
      <trkpt lat="46.27683" lon="6.80419">
        <ele>1342.6614</ele>
        <time>2014-08-29T09:18:09Z</time>
      </trkpt>
      <trkpt lat="46.27681" lon="6.8042">
        <ele>1342.6614</ele>
        <time>2014-08-29T09:18:14Z</time>
      </trkpt>
      <trkpt lat="46.27681" lon="6.8042">
        <ele>1342.6614</ele>
        <time>2014-08-29T09:18:19Z</time>
      </trkpt>
      <trkpt lat="46.27679" lon="6.80421">
        <ele>1346.9126</ele>
        <time>2014-08-29T09:18:29Z</time>
      </trkpt>
      <trkpt lat="46.27675" lon="6.80424">
        <ele>1346.9126</ele>
        <time>2014-08-29T09:18:34Z</time>
      </trkpt>
      <trkpt lat="46.27675" lon="6.80424">
        <ele>1346.9126</ele>
        <time>2014-08-29T09:18:39Z</time>
      </trkpt>
      <trkpt lat="46.27671" lon="6.80424">
        <ele>1350.7394</ele>
        <time>2014-08-29T09:18:44Z</time>
      </trkpt>
      <trkpt lat="46.27671" lon="6.80424">
        <ele>1350.7394</ele>
        <time>2014-08-29T09:18:49Z</time>
      </trkpt>
      <trkpt lat="46.27657" lon="6.80428">
        <ele>1353.9392</ele>
        <time>2014-08-29T09:19:09Z</time>
      </trkpt>
      <trkpt lat="46.27657" lon="6.8043">
        <ele>1353.9392</ele>
        <time>2014-08-29T09:19:14Z</time>
      </trkpt>
      <trkpt lat="46.27656" lon="6.80432">
        <ele>1353.9392</ele>
        <time>2014-08-29T09:19:19Z</time>
      </trkpt>
      <trkpt lat="46.27655" lon="6.80434">
        <ele>1353.9392</ele>
        <time>2014-08-29T09:19:24Z</time>
      </trkpt>
      <trkpt lat="46.27655" lon="6.80434">
        <ele>1353.9392</ele>
        <time>2014-08-29T09:19:29Z</time>
      </trkpt>
      <trkpt lat="46.27638" lon="6.80444">
        <ele>1356.7587</ele>
        <time>2014-08-29T09:19:39Z</time>
      </trkpt>
      <trkpt lat="46.27634" lon="6.80458">
        <ele>1359.2682</ele>
        <time>2014-08-29T09:19:44Z</time>
      </trkpt>
      <trkpt lat="46.27631" lon="6.80462">
        <ele>1359.2682</ele>
        <time>2014-08-29T09:19:49Z</time>
      </trkpt>
      <trkpt lat="46.27627" lon="6.80465">
        <ele>1359.2682</ele>
        <time>2014-08-29T09:19:54Z</time>
      </trkpt>
      <trkpt lat="46.27621" lon="6.80469">
        <ele>1361.5059</ele>
        <time>2014-08-29T09:19:59Z</time>
      </trkpt>
      <trkpt lat="46.27609" lon="6.80471">
        <ele>1363.4353</ele>
        <time>2014-08-29T09:20:04Z</time>
      </trkpt>
      <trkpt lat="46.2761" lon="6.80473">
        <ele>1363.4353</ele>
        <time>2014-08-29T09:20:09Z</time>
      </trkpt>
      <trkpt lat="46.27607" lon="6.80475">
        <ele>1363.4353</ele>
        <time>2014-08-29T09:20:14Z</time>
      </trkpt>
      <trkpt lat="46.27607" lon="6.80475">
        <ele>1363.4353</ele>
        <time>2014-08-29T09:20:19Z</time>
      </trkpt>
      <trkpt lat="46.27606" lon="6.80476">
        <ele>1363.4353</ele>
        <time>2014-08-29T09:20:24Z</time>
      </trkpt>
      <trkpt lat="46.27603" lon="6.8048">
        <ele>1365.2975</ele>
        <time>2014-08-29T09:20:29Z</time>
      </trkpt>
      <trkpt lat="46.27601" lon="6.80485">
        <ele>1365.2975</ele>
        <time>2014-08-29T09:20:34Z</time>
      </trkpt>
      <trkpt lat="46.27597" lon="6.80494">
        <ele>1366.7972</ele>
        <time>2014-08-29T09:20:39Z</time>
      </trkpt>
      <trkpt lat="46.27593" lon="6.80501">
        <ele>1366.7972</ele>
        <time>2014-08-29T09:20:44Z</time>
      </trkpt>
      <trkpt lat="46.2758" lon="6.80505">
        <ele>1367.8926</ele>
        <time>2014-08-29T09:20:49Z</time>
      </trkpt>
      <trkpt lat="46.27576" lon="6.80509">
        <ele>1367.8926</ele>
        <time>2014-08-29T09:20:54Z</time>
      </trkpt>
      <trkpt lat="46.27578" lon="6.80514">
        <ele>1367.8926</ele>
        <time>2014-08-29T09:20:59Z</time>
      </trkpt>
      <trkpt lat="46.27575" lon="6.8052">
        <ele>1368.6322</ele>
        <time>2014-08-29T09:21:04Z</time>
      </trkpt>
      <trkpt lat="46.27577" lon="6.80524">
        <ele>1368.6322</ele>
        <time>2014-08-29T09:21:09Z</time>
      </trkpt>
      <trkpt lat="46.27575" lon="6.80527">
        <ele>1368.6322</ele>
        <time>2014-08-29T09:21:14Z</time>
      </trkpt>
      <trkpt lat="46.27574" lon="6.8053">
        <ele>1368.6322</ele>
        <time>2014-08-29T09:21:19Z</time>
      </trkpt>
      <trkpt lat="46.27574" lon="6.8053">
        <ele>1368.6322</ele>
        <time>2014-08-29T09:21:24Z</time>
      </trkpt>
      <trkpt lat="46.27574" lon="6.80531">
        <ele>1369.0768</ele>
        <time>2014-08-29T09:21:29Z</time>
      </trkpt>
      <trkpt lat="46.27573" lon="6.80531">
        <ele>1369.0768</ele>
        <time>2014-08-29T09:21:34Z</time>
      </trkpt>
      <trkpt lat="46.27571" lon="6.80533">
        <ele>1369.0768</ele>
        <time>2014-08-29T09:21:39Z</time>
      </trkpt>
      <trkpt lat="46.27569" lon="6.80533">
        <ele>1369.0768</ele>
        <time>2014-08-29T09:21:44Z</time>
      </trkpt>
      <trkpt lat="46.27568" lon="6.80533">
        <ele>1369.0768</ele>
        <time>2014-08-29T09:21:49Z</time>
      </trkpt>
      <trkpt lat="46.27567" lon="6.80532">
        <ele>1369.0768</ele>
        <time>2014-08-29T09:21:54Z</time>
      </trkpt>
      <trkpt lat="46.27566" lon="6.80531">
        <ele>1369.5282</ele>
        <time>2014-08-29T09:21:59Z</time>
      </trkpt>
      <trkpt lat="46.27566" lon="6.80531">
        <ele>1369.5282</ele>
        <time>2014-08-29T09:22:04Z</time>
      </trkpt>
      <trkpt lat="46.27565" lon="6.8053">
        <ele>1369.5282</ele>
        <time>2014-08-29T09:22:09Z</time>
      </trkpt>
      <trkpt lat="46.27565" lon="6.8053">
        <ele>1369.5282</ele>
        <time>2014-08-29T09:22:14Z</time>
      </trkpt>
      <trkpt lat="46.27565" lon="6.8053">
        <ele>1369.5282</ele>
        <time>2014-08-29T09:22:24Z</time>
      </trkpt>
      <trkpt lat="46.27563" lon="6.80529">
        <ele>1369.5282</ele>
        <time>2014-08-29T09:22:29Z</time>
      </trkpt>
      <trkpt lat="46.27563" lon="6.80529">
        <ele>1369.5282</ele>
        <time>2014-08-29T09:22:34Z</time>
      </trkpt>
      <trkpt lat="46.27562" lon="6.8053">
        <ele>1369.5282</ele>
        <time>2014-08-29T09:22:44Z</time>
      </trkpt>
      <trkpt lat="46.2756" lon="6.80531">
        <ele>1369.5282</ele>
        <time>2014-08-29T09:22:49Z</time>
      </trkpt>
      <trkpt lat="46.27558" lon="6.80534">
        <ele>1370.1938</ele>
        <time>2014-08-29T09:22:54Z</time>
      </trkpt>
      <trkpt lat="46.27557" lon="6.80534">
        <ele>1370.1938</ele>
        <time>2014-08-29T09:22:59Z</time>
      </trkpt>
      <trkpt lat="46.27554" lon="6.80534">
        <ele>1370.1938</ele>
        <time>2014-08-29T09:23:04Z</time>
      </trkpt>
      <trkpt lat="46.27551" lon="6.80534">
        <ele>1370.1938</ele>
        <time>2014-08-29T09:23:09Z</time>
      </trkpt>
      <trkpt lat="46.27551" lon="6.80534">
        <ele>1370.1938</ele>
        <time>2014-08-29T09:23:14Z</time>
      </trkpt>
      <trkpt lat="46.27551" lon="6.80536">
        <ele>1370.1938</ele>
        <time>2014-08-29T09:23:19Z</time>
      </trkpt>
      <trkpt lat="46.27551" lon="6.80536">
        <ele>1370.1938</ele>
        <time>2014-08-29T09:23:24Z</time>
      </trkpt>
      <trkpt lat="46.27549" lon="6.80537">
        <ele>1371.4385</ele>
        <time>2014-08-29T09:23:49Z</time>
      </trkpt>
      <trkpt lat="46.27548" lon="6.80538">
        <ele>1371.4385</ele>
        <time>2014-08-29T09:23:54Z</time>
      </trkpt>
      <trkpt lat="46.27546" lon="6.80537">
        <ele>1371.4385</ele>
        <time>2014-08-29T09:23:59Z</time>
      </trkpt>
      <trkpt lat="46.27546" lon="6.80537">
        <ele>1371.4385</ele>
        <time>2014-08-29T09:24:04Z</time>
      </trkpt>
      <trkpt lat="46.27542" lon="6.8054">
        <ele>1371.4385</ele>
        <time>2014-08-29T09:24:09Z</time>
      </trkpt>
      <trkpt lat="46.27538" lon="6.80546">
        <ele>1373.1227</ele>
        <time>2014-08-29T09:24:14Z</time>
      </trkpt>
      <trkpt lat="46.27538" lon="6.8055">
        <ele>1373.1227</ele>
        <time>2014-08-29T09:24:19Z</time>
      </trkpt>
      <trkpt lat="46.27538" lon="6.8055">
        <ele>1373.1227</ele>
        <time>2014-08-29T09:24:24Z</time>
      </trkpt>
      <trkpt lat="46.27535" lon="6.80552">
        <ele>1373.1227</ele>
        <time>2014-08-29T09:24:34Z</time>
      </trkpt>
      <trkpt lat="46.27535" lon="6.80554">
        <ele>1373.1227</ele>
        <time>2014-08-29T09:24:39Z</time>
      </trkpt>
      <trkpt lat="46.27535" lon="6.80554">
        <ele>1373.1227</ele>
        <time>2014-08-29T09:24:44Z</time>
      </trkpt>
      <trkpt lat="46.2753" lon="6.80557">
        <ele>1375.3752</ele>
        <time>2014-08-29T09:24:49Z</time>
      </trkpt>
      <trkpt lat="46.2753" lon="6.80557">
        <ele>1375.3752</ele>
        <time>2014-08-29T09:24:54Z</time>
      </trkpt>
      <trkpt lat="46.27523" lon="6.8056">
        <ele>1375.3752</ele>
        <time>2014-08-29T09:25:04Z</time>
      </trkpt>
      <trkpt lat="46.27523" lon="6.8056">
        <ele>1375.3752</ele>
        <time>2014-08-29T09:25:09Z</time>
      </trkpt>
      <trkpt lat="46.27521" lon="6.80562">
        <ele>1377.6222</ele>
        <time>2014-08-29T09:25:14Z</time>
      </trkpt>
      <trkpt lat="46.2752" lon="6.80564">
        <ele>1377.6222</ele>
        <time>2014-08-29T09:25:19Z</time>
      </trkpt>
      <trkpt lat="46.27518" lon="6.80567">
        <ele>1377.6222</ele>
        <time>2014-08-29T09:25:24Z</time>
      </trkpt>
      <trkpt lat="46.27517" lon="6.80569">
        <ele>1377.6222</ele>
        <time>2014-08-29T09:25:29Z</time>
      </trkpt>
      <trkpt lat="46.27516" lon="6.80572">
        <ele>1379.764</ele>
        <time>2014-08-29T09:25:34Z</time>
      </trkpt>
      <trkpt lat="46.27513" lon="6.80582">
        <ele>1379.764</ele>
        <time>2014-08-29T09:25:39Z</time>
      </trkpt>
      <trkpt lat="46.27511" lon="6.80584">
        <ele>1381.7952</ele>
        <time>2014-08-29T09:25:44Z</time>
      </trkpt>
      <trkpt lat="46.27496" lon="6.80599">
        <ele>1383.5378</ele>
        <time>2014-08-29T09:25:49Z</time>
      </trkpt>
      <trkpt lat="46.27483" lon="6.80607">
        <ele>1385.0151</ele>
        <time>2014-08-29T09:25:54Z</time>
      </trkpt>
      <trkpt lat="46.27477" lon="6.80612">
        <ele>1385.0151</ele>
        <time>2014-08-29T09:25:59Z</time>
      </trkpt>
      <trkpt lat="46.27475" lon="6.80617">
        <ele>1386.2063</ele>
        <time>2014-08-29T09:26:04Z</time>
      </trkpt>
      <trkpt lat="46.27473" lon="6.80618">
        <ele>1386.2063</ele>
        <time>2014-08-29T09:26:09Z</time>
      </trkpt>
      <trkpt lat="46.27473" lon="6.80618">
        <ele>1386.2063</ele>
        <time>2014-08-29T09:26:14Z</time>
      </trkpt>
      <trkpt lat="46.27472" lon="6.80619">
        <ele>1386.2063</ele>
        <time>2014-08-29T09:26:19Z</time>
      </trkpt>
      <trkpt lat="46.27469" lon="6.80619">
        <ele>1386.2063</ele>
        <time>2014-08-29T09:26:24Z</time>
      </trkpt>
      <trkpt lat="46.27469" lon="6.80619">
        <ele>1386.2063</ele>
        <time>2014-08-29T09:26:29Z</time>
      </trkpt>
      <trkpt lat="46.27468" lon="6.80619">
        <ele>1386.2063</ele>
        <time>2014-08-29T09:26:34Z</time>
      </trkpt>
      <trkpt lat="46.27462" lon="6.80617">
        <ele>1386.9773</ele>
        <time>2014-08-29T09:26:39Z</time>
      </trkpt>
      <trkpt lat="46.27457" lon="6.80619">
        <ele>1386.9773</ele>
        <time>2014-08-29T09:26:44Z</time>
      </trkpt>
      <trkpt lat="46.27455" lon="6.8062">
        <ele>1386.9773</ele>
        <time>2014-08-29T09:26:49Z</time>
      </trkpt>
      <trkpt lat="46.27455" lon="6.80623">
        <ele>1387.8678</ele>
        <time>2014-08-29T09:26:54Z</time>
      </trkpt>
      <trkpt lat="46.27452" lon="6.80626">
        <ele>1387.8678</ele>
        <time>2014-08-29T09:26:59Z</time>
      </trkpt>
      <trkpt lat="46.27448" lon="6.80627">
        <ele>1387.8678</ele>
        <time>2014-08-29T09:27:04Z</time>
      </trkpt>
      <trkpt lat="46.27446" lon="6.80626">
        <ele>1388.6427</ele>
        <time>2014-08-29T09:27:09Z</time>
      </trkpt>
      <trkpt lat="46.27446" lon="6.80627">
        <ele>1388.6427</ele>
        <time>2014-08-29T09:27:14Z</time>
      </trkpt>
      <trkpt lat="46.27446" lon="6.80627">
        <ele>1388.6427</ele>
        <time>2014-08-29T09:27:19Z</time>
      </trkpt>
      <trkpt lat="46.27444" lon="6.80629">
        <ele>1388.6427</ele>
        <time>2014-08-29T09:27:24Z</time>
      </trkpt>
      <trkpt lat="46.27444" lon="6.80629">
        <ele>1388.6427</ele>
        <time>2014-08-29T09:27:29Z</time>
      </trkpt>
      <trkpt lat="46.27443" lon="6.8063">
        <ele>1388.6427</ele>
        <time>2014-08-29T09:27:34Z</time>
      </trkpt>
      <trkpt lat="46.27443" lon="6.8063">
        <ele>1388.6427</ele>
        <time>2014-08-29T09:27:39Z</time>
      </trkpt>
      <trkpt lat="46.27441" lon="6.80629">
        <ele>1388.6427</ele>
        <time>2014-08-29T09:27:54Z</time>
      </trkpt>
      <trkpt lat="46.27441" lon="6.80629">
        <ele>1388.6427</ele>
        <time>2014-08-29T09:27:59Z</time>
      </trkpt>
      <trkpt lat="46.27436" lon="6.80633">
        <ele>1390.4391</ele>
        <time>2014-08-29T09:28:14Z</time>
      </trkpt>
      <trkpt lat="46.27435" lon="6.80634">
        <ele>1390.4391</ele>
        <time>2014-08-29T09:28:19Z</time>
      </trkpt>
      <trkpt lat="46.27434" lon="6.80633">
        <ele>1390.4391</ele>
        <time>2014-08-29T09:28:24Z</time>
      </trkpt>
      <trkpt lat="46.2743" lon="6.80637">
        <ele>1390.4391</ele>
        <time>2014-08-29T09:28:29Z</time>
      </trkpt>
      <trkpt lat="46.27429" lon="6.80639">
        <ele>1390.4391</ele>
        <time>2014-08-29T09:28:34Z</time>
      </trkpt>
      <trkpt lat="46.27429" lon="6.80639">
        <ele>1390.4391</ele>
        <time>2014-08-29T09:28:39Z</time>
      </trkpt>
      <trkpt lat="46.27426" lon="6.80641">
        <ele>1393.284</ele>
        <time>2014-08-29T09:28:44Z</time>
      </trkpt>
      <trkpt lat="46.27425" lon="6.80641">
        <ele>1393.284</ele>
        <time>2014-08-29T09:28:49Z</time>
      </trkpt>
      <trkpt lat="46.27423" lon="6.80638">
        <ele>1393.284</ele>
        <time>2014-08-29T09:28:54Z</time>
      </trkpt>
      <trkpt lat="46.27418" lon="6.80642">
        <ele>1396.2344</ele>
        <time>2014-08-29T09:28:59Z</time>
      </trkpt>
      <trkpt lat="46.27418" lon="6.80642">
        <ele>1396.2344</ele>
        <time>2014-08-29T09:29:04Z</time>
      </trkpt>
      <trkpt lat="46.27417" lon="6.80643">
        <ele>1396.2344</ele>
        <time>2014-08-29T09:29:09Z</time>
      </trkpt>
      <trkpt lat="46.27417" lon="6.80643">
        <ele>1396.2344</ele>
        <time>2014-08-29T09:29:14Z</time>
      </trkpt>
      <trkpt lat="46.27418" lon="6.80643">
        <ele>1396.2344</ele>
        <time>2014-08-29T09:29:34Z</time>
      </trkpt>
      <trkpt lat="46.27417" lon="6.80642">
        <ele>1396.2344</ele>
        <time>2014-08-29T09:29:39Z</time>
      </trkpt>
      <trkpt lat="46.27416" lon="6.80642">
        <ele>1396.2344</ele>
        <time>2014-08-29T09:29:44Z</time>
      </trkpt>
      <trkpt lat="46.27416" lon="6.80642">
        <ele>1396.2344</ele>
        <time>2014-08-29T09:29:49Z</time>
      </trkpt>
      <trkpt lat="46.27415" lon="6.80643">
        <ele>1396.2344</ele>
        <time>2014-08-29T09:29:54Z</time>
      </trkpt>
      <trkpt lat="46.27412" lon="6.80642">
        <ele>1396.2344</ele>
        <time>2014-08-29T09:29:59Z</time>
      </trkpt>
      <trkpt lat="46.27412" lon="6.80642">
        <ele>1396.2344</ele>
        <time>2014-08-29T09:30:04Z</time>
      </trkpt>
      <trkpt lat="46.27411" lon="6.80641">
        <ele>1396.2344</ele>
        <time>2014-08-29T09:30:09Z</time>
      </trkpt>
      <trkpt lat="46.27411" lon="6.80641">
        <ele>1396.2344</ele>
        <time>2014-08-29T09:30:14Z</time>
      </trkpt>
      <trkpt lat="46.27402" lon="6.80644">
        <ele>1399.9866</ele>
        <time>2014-08-29T09:30:19Z</time>
      </trkpt>
      <trkpt lat="46.27401" lon="6.80644">
        <ele>1399.9866</ele>
        <time>2014-08-29T09:30:24Z</time>
      </trkpt>
      <trkpt lat="46.27401" lon="6.80646">
        <ele>1399.9866</ele>
        <time>2014-08-29T09:30:29Z</time>
      </trkpt>
      <trkpt lat="46.27401" lon="6.80647">
        <ele>1399.9866</ele>
        <time>2014-08-29T09:30:34Z</time>
      </trkpt>
      <trkpt lat="46.27398" lon="6.80646">
        <ele>1399.9866</ele>
        <time>2014-08-29T09:30:39Z</time>
      </trkpt>
      <trkpt lat="46.27391" lon="6.80642">
        <ele>1403.4829</ele>
        <time>2014-08-29T09:30:44Z</time>
      </trkpt>
      <trkpt lat="46.27389" lon="6.80642">
        <ele>1403.4829</ele>
        <time>2014-08-29T09:30:49Z</time>
      </trkpt>
      <trkpt lat="46.27389" lon="6.80641">
        <ele>1403.4829</ele>
        <time>2014-08-29T09:30:54Z</time>
      </trkpt>
      <trkpt lat="46.27389" lon="6.80641">
        <ele>1403.4829</ele>
        <time>2014-08-29T09:30:59Z</time>
      </trkpt>
      <trkpt lat="46.27389" lon="6.80641">
        <ele>1403.4829</ele>
        <time>2014-08-29T09:31:04Z</time>
      </trkpt>
      <trkpt lat="46.27387" lon="6.80642">
        <ele>1403.4829</ele>
        <time>2014-08-29T09:31:09Z</time>
      </trkpt>
      <trkpt lat="46.27386" lon="6.80641">
        <ele>1403.4829</ele>
        <time>2014-08-29T09:31:19Z</time>
      </trkpt>
      <trkpt lat="46.27386" lon="6.80641">
        <ele>1403.4829</ele>
        <time>2014-08-29T09:31:24Z</time>
      </trkpt>
      <trkpt lat="46.27385" lon="6.8064">
        <ele>1403.4829</ele>
        <time>2014-08-29T09:31:29Z</time>
      </trkpt>
      <trkpt lat="46.27385" lon="6.8064">
        <ele>1403.4829</ele>
        <time>2014-08-29T09:31:34Z</time>
      </trkpt>
      <trkpt lat="46.27382" lon="6.8064">
        <ele>1407.0413</ele>
        <time>2014-08-29T09:31:44Z</time>
      </trkpt>
      <trkpt lat="46.27382" lon="6.8064">
        <ele>1407.0413</ele>
        <time>2014-08-29T09:31:49Z</time>
      </trkpt>
      <trkpt lat="46.27378" lon="6.8064">
        <ele>1407.0413</ele>
        <time>2014-08-29T09:31:54Z</time>
      </trkpt>
      <trkpt lat="46.27377" lon="6.8064">
        <ele>1407.0413</ele>
        <time>2014-08-29T09:31:59Z</time>
      </trkpt>
      <trkpt lat="46.27377" lon="6.8064">
        <ele>1407.0413</ele>
        <time>2014-08-29T09:32:04Z</time>
      </trkpt>
      <trkpt lat="46.27376" lon="6.8064">
        <ele>1407.0413</ele>
        <time>2014-08-29T09:32:29Z</time>
      </trkpt>
      <trkpt lat="46.27376" lon="6.8064">
        <ele>1407.0413</ele>
        <time>2014-08-29T09:32:34Z</time>
      </trkpt>
      <trkpt lat="46.27376" lon="6.8064">
        <ele>1407.0413</ele>
        <time>2014-08-29T09:32:39Z</time>
      </trkpt>
      <trkpt lat="46.27375" lon="6.8064">
        <ele>1407.0413</ele>
        <time>2014-08-29T09:32:44Z</time>
      </trkpt>
      <trkpt lat="46.27374" lon="6.80641">
        <ele>1410.8838</ele>
        <time>2014-08-29T09:32:49Z</time>
      </trkpt>
      <trkpt lat="46.27373" lon="6.80641">
        <ele>1410.8838</ele>
        <time>2014-08-29T09:32:54Z</time>
      </trkpt>
      <trkpt lat="46.27373" lon="6.80641">
        <ele>1410.8838</ele>
        <time>2014-08-29T09:32:59Z</time>
      </trkpt>
      <trkpt lat="46.2737" lon="6.80638">
        <ele>1410.8838</ele>
        <time>2014-08-29T09:33:04Z</time>
      </trkpt>
      <trkpt lat="46.27368" lon="6.80638">
        <ele>1410.8838</ele>
        <time>2014-08-29T09:33:09Z</time>
      </trkpt>
      <trkpt lat="46.27368" lon="6.80639">
        <ele>1410.8838</ele>
        <time>2014-08-29T09:33:14Z</time>
      </trkpt>
      <trkpt lat="46.27368" lon="6.80639">
        <ele>1410.8838</ele>
        <time>2014-08-29T09:33:19Z</time>
      </trkpt>
      <trkpt lat="46.27366" lon="6.8064">
        <ele>1410.8838</ele>
        <time>2014-08-29T09:33:29Z</time>
      </trkpt>
      <trkpt lat="46.27365" lon="6.80641">
        <ele>1414.8986</ele>
        <time>2014-08-29T09:33:34Z</time>
      </trkpt>
      <trkpt lat="46.27363" lon="6.80642">
        <ele>1414.8986</ele>
        <time>2014-08-29T09:33:39Z</time>
      </trkpt>
      <trkpt lat="46.27362" lon="6.80643">
        <ele>1414.8986</ele>
        <time>2014-08-29T09:33:44Z</time>
      </trkpt>
      <trkpt lat="46.27362" lon="6.80643">
        <ele>1414.8986</ele>
        <time>2014-08-29T09:33:49Z</time>
      </trkpt>
      <trkpt lat="46.27361" lon="6.80646">
        <ele>1414.8986</ele>
        <time>2014-08-29T09:33:59Z</time>
      </trkpt>
      <trkpt lat="46.27361" lon="6.80646">
        <ele>1414.8986</ele>
        <time>2014-08-29T09:34:04Z</time>
      </trkpt>
      <trkpt lat="46.27359" lon="6.80648">
        <ele>1414.8986</ele>
        <time>2014-08-29T09:34:09Z</time>
      </trkpt>
      <trkpt lat="46.27359" lon="6.80648">
        <ele>1414.8986</ele>
        <time>2014-08-29T09:34:14Z</time>
      </trkpt>
      <trkpt lat="46.27359" lon="6.80647">
        <ele>1414.8986</ele>
        <time>2014-08-29T09:37:29Z</time>
      </trkpt>
      <trkpt lat="46.27356" lon="6.80645">
        <ele>1419.918</ele>
        <time>2014-08-29T09:37:34Z</time>
      </trkpt>
      <trkpt lat="46.27347" lon="6.80639">
        <ele>1424.4336</ele>
        <time>2014-08-29T09:37:39Z</time>
      </trkpt>
      <trkpt lat="46.2734" lon="6.80635">
        <ele>1424.4336</ele>
        <time>2014-08-29T09:37:44Z</time>
      </trkpt>
      <trkpt lat="46.27337" lon="6.80634">
        <ele>1428.4614</ele>
        <time>2014-08-29T09:37:49Z</time>
      </trkpt>
      <trkpt lat="46.27337" lon="6.80634">
        <ele>1428.4614</ele>
        <time>2014-08-29T09:37:54Z</time>
      </trkpt>
      <trkpt lat="46.27335" lon="6.80638">
        <ele>1428.4614</ele>
        <time>2014-08-29T09:38:04Z</time>
      </trkpt>
      <trkpt lat="46.27335" lon="6.80638">
        <ele>1428.4614</ele>
        <time>2014-08-29T09:38:09Z</time>
      </trkpt>
      <trkpt lat="46.27334" lon="6.80639">
        <ele>1428.4614</ele>
        <time>2014-08-29T09:38:14Z</time>
      </trkpt>
      <trkpt lat="46.27334" lon="6.80639">
        <ele>1428.4614</ele>
        <time>2014-08-29T09:38:19Z</time>
      </trkpt>
      <trkpt lat="46.27333" lon="6.8064">
        <ele>1428.4614</ele>
        <time>2014-08-29T09:38:24Z</time>
      </trkpt>
      <trkpt lat="46.27329" lon="6.80641">
        <ele>1432.378</ele>
        <time>2014-08-29T09:38:29Z</time>
      </trkpt>
      <trkpt lat="46.27329" lon="6.80642">
        <ele>1432.378</ele>
        <time>2014-08-29T09:38:34Z</time>
      </trkpt>
      <trkpt lat="46.27328" lon="6.80643">
        <ele>1432.378</ele>
        <time>2014-08-29T09:38:39Z</time>
      </trkpt>
      <trkpt lat="46.27328" lon="6.80643">
        <ele>1432.378</ele>
        <time>2014-08-29T09:38:44Z</time>
      </trkpt>
      <trkpt lat="46.27324" lon="6.80641">
        <ele>1432.378</ele>
        <time>2014-08-29T09:38:59Z</time>
      </trkpt>
      <trkpt lat="46.27313" lon="6.80638">
        <ele>1436.1293</ele>
        <time>2014-08-29T09:39:04Z</time>
      </trkpt>
      <trkpt lat="46.27313" lon="6.80638">
        <ele>1436.1293</ele>
        <time>2014-08-29T09:39:09Z</time>
      </trkpt>
      <trkpt lat="46.27313" lon="6.8064">
        <ele>1436.1293</ele>
        <time>2014-08-29T09:39:14Z</time>
      </trkpt>
      <trkpt lat="46.27312" lon="6.8064">
        <ele>1436.1293</ele>
        <time>2014-08-29T09:39:19Z</time>
      </trkpt>
      <trkpt lat="46.27311" lon="6.80642">
        <ele>1436.1293</ele>
        <time>2014-08-29T09:39:24Z</time>
      </trkpt>
      <trkpt lat="46.27306" lon="6.80645">
        <ele>1439.9105</ele>
        <time>2014-08-29T09:39:29Z</time>
      </trkpt>
      <trkpt lat="46.27304" lon="6.80644">
        <ele>1439.9105</ele>
        <time>2014-08-29T09:39:34Z</time>
      </trkpt>
      <trkpt lat="46.27303" lon="6.80645">
        <ele>1439.9105</ele>
        <time>2014-08-29T09:39:39Z</time>
      </trkpt>
      <trkpt lat="46.27303" lon="6.80646">
        <ele>1439.9105</ele>
        <time>2014-08-29T09:39:44Z</time>
      </trkpt>
      <trkpt lat="46.27298" lon="6.80646">
        <ele>1439.9105</ele>
        <time>2014-08-29T09:39:49Z</time>
      </trkpt>
      <trkpt lat="46.27293" lon="6.80646">
        <ele>1443.7296</ele>
        <time>2014-08-29T09:39:54Z</time>
      </trkpt>
      <trkpt lat="46.27293" lon="6.80646">
        <ele>1443.7296</ele>
        <time>2014-08-29T09:39:59Z</time>
      </trkpt>
      <trkpt lat="46.27291" lon="6.80649">
        <ele>1443.7296</ele>
        <time>2014-08-29T09:40:04Z</time>
      </trkpt>
      <trkpt lat="46.27286" lon="6.80654">
        <ele>1447.3346</ele>
        <time>2014-08-29T09:40:09Z</time>
      </trkpt>
      <trkpt lat="46.27286" lon="6.80656">
        <ele>1447.3346</ele>
        <time>2014-08-29T09:40:14Z</time>
      </trkpt>
      <trkpt lat="46.27286" lon="6.80656">
        <ele>1447.3346</ele>
        <time>2014-08-29T09:40:19Z</time>
      </trkpt>
      <trkpt lat="46.27284" lon="6.80658">
        <ele>1447.3346</ele>
        <time>2014-08-29T09:40:24Z</time>
      </trkpt>
      <trkpt lat="46.27282" lon="6.8066">
        <ele>1447.3346</ele>
        <time>2014-08-29T09:40:29Z</time>
      </trkpt>
      <trkpt lat="46.27282" lon="6.8066">
        <ele>1447.3346</ele>
        <time>2014-08-29T09:40:34Z</time>
      </trkpt>
      <trkpt lat="46.27273" lon="6.80662">
        <ele>1452.0203</ele>
        <time>2014-08-29T09:40:49Z</time>
      </trkpt>
      <trkpt lat="46.27268" lon="6.80665">
        <ele>1452.0203</ele>
        <time>2014-08-29T09:40:54Z</time>
      </trkpt>
      <trkpt lat="46.27268" lon="6.80665">
        <ele>1452.0203</ele>
        <time>2014-08-29T09:40:59Z</time>
      </trkpt>
      <trkpt lat="46.27266" lon="6.80666">
        <ele>1452.0203</ele>
        <time>2014-08-29T09:41:04Z</time>
      </trkpt>
      <trkpt lat="46.27262" lon="6.80669">
        <ele>1456.4902</ele>
        <time>2014-08-29T09:41:09Z</time>
      </trkpt>
      <trkpt lat="46.27254" lon="6.80681">
        <ele>1460.5383</ele>
        <time>2014-08-29T09:41:14Z</time>
      </trkpt>
      <trkpt lat="46.27253" lon="6.80682">
        <ele>1460.5383</ele>
        <time>2014-08-29T09:41:19Z</time>
      </trkpt>
      <trkpt lat="46.27253" lon="6.80682">
        <ele>1460.5383</ele>
        <time>2014-08-29T09:41:24Z</time>
      </trkpt>
      <trkpt lat="46.27252" lon="6.80684">
        <ele>1460.5383</ele>
        <time>2014-08-29T09:41:44Z</time>
      </trkpt>
      <trkpt lat="46.27251" lon="6.80686">
        <ele>1460.5383</ele>
        <time>2014-08-29T09:41:49Z</time>
      </trkpt>
      <trkpt lat="46.27247" lon="6.80687">
        <ele>1460.5383</ele>
        <time>2014-08-29T09:41:54Z</time>
      </trkpt>
      <trkpt lat="46.27245" lon="6.80688">
        <ele>1464.2344</ele>
        <time>2014-08-29T09:41:59Z</time>
      </trkpt>
      <trkpt lat="46.27242" lon="6.80689">
        <ele>1464.2344</ele>
        <time>2014-08-29T09:42:04Z</time>
      </trkpt>
      <trkpt lat="46.2724" lon="6.80691">
        <ele>1464.2344</ele>
        <time>2014-08-29T09:42:09Z</time>
      </trkpt>
      <trkpt lat="46.27239" lon="6.80692">
        <ele>1464.2344</ele>
        <time>2014-08-29T09:42:14Z</time>
      </trkpt>
      <trkpt lat="46.27237" lon="6.80694">
        <ele>1467.6298</ele>
        <time>2014-08-29T09:42:19Z</time>
      </trkpt>
      <trkpt lat="46.27237" lon="6.80694">
        <ele>1467.6298</ele>
        <time>2014-08-29T09:42:24Z</time>
      </trkpt>
      <trkpt lat="46.27233" lon="6.80696">
        <ele>1467.6298</ele>
        <time>2014-08-29T09:42:29Z</time>
      </trkpt>
      <trkpt lat="46.27231" lon="6.80697">
        <ele>1467.6298</ele>
        <time>2014-08-29T09:42:34Z</time>
      </trkpt>
      <trkpt lat="46.27229" lon="6.80697">
        <ele>1467.6298</ele>
        <time>2014-08-29T09:42:39Z</time>
      </trkpt>
      <trkpt lat="46.27219" lon="6.80698">
        <ele>1471.0322</ele>
        <time>2014-08-29T09:42:44Z</time>
      </trkpt>
      <trkpt lat="46.27213" lon="6.80699">
        <ele>1471.0322</ele>
        <time>2014-08-29T09:42:49Z</time>
      </trkpt>
      <trkpt lat="46.27204" lon="6.8071">
        <ele>1474.5255</ele>
        <time>2014-08-29T09:42:54Z</time>
      </trkpt>
      <trkpt lat="46.27197" lon="6.80714">
        <ele>1474.5255</ele>
        <time>2014-08-29T09:42:59Z</time>
      </trkpt>
      <trkpt lat="46.27195" lon="6.80715">
        <ele>1477.9132</ele>
        <time>2014-08-29T09:43:04Z</time>
      </trkpt>
      <trkpt lat="46.27195" lon="6.80715">
        <ele>1477.9132</ele>
        <time>2014-08-29T09:43:09Z</time>
      </trkpt>
      <trkpt lat="46.27194" lon="6.80715">
        <ele>1477.9132</ele>
        <time>2014-08-29T09:43:14Z</time>
      </trkpt>
      <trkpt lat="46.27193" lon="6.80716">
        <ele>1477.9132</ele>
        <time>2014-08-29T09:43:19Z</time>
      </trkpt>
      <trkpt lat="46.27193" lon="6.80716">
        <ele>1477.9132</ele>
        <time>2014-08-29T09:43:24Z</time>
      </trkpt>
      <trkpt lat="46.27193" lon="6.80716">
        <ele>1477.9132</ele>
        <time>2014-08-29T09:43:29Z</time>
      </trkpt>
      <trkpt lat="46.27193" lon="6.80716">
        <ele>1477.9132</ele>
        <time>2014-08-29T09:43:34Z</time>
      </trkpt>
      <trkpt lat="46.27192" lon="6.80718">
        <ele>1477.9132</ele>
        <time>2014-08-29T09:43:39Z</time>
      </trkpt>
      <trkpt lat="46.27192" lon="6.80718">
        <ele>1477.9132</ele>
        <time>2014-08-29T09:43:44Z</time>
      </trkpt>
      <trkpt lat="46.27188" lon="6.80723">
        <ele>1477.9132</ele>
        <time>2014-08-29T09:43:49Z</time>
      </trkpt>
      <trkpt lat="46.2717" lon="6.80734">
        <ele>1481.9215</ele>
        <time>2014-08-29T09:43:54Z</time>
      </trkpt>
      <trkpt lat="46.27173" lon="6.80739">
        <ele>1481.9215</ele>
        <time>2014-08-29T09:43:59Z</time>
      </trkpt>
      <trkpt lat="46.27177" lon="6.80747">
        <ele>1485.1178</ele>
        <time>2014-08-29T09:44:04Z</time>
      </trkpt>
      <trkpt lat="46.27178" lon="6.80757">
        <ele>1485.1178</ele>
        <time>2014-08-29T09:44:09Z</time>
      </trkpt>
      <trkpt lat="46.27179" lon="6.80763">
        <ele>1487.5748</ele>
        <time>2014-08-29T09:44:14Z</time>
      </trkpt>
      <trkpt lat="46.2718" lon="6.80767">
        <ele>1487.5748</ele>
        <time>2014-08-29T09:44:19Z</time>
      </trkpt>
      <trkpt lat="46.27178" lon="6.8077">
        <ele>1487.5748</ele>
        <time>2014-08-29T09:44:24Z</time>
      </trkpt>
      <trkpt lat="46.27177" lon="6.80771">
        <ele>1487.5748</ele>
        <time>2014-08-29T09:44:29Z</time>
      </trkpt>
      <trkpt lat="46.27177" lon="6.8077">
        <ele>1487.5748</ele>
        <time>2014-08-29T09:44:34Z</time>
      </trkpt>
      <trkpt lat="46.27177" lon="6.80771">
        <ele>1487.5748</ele>
        <time>2014-08-29T09:44:39Z</time>
      </trkpt>
      <trkpt lat="46.27177" lon="6.80771">
        <ele>1487.5748</ele>
        <time>2014-08-29T09:44:44Z</time>
      </trkpt>
      <trkpt lat="46.27177" lon="6.80769">
        <ele>1489.391</ele>
        <time>2014-08-29T09:44:49Z</time>
      </trkpt>
      <trkpt lat="46.27177" lon="6.8077">
        <ele>1489.391</ele>
        <time>2014-08-29T09:44:54Z</time>
      </trkpt>
      <trkpt lat="46.27177" lon="6.80771">
        <ele>1489.391</ele>
        <time>2014-08-29T09:44:59Z</time>
      </trkpt>
      <trkpt lat="46.27177" lon="6.80771">
        <ele>1489.391</ele>
        <time>2014-08-29T09:45:04Z</time>
      </trkpt>
      <trkpt lat="46.27176" lon="6.80772">
        <ele>1489.391</ele>
        <time>2014-08-29T09:45:09Z</time>
      </trkpt>
      <trkpt lat="46.27176" lon="6.80773">
        <ele>1489.391</ele>
        <time>2014-08-29T09:45:14Z</time>
      </trkpt>
      <trkpt lat="46.27174" lon="6.80774">
        <ele>1489.391</ele>
        <time>2014-08-29T09:45:19Z</time>
      </trkpt>
      <trkpt lat="46.27174" lon="6.80774">
        <ele>1489.391</ele>
        <time>2014-08-29T09:45:24Z</time>
      </trkpt>
      <trkpt lat="46.27173" lon="6.80773">
        <ele>1489.391</ele>
        <time>2014-08-29T09:45:49Z</time>
      </trkpt>
      <trkpt lat="46.2717" lon="6.80773">
        <ele>1489.391</ele>
        <time>2014-08-29T09:45:54Z</time>
      </trkpt>
      <trkpt lat="46.2717" lon="6.80773">
        <ele>1489.391</ele>
        <time>2014-08-29T09:45:59Z</time>
      </trkpt>
      <trkpt lat="46.27167" lon="6.80777">
        <ele>1492.043</ele>
        <time>2014-08-29T09:46:29Z</time>
      </trkpt>
      <trkpt lat="46.27166" lon="6.80779">
        <ele>1492.043</ele>
        <time>2014-08-29T09:46:34Z</time>
      </trkpt>
      <trkpt lat="46.27166" lon="6.80779">
        <ele>1492.043</ele>
        <time>2014-08-29T09:46:39Z</time>
      </trkpt>
      <trkpt lat="46.27165" lon="6.80779">
        <ele>1492.043</ele>
        <time>2014-08-29T09:46:54Z</time>
      </trkpt>
      <trkpt lat="46.27165" lon="6.80779">
        <ele>1492.043</ele>
        <time>2014-08-29T09:46:59Z</time>
      </trkpt>
      <trkpt lat="46.27164" lon="6.80778">
        <ele>1492.043</ele>
        <time>2014-08-29T09:47:14Z</time>
      </trkpt>
      <trkpt lat="46.27156" lon="6.80777">
        <ele>1493.5676</ele>
        <time>2014-08-29T09:47:19Z</time>
      </trkpt>
      <trkpt lat="46.27154" lon="6.80776">
        <ele>1493.5676</ele>
        <time>2014-08-29T09:47:24Z</time>
      </trkpt>
      <trkpt lat="46.27151" lon="6.80775">
        <ele>1493.5676</ele>
        <time>2014-08-29T09:47:29Z</time>
      </trkpt>
      <trkpt lat="46.27148" lon="6.80772">
        <ele>1493.5676</ele>
        <time>2014-08-29T09:47:34Z</time>
      </trkpt>
      <trkpt lat="46.27146" lon="6.8077">
        <ele>1494.9163</ele>
        <time>2014-08-29T09:47:39Z</time>
      </trkpt>
      <trkpt lat="46.27146" lon="6.8077">
        <ele>1494.9163</ele>
        <time>2014-08-29T09:47:44Z</time>
      </trkpt>
      <trkpt lat="46.27139" lon="6.80771">
        <ele>1494.9163</ele>
        <time>2014-08-29T09:48:44Z</time>
      </trkpt>
      <trkpt lat="46.27135" lon="6.80771">
        <ele>1495.9907</ele>
        <time>2014-08-29T09:48:49Z</time>
      </trkpt>
      <trkpt lat="46.27135" lon="6.80771">
        <ele>1495.9907</ele>
        <time>2014-08-29T09:48:54Z</time>
      </trkpt>
      <trkpt lat="46.27135" lon="6.80772">
        <ele>1495.9907</ele>
        <time>2014-08-29T09:49:04Z</time>
      </trkpt>
      <trkpt lat="46.27133" lon="6.80771">
        <ele>1495.9907</ele>
        <time>2014-08-29T09:49:09Z</time>
      </trkpt>
      <trkpt lat="46.27129" lon="6.80771">
        <ele>1495.9907</ele>
        <time>2014-08-29T09:49:14Z</time>
      </trkpt>
      <trkpt lat="46.27127" lon="6.80782">
        <ele>1497.5947</ele>
        <time>2014-08-29T09:49:19Z</time>
      </trkpt>
      <trkpt lat="46.27127" lon="6.80782">
        <ele>1497.5947</ele>
        <time>2014-08-29T09:49:24Z</time>
      </trkpt>
      <trkpt lat="46.27127" lon="6.80783">
        <ele>1497.5947</ele>
        <time>2014-08-29T09:49:29Z</time>
      </trkpt>
      <trkpt lat="46.27125" lon="6.80784">
        <ele>1497.5947</ele>
        <time>2014-08-29T09:49:34Z</time>
      </trkpt>
      <trkpt lat="46.27125" lon="6.80784">
        <ele>1497.5947</ele>
        <time>2014-08-29T09:49:39Z</time>
      </trkpt>
      <trkpt lat="46.27125" lon="6.80787">
        <ele>1497.5947</ele>
        <time>2014-08-29T09:49:49Z</time>
      </trkpt>
      <trkpt lat="46.27123" lon="6.80799">
        <ele>1499.9521</ele>
        <time>2014-08-29T09:49:54Z</time>
      </trkpt>
      <trkpt lat="46.27114" lon="6.80807">
        <ele>1502.0295</ele>
        <time>2014-08-29T09:49:59Z</time>
      </trkpt>
      <trkpt lat="46.2711" lon="6.80817">
        <ele>1502.0295</ele>
        <time>2014-08-29T09:50:04Z</time>
      </trkpt>
      <trkpt lat="46.27107" lon="6.8083">
        <ele>1503.9362</ele>
        <time>2014-08-29T09:50:09Z</time>
      </trkpt>
      <trkpt lat="46.27098" lon="6.80845">
        <ele>1505.5723</ele>
        <time>2014-08-29T09:50:14Z</time>
      </trkpt>
      <trkpt lat="46.27095" lon="6.80847">
        <ele>1505.5723</ele>
        <time>2014-08-29T09:50:19Z</time>
      </trkpt>
      <trkpt lat="46.27088" lon="6.80848">
        <ele>1507.1484</ele>
        <time>2014-08-29T09:50:24Z</time>
      </trkpt>
      <trkpt lat="46.27086" lon="6.80848">
        <ele>1507.1484</ele>
        <time>2014-08-29T09:50:29Z</time>
      </trkpt>
      <trkpt lat="46.27084" lon="6.80846">
        <ele>1507.1484</ele>
        <time>2014-08-29T09:50:34Z</time>
      </trkpt>
      <trkpt lat="46.27083" lon="6.80844">
        <ele>1507.1484</ele>
        <time>2014-08-29T09:50:39Z</time>
      </trkpt>
      <trkpt lat="46.27082" lon="6.80844">
        <ele>1507.1484</ele>
        <time>2014-08-29T09:50:44Z</time>
      </trkpt>
      <trkpt lat="46.27082" lon="6.80845">
        <ele>1507.1484</ele>
        <time>2014-08-29T09:50:49Z</time>
      </trkpt>
      <trkpt lat="46.27081" lon="6.80846">
        <ele>1508.6011</ele>
        <time>2014-08-29T09:50:54Z</time>
      </trkpt>
      <trkpt lat="46.27075" lon="6.8084">
        <ele>1508.6011</ele>
        <time>2014-08-29T09:50:59Z</time>
      </trkpt>
      <trkpt lat="46.2707" lon="6.80832">
        <ele>1509.7268</ele>
        <time>2014-08-29T09:51:04Z</time>
      </trkpt>
      <trkpt lat="46.2707" lon="6.80832">
        <ele>1509.7268</ele>
        <time>2014-08-29T09:51:09Z</time>
      </trkpt>
      <trkpt lat="46.27069" lon="6.80832">
        <ele>1509.7268</ele>
        <time>2014-08-29T09:51:14Z</time>
      </trkpt>
      <trkpt lat="46.27069" lon="6.80832">
        <ele>1509.7268</ele>
        <time>2014-08-29T09:51:19Z</time>
      </trkpt>
      <trkpt lat="46.27067" lon="6.80839">
        <ele>1509.7268</ele>
        <time>2014-08-29T09:51:24Z</time>
      </trkpt>
      <trkpt lat="46.27066" lon="6.80842">
        <ele>1510.8286</ele>
        <time>2014-08-29T09:51:29Z</time>
      </trkpt>
      <trkpt lat="46.27066" lon="6.80842">
        <ele>1510.8286</ele>
        <time>2014-08-29T09:51:34Z</time>
      </trkpt>
      <trkpt lat="46.27061" lon="6.8085">
        <ele>1510.8286</ele>
        <time>2014-08-29T09:51:54Z</time>
      </trkpt>
      <trkpt lat="46.27057" lon="6.80856">
        <ele>1512.3599</ele>
        <time>2014-08-29T09:51:59Z</time>
      </trkpt>
      <trkpt lat="46.27055" lon="6.80859">
        <ele>1512.3599</ele>
        <time>2014-08-29T09:52:04Z</time>
      </trkpt>
      <trkpt lat="46.27054" lon="6.80862">
        <ele>1512.3599</ele>
        <time>2014-08-29T09:52:09Z</time>
      </trkpt>
      <trkpt lat="46.27054" lon="6.80866">
        <ele>1512.3599</ele>
        <time>2014-08-29T09:52:14Z</time>
      </trkpt>
      <trkpt lat="46.27055" lon="6.8087">
        <ele>1514.0189</ele>
        <time>2014-08-29T09:52:19Z</time>
      </trkpt>
      <trkpt lat="46.27056" lon="6.80873">
        <ele>1514.0189</ele>
        <time>2014-08-29T09:52:24Z</time>
      </trkpt>
      <trkpt lat="46.27056" lon="6.80876">
        <ele>1514.0189</ele>
        <time>2014-08-29T09:52:29Z</time>
      </trkpt>
      <trkpt lat="46.27055" lon="6.80879">
        <ele>1514.0189</ele>
        <time>2014-08-29T09:52:34Z</time>
      </trkpt>
      <trkpt lat="46.27053" lon="6.8088">
        <ele>1514.0189</ele>
        <time>2014-08-29T09:52:39Z</time>
      </trkpt>
      <trkpt lat="46.27053" lon="6.8088">
        <ele>1514.0189</ele>
        <time>2014-08-29T09:52:44Z</time>
      </trkpt>
      <trkpt lat="46.27052" lon="6.8088">
        <ele>1515.9148</ele>
        <time>2014-08-29T09:53:49Z</time>
      </trkpt>
      <trkpt lat="46.27052" lon="6.80879">
        <ele>1515.9148</ele>
        <time>2014-08-29T09:53:54Z</time>
      </trkpt>
      <trkpt lat="46.27048" lon="6.80877">
        <ele>1515.9148</ele>
        <time>2014-08-29T09:53:59Z</time>
      </trkpt>
      <trkpt lat="46.27045" lon="6.80876">
        <ele>1515.9148</ele>
        <time>2014-08-29T09:54:04Z</time>
      </trkpt>
      <trkpt lat="46.27043" lon="6.80875">
        <ele>1517.4852</ele>
        <time>2014-08-29T09:54:09Z</time>
      </trkpt>
      <trkpt lat="46.27038" lon="6.8087">
        <ele>1517.4852</ele>
        <time>2014-08-29T09:54:14Z</time>
      </trkpt>
      <trkpt lat="46.27036" lon="6.80869">
        <ele>1517.4852</ele>
        <time>2014-08-29T09:54:19Z</time>
      </trkpt>
      <trkpt lat="46.27036" lon="6.80869">
        <ele>1517.4852</ele>
        <time>2014-08-29T09:54:24Z</time>
      </trkpt>
      <trkpt lat="46.27036" lon="6.80869">
        <ele>1517.4852</ele>
        <time>2014-08-29T09:54:34Z</time>
      </trkpt>
      <trkpt lat="46.27036" lon="6.80869">
        <ele>1517.4852</ele>
        <time>2014-08-29T09:54:39Z</time>
      </trkpt>
      <trkpt lat="46.27036" lon="6.8087">
        <ele>1517.4852</ele>
        <time>2014-08-29T09:55:14Z</time>
      </trkpt>
      <trkpt lat="46.27036" lon="6.8087">
        <ele>1517.4852</ele>
        <time>2014-08-29T09:55:19Z</time>
      </trkpt>
      <trkpt lat="46.27036" lon="6.80871">
        <ele>1518.9446</ele>
        <time>2014-08-29T09:55:29Z</time>
      </trkpt>
      <trkpt lat="46.27036" lon="6.80871">
        <ele>1518.9446</ele>
        <time>2014-08-29T09:55:34Z</time>
      </trkpt>
      <trkpt lat="46.27035" lon="6.80871">
        <ele>1518.9446</ele>
        <time>2014-08-29T09:55:49Z</time>
      </trkpt>
      <trkpt lat="46.27035" lon="6.80871">
        <ele>1518.9446</ele>
        <time>2014-08-29T09:55:54Z</time>
      </trkpt>
      <trkpt lat="46.27032" lon="6.80874">
        <ele>1518.9446</ele>
        <time>2014-08-29T09:55:59Z</time>
      </trkpt>
      <trkpt lat="46.2703" lon="6.80879">
        <ele>1518.9446</ele>
        <time>2014-08-29T09:56:04Z</time>
      </trkpt>
      <trkpt lat="46.27029" lon="6.80882">
        <ele>1520.5209</ele>
        <time>2014-08-29T09:56:09Z</time>
      </trkpt>
      <trkpt lat="46.27028" lon="6.80884">
        <ele>1520.5209</ele>
        <time>2014-08-29T09:56:14Z</time>
      </trkpt>
      <trkpt lat="46.27029" lon="6.8089">
        <ele>1520.5209</ele>
        <time>2014-08-29T09:56:19Z</time>
      </trkpt>
      <trkpt lat="46.27027" lon="6.80895">
        <ele>1521.8771</ele>
        <time>2014-08-29T09:56:24Z</time>
      </trkpt>
      <trkpt lat="46.27024" lon="6.80905">
        <ele>1521.8771</ele>
        <time>2014-08-29T09:56:29Z</time>
      </trkpt>
      <trkpt lat="46.27022" lon="6.80908">
        <ele>1523.0333</ele>
        <time>2014-08-29T09:56:34Z</time>
      </trkpt>
      <trkpt lat="46.27021" lon="6.8091">
        <ele>1523.0333</ele>
        <time>2014-08-29T09:56:39Z</time>
      </trkpt>
      <trkpt lat="46.27021" lon="6.80911">
        <ele>1523.0333</ele>
        <time>2014-08-29T09:56:44Z</time>
      </trkpt>
      <trkpt lat="46.2702" lon="6.80912">
        <ele>1523.0333</ele>
        <time>2014-08-29T09:56:49Z</time>
      </trkpt>
      <trkpt lat="46.2702" lon="6.80912">
        <ele>1523.0333</ele>
        <time>2014-08-29T09:56:54Z</time>
      </trkpt>
      <trkpt lat="46.27012" lon="6.80918">
        <ele>1524.1667</ele>
        <time>2014-08-29T09:56:59Z</time>
      </trkpt>
      <trkpt lat="46.2701" lon="6.80919">
        <ele>1524.1667</ele>
        <time>2014-08-29T09:57:04Z</time>
      </trkpt>
      <trkpt lat="46.27008" lon="6.80922">
        <ele>1524.1667</ele>
        <time>2014-08-29T09:57:09Z</time>
      </trkpt>
      <trkpt lat="46.27004" lon="6.80926">
        <ele>1525.2112</ele>
        <time>2014-08-29T09:57:14Z</time>
      </trkpt>
      <trkpt lat="46.26999" lon="6.80932">
        <ele>1525.2112</ele>
        <time>2014-08-29T09:57:19Z</time>
      </trkpt>
      <trkpt lat="46.26998" lon="6.80934">
        <ele>1525.2112</ele>
        <time>2014-08-29T09:57:24Z</time>
      </trkpt>
      <trkpt lat="46.26993" lon="6.80937">
        <ele>1526.5089</ele>
        <time>2014-08-29T09:57:29Z</time>
      </trkpt>
      <trkpt lat="46.26993" lon="6.80937">
        <ele>1526.5089</ele>
        <time>2014-08-29T09:57:34Z</time>
      </trkpt>
      <trkpt lat="46.26991" lon="6.80937">
        <ele>1526.5089</ele>
        <time>2014-08-29T09:57:39Z</time>
      </trkpt>
      <trkpt lat="46.26984" lon="6.80938">
        <ele>1526.5089</ele>
        <time>2014-08-29T09:57:44Z</time>
      </trkpt>
      <trkpt lat="46.26981" lon="6.80939">
        <ele>1527.915</ele>
        <time>2014-08-29T09:57:49Z</time>
      </trkpt>
      <trkpt lat="46.26977" lon="6.8094">
        <ele>1527.915</ele>
        <time>2014-08-29T09:57:54Z</time>
      </trkpt>
      <trkpt lat="46.26973" lon="6.8094">
        <ele>1527.915</ele>
        <time>2014-08-29T09:57:59Z</time>
      </trkpt>
      <trkpt lat="46.26972" lon="6.8094">
        <ele>1527.915</ele>
        <time>2014-08-29T09:58:04Z</time>
      </trkpt>
      <trkpt lat="46.26972" lon="6.8094">
        <ele>1527.915</ele>
        <time>2014-08-29T09:58:09Z</time>
      </trkpt>
      <trkpt lat="46.26968" lon="6.80948">
        <ele>1529.3527</ele>
        <time>2014-08-29T09:58:14Z</time>
      </trkpt>
      <trkpt lat="46.26965" lon="6.8095">
        <ele>1529.3527</ele>
        <time>2014-08-29T09:58:19Z</time>
      </trkpt>
      <trkpt lat="46.26965" lon="6.80955">
        <ele>1529.3527</ele>
        <time>2014-08-29T09:58:24Z</time>
      </trkpt>
      <trkpt lat="46.26966" lon="6.80957">
        <ele>1529.3527</ele>
        <time>2014-08-29T09:58:29Z</time>
      </trkpt>
      <trkpt lat="46.26968" lon="6.80958">
        <ele>1530.678</ele>
        <time>2014-08-29T09:58:34Z</time>
      </trkpt>
      <trkpt lat="46.2697" lon="6.8096">
        <ele>1530.678</ele>
        <time>2014-08-29T09:58:39Z</time>
      </trkpt>
      <trkpt lat="46.2697" lon="6.8096">
        <ele>1530.678</ele>
        <time>2014-08-29T09:58:44Z</time>
      </trkpt>
      <trkpt lat="46.26969" lon="6.80958">
        <ele>1530.678</ele>
        <time>2014-08-29T09:58:54Z</time>
      </trkpt>
      <trkpt lat="46.26969" lon="6.80957">
        <ele>1530.678</ele>
        <time>2014-08-29T09:58:59Z</time>
      </trkpt>
      <trkpt lat="46.26969" lon="6.80951">
        <ele>1531.2828</ele>
        <time>2014-08-29T09:59:04Z</time>
      </trkpt>
      <trkpt lat="46.26967" lon="6.80949">
        <ele>1531.2828</ele>
        <time>2014-08-29T09:59:09Z</time>
      </trkpt>
      <trkpt lat="46.26965" lon="6.80948">
        <ele>1531.2828</ele>
        <time>2014-08-29T09:59:14Z</time>
      </trkpt>
      <trkpt lat="46.26962" lon="6.80946">
        <ele>1531.2828</ele>
        <time>2014-08-29T09:59:19Z</time>
      </trkpt>
      <trkpt lat="46.26964" lon="6.80946">
        <ele>1531.6862</ele>
        <time>2014-08-29T09:59:24Z</time>
      </trkpt>
      <trkpt lat="46.26967" lon="6.80945">
        <ele>1531.6862</ele>
        <time>2014-08-29T09:59:29Z</time>
      </trkpt>
      <trkpt lat="46.26967" lon="6.80946">
        <ele>1531.6862</ele>
        <time>2014-08-29T09:59:34Z</time>
      </trkpt>
      <trkpt lat="46.26967" lon="6.80947">
        <ele>1531.6862</ele>
        <time>2014-08-29T09:59:39Z</time>
      </trkpt>
      <trkpt lat="46.26967" lon="6.80947">
        <ele>1531.6862</ele>
        <time>2014-08-29T09:59:44Z</time>
      </trkpt>
      <trkpt lat="46.26966" lon="6.80948">
        <ele>1531.6862</ele>
        <time>2014-08-29T10:04:24Z</time>
      </trkpt>
      <trkpt lat="46.26966" lon="6.80949">
        <ele>1531.6862</ele>
        <time>2014-08-29T10:04:29Z</time>
      </trkpt>
      <trkpt lat="46.26966" lon="6.80949">
        <ele>1531.6862</ele>
        <time>2014-08-29T10:04:34Z</time>
      </trkpt>
      <trkpt lat="46.26965" lon="6.80949">
        <ele>1531.6862</ele>
        <time>2014-08-29T10:12:59Z</time>
      </trkpt>
      <trkpt lat="46.26966" lon="6.8095">
        <ele>1531.6862</ele>
        <time>2014-08-29T10:13:19Z</time>
      </trkpt>
      <trkpt lat="46.26966" lon="6.8095">
        <ele>1531.6862</ele>
        <time>2014-08-29T10:13:24Z</time>
      </trkpt>
      <trkpt lat="46.26966" lon="6.80952">
        <ele>1534.3868</ele>
        <time>2014-08-29T10:13:34Z</time>
      </trkpt>
      <trkpt lat="46.26966" lon="6.80952">
        <ele>1534.3868</ele>
        <time>2014-08-29T10:13:39Z</time>
      </trkpt>
      <trkpt lat="46.26968" lon="6.80953">
        <ele>1534.3868</ele>
        <time>2014-08-29T10:15:29Z</time>
      </trkpt>
      <trkpt lat="46.26968" lon="6.80953">
        <ele>1534.3868</ele>
        <time>2014-08-29T10:15:34Z</time>
      </trkpt>
      <trkpt lat="46.26967" lon="6.80952">
        <ele>1534.3868</ele>
        <time>2014-08-29T10:15:44Z</time>
      </trkpt>
      <trkpt lat="46.26966" lon="6.80953">
        <ele>1534.3868</ele>
        <time>2014-08-29T10:15:49Z</time>
      </trkpt>
      <trkpt lat="46.26963" lon="6.80955">
        <ele>1534.3868</ele>
        <time>2014-08-29T10:15:54Z</time>
      </trkpt>
      <trkpt lat="46.26959" lon="6.80958">
        <ele>1535.6555</ele>
        <time>2014-08-29T10:15:59Z</time>
      </trkpt>
      <trkpt lat="46.26958" lon="6.80959">
        <ele>1535.6555</ele>
        <time>2014-08-29T10:16:04Z</time>
      </trkpt>
      <trkpt lat="46.26958" lon="6.80959">
        <ele>1535.6555</ele>
        <time>2014-08-29T10:16:09Z</time>
      </trkpt>
      <trkpt lat="46.26957" lon="6.80961">
        <ele>1535.6555</ele>
        <time>2014-08-29T10:16:29Z</time>
      </trkpt>
      <trkpt lat="46.26954" lon="6.80964">
        <ele>1535.6555</ele>
        <time>2014-08-29T10:16:34Z</time>
      </trkpt>
      <trkpt lat="46.26952" lon="6.80966">
        <ele>1535.6555</ele>
        <time>2014-08-29T10:16:39Z</time>
      </trkpt>
      <trkpt lat="46.26952" lon="6.80967">
        <ele>1536.4358</ele>
        <time>2014-08-29T10:16:44Z</time>
      </trkpt>
      <trkpt lat="46.26946" lon="6.80974">
        <ele>1536.4358</ele>
        <time>2014-08-29T10:16:49Z</time>
      </trkpt>
      <trkpt lat="46.26941" lon="6.80978">
        <ele>1536.9838</ele>
        <time>2014-08-29T10:16:54Z</time>
      </trkpt>
      <trkpt lat="46.26937" lon="6.80984">
        <ele>1536.9838</ele>
        <time>2014-08-29T10:16:59Z</time>
      </trkpt>
      <trkpt lat="46.26934" lon="6.80987">
        <ele>1537.3066</ele>
        <time>2014-08-29T10:17:04Z</time>
      </trkpt>
      <trkpt lat="46.26931" lon="6.80992">
        <ele>1537.3066</ele>
        <time>2014-08-29T10:17:09Z</time>
      </trkpt>
      <trkpt lat="46.26926" lon="6.80992">
        <ele>1537.2963</ele>
        <time>2014-08-29T10:17:14Z</time>
      </trkpt>
      <trkpt lat="46.26923" lon="6.80992">
        <ele>1537.2963</ele>
        <time>2014-08-29T10:17:19Z</time>
      </trkpt>
      <trkpt lat="46.26922" lon="6.80993">
        <ele>1537.2963</ele>
        <time>2014-08-29T10:17:24Z</time>
      </trkpt>
      <trkpt lat="46.26921" lon="6.80993">
        <ele>1537.2963</ele>
        <time>2014-08-29T10:17:29Z</time>
      </trkpt>
      <trkpt lat="46.26916" lon="6.80996">
        <ele>1537.4442</ele>
        <time>2014-08-29T10:17:34Z</time>
      </trkpt>
      <trkpt lat="46.26915" lon="6.80999">
        <ele>1537.4442</ele>
        <time>2014-08-29T10:17:39Z</time>
      </trkpt>
      <trkpt lat="46.26916" lon="6.80999">
        <ele>1537.4442</ele>
        <time>2014-08-29T10:17:44Z</time>
      </trkpt>
      <trkpt lat="46.26913" lon="6.80998">
        <ele>1537.4442</ele>
        <time>2014-08-29T10:17:49Z</time>
      </trkpt>
      <trkpt lat="46.26911" lon="6.80999">
        <ele>1537.4442</ele>
        <time>2014-08-29T10:17:54Z</time>
      </trkpt>
      <trkpt lat="46.26912" lon="6.81003">
        <ele>1537.9601</ele>
        <time>2014-08-29T10:17:59Z</time>
      </trkpt>
      <trkpt lat="46.2691" lon="6.81004">
        <ele>1537.9601</ele>
        <time>2014-08-29T10:18:04Z</time>
      </trkpt>
      <trkpt lat="46.26908" lon="6.81004">
        <ele>1537.9601</ele>
        <time>2014-08-29T10:18:09Z</time>
      </trkpt>
      <trkpt lat="46.26905" lon="6.81003">
        <ele>1537.9601</ele>
        <time>2014-08-29T10:18:14Z</time>
      </trkpt>
      <trkpt lat="46.26905" lon="6.81001">
        <ele>1537.9601</ele>
        <time>2014-08-29T10:18:19Z</time>
      </trkpt>
      <trkpt lat="46.26902" lon="6.80998">
        <ele>1538.7201</ele>
        <time>2014-08-29T10:18:24Z</time>
      </trkpt>
      <trkpt lat="46.269" lon="6.80994">
        <ele>1538.7201</ele>
        <time>2014-08-29T10:18:29Z</time>
      </trkpt>
      <trkpt lat="46.26899" lon="6.80993">
        <ele>1538.7201</ele>
        <time>2014-08-29T10:18:34Z</time>
      </trkpt>
      <trkpt lat="46.26898" lon="6.80992">
        <ele>1538.7201</ele>
        <time>2014-08-29T10:18:39Z</time>
      </trkpt>
      <trkpt lat="46.26898" lon="6.80992">
        <ele>1538.7201</ele>
        <time>2014-08-29T10:18:44Z</time>
      </trkpt>
      <trkpt lat="46.26899" lon="6.80991">
        <ele>1538.7201</ele>
        <time>2014-08-29T10:18:49Z</time>
      </trkpt>
      <trkpt lat="46.26897" lon="6.80988">
        <ele>1538.7201</ele>
        <time>2014-08-29T10:18:54Z</time>
      </trkpt>
      <trkpt lat="46.26897" lon="6.80986">
        <ele>1539.6809</ele>
        <time>2014-08-29T10:18:59Z</time>
      </trkpt>
      <trkpt lat="46.26896" lon="6.80985">
        <ele>1539.6809</ele>
        <time>2014-08-29T10:19:04Z</time>
      </trkpt>
      <trkpt lat="46.26895" lon="6.80984">
        <ele>1539.6809</ele>
        <time>2014-08-29T10:19:09Z</time>
      </trkpt>
      <trkpt lat="46.26894" lon="6.80984">
        <ele>1539.6809</ele>
        <time>2014-08-29T10:19:14Z</time>
      </trkpt>
      <trkpt lat="46.26893" lon="6.80983">
        <ele>1539.6809</ele>
        <time>2014-08-29T10:19:19Z</time>
      </trkpt>
      <trkpt lat="46.26893" lon="6.80981">
        <ele>1539.6809</ele>
        <time>2014-08-29T10:19:24Z</time>
      </trkpt>
      <trkpt lat="46.26893" lon="6.80977">
        <ele>1539.6809</ele>
        <time>2014-08-29T10:19:29Z</time>
      </trkpt>
      <trkpt lat="46.26891" lon="6.80972">
        <ele>1541.3057</ele>
        <time>2014-08-29T10:19:34Z</time>
      </trkpt>
      <trkpt lat="46.26889" lon="6.80972">
        <ele>1541.3057</ele>
        <time>2014-08-29T10:19:39Z</time>
      </trkpt>
      <trkpt lat="46.26887" lon="6.8097">
        <ele>1541.3057</ele>
        <time>2014-08-29T10:19:44Z</time>
      </trkpt>
      <trkpt lat="46.26887" lon="6.80966">
        <ele>1541.3057</ele>
        <time>2014-08-29T10:19:49Z</time>
      </trkpt>
      <trkpt lat="46.26886" lon="6.80965">
        <ele>1541.3057</ele>
        <time>2014-08-29T10:19:54Z</time>
      </trkpt>
      <trkpt lat="46.26884" lon="6.80962">
        <ele>1542.9844</ele>
        <time>2014-08-29T10:19:59Z</time>
      </trkpt>
      <trkpt lat="46.26883" lon="6.80958">
        <ele>1542.9844</ele>
        <time>2014-08-29T10:20:04Z</time>
      </trkpt>
      <trkpt lat="46.26881" lon="6.80952">
        <ele>1542.9844</ele>
        <time>2014-08-29T10:20:09Z</time>
      </trkpt>
      <trkpt lat="46.26878" lon="6.80947">
        <ele>1544.7421</ele>
        <time>2014-08-29T10:20:14Z</time>
      </trkpt>
      <trkpt lat="46.26875" lon="6.80942">
        <ele>1544.7421</ele>
        <time>2014-08-29T10:20:19Z</time>
      </trkpt>
      <trkpt lat="46.26875" lon="6.80941">
        <ele>1544.7421</ele>
        <time>2014-08-29T10:20:24Z</time>
      </trkpt>
      <trkpt lat="46.26874" lon="6.80938">
        <ele>1544.7421</ele>
        <time>2014-08-29T10:20:29Z</time>
      </trkpt>
      <trkpt lat="46.26874" lon="6.80933">
        <ele>1546.4719</ele>
        <time>2014-08-29T10:20:34Z</time>
      </trkpt>
      <trkpt lat="46.2687" lon="6.80931">
        <ele>1546.4719</ele>
        <time>2014-08-29T10:20:39Z</time>
      </trkpt>
      <trkpt lat="46.26869" lon="6.80927">
        <ele>1546.4719</ele>
        <time>2014-08-29T10:20:44Z</time>
      </trkpt>
      <trkpt lat="46.26868" lon="6.80927">
        <ele>1546.4719</ele>
        <time>2014-08-29T10:20:49Z</time>
      </trkpt>
      <trkpt lat="46.26868" lon="6.80922">
        <ele>1548.493</ele>
        <time>2014-08-29T10:20:54Z</time>
      </trkpt>
      <trkpt lat="46.26868" lon="6.80922">
        <ele>1548.493</ele>
        <time>2014-08-29T10:20:59Z</time>
      </trkpt>
      <trkpt lat="46.26867" lon="6.80921">
        <ele>1548.493</ele>
        <time>2014-08-29T10:21:04Z</time>
      </trkpt>
      <trkpt lat="46.26865" lon="6.80911">
        <ele>1548.493</ele>
        <time>2014-08-29T10:21:09Z</time>
      </trkpt>
      <trkpt lat="46.26862" lon="6.80906">
        <ele>1550.5957</ele>
        <time>2014-08-29T10:21:14Z</time>
      </trkpt>
      <trkpt lat="46.2686" lon="6.80903">
        <ele>1550.5957</ele>
        <time>2014-08-29T10:21:19Z</time>
      </trkpt>
      <trkpt lat="46.26862" lon="6.809">
        <ele>1550.5957</ele>
        <time>2014-08-29T10:21:24Z</time>
      </trkpt>
      <trkpt lat="46.26861" lon="6.80897">
        <ele>1550.5957</ele>
        <time>2014-08-29T10:21:29Z</time>
      </trkpt>
      <trkpt lat="46.26859" lon="6.80894">
        <ele>1552.7292</ele>
        <time>2014-08-29T10:21:34Z</time>
      </trkpt>
      <trkpt lat="46.26857" lon="6.8089">
        <ele>1552.7292</ele>
        <time>2014-08-29T10:21:39Z</time>
      </trkpt>
      <trkpt lat="46.26855" lon="6.80885">
        <ele>1552.7292</ele>
        <time>2014-08-29T10:21:44Z</time>
      </trkpt>
      <trkpt lat="46.26856" lon="6.8088">
        <ele>1554.5585</ele>
        <time>2014-08-29T10:21:49Z</time>
      </trkpt>
      <trkpt lat="46.26855" lon="6.80873">
        <ele>1554.5585</ele>
        <time>2014-08-29T10:21:54Z</time>
      </trkpt>
      <trkpt lat="46.26853" lon="6.80869">
        <ele>1554.5585</ele>
        <time>2014-08-29T10:21:59Z</time>
      </trkpt>
      <trkpt lat="46.26853" lon="6.80868">
        <ele>1554.5585</ele>
        <time>2014-08-29T10:22:04Z</time>
      </trkpt>
      <trkpt lat="46.26854" lon="6.80861">
        <ele>1556.1772</ele>
        <time>2014-08-29T10:22:09Z</time>
      </trkpt>
      <trkpt lat="46.26855" lon="6.80852">
        <ele>1556.1772</ele>
        <time>2014-08-29T10:22:14Z</time>
      </trkpt>
      <trkpt lat="46.26855" lon="6.80844">
        <ele>1557.716</ele>
        <time>2014-08-29T10:22:19Z</time>
      </trkpt>
      <trkpt lat="46.26855" lon="6.80838">
        <ele>1557.716</ele>
        <time>2014-08-29T10:22:24Z</time>
      </trkpt>
      <trkpt lat="46.26853" lon="6.80835">
        <ele>1557.716</ele>
        <time>2014-08-29T10:22:29Z</time>
      </trkpt>
      <trkpt lat="46.26852" lon="6.80829">
        <ele>1559.3534</ele>
        <time>2014-08-29T10:22:34Z</time>
      </trkpt>
      <trkpt lat="46.26851" lon="6.80823">
        <ele>1559.3534</ele>
        <time>2014-08-29T10:22:39Z</time>
      </trkpt>
      <trkpt lat="46.26849" lon="6.8082">
        <ele>1559.3534</ele>
        <time>2014-08-29T10:22:44Z</time>
      </trkpt>
      <trkpt lat="46.26849" lon="6.80819">
        <ele>1559.3534</ele>
        <time>2014-08-29T10:22:49Z</time>
      </trkpt>
      <trkpt lat="46.2685" lon="6.80817">
        <ele>1561.1685</ele>
        <time>2014-08-29T10:22:54Z</time>
      </trkpt>
      <trkpt lat="46.26847" lon="6.80815">
        <ele>1561.1685</ele>
        <time>2014-08-29T10:22:59Z</time>
      </trkpt>
      <trkpt lat="46.26847" lon="6.80812">
        <ele>1561.1685</ele>
        <time>2014-08-29T10:23:04Z</time>
      </trkpt>
      <trkpt lat="46.26847" lon="6.80809">
        <ele>1561.1685</ele>
        <time>2014-08-29T10:23:09Z</time>
      </trkpt>
      <trkpt lat="46.26845" lon="6.80808">
        <ele>1562.7726</ele>
        <time>2014-08-29T10:23:14Z</time>
      </trkpt>
      <trkpt lat="46.26844" lon="6.80805">
        <ele>1562.7726</ele>
        <time>2014-08-29T10:23:19Z</time>
      </trkpt>
      <trkpt lat="46.26846" lon="6.80801">
        <ele>1562.7726</ele>
        <time>2014-08-29T10:23:24Z</time>
      </trkpt>
      <trkpt lat="46.26846" lon="6.80796">
        <ele>1564.152</ele>
        <time>2014-08-29T10:23:29Z</time>
      </trkpt>
      <trkpt lat="46.26844" lon="6.80794">
        <ele>1564.152</ele>
        <time>2014-08-29T10:23:34Z</time>
      </trkpt>
      <trkpt lat="46.26844" lon="6.80789">
        <ele>1564.152</ele>
        <time>2014-08-29T10:23:39Z</time>
      </trkpt>
      <trkpt lat="46.26845" lon="6.80786">
        <ele>1564.152</ele>
        <time>2014-08-29T10:23:44Z</time>
      </trkpt>
      <trkpt lat="46.26847" lon="6.80782">
        <ele>1565.3812</ele>
        <time>2014-08-29T10:23:49Z</time>
      </trkpt>
      <trkpt lat="46.26848" lon="6.80779">
        <ele>1565.3812</ele>
        <time>2014-08-29T10:23:54Z</time>
      </trkpt>
      <trkpt lat="46.26848" lon="6.80776">
        <ele>1565.3812</ele>
        <time>2014-08-29T10:23:59Z</time>
      </trkpt>
      <trkpt lat="46.26848" lon="6.80774">
        <ele>1565.3812</ele>
        <time>2014-08-29T10:24:04Z</time>
      </trkpt>
      <trkpt lat="46.26849" lon="6.80772">
        <ele>1565.3812</ele>
        <time>2014-08-29T10:24:09Z</time>
      </trkpt>
      <trkpt lat="46.26852" lon="6.80769">
        <ele>1566.4429</ele>
        <time>2014-08-29T10:24:14Z</time>
      </trkpt>
      <trkpt lat="46.26851" lon="6.80763">
        <ele>1566.4429</ele>
        <time>2014-08-29T10:24:19Z</time>
      </trkpt>
      <trkpt lat="46.2685" lon="6.80758">
        <ele>1566.4429</ele>
        <time>2014-08-29T10:24:24Z</time>
      </trkpt>
      <trkpt lat="46.26851" lon="6.80754">
        <ele>1567.466</ele>
        <time>2014-08-29T10:24:29Z</time>
      </trkpt>
      <trkpt lat="46.2685" lon="6.80753">
        <ele>1567.466</ele>
        <time>2014-08-29T10:24:34Z</time>
      </trkpt>
      <trkpt lat="46.2685" lon="6.80753">
        <ele>1567.466</ele>
        <time>2014-08-29T10:24:39Z</time>
      </trkpt>
      <trkpt lat="46.2685" lon="6.80751">
        <ele>1567.466</ele>
        <time>2014-08-29T10:24:44Z</time>
      </trkpt>
      <trkpt lat="46.2685" lon="6.8075">
        <ele>1567.466</ele>
        <time>2014-08-29T10:24:49Z</time>
      </trkpt>
      <trkpt lat="46.26852" lon="6.8074">
        <ele>1569.1027</ele>
        <time>2014-08-29T10:24:54Z</time>
      </trkpt>
      <trkpt lat="46.26853" lon="6.80733">
        <ele>1569.1027</ele>
        <time>2014-08-29T10:24:59Z</time>
      </trkpt>
      <trkpt lat="46.26853" lon="6.80727">
        <ele>1569.1027</ele>
        <time>2014-08-29T10:25:04Z</time>
      </trkpt>
      <trkpt lat="46.26851" lon="6.80724">
        <ele>1570.875</ele>
        <time>2014-08-29T10:25:09Z</time>
      </trkpt>
      <trkpt lat="46.26851" lon="6.8072">
        <ele>1570.875</ele>
        <time>2014-08-29T10:25:14Z</time>
      </trkpt>
      <trkpt lat="46.2685" lon="6.80715">
        <ele>1570.875</ele>
        <time>2014-08-29T10:25:19Z</time>
      </trkpt>
      <trkpt lat="46.26847" lon="6.80714">
        <ele>1572.628</ele>
        <time>2014-08-29T10:25:24Z</time>
      </trkpt>
      <trkpt lat="46.26844" lon="6.80715">
        <ele>1572.628</ele>
        <time>2014-08-29T10:25:29Z</time>
      </trkpt>
      <trkpt lat="46.26844" lon="6.80715">
        <ele>1572.628</ele>
        <time>2014-08-29T10:25:34Z</time>
      </trkpt>
      <trkpt lat="46.26844" lon="6.80713">
        <ele>1572.628</ele>
        <time>2014-08-29T10:25:39Z</time>
      </trkpt>
      <trkpt lat="46.26844" lon="6.80712">
        <ele>1572.628</ele>
        <time>2014-08-29T10:25:44Z</time>
      </trkpt>
      <trkpt lat="46.26843" lon="6.8071">
        <ele>1572.628</ele>
        <time>2014-08-29T10:25:49Z</time>
      </trkpt>
      <trkpt lat="46.26843" lon="6.80711">
        <ele>1572.628</ele>
        <time>2014-08-29T10:25:54Z</time>
      </trkpt>
      <trkpt lat="46.26843" lon="6.80711">
        <ele>1572.628</ele>
        <time>2014-08-29T10:25:59Z</time>
      </trkpt>
      <trkpt lat="46.26842" lon="6.80711">
        <ele>1572.628</ele>
        <time>2014-08-29T10:26:04Z</time>
      </trkpt>
      <trkpt lat="46.26841" lon="6.80712">
        <ele>1572.628</ele>
        <time>2014-08-29T10:26:09Z</time>
      </trkpt>
      <trkpt lat="46.26839" lon="6.80715">
        <ele>1574.5206</ele>
        <time>2014-08-29T10:26:14Z</time>
      </trkpt>
      <trkpt lat="46.2684" lon="6.80718">
        <ele>1574.5206</ele>
        <time>2014-08-29T10:26:19Z</time>
      </trkpt>
      <trkpt lat="46.26841" lon="6.80723">
        <ele>1574.5206</ele>
        <time>2014-08-29T10:26:24Z</time>
      </trkpt>
      <trkpt lat="46.2684" lon="6.80726">
        <ele>1574.5206</ele>
        <time>2014-08-29T10:26:29Z</time>
      </trkpt>
      <trkpt lat="46.26837" lon="6.80731">
        <ele>1576.613</ele>
        <time>2014-08-29T10:26:34Z</time>
      </trkpt>
      <trkpt lat="46.26835" lon="6.80734">
        <ele>1576.613</ele>
        <time>2014-08-29T10:26:39Z</time>
      </trkpt>
      <trkpt lat="46.26835" lon="6.80736">
        <ele>1576.613</ele>
        <time>2014-08-29T10:26:44Z</time>
      </trkpt>
      <trkpt lat="46.26833" lon="6.80738">
        <ele>1576.613</ele>
        <time>2014-08-29T10:26:49Z</time>
      </trkpt>
      <trkpt lat="46.26832" lon="6.80738">
        <ele>1576.613</ele>
        <time>2014-08-29T10:26:54Z</time>
      </trkpt>
      <trkpt lat="46.26832" lon="6.80736">
        <ele>1576.613</ele>
        <time>2014-08-29T10:26:59Z</time>
      </trkpt>
      <trkpt lat="46.26832" lon="6.80736">
        <ele>1576.613</ele>
        <time>2014-08-29T10:27:04Z</time>
      </trkpt>
      <trkpt lat="46.26832" lon="6.80734">
        <ele>1579.1915</ele>
        <time>2014-08-29T10:27:19Z</time>
      </trkpt>
      <trkpt lat="46.26832" lon="6.80733">
        <ele>1579.1915</ele>
        <time>2014-08-29T10:27:24Z</time>
      </trkpt>
      <trkpt lat="46.26831" lon="6.8073">
        <ele>1579.1915</ele>
        <time>2014-08-29T10:27:29Z</time>
      </trkpt>
      <trkpt lat="46.2683" lon="6.80729">
        <ele>1579.1915</ele>
        <time>2014-08-29T10:27:34Z</time>
      </trkpt>
      <trkpt lat="46.2683" lon="6.80727">
        <ele>1579.1915</ele>
        <time>2014-08-29T10:27:39Z</time>
      </trkpt>
      <trkpt lat="46.2683" lon="6.80727">
        <ele>1579.1915</ele>
        <time>2014-08-29T10:27:44Z</time>
      </trkpt>
      <trkpt lat="46.26829" lon="6.80726">
        <ele>1579.1915</ele>
        <time>2014-08-29T10:27:54Z</time>
      </trkpt>
      <trkpt lat="46.26829" lon="6.80726">
        <ele>1579.1915</ele>
        <time>2014-08-29T10:28:04Z</time>
      </trkpt>
      <trkpt lat="46.26828" lon="6.80727">
        <ele>1579.1915</ele>
        <time>2014-08-29T10:28:09Z</time>
      </trkpt>
      <trkpt lat="46.26825" lon="6.80726">
        <ele>1582.8076</ele>
        <time>2014-08-29T10:28:14Z</time>
      </trkpt>
      <trkpt lat="46.26824" lon="6.80726">
        <ele>1582.8076</ele>
        <time>2014-08-29T10:28:19Z</time>
      </trkpt>
      <trkpt lat="46.26824" lon="6.80724">
        <ele>1582.8076</ele>
        <time>2014-08-29T10:28:24Z</time>
      </trkpt>
      <trkpt lat="46.26819" lon="6.80706">
        <ele>1586.7161</ele>
        <time>2014-08-29T10:28:29Z</time>
      </trkpt>
      <trkpt lat="46.26817" lon="6.80706">
        <ele>1586.7161</ele>
        <time>2014-08-29T10:28:34Z</time>
      </trkpt>
      <trkpt lat="46.26816" lon="6.80706">
        <ele>1586.7161</ele>
        <time>2014-08-29T10:28:39Z</time>
      </trkpt>
      <trkpt lat="46.26813" lon="6.80705">
        <ele>1586.7161</ele>
        <time>2014-08-29T10:28:44Z</time>
      </trkpt>
      <trkpt lat="46.26813" lon="6.80705">
        <ele>1586.7161</ele>
        <time>2014-08-29T10:28:49Z</time>
      </trkpt>
      <trkpt lat="46.26812" lon="6.80704">
        <ele>1586.7161</ele>
        <time>2014-08-29T10:28:59Z</time>
      </trkpt>
      <trkpt lat="46.26804" lon="6.80703">
        <ele>1590.9172</ele>
        <time>2014-08-29T10:29:04Z</time>
      </trkpt>
      <trkpt lat="46.26804" lon="6.80703">
        <ele>1590.9172</ele>
        <time>2014-08-29T10:29:09Z</time>
      </trkpt>
      <trkpt lat="46.26802" lon="6.80706">
        <ele>1590.9172</ele>
        <time>2014-08-29T10:29:29Z</time>
      </trkpt>
      <trkpt lat="46.26802" lon="6.80706">
        <ele>1590.9172</ele>
        <time>2014-08-29T10:29:34Z</time>
      </trkpt>
      <trkpt lat="46.26801" lon="6.80706">
        <ele>1590.9172</ele>
        <time>2014-08-29T10:29:44Z</time>
      </trkpt>
      <trkpt lat="46.26801" lon="6.80706">
        <ele>1590.9172</ele>
        <time>2014-08-29T10:29:49Z</time>
      </trkpt>
      <trkpt lat="46.268" lon="6.80706">
        <ele>1590.9172</ele>
        <time>2014-08-29T10:29:54Z</time>
      </trkpt>
      <trkpt lat="46.26798" lon="6.80708">
        <ele>1590.9172</ele>
        <time>2014-08-29T10:29:59Z</time>
      </trkpt>
      <trkpt lat="46.26797" lon="6.80707">
        <ele>1590.9172</ele>
        <time>2014-08-29T10:30:04Z</time>
      </trkpt>
      <trkpt lat="46.26797" lon="6.80707">
        <ele>1590.9172</ele>
        <time>2014-08-29T10:30:09Z</time>
      </trkpt>
      <trkpt lat="46.26797" lon="6.80709">
        <ele>1596.7219</ele>
        <time>2014-08-29T10:30:14Z</time>
      </trkpt>
      <trkpt lat="46.26798" lon="6.80712">
        <ele>1596.7219</ele>
        <time>2014-08-29T10:30:19Z</time>
      </trkpt>
      <trkpt lat="46.26799" lon="6.80713">
        <ele>1596.7219</ele>
        <time>2014-08-29T10:30:24Z</time>
      </trkpt>
      <trkpt lat="46.268" lon="6.80716">
        <ele>1596.7219</ele>
        <time>2014-08-29T10:30:29Z</time>
      </trkpt>
      <trkpt lat="46.268" lon="6.80716">
        <ele>1596.7219</ele>
        <time>2014-08-29T10:30:34Z</time>
      </trkpt>
      <trkpt lat="46.26798" lon="6.80716">
        <ele>1596.7219</ele>
        <time>2014-08-29T10:30:49Z</time>
      </trkpt>
      <trkpt lat="46.26798" lon="6.80716">
        <ele>1596.7219</ele>
        <time>2014-08-29T10:30:54Z</time>
      </trkpt>
      <trkpt lat="46.26798" lon="6.80715">
        <ele>1596.7219</ele>
        <time>2014-08-29T10:31:34Z</time>
      </trkpt>
      <trkpt lat="46.26799" lon="6.80717">
        <ele>1603.3661</ele>
        <time>2014-08-29T10:31:39Z</time>
      </trkpt>
      <trkpt lat="46.26796" lon="6.80718">
        <ele>1603.3661</ele>
        <time>2014-08-29T10:31:44Z</time>
      </trkpt>
      <trkpt lat="46.26793" lon="6.80719">
        <ele>1603.3661</ele>
        <time>2014-08-29T10:31:49Z</time>
      </trkpt>
      <trkpt lat="46.26788" lon="6.8072">
        <ele>1609.2747</ele>
        <time>2014-08-29T10:31:54Z</time>
      </trkpt>
      <trkpt lat="46.26787" lon="6.8072">
        <ele>1609.2747</ele>
        <time>2014-08-29T10:31:59Z</time>
      </trkpt>
      <trkpt lat="46.26787" lon="6.8072">
        <ele>1609.2747</ele>
        <time>2014-08-29T10:32:04Z</time>
      </trkpt>
      <trkpt lat="46.26787" lon="6.80722">
        <ele>1609.2747</ele>
        <time>2014-08-29T10:32:19Z</time>
      </trkpt>
      <trkpt lat="46.26787" lon="6.80722">
        <ele>1609.2747</ele>
        <time>2014-08-29T10:32:24Z</time>
      </trkpt>
      <trkpt lat="46.26786" lon="6.80722">
        <ele>1609.2747</ele>
        <time>2014-08-29T10:32:29Z</time>
      </trkpt>
      <trkpt lat="46.26785" lon="6.80722">
        <ele>1609.2747</ele>
        <time>2014-08-29T10:32:34Z</time>
      </trkpt>
      <trkpt lat="46.26785" lon="6.80723">
        <ele>1609.2747</ele>
        <time>2014-08-29T10:32:39Z</time>
      </trkpt>
      <trkpt lat="46.26785" lon="6.80723">
        <ele>1609.2747</ele>
        <time>2014-08-29T10:32:44Z</time>
      </trkpt>
      <trkpt lat="46.26784" lon="6.80722">
        <ele>1609.2747</ele>
        <time>2014-08-29T10:32:49Z</time>
      </trkpt>
      <trkpt lat="46.26784" lon="6.80722">
        <ele>1609.2747</ele>
        <time>2014-08-29T10:32:54Z</time>
      </trkpt>
      <trkpt lat="46.26778" lon="6.80724">
        <ele>1614.7345</ele>
        <time>2014-08-29T10:32:59Z</time>
      </trkpt>
      <trkpt lat="46.26776" lon="6.80724">
        <ele>1614.7345</ele>
        <time>2014-08-29T10:33:04Z</time>
      </trkpt>
      <trkpt lat="46.26776" lon="6.80724">
        <ele>1614.7345</ele>
        <time>2014-08-29T10:34:19Z</time>
      </trkpt>
      <trkpt lat="46.26776" lon="6.80723">
        <ele>1614.7345</ele>
        <time>2014-08-29T10:34:24Z</time>
      </trkpt>
      <trkpt lat="46.26775" lon="6.80722">
        <ele>1614.7345</ele>
        <time>2014-08-29T10:34:29Z</time>
      </trkpt>
      <trkpt lat="46.26773" lon="6.80719">
        <ele>1614.7345</ele>
        <time>2014-08-29T10:34:34Z</time>
      </trkpt>
      <trkpt lat="46.26773" lon="6.80719">
        <ele>1614.7345</ele>
        <time>2014-08-29T10:34:39Z</time>
      </trkpt>
      <trkpt lat="46.26772" lon="6.80718">
        <ele>1614.7345</ele>
        <time>2014-08-29T10:35:04Z</time>
      </trkpt>
      <trkpt lat="46.2677" lon="6.80717">
        <ele>1621.2518</ele>
        <time>2014-08-29T10:35:09Z</time>
      </trkpt>
      <trkpt lat="46.26767" lon="6.80716">
        <ele>1621.2518</ele>
        <time>2014-08-29T10:35:14Z</time>
      </trkpt>
      <trkpt lat="46.26766" lon="6.80717">
        <ele>1621.2518</ele>
        <time>2014-08-29T10:35:19Z</time>
      </trkpt>
      <trkpt lat="46.26766" lon="6.80717">
        <ele>1621.2518</ele>
        <time>2014-08-29T10:35:24Z</time>
      </trkpt>
      <trkpt lat="46.26764" lon="6.80717">
        <ele>1621.2518</ele>
        <time>2014-08-29T10:35:29Z</time>
      </trkpt>
      <trkpt lat="46.26764" lon="6.80717">
        <ele>1621.2518</ele>
        <time>2014-08-29T10:35:34Z</time>
      </trkpt>
      <trkpt lat="46.26763" lon="6.80718">
        <ele>1621.2518</ele>
        <time>2014-08-29T10:35:49Z</time>
      </trkpt>
      <trkpt lat="46.26761" lon="6.80727">
        <ele>1627.6403</ele>
        <time>2014-08-29T10:35:54Z</time>
      </trkpt>
      <trkpt lat="46.26762" lon="6.80728">
        <ele>1627.6403</ele>
        <time>2014-08-29T10:35:59Z</time>
      </trkpt>
      <trkpt lat="46.26761" lon="6.80729">
        <ele>1627.6403</ele>
        <time>2014-08-29T10:36:04Z</time>
      </trkpt>
      <trkpt lat="46.26759" lon="6.80734">
        <ele>1627.6403</ele>
        <time>2014-08-29T10:36:09Z</time>
      </trkpt>
      <trkpt lat="46.26755" lon="6.80735">
        <ele>1633.8096</ele>
        <time>2014-08-29T10:36:14Z</time>
      </trkpt>
      <trkpt lat="46.26755" lon="6.80735">
        <ele>1633.8096</ele>
        <time>2014-08-29T10:36:19Z</time>
      </trkpt>
      <trkpt lat="46.26752" lon="6.80736">
        <ele>1633.8096</ele>
        <time>2014-08-29T10:36:34Z</time>
      </trkpt>
      <trkpt lat="46.26749" lon="6.80738">
        <ele>1633.8096</ele>
        <time>2014-08-29T10:36:39Z</time>
      </trkpt>
      <trkpt lat="46.26749" lon="6.80738">
        <ele>1633.8096</ele>
        <time>2014-08-29T10:36:44Z</time>
      </trkpt>
      <trkpt lat="46.26745" lon="6.80744">
        <ele>1640.1094</ele>
        <time>2014-08-29T10:36:54Z</time>
      </trkpt>
      <trkpt lat="46.26745" lon="6.80745">
        <ele>1640.1094</ele>
        <time>2014-08-29T10:36:59Z</time>
      </trkpt>
      <trkpt lat="46.26742" lon="6.80746">
        <ele>1640.1094</ele>
        <time>2014-08-29T10:37:04Z</time>
      </trkpt>
      <trkpt lat="46.26736" lon="6.80744">
        <ele>1645.754</ele>
        <time>2014-08-29T10:37:09Z</time>
      </trkpt>
      <trkpt lat="46.26735" lon="6.80744">
        <ele>1645.754</ele>
        <time>2014-08-29T10:37:14Z</time>
      </trkpt>
      <trkpt lat="46.26734" lon="6.80745">
        <ele>1645.754</ele>
        <time>2014-08-29T10:37:19Z</time>
      </trkpt>
      <trkpt lat="46.2673" lon="6.8075">
        <ele>1645.754</ele>
        <time>2014-08-29T10:37:24Z</time>
      </trkpt>
      <trkpt lat="46.2673" lon="6.80752">
        <ele>1651.0408</ele>
        <time>2014-08-29T10:37:29Z</time>
      </trkpt>
      <trkpt lat="46.2673" lon="6.80752">
        <ele>1651.0408</ele>
        <time>2014-08-29T10:37:34Z</time>
      </trkpt>
      <trkpt lat="46.26728" lon="6.80752">
        <ele>1651.0408</ele>
        <time>2014-08-29T10:37:49Z</time>
      </trkpt>
      <trkpt lat="46.26727" lon="6.80754">
        <ele>1651.0408</ele>
        <time>2014-08-29T10:37:54Z</time>
      </trkpt>
      <trkpt lat="46.26727" lon="6.80754">
        <ele>1651.0408</ele>
        <time>2014-08-29T10:37:59Z</time>
      </trkpt>
      <trkpt lat="46.26723" lon="6.80757">
        <ele>1651.0408</ele>
        <time>2014-08-29T10:38:24Z</time>
      </trkpt>
      <trkpt lat="46.26722" lon="6.80758">
        <ele>1656.6929</ele>
        <time>2014-08-29T10:38:29Z</time>
      </trkpt>
      <trkpt lat="46.26722" lon="6.80758">
        <ele>1656.6929</ele>
        <time>2014-08-29T10:38:34Z</time>
      </trkpt>
      <trkpt lat="46.26722" lon="6.80759">
        <ele>1656.6929</ele>
        <time>2014-08-29T10:38:39Z</time>
      </trkpt>
      <trkpt lat="46.26722" lon="6.80759">
        <ele>1656.6929</ele>
        <time>2014-08-29T10:38:44Z</time>
      </trkpt>
      <trkpt lat="46.26721" lon="6.80759">
        <ele>1656.6929</ele>
        <time>2014-08-29T10:39:24Z</time>
      </trkpt>
      <trkpt lat="46.26721" lon="6.80759">
        <ele>1656.6929</ele>
        <time>2014-08-29T10:39:29Z</time>
      </trkpt>
      <trkpt lat="46.26719" lon="6.80759">
        <ele>1656.6929</ele>
        <time>2014-08-29T10:39:59Z</time>
      </trkpt>
      <trkpt lat="46.26719" lon="6.80759">
        <ele>1656.6929</ele>
        <time>2014-08-29T10:40:04Z</time>
      </trkpt>
      <trkpt lat="46.26719" lon="6.80759">
        <ele>1656.6929</ele>
        <time>2014-08-29T10:40:09Z</time>
      </trkpt>
      <trkpt lat="46.26716" lon="6.80761">
        <ele>1656.6929</ele>
        <time>2014-08-29T10:40:24Z</time>
      </trkpt>
      <trkpt lat="46.26715" lon="6.80763">
        <ele>1656.6929</ele>
        <time>2014-08-29T10:40:29Z</time>
      </trkpt>
      <trkpt lat="46.26715" lon="6.80763">
        <ele>1656.6929</ele>
        <time>2014-08-29T10:40:34Z</time>
      </trkpt>
      <trkpt lat="46.26713" lon="6.80763">
        <ele>1662.2848</ele>
        <time>2014-08-29T10:40:54Z</time>
      </trkpt>
      <trkpt lat="46.26713" lon="6.80763">
        <ele>1662.2848</ele>
        <time>2014-08-29T10:40:59Z</time>
      </trkpt>
      <trkpt lat="46.26712" lon="6.80765">
        <ele>1662.2848</ele>
        <time>2014-08-29T10:41:09Z</time>
      </trkpt>
      <trkpt lat="46.26711" lon="6.80765">
        <ele>1662.2848</ele>
        <time>2014-08-29T10:41:14Z</time>
      </trkpt>
      <trkpt lat="46.26709" lon="6.80764">
        <ele>1662.2848</ele>
        <time>2014-08-29T10:41:19Z</time>
      </trkpt>
      <trkpt lat="46.26708" lon="6.80764">
        <ele>1662.2848</ele>
        <time>2014-08-29T10:41:34Z</time>
      </trkpt>
      <trkpt lat="46.26707" lon="6.80763">
        <ele>1662.2848</ele>
        <time>2014-08-29T10:41:39Z</time>
      </trkpt>
      <trkpt lat="46.26707" lon="6.80763">
        <ele>1662.2848</ele>
        <time>2014-08-29T10:41:44Z</time>
      </trkpt>
      <trkpt lat="46.26705" lon="6.80763">
        <ele>1667.7107</ele>
        <time>2014-08-29T10:41:54Z</time>
      </trkpt>
      <trkpt lat="46.26703" lon="6.80763">
        <ele>1667.7107</ele>
        <time>2014-08-29T10:42:19Z</time>
      </trkpt>
      <trkpt lat="46.26703" lon="6.80763">
        <ele>1667.7107</ele>
        <time>2014-08-29T10:42:24Z</time>
      </trkpt>
      <trkpt lat="46.26695" lon="6.80768">
        <ele>1673.4211</ele>
        <time>2014-08-29T10:42:34Z</time>
      </trkpt>
      <trkpt lat="46.26694" lon="6.80768">
        <ele>1673.4211</ele>
        <time>2014-08-29T10:42:39Z</time>
      </trkpt>
      <trkpt lat="46.26688" lon="6.80768">
        <ele>1673.4211</ele>
        <time>2014-08-29T10:42:44Z</time>
      </trkpt>
      <trkpt lat="46.26685" lon="6.80769">
        <ele>1678.5646</ele>
        <time>2014-08-29T10:42:49Z</time>
      </trkpt>
      <trkpt lat="46.26679" lon="6.80769">
        <ele>1678.5646</ele>
        <time>2014-08-29T10:42:54Z</time>
      </trkpt>
      <trkpt lat="46.26679" lon="6.80769">
        <ele>1678.5646</ele>
        <time>2014-08-29T10:42:59Z</time>
      </trkpt>
      <trkpt lat="46.26675" lon="6.80769">
        <ele>1683.2621</ele>
        <time>2014-08-29T10:43:14Z</time>
      </trkpt>
      <trkpt lat="46.26665" lon="6.80764">
        <ele>1687.3679</ele>
        <time>2014-08-29T10:43:19Z</time>
      </trkpt>
      <trkpt lat="46.26664" lon="6.80763">
        <ele>1687.3679</ele>
        <time>2014-08-29T10:43:24Z</time>
      </trkpt>
      <trkpt lat="46.26664" lon="6.80763">
        <ele>1687.3679</ele>
        <time>2014-08-29T10:43:29Z</time>
      </trkpt>
      <trkpt lat="46.26663" lon="6.80765">
        <ele>1687.3679</ele>
        <time>2014-08-29T10:43:34Z</time>
      </trkpt>
      <trkpt lat="46.2666" lon="6.80768">
        <ele>1687.3679</ele>
        <time>2014-08-29T10:43:39Z</time>
      </trkpt>
      <trkpt lat="46.26657" lon="6.80772">
        <ele>1691.383</ele>
        <time>2014-08-29T10:43:44Z</time>
      </trkpt>
      <trkpt lat="46.26647" lon="6.80777">
        <ele>1694.8788</ele>
        <time>2014-08-29T10:43:49Z</time>
      </trkpt>
      <trkpt lat="46.26644" lon="6.80775">
        <ele>1694.8788</ele>
        <time>2014-08-29T10:43:54Z</time>
      </trkpt>
      <trkpt lat="46.26641" lon="6.80772">
        <ele>1694.8788</ele>
        <time>2014-08-29T10:43:59Z</time>
      </trkpt>
      <trkpt lat="46.26641" lon="6.80772">
        <ele>1694.8788</ele>
        <time>2014-08-29T10:44:04Z</time>
      </trkpt>
      <trkpt lat="46.26639" lon="6.80771">
        <ele>1697.9062</ele>
        <time>2014-08-29T10:44:14Z</time>
      </trkpt>
      <trkpt lat="46.26636" lon="6.80767">
        <ele>1697.9062</ele>
        <time>2014-08-29T10:44:19Z</time>
      </trkpt>
      <trkpt lat="46.26636" lon="6.80767">
        <ele>1697.9062</ele>
        <time>2014-08-29T10:44:24Z</time>
      </trkpt>
      <trkpt lat="46.26633" lon="6.80766">
        <ele>1697.9062</ele>
        <time>2014-08-29T10:44:44Z</time>
      </trkpt>
      <trkpt lat="46.26632" lon="6.80766">
        <ele>1697.9062</ele>
        <time>2014-08-29T10:44:49Z</time>
      </trkpt>
      <trkpt lat="46.26632" lon="6.80766">
        <ele>1697.9062</ele>
        <time>2014-08-29T10:44:54Z</time>
      </trkpt>
      <trkpt lat="46.26625" lon="6.80758">
        <ele>1700.918</ele>
        <time>2014-08-29T10:45:14Z</time>
      </trkpt>
      <trkpt lat="46.26622" lon="6.80757">
        <ele>1700.918</ele>
        <time>2014-08-29T10:45:19Z</time>
      </trkpt>
      <trkpt lat="46.26618" lon="6.80751">
        <ele>1700.918</ele>
        <time>2014-08-29T10:45:24Z</time>
      </trkpt>
      <trkpt lat="46.26618" lon="6.80751">
        <ele>1700.918</ele>
        <time>2014-08-29T10:45:29Z</time>
      </trkpt>
      <trkpt lat="46.26615" lon="6.80746">
        <ele>1703.5266</ele>
        <time>2014-08-29T10:46:14Z</time>
      </trkpt>
      <trkpt lat="46.26615" lon="6.80746">
        <ele>1703.5266</ele>
        <time>2014-08-29T10:46:19Z</time>
      </trkpt>
      <trkpt lat="46.26613" lon="6.80743">
        <ele>1703.5266</ele>
        <time>2014-08-29T10:46:24Z</time>
      </trkpt>
      <trkpt lat="46.26613" lon="6.80743">
        <ele>1703.5266</ele>
        <time>2014-08-29T10:46:29Z</time>
      </trkpt>
      <trkpt lat="46.26609" lon="6.80739">
        <ele>1703.5266</ele>
        <time>2014-08-29T10:46:34Z</time>
      </trkpt>
      <trkpt lat="46.26606" lon="6.80732">
        <ele>1705.4176</ele>
        <time>2014-08-29T10:46:39Z</time>
      </trkpt>
      <trkpt lat="46.26601" lon="6.80728">
        <ele>1705.4176</ele>
        <time>2014-08-29T10:46:44Z</time>
      </trkpt>
      <trkpt lat="46.26595" lon="6.80726">
        <ele>1707.3252</ele>
        <time>2014-08-29T10:46:49Z</time>
      </trkpt>
      <trkpt lat="46.26589" lon="6.80719">
        <ele>1707.3252</ele>
        <time>2014-08-29T10:46:54Z</time>
      </trkpt>
      <trkpt lat="46.26584" lon="6.80712">
        <ele>1709.18</ele>
        <time>2014-08-29T10:46:59Z</time>
      </trkpt>
      <trkpt lat="46.26581" lon="6.80706">
        <ele>1709.18</ele>
        <time>2014-08-29T10:47:04Z</time>
      </trkpt>
      <trkpt lat="46.2658" lon="6.80698">
        <ele>1710.8611</ele>
        <time>2014-08-29T10:47:09Z</time>
      </trkpt>
      <trkpt lat="46.2658" lon="6.80698">
        <ele>1710.8611</ele>
        <time>2014-08-29T10:47:14Z</time>
      </trkpt>
      <trkpt lat="46.2658" lon="6.80696">
        <ele>1710.8611</ele>
        <time>2014-08-29T10:47:24Z</time>
      </trkpt>
      <trkpt lat="46.26579" lon="6.80693">
        <ele>1710.8611</ele>
        <time>2014-08-29T10:47:29Z</time>
      </trkpt>
      <trkpt lat="46.26576" lon="6.80688">
        <ele>1710.8611</ele>
        <time>2014-08-29T10:47:34Z</time>
      </trkpt>
      <trkpt lat="46.26576" lon="6.80685">
        <ele>1712.1265</ele>
        <time>2014-08-29T10:47:39Z</time>
      </trkpt>
      <trkpt lat="46.26573" lon="6.8068">
        <ele>1712.1265</ele>
        <time>2014-08-29T10:47:44Z</time>
      </trkpt>
      <trkpt lat="46.26571" lon="6.80676">
        <ele>1712.1265</ele>
        <time>2014-08-29T10:47:49Z</time>
      </trkpt>
      <trkpt lat="46.2657" lon="6.80671">
        <ele>1713.2726</ele>
        <time>2014-08-29T10:47:54Z</time>
      </trkpt>
      <trkpt lat="46.26569" lon="6.8067">
        <ele>1713.2726</ele>
        <time>2014-08-29T10:47:59Z</time>
      </trkpt>
      <trkpt lat="46.26567" lon="6.8066">
        <ele>1713.2726</ele>
        <time>2014-08-29T10:48:04Z</time>
      </trkpt>
      <trkpt lat="46.26566" lon="6.80656">
        <ele>1714.3438</ele>
        <time>2014-08-29T10:48:09Z</time>
      </trkpt>
      <trkpt lat="46.26566" lon="6.80656">
        <ele>1714.3438</ele>
        <time>2014-08-29T10:48:14Z</time>
      </trkpt>
      <trkpt lat="46.26565" lon="6.80656">
        <ele>1714.3438</ele>
        <time>2014-08-29T10:48:19Z</time>
      </trkpt>
      <trkpt lat="46.26565" lon="6.80655">
        <ele>1714.3438</ele>
        <time>2014-08-29T10:48:24Z</time>
      </trkpt>
      <trkpt lat="46.26564" lon="6.8065">
        <ele>1714.3438</ele>
        <time>2014-08-29T10:48:29Z</time>
      </trkpt>
      <trkpt lat="46.26564" lon="6.80647">
        <ele>1714.3438</ele>
        <time>2014-08-29T10:48:34Z</time>
      </trkpt>
      <trkpt lat="46.26563" lon="6.80645">
        <ele>1714.3438</ele>
        <time>2014-08-29T10:48:39Z</time>
      </trkpt>
      <trkpt lat="46.26562" lon="6.80641">
        <ele>1715.41</ele>
        <time>2014-08-29T10:48:44Z</time>
      </trkpt>
      <trkpt lat="46.2656" lon="6.80638">
        <ele>1715.41</ele>
        <time>2014-08-29T10:48:49Z</time>
      </trkpt>
      <trkpt lat="46.26558" lon="6.80636">
        <ele>1715.41</ele>
        <time>2014-08-29T10:48:54Z</time>
      </trkpt>
      <trkpt lat="46.26557" lon="6.80634">
        <ele>1715.41</ele>
        <time>2014-08-29T10:48:59Z</time>
      </trkpt>
      <trkpt lat="46.26556" lon="6.80631">
        <ele>1716.2194</ele>
        <time>2014-08-29T10:49:04Z</time>
      </trkpt>
      <trkpt lat="46.26553" lon="6.80628">
        <ele>1716.2194</ele>
        <time>2014-08-29T10:49:09Z</time>
      </trkpt>
      <trkpt lat="46.2655" lon="6.80625">
        <ele>1716.2194</ele>
        <time>2014-08-29T10:49:14Z</time>
      </trkpt>
      <trkpt lat="46.26548" lon="6.80624">
        <ele>1717.0146</ele>
        <time>2014-08-29T10:49:19Z</time>
      </trkpt>
      <trkpt lat="46.26546" lon="6.80622">
        <ele>1717.0146</ele>
        <time>2014-08-29T10:49:24Z</time>
      </trkpt>
      <trkpt lat="46.26545" lon="6.80621">
        <ele>1717.0146</ele>
        <time>2014-08-29T10:49:29Z</time>
      </trkpt>
      <trkpt lat="46.26543" lon="6.80615">
        <ele>1717.0146</ele>
        <time>2014-08-29T10:49:34Z</time>
      </trkpt>
      <trkpt lat="46.26543" lon="6.80614">
        <ele>1717.891</ele>
        <time>2014-08-29T10:49:39Z</time>
      </trkpt>
      <trkpt lat="46.26542" lon="6.80613">
        <ele>1717.891</ele>
        <time>2014-08-29T10:49:44Z</time>
      </trkpt>
      <trkpt lat="46.26541" lon="6.80609">
        <ele>1717.891</ele>
        <time>2014-08-29T10:49:49Z</time>
      </trkpt>
      <trkpt lat="46.26538" lon="6.80608">
        <ele>1717.891</ele>
        <time>2014-08-29T10:49:54Z</time>
      </trkpt>
      <trkpt lat="46.26535" lon="6.80608">
        <ele>1718.8499</ele>
        <time>2014-08-29T10:49:59Z</time>
      </trkpt>
      <trkpt lat="46.26532" lon="6.80605">
        <ele>1718.8499</ele>
        <time>2014-08-29T10:50:04Z</time>
      </trkpt>
      <trkpt lat="46.26528" lon="6.80603">
        <ele>1718.8499</ele>
        <time>2014-08-29T10:50:09Z</time>
      </trkpt>
      <trkpt lat="46.26526" lon="6.80605">
        <ele>1719.7052</ele>
        <time>2014-08-29T10:50:14Z</time>
      </trkpt>
      <trkpt lat="46.26524" lon="6.80608">
        <ele>1719.7052</ele>
        <time>2014-08-29T10:50:19Z</time>
      </trkpt>
      <trkpt lat="46.26522" lon="6.80608">
        <ele>1719.7052</ele>
        <time>2014-08-29T10:50:24Z</time>
      </trkpt>
      <trkpt lat="46.2652" lon="6.80606">
        <ele>1719.7052</ele>
        <time>2014-08-29T10:50:29Z</time>
      </trkpt>
      <trkpt lat="46.26516" lon="6.80606">
        <ele>1720.5726</ele>
        <time>2014-08-29T10:50:34Z</time>
      </trkpt>
      <trkpt lat="46.26513" lon="6.80605">
        <ele>1720.5726</ele>
        <time>2014-08-29T10:50:39Z</time>
      </trkpt>
      <trkpt lat="46.26511" lon="6.80603">
        <ele>1720.5726</ele>
        <time>2014-08-29T10:50:44Z</time>
      </trkpt>
      <trkpt lat="46.26511" lon="6.80603">
        <ele>1720.5726</ele>
        <time>2014-08-29T10:50:49Z</time>
      </trkpt>
      <trkpt lat="46.26512" lon="6.806">
        <ele>1720.5726</ele>
        <time>2014-08-29T10:50:54Z</time>
      </trkpt>
      <trkpt lat="46.26513" lon="6.806">
        <ele>1720.5726</ele>
        <time>2014-08-29T10:50:59Z</time>
      </trkpt>
      <trkpt lat="46.26513" lon="6.80601">
        <ele>1721.3578</ele>
        <time>2014-08-29T10:51:04Z</time>
      </trkpt>
      <trkpt lat="46.26514" lon="6.80602">
        <ele>1721.3578</ele>
        <time>2014-08-29T10:51:09Z</time>
      </trkpt>
      <trkpt lat="46.26512" lon="6.806">
        <ele>1721.3578</ele>
        <time>2014-08-29T10:51:14Z</time>
      </trkpt>
      <trkpt lat="46.26509" lon="6.80596">
        <ele>1721.3578</ele>
        <time>2014-08-29T10:51:19Z</time>
      </trkpt>
      <trkpt lat="46.26508" lon="6.80592">
        <ele>1721.9011</ele>
        <time>2014-08-29T10:51:24Z</time>
      </trkpt>
      <trkpt lat="46.26509" lon="6.80586">
        <ele>1721.9011</ele>
        <time>2014-08-29T10:51:29Z</time>
      </trkpt>
      <trkpt lat="46.26508" lon="6.80585">
        <ele>1721.9011</ele>
        <time>2014-08-29T10:51:34Z</time>
      </trkpt>
      <trkpt lat="46.26506" lon="6.80583">
        <ele>1721.9011</ele>
        <time>2014-08-29T10:51:39Z</time>
      </trkpt>
      <trkpt lat="46.26505" lon="6.8058">
        <ele>1722.3867</ele>
        <time>2014-08-29T10:51:44Z</time>
      </trkpt>
      <trkpt lat="46.26504" lon="6.8058">
        <ele>1722.3867</ele>
        <time>2014-08-29T10:51:49Z</time>
      </trkpt>
      <trkpt lat="46.26501" lon="6.80573">
        <ele>1722.3867</ele>
        <time>2014-08-29T10:51:54Z</time>
      </trkpt>
      <trkpt lat="46.26499" lon="6.80571">
        <ele>1722.6394</ele>
        <time>2014-08-29T10:51:59Z</time>
      </trkpt>
      <trkpt lat="46.26497" lon="6.80564">
        <ele>1722.6394</ele>
        <time>2014-08-29T10:52:04Z</time>
      </trkpt>
      <trkpt lat="46.26497" lon="6.80563">
        <ele>1722.6394</ele>
        <time>2014-08-29T10:52:09Z</time>
      </trkpt>
      <trkpt lat="46.26495" lon="6.80561">
        <ele>1722.6394</ele>
        <time>2014-08-29T10:52:14Z</time>
      </trkpt>
      <trkpt lat="46.26493" lon="6.80559">
        <ele>1722.8002</ele>
        <time>2014-08-29T10:52:19Z</time>
      </trkpt>
      <trkpt lat="46.26491" lon="6.80557">
        <ele>1722.8002</ele>
        <time>2014-08-29T10:52:24Z</time>
      </trkpt>
      <trkpt lat="46.2649" lon="6.80554">
        <ele>1722.8002</ele>
        <time>2014-08-29T10:52:29Z</time>
      </trkpt>
      <trkpt lat="46.26491" lon="6.80552">
        <ele>1722.8002</ele>
        <time>2014-08-29T10:52:34Z</time>
      </trkpt>
      <trkpt lat="46.26491" lon="6.80552">
        <ele>1722.8002</ele>
        <time>2014-08-29T10:52:39Z</time>
      </trkpt>
      <trkpt lat="46.26492" lon="6.80552">
        <ele>1722.8002</ele>
        <time>2014-08-29T10:52:44Z</time>
      </trkpt>
      <trkpt lat="46.26493" lon="6.80551">
        <ele>1722.8696</ele>
        <time>2014-08-29T10:52:49Z</time>
      </trkpt>
      <trkpt lat="46.26493" lon="6.8055">
        <ele>1722.8696</ele>
        <time>2014-08-29T10:52:54Z</time>
      </trkpt>
      <trkpt lat="46.26494" lon="6.8055">
        <ele>1722.8696</ele>
        <time>2014-08-29T10:52:59Z</time>
      </trkpt>
      <trkpt lat="46.26494" lon="6.80549">
        <ele>1722.8696</ele>
        <time>2014-08-29T10:53:04Z</time>
      </trkpt>
      <trkpt lat="46.26494" lon="6.80547">
        <ele>1722.8696</ele>
        <time>2014-08-29T10:53:09Z</time>
      </trkpt>
      <trkpt lat="46.26495" lon="6.80547">
        <ele>1722.8696</ele>
        <time>2014-08-29T10:53:14Z</time>
      </trkpt>
      <trkpt lat="46.26495" lon="6.80547">
        <ele>1722.8696</ele>
        <time>2014-08-29T10:53:19Z</time>
      </trkpt>
      <trkpt lat="46.26491" lon="6.80544">
        <ele>1722.8696</ele>
        <time>2014-08-29T10:53:29Z</time>
      </trkpt>
      <trkpt lat="46.26487" lon="6.80542">
        <ele>1723.2235</ele>
        <time>2014-08-29T10:53:34Z</time>
      </trkpt>
      <trkpt lat="46.26482" lon="6.8054">
        <ele>1723.2235</ele>
        <time>2014-08-29T10:53:39Z</time>
      </trkpt>
      <trkpt lat="46.2648" lon="6.80536">
        <ele>1723.2235</ele>
        <time>2014-08-29T10:53:44Z</time>
      </trkpt>
      <trkpt lat="46.26478" lon="6.80533">
        <ele>1723.7764</ele>
        <time>2014-08-29T10:53:49Z</time>
      </trkpt>
      <trkpt lat="46.26476" lon="6.8053">
        <ele>1723.7764</ele>
        <time>2014-08-29T10:53:54Z</time>
      </trkpt>
      <trkpt lat="46.26473" lon="6.80529">
        <ele>1723.7764</ele>
        <time>2014-08-29T10:53:59Z</time>
      </trkpt>
      <trkpt lat="46.26471" lon="6.80528">
        <ele>1723.7764</ele>
        <time>2014-08-29T10:54:04Z</time>
      </trkpt>
      <trkpt lat="46.2647" lon="6.80529">
        <ele>1724.6357</ele>
        <time>2014-08-29T10:54:09Z</time>
      </trkpt>
      <trkpt lat="46.26469" lon="6.80529">
        <ele>1724.6357</ele>
        <time>2014-08-29T10:54:14Z</time>
      </trkpt>
      <trkpt lat="46.26465" lon="6.80529">
        <ele>1724.6357</ele>
        <time>2014-08-29T10:54:19Z</time>
      </trkpt>
      <trkpt lat="46.26462" lon="6.80529">
        <ele>1724.6357</ele>
        <time>2014-08-29T10:54:24Z</time>
      </trkpt>
      <trkpt lat="46.26461" lon="6.80528">
        <ele>1725.266</ele>
        <time>2014-08-29T10:54:29Z</time>
      </trkpt>
      <trkpt lat="46.26456" lon="6.80525">
        <ele>1725.266</ele>
        <time>2014-08-29T10:54:34Z</time>
      </trkpt>
      <trkpt lat="46.26451" lon="6.80519">
        <ele>1725.7911</ele>
        <time>2014-08-29T10:54:39Z</time>
      </trkpt>
      <trkpt lat="46.26447" lon="6.80514">
        <ele>1725.7911</ele>
        <time>2014-08-29T10:54:44Z</time>
      </trkpt>
      <trkpt lat="46.26443" lon="6.80509">
        <ele>1726.355</ele>
        <time>2014-08-29T10:54:49Z</time>
      </trkpt>
      <trkpt lat="46.26441" lon="6.80505">
        <ele>1726.355</ele>
        <time>2014-08-29T10:54:54Z</time>
      </trkpt>
      <trkpt lat="46.26442" lon="6.80501">
        <ele>1726.355</ele>
        <time>2014-08-29T10:54:59Z</time>
      </trkpt>
      <trkpt lat="46.26441" lon="6.80499">
        <ele>1726.355</ele>
        <time>2014-08-29T10:55:04Z</time>
      </trkpt>
      <trkpt lat="46.2644" lon="6.80496">
        <ele>1726.7009</ele>
        <time>2014-08-29T10:55:09Z</time>
      </trkpt>
      <trkpt lat="46.26438" lon="6.80491">
        <ele>1726.7009</ele>
        <time>2014-08-29T10:55:14Z</time>
      </trkpt>
      <trkpt lat="46.26437" lon="6.80487">
        <ele>1726.7009</ele>
        <time>2014-08-29T10:55:19Z</time>
      </trkpt>
      <trkpt lat="46.26435" lon="6.80482">
        <ele>1726.8661</ele>
        <time>2014-08-29T10:55:24Z</time>
      </trkpt>
      <trkpt lat="46.26432" lon="6.80477">
        <ele>1726.8661</ele>
        <time>2014-08-29T10:55:29Z</time>
      </trkpt>
      <trkpt lat="46.26431" lon="6.80474">
        <ele>1726.8661</ele>
        <time>2014-08-29T10:55:34Z</time>
      </trkpt>
      <trkpt lat="46.26434" lon="6.8047">
        <ele>1727.0575</ele>
        <time>2014-08-29T10:55:39Z</time>
      </trkpt>
      <trkpt lat="46.26435" lon="6.80465">
        <ele>1727.0575</ele>
        <time>2014-08-29T10:55:44Z</time>
      </trkpt>
      <trkpt lat="46.26436" lon="6.8046">
        <ele>1727.0575</ele>
        <time>2014-08-29T10:55:49Z</time>
      </trkpt>
      <trkpt lat="46.26435" lon="6.80455">
        <ele>1727.2365</ele>
        <time>2014-08-29T10:55:54Z</time>
      </trkpt>
      <trkpt lat="46.26434" lon="6.80454">
        <ele>1727.2365</ele>
        <time>2014-08-29T10:55:59Z</time>
      </trkpt>
      <trkpt lat="46.26434" lon="6.80455">
        <ele>1727.2365</ele>
        <time>2014-08-29T10:56:04Z</time>
      </trkpt>
      <trkpt lat="46.26434" lon="6.80454">
        <ele>1727.2365</ele>
        <time>2014-08-29T10:56:09Z</time>
      </trkpt>
      <trkpt lat="46.26431" lon="6.80452">
        <ele>1727.2365</ele>
        <time>2014-08-29T10:56:14Z</time>
      </trkpt>
      <trkpt lat="46.26432" lon="6.80451">
        <ele>1727.2365</ele>
        <time>2014-08-29T10:56:19Z</time>
      </trkpt>
      <trkpt lat="46.26432" lon="6.80451">
        <ele>1727.2365</ele>
        <time>2014-08-29T10:56:24Z</time>
      </trkpt>
      <trkpt lat="46.26429" lon="6.80449">
        <ele>1727.5109</ele>
        <time>2014-08-29T10:56:29Z</time>
      </trkpt>
      <trkpt lat="46.26427" lon="6.80448">
        <ele>1727.5109</ele>
        <time>2014-08-29T10:56:34Z</time>
      </trkpt>
      <trkpt lat="46.26429" lon="6.80448">
        <ele>1727.5109</ele>
        <time>2014-08-29T10:56:39Z</time>
      </trkpt>
      <trkpt lat="46.26431" lon="6.80449">
        <ele>1727.5109</ele>
        <time>2014-08-29T10:56:44Z</time>
      </trkpt>
      <trkpt lat="46.26432" lon="6.80446">
        <ele>1727.5109</ele>
        <time>2014-08-29T10:56:49Z</time>
      </trkpt>
      <trkpt lat="46.26432" lon="6.80442">
        <ele>1728.1388</ele>
        <time>2014-08-29T10:56:54Z</time>
      </trkpt>
      <trkpt lat="46.26433" lon="6.80436">
        <ele>1728.1388</ele>
        <time>2014-08-29T10:56:59Z</time>
      </trkpt>
      <trkpt lat="46.26433" lon="6.80431">
        <ele>1728.1388</ele>
        <time>2014-08-29T10:57:04Z</time>
      </trkpt>
      <trkpt lat="46.26433" lon="6.80428">
        <ele>1728.6952</ele>
        <time>2014-08-29T10:57:09Z</time>
      </trkpt>
      <trkpt lat="46.26434" lon="6.80426">
        <ele>1728.6952</ele>
        <time>2014-08-29T10:57:14Z</time>
      </trkpt>
      <trkpt lat="46.26434" lon="6.80422">
        <ele>1728.6952</ele>
        <time>2014-08-29T10:57:19Z</time>
      </trkpt>
      <trkpt lat="46.26433" lon="6.80418">
        <ele>1728.6952</ele>
        <time>2014-08-29T10:57:24Z</time>
      </trkpt>
      <trkpt lat="46.26435" lon="6.80413">
        <ele>1729.0168</ele>
        <time>2014-08-29T10:57:29Z</time>
      </trkpt>
      <trkpt lat="46.26436" lon="6.80407">
        <ele>1729.0168</ele>
        <time>2014-08-29T10:57:34Z</time>
      </trkpt>
      <trkpt lat="46.26434" lon="6.80404">
        <ele>1729.0168</ele>
        <time>2014-08-29T10:57:39Z</time>
      </trkpt>
      <trkpt lat="46.26434" lon="6.80399">
        <ele>1729.1835</ele>
        <time>2014-08-29T10:57:44Z</time>
      </trkpt>
      <trkpt lat="46.26433" lon="6.80393">
        <ele>1729.1835</ele>
        <time>2014-08-29T10:57:49Z</time>
      </trkpt>
      <trkpt lat="46.26431" lon="6.8039">
        <ele>1729.1835</ele>
        <time>2014-08-29T10:57:54Z</time>
      </trkpt>
      <trkpt lat="46.26431" lon="6.80385">
        <ele>1729.3844</ele>
        <time>2014-08-29T10:57:59Z</time>
      </trkpt>
      <trkpt lat="46.2643" lon="6.80381">
        <ele>1729.3844</ele>
        <time>2014-08-29T10:58:04Z</time>
      </trkpt>
      <trkpt lat="46.26429" lon="6.80375">
        <ele>1729.3844</ele>
        <time>2014-08-29T10:58:09Z</time>
      </trkpt>
      <trkpt lat="46.26429" lon="6.80368">
        <ele>1729.6509</ele>
        <time>2014-08-29T10:58:14Z</time>
      </trkpt>
      <trkpt lat="46.26427" lon="6.80364">
        <ele>1729.6509</ele>
        <time>2014-08-29T10:58:19Z</time>
      </trkpt>
      <trkpt lat="46.26426" lon="6.80363">
        <ele>1729.6509</ele>
        <time>2014-08-29T10:58:24Z</time>
      </trkpt>
      <trkpt lat="46.26423" lon="6.80361">
        <ele>1729.6509</ele>
        <time>2014-08-29T10:58:29Z</time>
      </trkpt>
      <trkpt lat="46.26421" lon="6.8036">
        <ele>1729.9103</ele>
        <time>2014-08-29T10:58:34Z</time>
      </trkpt>
      <trkpt lat="46.2642" lon="6.80356">
        <ele>1729.9103</ele>
        <time>2014-08-29T10:58:39Z</time>
      </trkpt>
      <trkpt lat="46.26417" lon="6.80353">
        <ele>1729.9103</ele>
        <time>2014-08-29T10:58:44Z</time>
      </trkpt>
      <trkpt lat="46.26414" lon="6.8035">
        <ele>1730.1962</ele>
        <time>2014-08-29T10:58:49Z</time>
      </trkpt>
      <trkpt lat="46.26412" lon="6.80347">
        <ele>1730.1962</ele>
        <time>2014-08-29T10:58:54Z</time>
      </trkpt>
      <trkpt lat="46.26409" lon="6.80341">
        <ele>1730.1962</ele>
        <time>2014-08-29T10:58:59Z</time>
      </trkpt>
      <trkpt lat="46.26408" lon="6.80336">
        <ele>1730.4529</ele>
        <time>2014-08-29T10:59:04Z</time>
      </trkpt>
      <trkpt lat="46.26407" lon="6.80336">
        <ele>1730.4529</ele>
        <time>2014-08-29T10:59:09Z</time>
      </trkpt>
      <trkpt lat="46.26407" lon="6.80336">
        <ele>1730.4529</ele>
        <time>2014-08-29T10:59:14Z</time>
      </trkpt>
      <trkpt lat="46.26407" lon="6.80336">
        <ele>1730.4529</ele>
        <time>2014-08-29T10:59:44Z</time>
      </trkpt>
      <trkpt lat="46.26407" lon="6.80336">
        <ele>1730.4529</ele>
        <time>2014-08-29T10:59:49Z</time>
      </trkpt>
      <trkpt lat="46.26404" lon="6.80334">
        <ele>1730.4529</ele>
        <time>2014-08-29T11:00:59Z</time>
      </trkpt>
      <trkpt lat="46.26401" lon="6.80334">
        <ele>1730.4529</ele>
        <time>2014-08-29T11:01:04Z</time>
      </trkpt>
      <trkpt lat="46.26397" lon="6.80332">
        <ele>1731.5798</ele>
        <time>2014-08-29T11:01:09Z</time>
      </trkpt>
      <trkpt lat="46.26396" lon="6.80331">
        <ele>1731.5798</ele>
        <time>2014-08-29T11:01:14Z</time>
      </trkpt>
      <trkpt lat="46.26394" lon="6.80331">
        <ele>1731.5798</ele>
        <time>2014-08-29T11:01:19Z</time>
      </trkpt>
      <trkpt lat="46.26392" lon="6.8033">
        <ele>1731.5798</ele>
        <time>2014-08-29T11:01:24Z</time>
      </trkpt>
      <trkpt lat="46.26387" lon="6.80328">
        <ele>1732.8656</ele>
        <time>2014-08-29T11:01:29Z</time>
      </trkpt>
      <trkpt lat="46.26384" lon="6.80329">
        <ele>1732.8656</ele>
        <time>2014-08-29T11:01:34Z</time>
      </trkpt>
      <trkpt lat="46.26378" lon="6.80329">
        <ele>1732.8656</ele>
        <time>2014-08-29T11:01:39Z</time>
      </trkpt>
      <trkpt lat="46.26376" lon="6.80329">
        <ele>1734.0975</ele>
        <time>2014-08-29T11:01:44Z</time>
      </trkpt>
      <trkpt lat="46.26373" lon="6.80328">
        <ele>1734.0975</ele>
        <time>2014-08-29T11:01:49Z</time>
      </trkpt>
      <trkpt lat="46.26371" lon="6.80328">
        <ele>1734.0975</ele>
        <time>2014-08-29T11:01:54Z</time>
      </trkpt>
      <trkpt lat="46.26371" lon="6.80328">
        <ele>1734.0975</ele>
        <time>2014-08-29T11:01:59Z</time>
      </trkpt>
      <trkpt lat="46.26368" lon="6.80327">
        <ele>1734.0975</ele>
        <time>2014-08-29T11:02:04Z</time>
      </trkpt>
      <trkpt lat="46.26365" lon="6.80328">
        <ele>1735.3375</ele>
        <time>2014-08-29T11:02:09Z</time>
      </trkpt>
      <trkpt lat="46.26362" lon="6.80329">
        <ele>1735.3375</ele>
        <time>2014-08-29T11:02:14Z</time>
      </trkpt>
      <trkpt lat="46.2636" lon="6.80328">
        <ele>1735.3375</ele>
        <time>2014-08-29T11:02:19Z</time>
      </trkpt>
      <trkpt lat="46.2636" lon="6.80328">
        <ele>1735.3375</ele>
        <time>2014-08-29T11:02:24Z</time>
      </trkpt>
      <trkpt lat="46.26356" lon="6.80328">
        <ele>1736.6285</ele>
        <time>2014-08-29T11:02:29Z</time>
      </trkpt>
      <trkpt lat="46.26353" lon="6.80328">
        <ele>1736.6285</ele>
        <time>2014-08-29T11:02:34Z</time>
      </trkpt>
      <trkpt lat="46.26353" lon="6.80328">
        <ele>1736.6285</ele>
        <time>2014-08-29T11:02:39Z</time>
      </trkpt>
      <trkpt lat="46.26352" lon="6.80328">
        <ele>1736.6285</ele>
        <time>2014-08-29T11:02:54Z</time>
      </trkpt>
      <trkpt lat="46.26351" lon="6.80328">
        <ele>1736.6285</ele>
        <time>2014-08-29T11:02:59Z</time>
      </trkpt>
      <trkpt lat="46.26346" lon="6.80327">
        <ele>1738.111</ele>
        <time>2014-08-29T11:03:04Z</time>
      </trkpt>
      <trkpt lat="46.26345" lon="6.80327">
        <ele>1738.111</ele>
        <time>2014-08-29T11:03:09Z</time>
      </trkpt>
      <trkpt lat="46.26345" lon="6.80327">
        <ele>1738.111</ele>
        <time>2014-08-29T11:03:14Z</time>
      </trkpt>
      <trkpt lat="46.2634" lon="6.80327">
        <ele>1738.111</ele>
        <time>2014-08-29T11:03:19Z</time>
      </trkpt>
      <trkpt lat="46.26337" lon="6.80328">
        <ele>1739.9719</ele>
        <time>2014-08-29T11:03:24Z</time>
      </trkpt>
      <trkpt lat="46.26335" lon="6.8033">
        <ele>1739.9719</ele>
        <time>2014-08-29T11:03:29Z</time>
      </trkpt>
      <trkpt lat="46.26335" lon="6.8033">
        <ele>1739.9719</ele>
        <time>2014-08-29T11:03:34Z</time>
      </trkpt>
      <trkpt lat="46.26333" lon="6.8033">
        <ele>1739.9719</ele>
        <time>2014-08-29T11:03:39Z</time>
      </trkpt>
      <trkpt lat="46.26326" lon="6.80334">
        <ele>1741.9368</ele>
        <time>2014-08-29T11:03:44Z</time>
      </trkpt>
      <trkpt lat="46.26325" lon="6.80335">
        <ele>1741.9368</ele>
        <time>2014-08-29T11:03:49Z</time>
      </trkpt>
      <trkpt lat="46.26324" lon="6.80337">
        <ele>1741.9368</ele>
        <time>2014-08-29T11:03:54Z</time>
      </trkpt>
      <trkpt lat="46.26324" lon="6.80337">
        <ele>1741.9368</ele>
        <time>2014-08-29T11:03:59Z</time>
      </trkpt>
      <trkpt lat="46.26322" lon="6.80338">
        <ele>1741.9368</ele>
        <time>2014-08-29T11:04:19Z</time>
      </trkpt>
      <trkpt lat="46.26321" lon="6.80338">
        <ele>1741.9368</ele>
        <time>2014-08-29T11:04:24Z</time>
      </trkpt>
      <trkpt lat="46.26321" lon="6.80338">
        <ele>1741.9368</ele>
        <time>2014-08-29T11:04:29Z</time>
      </trkpt>
      <trkpt lat="46.26318" lon="6.80341">
        <ele>1744.6151</ele>
        <time>2014-08-29T11:04:39Z</time>
      </trkpt>
      <trkpt lat="46.26313" lon="6.80342">
        <ele>1744.6151</ele>
        <time>2014-08-29T11:04:44Z</time>
      </trkpt>
      <trkpt lat="46.26306" lon="6.80343">
        <ele>1747.2441</ele>
        <time>2014-08-29T11:04:49Z</time>
      </trkpt>
      <trkpt lat="46.26303" lon="6.80342">
        <ele>1747.2441</ele>
        <time>2014-08-29T11:04:54Z</time>
      </trkpt>
      <trkpt lat="46.26303" lon="6.80342">
        <ele>1747.2441</ele>
        <time>2014-08-29T11:04:59Z</time>
      </trkpt>
      <trkpt lat="46.26303" lon="6.80342">
        <ele>1747.2441</ele>
        <time>2014-08-29T11:05:04Z</time>
      </trkpt>
      <trkpt lat="46.26299" lon="6.80342">
        <ele>1747.2441</ele>
        <time>2014-08-29T11:05:09Z</time>
      </trkpt>
      <trkpt lat="46.26298" lon="6.80342">
        <ele>1747.2441</ele>
        <time>2014-08-29T11:05:14Z</time>
      </trkpt>
      <trkpt lat="46.26298" lon="6.80342">
        <ele>1747.2441</ele>
        <time>2014-08-29T11:05:19Z</time>
      </trkpt>
      <trkpt lat="46.26295" lon="6.80338">
        <ele>1749.9386</ele>
        <time>2014-08-29T11:05:24Z</time>
      </trkpt>
      <trkpt lat="46.26295" lon="6.80338">
        <ele>1749.9386</ele>
        <time>2014-08-29T11:05:29Z</time>
      </trkpt>
      <trkpt lat="46.26295" lon="6.80333">
        <ele>1749.9386</ele>
        <time>2014-08-29T11:05:34Z</time>
      </trkpt>
      <trkpt lat="46.26294" lon="6.80329">
        <ele>1749.9386</ele>
        <time>2014-08-29T11:05:39Z</time>
      </trkpt>
      <trkpt lat="46.26289" lon="6.80321">
        <ele>1752.617</ele>
        <time>2014-08-29T11:05:44Z</time>
      </trkpt>
      <trkpt lat="46.26289" lon="6.80321">
        <ele>1752.617</ele>
        <time>2014-08-29T11:05:49Z</time>
      </trkpt>
      <trkpt lat="46.26286" lon="6.80317">
        <ele>1752.617</ele>
        <time>2014-08-29T11:05:54Z</time>
      </trkpt>
      <trkpt lat="46.26284" lon="6.80314">
        <ele>1752.617</ele>
        <time>2014-08-29T11:05:59Z</time>
      </trkpt>
      <trkpt lat="46.26284" lon="6.80314">
        <ele>1752.617</ele>
        <time>2014-08-29T11:06:04Z</time>
      </trkpt>
      <trkpt lat="46.26282" lon="6.8031">
        <ele>1755.5641</ele>
        <time>2014-08-29T11:06:24Z</time>
      </trkpt>
      <trkpt lat="46.26282" lon="6.80306">
        <ele>1755.5641</ele>
        <time>2014-08-29T11:06:29Z</time>
      </trkpt>
      <trkpt lat="46.2628" lon="6.80304">
        <ele>1755.5641</ele>
        <time>2014-08-29T11:06:34Z</time>
      </trkpt>
      <trkpt lat="46.26281" lon="6.80299">
        <ele>1755.5641</ele>
        <time>2014-08-29T11:06:39Z</time>
      </trkpt>
      <trkpt lat="46.2628" lon="6.80296">
        <ele>1758.611</ele>
        <time>2014-08-29T11:06:44Z</time>
      </trkpt>
      <trkpt lat="46.26279" lon="6.80291">
        <ele>1758.611</ele>
        <time>2014-08-29T11:06:49Z</time>
      </trkpt>
      <trkpt lat="46.26278" lon="6.80285">
        <ele>1758.611</ele>
        <time>2014-08-29T11:06:54Z</time>
      </trkpt>
      <trkpt lat="46.26278" lon="6.80281">
        <ele>1761.4996</ele>
        <time>2014-08-29T11:06:59Z</time>
      </trkpt>
      <trkpt lat="46.26278" lon="6.80279">
        <ele>1761.4996</ele>
        <time>2014-08-29T11:07:04Z</time>
      </trkpt>
      <trkpt lat="46.26279" lon="6.80275">
        <ele>1761.4996</ele>
        <time>2014-08-29T11:07:09Z</time>
      </trkpt>
      <trkpt lat="46.26281" lon="6.80271">
        <ele>1761.4996</ele>
        <time>2014-08-29T11:07:14Z</time>
      </trkpt>
      <trkpt lat="46.26283" lon="6.80267">
        <ele>1764.395</ele>
        <time>2014-08-29T11:07:19Z</time>
      </trkpt>
      <trkpt lat="46.26286" lon="6.80262">
        <ele>1764.395</ele>
        <time>2014-08-29T11:07:24Z</time>
      </trkpt>
      <trkpt lat="46.26287" lon="6.80259">
        <ele>1764.395</ele>
        <time>2014-08-29T11:07:29Z</time>
      </trkpt>
      <trkpt lat="46.26286" lon="6.80253">
        <ele>1767.1476</ele>
        <time>2014-08-29T11:07:34Z</time>
      </trkpt>
      <trkpt lat="46.26284" lon="6.80251">
        <ele>1767.1476</ele>
        <time>2014-08-29T11:07:39Z</time>
      </trkpt>
      <trkpt lat="46.26283" lon="6.80249">
        <ele>1767.1476</ele>
        <time>2014-08-29T11:07:44Z</time>
      </trkpt>
      <trkpt lat="46.26282" lon="6.80249">
        <ele>1767.1476</ele>
        <time>2014-08-29T11:07:49Z</time>
      </trkpt>
      <trkpt lat="46.26283" lon="6.80249">
        <ele>1767.1476</ele>
        <time>2014-08-29T11:07:54Z</time>
      </trkpt>
      <trkpt lat="46.26284" lon="6.80244">
        <ele>1769.8638</ele>
        <time>2014-08-29T11:07:59Z</time>
      </trkpt>
      <trkpt lat="46.26286" lon="6.80237">
        <ele>1769.8638</ele>
        <time>2014-08-29T11:08:04Z</time>
      </trkpt>
      <trkpt lat="46.26285" lon="6.80237">
        <ele>1769.8638</ele>
        <time>2014-08-29T11:08:09Z</time>
      </trkpt>
      <trkpt lat="46.26287" lon="6.80234">
        <ele>1769.8638</ele>
        <time>2014-08-29T11:08:14Z</time>
      </trkpt>
      <trkpt lat="46.26287" lon="6.80233">
        <ele>1772.2682</ele>
        <time>2014-08-29T11:08:19Z</time>
      </trkpt>
      <trkpt lat="46.26288" lon="6.80233">
        <ele>1772.2682</ele>
        <time>2014-08-29T11:08:24Z</time>
      </trkpt>
      <trkpt lat="46.26289" lon="6.80231">
        <ele>1772.2682</ele>
        <time>2014-08-29T11:08:29Z</time>
      </trkpt>
      <trkpt lat="46.2629" lon="6.80221">
        <ele>1774.5385</ele>
        <time>2014-08-29T11:08:34Z</time>
      </trkpt>
      <trkpt lat="46.26288" lon="6.80216">
        <ele>1774.5385</ele>
        <time>2014-08-29T11:08:39Z</time>
      </trkpt>
      <trkpt lat="46.26287" lon="6.80212">
        <ele>1774.5385</ele>
        <time>2014-08-29T11:08:44Z</time>
      </trkpt>
      <trkpt lat="46.26284" lon="6.80203">
        <ele>1776.5948</ele>
        <time>2014-08-29T11:08:49Z</time>
      </trkpt>
      <trkpt lat="46.26284" lon="6.80199">
        <ele>1776.5948</ele>
        <time>2014-08-29T11:08:54Z</time>
      </trkpt>
      <trkpt lat="46.26284" lon="6.80195">
        <ele>1776.5948</ele>
        <time>2014-08-29T11:08:59Z</time>
      </trkpt>
      <trkpt lat="46.26283" lon="6.80194">
        <ele>1776.5948</ele>
        <time>2014-08-29T11:09:04Z</time>
      </trkpt>
      <trkpt lat="46.26281" lon="6.80191">
        <ele>1778.5371</ele>
        <time>2014-08-29T11:09:09Z</time>
      </trkpt>
      <trkpt lat="46.26281" lon="6.80189">
        <ele>1778.5371</ele>
        <time>2014-08-29T11:09:14Z</time>
      </trkpt>
      <trkpt lat="46.2628" lon="6.80186">
        <ele>1778.5371</ele>
        <time>2014-08-29T11:09:19Z</time>
      </trkpt>
      <trkpt lat="46.26278" lon="6.80186">
        <ele>1778.5371</ele>
        <time>2014-08-29T11:09:24Z</time>
      </trkpt>
      <trkpt lat="46.26276" lon="6.80186">
        <ele>1778.5371</ele>
        <time>2014-08-29T11:09:29Z</time>
      </trkpt>
      <trkpt lat="46.26274" lon="6.80188">
        <ele>1780.631</ele>
        <time>2014-08-29T11:09:34Z</time>
      </trkpt>
      <trkpt lat="46.26274" lon="6.80189">
        <ele>1780.631</ele>
        <time>2014-08-29T11:09:39Z</time>
      </trkpt>
      <trkpt lat="46.26277" lon="6.80187">
        <ele>1780.631</ele>
        <time>2014-08-29T11:09:44Z</time>
      </trkpt>
      <trkpt lat="46.26281" lon="6.80184">
        <ele>1780.631</ele>
        <time>2014-08-29T11:09:49Z</time>
      </trkpt>
      <trkpt lat="46.26281" lon="6.80182">
        <ele>1782.5314</ele>
        <time>2014-08-29T11:09:54Z</time>
      </trkpt>
      <trkpt lat="46.26279" lon="6.80182">
        <ele>1782.5314</ele>
        <time>2014-08-29T11:09:59Z</time>
      </trkpt>
      <trkpt lat="46.26276" lon="6.80182">
        <ele>1782.5314</ele>
        <time>2014-08-29T11:10:04Z</time>
      </trkpt>
      <trkpt lat="46.26273" lon="6.80183">
        <ele>1782.5314</ele>
        <time>2014-08-29T11:10:09Z</time>
      </trkpt>
      <trkpt lat="46.26273" lon="6.80182">
        <ele>1784.582</ele>
        <time>2014-08-29T11:10:14Z</time>
      </trkpt>
      <trkpt lat="46.26271" lon="6.80182">
        <ele>1784.582</ele>
        <time>2014-08-29T11:10:19Z</time>
      </trkpt>
      <trkpt lat="46.26269" lon="6.80179">
        <ele>1784.582</ele>
        <time>2014-08-29T11:10:24Z</time>
      </trkpt>
      <trkpt lat="46.26266" lon="6.80181">
        <ele>1784.582</ele>
        <time>2014-08-29T11:10:29Z</time>
      </trkpt>
      <trkpt lat="46.26261" lon="6.80178">
        <ele>1786.5538</ele>
        <time>2014-08-29T11:10:34Z</time>
      </trkpt>
      <trkpt lat="46.26261" lon="6.80176">
        <ele>1786.5538</ele>
        <time>2014-08-29T11:10:39Z</time>
      </trkpt>
      <trkpt lat="46.2626" lon="6.80174">
        <ele>1786.5538</ele>
        <time>2014-08-29T11:10:44Z</time>
      </trkpt>
      <trkpt lat="46.2626" lon="6.8017">
        <ele>1786.5538</ele>
        <time>2014-08-29T11:10:49Z</time>
      </trkpt>
      <trkpt lat="46.26261" lon="6.80167">
        <ele>1786.5538</ele>
        <time>2014-08-29T11:10:54Z</time>
      </trkpt>
      <trkpt lat="46.26261" lon="6.80167">
        <ele>1786.5538</ele>
        <time>2014-08-29T11:10:59Z</time>
      </trkpt>
      <trkpt lat="46.26261" lon="6.80165">
        <ele>1788.6666</ele>
        <time>2014-08-29T11:11:04Z</time>
      </trkpt>
      <trkpt lat="46.26264" lon="6.80159">
        <ele>1788.6666</ele>
        <time>2014-08-29T11:11:09Z</time>
      </trkpt>
      <trkpt lat="46.26264" lon="6.80158">
        <ele>1788.6666</ele>
        <time>2014-08-29T11:11:14Z</time>
      </trkpt>
      <trkpt lat="46.26268" lon="6.8015">
        <ele>1790.735</ele>
        <time>2014-08-29T11:11:19Z</time>
      </trkpt>
      <trkpt lat="46.26269" lon="6.80148">
        <ele>1790.735</ele>
        <time>2014-08-29T11:11:24Z</time>
      </trkpt>
      <trkpt lat="46.26269" lon="6.80144">
        <ele>1790.735</ele>
        <time>2014-08-29T11:11:29Z</time>
      </trkpt>
      <trkpt lat="46.26269" lon="6.80144">
        <ele>1790.735</ele>
        <time>2014-08-29T11:11:34Z</time>
      </trkpt>
      <trkpt lat="46.26269" lon="6.80143">
        <ele>1790.735</ele>
        <time>2014-08-29T11:11:49Z</time>
      </trkpt>
      <trkpt lat="46.26271" lon="6.80141">
        <ele>1790.735</ele>
        <time>2014-08-29T11:11:54Z</time>
      </trkpt>
      <trkpt lat="46.26271" lon="6.80142">
        <ele>1790.735</ele>
        <time>2014-08-29T11:11:59Z</time>
      </trkpt>
      <trkpt lat="46.2627" lon="6.80144">
        <ele>1792.919</ele>
        <time>2014-08-29T11:12:04Z</time>
      </trkpt>
      <trkpt lat="46.2627" lon="6.80145">
        <ele>1792.919</ele>
        <time>2014-08-29T11:12:09Z</time>
      </trkpt>
      <trkpt lat="46.26271" lon="6.80145">
        <ele>1792.919</ele>
        <time>2014-08-29T11:12:14Z</time>
      </trkpt>
      <trkpt lat="46.26271" lon="6.80146">
        <ele>1792.919</ele>
        <time>2014-08-29T11:12:19Z</time>
      </trkpt>
      <trkpt lat="46.26271" lon="6.80146">
        <ele>1792.919</ele>
        <time>2014-08-29T11:12:24Z</time>
      </trkpt>
      <trkpt lat="46.26271" lon="6.80148">
        <ele>1792.919</ele>
        <time>2014-08-29T11:12:49Z</time>
      </trkpt>
      <trkpt lat="46.26271" lon="6.80152">
        <ele>1792.919</ele>
        <time>2014-08-29T11:12:54Z</time>
      </trkpt>
      <trkpt lat="46.26271" lon="6.80154">
        <ele>1792.919</ele>
        <time>2014-08-29T11:12:59Z</time>
      </trkpt>
      <trkpt lat="46.2627" lon="6.80154">
        <ele>1792.919</ele>
        <time>2014-08-29T11:13:04Z</time>
      </trkpt>
      <trkpt lat="46.26269" lon="6.80154">
        <ele>1795.0922</ele>
        <time>2014-08-29T11:13:09Z</time>
      </trkpt>
      <trkpt lat="46.26269" lon="6.80154">
        <ele>1795.0922</ele>
        <time>2014-08-29T11:13:14Z</time>
      </trkpt>
      <trkpt lat="46.26269" lon="6.80155">
        <ele>1795.0922</ele>
        <time>2014-08-29T11:13:29Z</time>
      </trkpt>
      <trkpt lat="46.26269" lon="6.80155">
        <ele>1795.0922</ele>
        <time>2014-08-29T11:13:34Z</time>
      </trkpt>
      <trkpt lat="46.26268" lon="6.80157">
        <ele>1795.0922</ele>
        <time>2014-08-29T11:13:44Z</time>
      </trkpt>
      <trkpt lat="46.26263" lon="6.80165">
        <ele>1797.2247</ele>
        <time>2014-08-29T11:13:49Z</time>
      </trkpt>
      <trkpt lat="46.26259" lon="6.80171">
        <ele>1797.2247</ele>
        <time>2014-08-29T11:13:54Z</time>
      </trkpt>
      <trkpt lat="46.26259" lon="6.80173">
        <ele>1797.2247</ele>
        <time>2014-08-29T11:13:59Z</time>
      </trkpt>
      <trkpt lat="46.26259" lon="6.80178">
        <ele>1798.8708</ele>
        <time>2014-08-29T11:14:04Z</time>
      </trkpt>
      <trkpt lat="46.26258" lon="6.80185">
        <ele>1798.8708</ele>
        <time>2014-08-29T11:14:09Z</time>
      </trkpt>
      <trkpt lat="46.26256" lon="6.80193">
        <ele>1800.0225</ele>
        <time>2014-08-29T11:14:14Z</time>
      </trkpt>
      <trkpt lat="46.26257" lon="6.802">
        <ele>1800.0225</ele>
        <time>2014-08-29T11:14:19Z</time>
      </trkpt>
      <trkpt lat="46.26258" lon="6.80209">
        <ele>1801.0197</ele>
        <time>2014-08-29T11:14:24Z</time>
      </trkpt>
      <trkpt lat="46.26258" lon="6.80216">
        <ele>1801.0197</ele>
        <time>2014-08-29T11:14:29Z</time>
      </trkpt>
      <trkpt lat="46.26259" lon="6.80221">
        <ele>1801.0197</ele>
        <time>2014-08-29T11:14:34Z</time>
      </trkpt>
      <trkpt lat="46.26259" lon="6.80227">
        <ele>1801.8895</ele>
        <time>2014-08-29T11:14:39Z</time>
      </trkpt>
      <trkpt lat="46.26258" lon="6.80234">
        <ele>1801.8895</ele>
        <time>2014-08-29T11:14:44Z</time>
      </trkpt>
      <trkpt lat="46.26256" lon="6.80241">
        <ele>1802.7155</ele>
        <time>2014-08-29T11:14:49Z</time>
      </trkpt>
      <trkpt lat="46.26256" lon="6.80242">
        <ele>1802.7155</ele>
        <time>2014-08-29T11:14:54Z</time>
      </trkpt>
      <trkpt lat="46.26253" lon="6.80243">
        <ele>1802.7155</ele>
        <time>2014-08-29T11:15:04Z</time>
      </trkpt>
      <trkpt lat="46.26252" lon="6.80245">
        <ele>1802.7155</ele>
        <time>2014-08-29T11:15:09Z</time>
      </trkpt>
      <trkpt lat="46.26251" lon="6.80247">
        <ele>1802.7155</ele>
        <time>2014-08-29T11:15:14Z</time>
      </trkpt>
      <trkpt lat="46.26251" lon="6.80247">
        <ele>1802.7155</ele>
        <time>2014-08-29T11:15:19Z</time>
      </trkpt>
      <trkpt lat="46.2625" lon="6.80251">
        <ele>1803.0848</ele>
        <time>2014-08-29T11:15:24Z</time>
      </trkpt>
      <trkpt lat="46.2625" lon="6.80258">
        <ele>1803.0848</ele>
        <time>2014-08-29T11:15:29Z</time>
      </trkpt>
      <trkpt lat="46.2625" lon="6.80268">
        <ele>1803.3658</ele>
        <time>2014-08-29T11:15:34Z</time>
      </trkpt>
      <trkpt lat="46.26249" lon="6.80271">
        <ele>1803.3658</ele>
        <time>2014-08-29T11:15:39Z</time>
      </trkpt>
      <trkpt lat="46.2625" lon="6.80275">
        <ele>1803.3658</ele>
        <time>2014-08-29T11:15:44Z</time>
      </trkpt>
      <trkpt lat="46.26251" lon="6.80279">
        <ele>1803.3658</ele>
        <time>2014-08-29T11:15:49Z</time>
      </trkpt>
      <trkpt lat="46.26252" lon="6.80283">
        <ele>1803.3381</ele>
        <time>2014-08-29T11:15:54Z</time>
      </trkpt>
      <trkpt lat="46.26254" lon="6.80285">
        <ele>1803.3381</ele>
        <time>2014-08-29T11:15:59Z</time>
      </trkpt>
      <trkpt lat="46.26255" lon="6.80288">
        <ele>1803.3381</ele>
        <time>2014-08-29T11:16:04Z</time>
      </trkpt>
      <trkpt lat="46.26256" lon="6.8029">
        <ele>1803.3381</ele>
        <time>2014-08-29T11:16:09Z</time>
      </trkpt>
      <trkpt lat="46.26257" lon="6.80291">
        <ele>1803.3381</ele>
        <time>2014-08-29T11:16:14Z</time>
      </trkpt>
      <trkpt lat="46.26263" lon="6.80292">
        <ele>1803.0433</ele>
        <time>2014-08-29T11:16:19Z</time>
      </trkpt>
      <trkpt lat="46.26265" lon="6.80295">
        <ele>1803.0433</ele>
        <time>2014-08-29T11:16:24Z</time>
      </trkpt>
      <trkpt lat="46.26267" lon="6.803">
        <ele>1803.0433</ele>
        <time>2014-08-29T11:16:29Z</time>
      </trkpt>
      <trkpt lat="46.26267" lon="6.80307">
        <ele>1802.3909</ele>
        <time>2014-08-29T11:16:34Z</time>
      </trkpt>
      <trkpt lat="46.26263" lon="6.80311">
        <ele>1802.3909</ele>
        <time>2014-08-29T11:16:39Z</time>
      </trkpt>
      <trkpt lat="46.2626" lon="6.80315">
        <ele>1801.5576</ele>
        <time>2014-08-29T11:16:44Z</time>
      </trkpt>
      <trkpt lat="46.26258" lon="6.80322">
        <ele>1801.5576</ele>
        <time>2014-08-29T11:16:49Z</time>
      </trkpt>
      <trkpt lat="46.26255" lon="6.80328">
        <ele>1800.5778</ele>
        <time>2014-08-29T11:16:54Z</time>
      </trkpt>
      <trkpt lat="46.26253" lon="6.80335">
        <ele>1800.5778</ele>
        <time>2014-08-29T11:16:59Z</time>
      </trkpt>
      <trkpt lat="46.26252" lon="6.80335">
        <ele>1800.5778</ele>
        <time>2014-08-29T11:17:04Z</time>
      </trkpt>
      <trkpt lat="46.26252" lon="6.80335">
        <ele>1800.5778</ele>
        <time>2014-08-29T11:17:09Z</time>
      </trkpt>
      <trkpt lat="46.26252" lon="6.80336">
        <ele>1800.5778</ele>
        <time>2014-08-29T11:17:19Z</time>
      </trkpt>
      <trkpt lat="46.26252" lon="6.80336">
        <ele>1800.5778</ele>
        <time>2014-08-29T11:17:24Z</time>
      </trkpt>
      <trkpt lat="46.26251" lon="6.80336">
        <ele>1800.5778</ele>
        <time>2014-08-29T11:17:29Z</time>
      </trkpt>
      <trkpt lat="46.26249" lon="6.80338">
        <ele>1799.354</ele>
        <time>2014-08-29T11:17:34Z</time>
      </trkpt>
      <trkpt lat="46.26248" lon="6.80344">
        <ele>1799.354</ele>
        <time>2014-08-29T11:17:39Z</time>
      </trkpt>
      <trkpt lat="46.26246" lon="6.80353">
        <ele>1797.955</ele>
        <time>2014-08-29T11:17:44Z</time>
      </trkpt>
      <trkpt lat="46.26244" lon="6.80356">
        <ele>1797.955</ele>
        <time>2014-08-29T11:17:49Z</time>
      </trkpt>
      <trkpt lat="46.26241" lon="6.80359">
        <ele>1797.955</ele>
        <time>2014-08-29T11:17:54Z</time>
      </trkpt>
      <trkpt lat="46.26239" lon="6.8036">
        <ele>1797.955</ele>
        <time>2014-08-29T11:17:59Z</time>
      </trkpt>
      <trkpt lat="46.26239" lon="6.80361">
        <ele>1796.3729</ele>
        <time>2014-08-29T11:18:04Z</time>
      </trkpt>
      <trkpt lat="46.26238" lon="6.80361">
        <ele>1796.3729</ele>
        <time>2014-08-29T11:18:29Z</time>
      </trkpt>
      <trkpt lat="46.26238" lon="6.80361">
        <ele>1796.3729</ele>
        <time>2014-08-29T11:18:34Z</time>
      </trkpt>
      <trkpt lat="46.26237" lon="6.80362">
        <ele>1796.3729</ele>
        <time>2014-08-29T11:18:39Z</time>
      </trkpt>
      <trkpt lat="46.26237" lon="6.80363">
        <ele>1796.3729</ele>
        <time>2014-08-29T11:18:44Z</time>
      </trkpt>
      <trkpt lat="46.26236" lon="6.80363">
        <ele>1796.3729</ele>
        <time>2014-08-29T11:18:49Z</time>
      </trkpt>
      <trkpt lat="46.26236" lon="6.80363">
        <ele>1796.3729</ele>
        <time>2014-08-29T11:19:29Z</time>
      </trkpt>
      <trkpt lat="46.26236" lon="6.80363">
        <ele>1796.3729</ele>
        <time>2014-08-29T11:19:34Z</time>
      </trkpt>
      <trkpt lat="46.26235" lon="6.80365">
        <ele>1796.3729</ele>
        <time>2014-08-29T11:20:19Z</time>
      </trkpt>
      <trkpt lat="46.26235" lon="6.80365">
        <ele>1796.3729</ele>
        <time>2014-08-29T11:20:24Z</time>
      </trkpt>
      <trkpt lat="46.26234" lon="6.80366">
        <ele>1796.3729</ele>
        <time>2014-08-29T11:20:29Z</time>
      </trkpt>
      <trkpt lat="46.26234" lon="6.80366">
        <ele>1796.3729</ele>
        <time>2014-08-29T11:20:34Z</time>
      </trkpt>
      <trkpt lat="46.26234" lon="6.80365">
        <ele>1796.3729</ele>
        <time>2014-08-29T11:20:39Z</time>
      </trkpt>
      <trkpt lat="46.26235" lon="6.80365">
        <ele>1796.3729</ele>
        <time>2014-08-29T11:21:04Z</time>
      </trkpt>
      <trkpt lat="46.26235" lon="6.80365">
        <ele>1796.3729</ele>
        <time>2014-08-29T11:21:09Z</time>
      </trkpt>
      <trkpt lat="46.26235" lon="6.80363">
        <ele>1795.6243</ele>
        <time>2014-08-29T11:21:29Z</time>
      </trkpt>
      <trkpt lat="46.26237" lon="6.80362">
        <ele>1795.6243</ele>
        <time>2014-08-29T11:21:34Z</time>
      </trkpt>
      <trkpt lat="46.26239" lon="6.80361">
        <ele>1795.6243</ele>
        <time>2014-08-29T11:21:39Z</time>
      </trkpt>
      <trkpt lat="46.26241" lon="6.80357">
        <ele>1795.6243</ele>
        <time>2014-08-29T11:21:44Z</time>
      </trkpt>
      <trkpt lat="46.26245" lon="6.8035">
        <ele>1794.9474</ele>
        <time>2014-08-29T11:21:49Z</time>
      </trkpt>
      <trkpt lat="46.26247" lon="6.80341">
        <ele>1794.9474</ele>
        <time>2014-08-29T11:21:54Z</time>
      </trkpt>
      <trkpt lat="46.26248" lon="6.80336">
        <ele>1794.2853</ele>
        <time>2014-08-29T11:21:59Z</time>
      </trkpt>
      <trkpt lat="46.26251" lon="6.80327">
        <ele>1794.2853</ele>
        <time>2014-08-29T11:22:04Z</time>
      </trkpt>
      <trkpt lat="46.26256" lon="6.8032">
        <ele>1793.4116</ele>
        <time>2014-08-29T11:22:09Z</time>
      </trkpt>
      <trkpt lat="46.26258" lon="6.80315">
        <ele>1793.4116</ele>
        <time>2014-08-29T11:22:14Z</time>
      </trkpt>
      <trkpt lat="46.2626" lon="6.80311">
        <ele>1793.4116</ele>
        <time>2014-08-29T11:22:19Z</time>
      </trkpt>
      <trkpt lat="46.26261" lon="6.80308">
        <ele>1792.2616</ele>
        <time>2014-08-29T11:22:24Z</time>
      </trkpt>
      <trkpt lat="46.26262" lon="6.80304">
        <ele>1792.2616</ele>
        <time>2014-08-29T11:22:29Z</time>
      </trkpt>
      <trkpt lat="46.26263" lon="6.80303">
        <ele>1792.2616</ele>
        <time>2014-08-29T11:22:34Z</time>
      </trkpt>
      <trkpt lat="46.26264" lon="6.80295">
        <ele>1790.8044</ele>
        <time>2014-08-29T11:22:39Z</time>
      </trkpt>
      <trkpt lat="46.26264" lon="6.80291">
        <ele>1790.8044</ele>
        <time>2014-08-29T11:22:44Z</time>
      </trkpt>
      <trkpt lat="46.26264" lon="6.80289">
        <ele>1790.8044</ele>
        <time>2014-08-29T11:22:49Z</time>
      </trkpt>
      <trkpt lat="46.26267" lon="6.80286">
        <ele>1790.8044</ele>
        <time>2014-08-29T11:22:54Z</time>
      </trkpt>
      <trkpt lat="46.26267" lon="6.80283">
        <ele>1790.8044</ele>
        <time>2014-08-29T11:22:59Z</time>
      </trkpt>
      <trkpt lat="46.26267" lon="6.80281">
        <ele>1789.4156</ele>
        <time>2014-08-29T11:23:04Z</time>
      </trkpt>
      <trkpt lat="46.26267" lon="6.80281">
        <ele>1789.4156</ele>
        <time>2014-08-29T11:23:09Z</time>
      </trkpt>
      <trkpt lat="46.26267" lon="6.80281">
        <ele>1789.4156</ele>
        <time>2014-08-29T11:23:14Z</time>
      </trkpt>
      <trkpt lat="46.26267" lon="6.80279">
        <ele>1789.4156</ele>
        <time>2014-08-29T11:23:29Z</time>
      </trkpt>
      <trkpt lat="46.26266" lon="6.80276">
        <ele>1789.4156</ele>
        <time>2014-08-29T11:23:34Z</time>
      </trkpt>
      <trkpt lat="46.26266" lon="6.80274">
        <ele>1789.4156</ele>
        <time>2014-08-29T11:23:39Z</time>
      </trkpt>
      <trkpt lat="46.26269" lon="6.80267">
        <ele>1788.0254</ele>
        <time>2014-08-29T11:23:44Z</time>
      </trkpt>
      <trkpt lat="46.2627" lon="6.80262">
        <ele>1788.0254</ele>
        <time>2014-08-29T11:23:49Z</time>
      </trkpt>
      <trkpt lat="46.26271" lon="6.80256">
        <ele>1788.0254</ele>
        <time>2014-08-29T11:23:54Z</time>
      </trkpt>
      <trkpt lat="46.26274" lon="6.80249">
        <ele>1786.5105</ele>
        <time>2014-08-29T11:23:59Z</time>
      </trkpt>
      <trkpt lat="46.26275" lon="6.80247">
        <ele>1786.5105</ele>
        <time>2014-08-29T11:24:04Z</time>
      </trkpt>
      <trkpt lat="46.26275" lon="6.80247">
        <ele>1786.5105</ele>
        <time>2014-08-29T11:24:09Z</time>
      </trkpt>
      <trkpt lat="46.26273" lon="6.80245">
        <ele>1786.5105</ele>
        <time>2014-08-29T11:24:24Z</time>
      </trkpt>
      <trkpt lat="46.26272" lon="6.80243">
        <ele>1786.5105</ele>
        <time>2014-08-29T11:24:29Z</time>
      </trkpt>
      <trkpt lat="46.26271" lon="6.80242">
        <ele>1786.5105</ele>
        <time>2014-08-29T11:24:34Z</time>
      </trkpt>
      <trkpt lat="46.2627" lon="6.80239">
        <ele>1785.262</ele>
        <time>2014-08-29T11:24:39Z</time>
      </trkpt>
      <trkpt lat="46.26272" lon="6.80233">
        <ele>1785.262</ele>
        <time>2014-08-29T11:24:44Z</time>
      </trkpt>
      <trkpt lat="46.26274" lon="6.8023">
        <ele>1785.262</ele>
        <time>2014-08-29T11:24:49Z</time>
      </trkpt>
      <trkpt lat="46.26275" lon="6.80227">
        <ele>1784.194</ele>
        <time>2014-08-29T11:24:54Z</time>
      </trkpt>
      <trkpt lat="46.26278" lon="6.80219">
        <ele>1784.194</ele>
        <time>2014-08-29T11:24:59Z</time>
      </trkpt>
      <trkpt lat="46.26283" lon="6.8021">
        <ele>1783.1544</ele>
        <time>2014-08-29T11:25:04Z</time>
      </trkpt>
      <trkpt lat="46.26284" lon="6.80204">
        <ele>1783.1544</ele>
        <time>2014-08-29T11:25:09Z</time>
      </trkpt>
      <trkpt lat="46.26284" lon="6.80203">
        <ele>1783.1544</ele>
        <time>2014-08-29T11:25:14Z</time>
      </trkpt>
      <trkpt lat="46.26284" lon="6.80202">
        <ele>1783.1544</ele>
        <time>2014-08-29T11:25:19Z</time>
      </trkpt>
      <trkpt lat="46.26284" lon="6.80202">
        <ele>1783.1544</ele>
        <time>2014-08-29T11:25:24Z</time>
      </trkpt>
      <trkpt lat="46.26283" lon="6.80202">
        <ele>1783.1544</ele>
        <time>2014-08-29T11:25:29Z</time>
      </trkpt>
      <trkpt lat="46.26282" lon="6.80201">
        <ele>1783.1544</ele>
        <time>2014-08-29T11:25:34Z</time>
      </trkpt>
      <trkpt lat="46.26282" lon="6.80201">
        <ele>1783.1544</ele>
        <time>2014-08-29T11:25:39Z</time>
      </trkpt>
      <trkpt lat="46.26281" lon="6.802">
        <ele>1783.1544</ele>
        <time>2014-08-29T11:25:44Z</time>
      </trkpt>
      <trkpt lat="46.2628" lon="6.802">
        <ele>1782.766</ele>
        <time>2014-08-29T11:25:49Z</time>
      </trkpt>
      <trkpt lat="46.26276" lon="6.80197">
        <ele>1782.766</ele>
        <time>2014-08-29T11:25:54Z</time>
      </trkpt>
      <trkpt lat="46.2627" lon="6.80194">
        <ele>1782.465</ele>
        <time>2014-08-29T11:25:59Z</time>
      </trkpt>
      <trkpt lat="46.26269" lon="6.80193">
        <ele>1782.465</ele>
        <time>2014-08-29T11:26:04Z</time>
      </trkpt>
      <trkpt lat="46.26269" lon="6.80192">
        <ele>1782.465</ele>
        <time>2014-08-29T11:26:09Z</time>
      </trkpt>
      <trkpt lat="46.26269" lon="6.80192">
        <ele>1782.465</ele>
        <time>2014-08-29T11:26:14Z</time>
      </trkpt>
      <trkpt lat="46.2627" lon="6.8019">
        <ele>1782.465</ele>
        <time>2014-08-29T11:26:24Z</time>
      </trkpt>
      <trkpt lat="46.2627" lon="6.8019">
        <ele>1782.465</ele>
        <time>2014-08-29T11:26:29Z</time>
      </trkpt>
      <trkpt lat="46.26268" lon="6.80188">
        <ele>1782.465</ele>
        <time>2014-08-29T11:26:44Z</time>
      </trkpt>
      <trkpt lat="46.26267" lon="6.80187">
        <ele>1782.465</ele>
        <time>2014-08-29T11:26:49Z</time>
      </trkpt>
      <trkpt lat="46.26266" lon="6.80185">
        <ele>1782.465</ele>
        <time>2014-08-29T11:26:54Z</time>
      </trkpt>
      <trkpt lat="46.26266" lon="6.80185">
        <ele>1783.0688</ele>
        <time>2014-08-29T11:26:59Z</time>
      </trkpt>
      <trkpt lat="46.26264" lon="6.80179">
        <ele>1783.0688</ele>
        <time>2014-08-29T11:27:04Z</time>
      </trkpt>
      <trkpt lat="46.26263" lon="6.80173">
        <ele>1783.0688</ele>
        <time>2014-08-29T11:27:09Z</time>
      </trkpt>
      <trkpt lat="46.26263" lon="6.8017">
        <ele>1783.56</ele>
        <time>2014-08-29T11:27:14Z</time>
      </trkpt>
      <trkpt lat="46.26264" lon="6.80167">
        <ele>1783.56</ele>
        <time>2014-08-29T11:27:19Z</time>
      </trkpt>
      <trkpt lat="46.26265" lon="6.80162">
        <ele>1783.56</ele>
        <time>2014-08-29T11:27:24Z</time>
      </trkpt>
      <trkpt lat="46.26268" lon="6.80157">
        <ele>1784.0186</ele>
        <time>2014-08-29T11:27:29Z</time>
      </trkpt>
      <trkpt lat="46.26268" lon="6.80154">
        <ele>1784.0186</ele>
        <time>2014-08-29T11:27:34Z</time>
      </trkpt>
      <trkpt lat="46.26268" lon="6.80153">
        <ele>1784.0186</ele>
        <time>2014-08-29T11:27:39Z</time>
      </trkpt>
      <trkpt lat="46.26267" lon="6.80149">
        <ele>1784.0186</ele>
        <time>2014-08-29T11:27:44Z</time>
      </trkpt>
      <trkpt lat="46.26266" lon="6.80144">
        <ele>1784.0186</ele>
        <time>2014-08-29T11:27:49Z</time>
      </trkpt>
      <trkpt lat="46.26266" lon="6.80143">
        <ele>1784.8217</ele>
        <time>2014-08-29T11:27:54Z</time>
      </trkpt>
      <trkpt lat="46.26267" lon="6.80139">
        <ele>1784.8217</ele>
        <time>2014-08-29T11:27:59Z</time>
      </trkpt>
      <trkpt lat="46.26267" lon="6.80139">
        <ele>1784.8217</ele>
        <time>2014-08-29T11:28:04Z</time>
      </trkpt>
      <trkpt lat="46.26267" lon="6.80138">
        <ele>1784.8217</ele>
        <time>2014-08-29T11:28:39Z</time>
      </trkpt>
      <trkpt lat="46.26267" lon="6.80135">
        <ele>1784.8217</ele>
        <time>2014-08-29T11:28:44Z</time>
      </trkpt>
      <trkpt lat="46.26266" lon="6.80134">
        <ele>1784.8217</ele>
        <time>2014-08-29T11:28:49Z</time>
      </trkpt>
      <trkpt lat="46.26267" lon="6.80132">
        <ele>1784.8217</ele>
        <time>2014-08-29T11:28:54Z</time>
      </trkpt>
      <trkpt lat="46.26266" lon="6.80131">
        <ele>1786.62</ele>
        <time>2014-08-29T11:28:59Z</time>
      </trkpt>
      <trkpt lat="46.26266" lon="6.80131">
        <ele>1786.62</ele>
        <time>2014-08-29T11:29:04Z</time>
      </trkpt>
      <trkpt lat="46.26266" lon="6.80129">
        <ele>1786.62</ele>
        <time>2014-08-29T11:29:34Z</time>
      </trkpt>
      <trkpt lat="46.26266" lon="6.80125">
        <ele>1786.62</ele>
        <time>2014-08-29T11:29:39Z</time>
      </trkpt>
      <trkpt lat="46.26265" lon="6.80118">
        <ele>1786.62</ele>
        <time>2014-08-29T11:29:44Z</time>
      </trkpt>
      <trkpt lat="46.26265" lon="6.80116">
        <ele>1788.5726</ele>
        <time>2014-08-29T11:29:49Z</time>
      </trkpt>
      <trkpt lat="46.26265" lon="6.80116">
        <ele>1788.5726</ele>
        <time>2014-08-29T11:29:54Z</time>
      </trkpt>
      <trkpt lat="46.26264" lon="6.80112">
        <ele>1788.5726</ele>
        <time>2014-08-29T11:29:59Z</time>
      </trkpt>
      <trkpt lat="46.26264" lon="6.8011">
        <ele>1788.5726</ele>
        <time>2014-08-29T11:30:04Z</time>
      </trkpt>
      <trkpt lat="46.26263" lon="6.80106">
        <ele>1788.5726</ele>
        <time>2014-08-29T11:30:09Z</time>
      </trkpt>
      <trkpt lat="46.26262" lon="6.80104">
        <ele>1791.384</ele>
        <time>2014-08-29T11:30:14Z</time>
      </trkpt>
      <trkpt lat="46.26262" lon="6.80098">
        <ele>1791.384</ele>
        <time>2014-08-29T11:30:19Z</time>
      </trkpt>
      <trkpt lat="46.26264" lon="6.80095">
        <ele>1791.384</ele>
        <time>2014-08-29T11:30:24Z</time>
      </trkpt>
      <trkpt lat="46.26264" lon="6.80095">
        <ele>1791.384</ele>
        <time>2014-08-29T11:30:29Z</time>
      </trkpt>
      <trkpt lat="46.26264" lon="6.80092">
        <ele>1791.384</ele>
        <time>2014-08-29T11:30:39Z</time>
      </trkpt>
      <trkpt lat="46.26261" lon="6.80078">
        <ele>1793.3411</ele>
        <time>2014-08-29T11:30:44Z</time>
      </trkpt>
      <trkpt lat="46.26261" lon="6.80078">
        <ele>1793.3411</ele>
        <time>2014-08-29T11:30:49Z</time>
      </trkpt>
      <trkpt lat="46.2626" lon="6.80075">
        <ele>1793.3411</ele>
        <time>2014-08-29T11:31:19Z</time>
      </trkpt>
      <trkpt lat="46.26259" lon="6.80069">
        <ele>1793.3411</ele>
        <time>2014-08-29T11:31:24Z</time>
      </trkpt>
      <trkpt lat="46.26259" lon="6.80068">
        <ele>1793.3411</ele>
        <time>2014-08-29T11:31:29Z</time>
      </trkpt>
      <trkpt lat="46.26259" lon="6.80067">
        <ele>1793.3411</ele>
        <time>2014-08-29T11:31:34Z</time>
      </trkpt>
      <trkpt lat="46.26257" lon="6.8006">
        <ele>1795.2368</ele>
        <time>2014-08-29T11:31:39Z</time>
      </trkpt>
      <trkpt lat="46.26256" lon="6.80058">
        <ele>1795.2368</ele>
        <time>2014-08-29T11:31:44Z</time>
      </trkpt>
      <trkpt lat="46.26255" lon="6.80056">
        <ele>1795.2368</ele>
        <time>2014-08-29T11:31:49Z</time>
      </trkpt>
      <trkpt lat="46.26255" lon="6.80056">
        <ele>1795.2368</ele>
        <time>2014-08-29T11:31:54Z</time>
      </trkpt>
      <trkpt lat="46.26255" lon="6.80056">
        <ele>1795.2368</ele>
        <time>2014-08-29T11:31:59Z</time>
      </trkpt>
      <trkpt lat="46.26255" lon="6.80054">
        <ele>1795.2368</ele>
        <time>2014-08-29T11:32:04Z</time>
      </trkpt>
      <trkpt lat="46.26255" lon="6.80054">
        <ele>1795.2368</ele>
        <time>2014-08-29T11:32:09Z</time>
      </trkpt>
      <trkpt lat="46.26256" lon="6.80053">
        <ele>1795.2368</ele>
        <time>2014-08-29T11:32:29Z</time>
      </trkpt>
      <trkpt lat="46.26256" lon="6.80053">
        <ele>1795.2368</ele>
        <time>2014-08-29T11:32:34Z</time>
      </trkpt>
      <trkpt lat="46.26254" lon="6.8005">
        <ele>1795.2368</ele>
        <time>2014-08-29T11:32:39Z</time>
      </trkpt>
      <trkpt lat="46.26254" lon="6.80049">
        <ele>1795.2368</ele>
        <time>2014-08-29T11:32:44Z</time>
      </trkpt>
      <trkpt lat="46.26254" lon="6.80048">
        <ele>1798.4545</ele>
        <time>2014-08-29T11:32:49Z</time>
      </trkpt>
      <trkpt lat="46.26253" lon="6.80047">
        <ele>1798.4545</ele>
        <time>2014-08-29T11:32:54Z</time>
      </trkpt>
      <trkpt lat="46.26253" lon="6.80047">
        <ele>1798.4545</ele>
        <time>2014-08-29T11:32:59Z</time>
      </trkpt>
      <trkpt lat="46.26252" lon="6.80044">
        <ele>1798.4545</ele>
        <time>2014-08-29T11:33:04Z</time>
      </trkpt>
      <trkpt lat="46.26252" lon="6.80044">
        <ele>1798.4545</ele>
        <time>2014-08-29T11:33:09Z</time>
      </trkpt>
      <trkpt lat="46.26253" lon="6.80042">
        <ele>1798.4545</ele>
        <time>2014-08-29T11:33:14Z</time>
      </trkpt>
      <trkpt lat="46.26253" lon="6.8004">
        <ele>1798.4545</ele>
        <time>2014-08-29T11:33:19Z</time>
      </trkpt>
      <trkpt lat="46.26253" lon="6.80039">
        <ele>1798.4545</ele>
        <time>2014-08-29T11:33:24Z</time>
      </trkpt>
      <trkpt lat="46.26253" lon="6.80039">
        <ele>1798.4545</ele>
        <time>2014-08-29T11:33:29Z</time>
      </trkpt>
      <trkpt lat="46.26252" lon="6.80038">
        <ele>1798.4545</ele>
        <time>2014-08-29T11:33:54Z</time>
      </trkpt>
      <trkpt lat="46.26252" lon="6.80038">
        <ele>1798.4545</ele>
        <time>2014-08-29T11:33:59Z</time>
      </trkpt>
      <trkpt lat="46.26251" lon="6.80034">
        <ele>1802.4274</ele>
        <time>2014-08-29T11:34:04Z</time>
      </trkpt>
      <trkpt lat="46.2625" lon="6.80032">
        <ele>1802.4274</ele>
        <time>2014-08-29T11:34:09Z</time>
      </trkpt>
      <trkpt lat="46.26249" lon="6.80031">
        <ele>1802.4274</ele>
        <time>2014-08-29T11:34:14Z</time>
      </trkpt>
      <trkpt lat="46.26248" lon="6.80029">
        <ele>1802.4274</ele>
        <time>2014-08-29T11:34:19Z</time>
      </trkpt>
      <trkpt lat="46.26248" lon="6.80029">
        <ele>1802.4274</ele>
        <time>2014-08-29T11:34:24Z</time>
      </trkpt>
      <trkpt lat="46.26247" lon="6.80027">
        <ele>1802.4274</ele>
        <time>2014-08-29T11:34:29Z</time>
      </trkpt>
      <trkpt lat="46.26244" lon="6.80025">
        <ele>1806.6283</ele>
        <time>2014-08-29T11:34:34Z</time>
      </trkpt>
      <trkpt lat="46.26241" lon="6.80021">
        <ele>1806.6283</ele>
        <time>2014-08-29T11:34:39Z</time>
      </trkpt>
      <trkpt lat="46.2624" lon="6.80017">
        <ele>1806.6283</ele>
        <time>2014-08-29T11:34:44Z</time>
      </trkpt>
      <trkpt lat="46.2624" lon="6.80015">
        <ele>1806.6283</ele>
        <time>2014-08-29T11:34:49Z</time>
      </trkpt>
      <trkpt lat="46.26237" lon="6.80015">
        <ele>1810.5396</ele>
        <time>2014-08-29T11:34:54Z</time>
      </trkpt>
      <trkpt lat="46.26236" lon="6.80014">
        <ele>1810.5396</ele>
        <time>2014-08-29T11:34:59Z</time>
      </trkpt>
      <trkpt lat="46.26235" lon="6.80011">
        <ele>1810.5396</ele>
        <time>2014-08-29T11:35:04Z</time>
      </trkpt>
      <trkpt lat="46.26236" lon="6.8001">
        <ele>1810.5396</ele>
        <time>2014-08-29T11:35:09Z</time>
      </trkpt>
      <trkpt lat="46.26235" lon="6.80007">
        <ele>1810.5396</ele>
        <time>2014-08-29T11:35:14Z</time>
      </trkpt>
      <trkpt lat="46.26235" lon="6.80005">
        <ele>1810.5396</ele>
        <time>2014-08-29T11:35:19Z</time>
      </trkpt>
      <trkpt lat="46.26237" lon="6.80001">
        <ele>1814.0568</ele>
        <time>2014-08-29T11:35:24Z</time>
      </trkpt>
      <trkpt lat="46.26237" lon="6.8">
        <ele>1814.0568</ele>
        <time>2014-08-29T11:35:29Z</time>
      </trkpt>
      <trkpt lat="46.26236" lon="6.79996">
        <ele>1814.0568</ele>
        <time>2014-08-29T11:35:34Z</time>
      </trkpt>
      <trkpt lat="46.26236" lon="6.79996">
        <ele>1814.0568</ele>
        <time>2014-08-29T11:35:39Z</time>
      </trkpt>
      <trkpt lat="46.26235" lon="6.79994">
        <ele>1814.0568</ele>
        <time>2014-08-29T11:36:09Z</time>
      </trkpt>
      <trkpt lat="46.26235" lon="6.79993">
        <ele>1814.0568</ele>
        <time>2014-08-29T11:36:14Z</time>
      </trkpt>
      <trkpt lat="46.26235" lon="6.79984">
        <ele>1817.9348</ele>
        <time>2014-08-29T11:36:19Z</time>
      </trkpt>
      <trkpt lat="46.26234" lon="6.79981">
        <ele>1817.9348</ele>
        <time>2014-08-29T11:36:24Z</time>
      </trkpt>
      <trkpt lat="46.26231" lon="6.79975">
        <ele>1817.9348</ele>
        <time>2014-08-29T11:36:29Z</time>
      </trkpt>
      <trkpt lat="46.26231" lon="6.79975">
        <ele>1817.9348</ele>
        <time>2014-08-29T11:36:34Z</time>
      </trkpt>
      <trkpt lat="46.26231" lon="6.79971">
        <ele>1822.1375</ele>
        <time>2014-08-29T11:36:49Z</time>
      </trkpt>
      <trkpt lat="46.26231" lon="6.79967">
        <ele>1822.1375</ele>
        <time>2014-08-29T11:36:54Z</time>
      </trkpt>
      <trkpt lat="46.26229" lon="6.7996">
        <ele>1822.1375</ele>
        <time>2014-08-29T11:36:59Z</time>
      </trkpt>
      <trkpt lat="46.26228" lon="6.79956">
        <ele>1826.111</ele>
        <time>2014-08-29T11:37:04Z</time>
      </trkpt>
      <trkpt lat="46.26229" lon="6.79952">
        <ele>1826.111</ele>
        <time>2014-08-29T11:37:09Z</time>
      </trkpt>
      <trkpt lat="46.26229" lon="6.7995">
        <ele>1826.111</ele>
        <time>2014-08-29T11:37:14Z</time>
      </trkpt>
      <trkpt lat="46.26229" lon="6.7995">
        <ele>1826.111</ele>
        <time>2014-08-29T11:37:19Z</time>
      </trkpt>
      <trkpt lat="46.2623" lon="6.79948">
        <ele>1826.111</ele>
        <time>2014-08-29T11:37:29Z</time>
      </trkpt>
      <trkpt lat="46.26228" lon="6.79945">
        <ele>1826.111</ele>
        <time>2014-08-29T11:37:34Z</time>
      </trkpt>
      <trkpt lat="46.2623" lon="6.79941">
        <ele>1830.6119</ele>
        <time>2014-08-29T11:37:39Z</time>
      </trkpt>
      <trkpt lat="46.26231" lon="6.79939">
        <ele>1830.6119</ele>
        <time>2014-08-29T11:37:44Z</time>
      </trkpt>
      <trkpt lat="46.26232" lon="6.79937">
        <ele>1830.6119</ele>
        <time>2014-08-29T11:37:49Z</time>
      </trkpt>
      <trkpt lat="46.26233" lon="6.79935">
        <ele>1830.6119</ele>
        <time>2014-08-29T11:37:54Z</time>
      </trkpt>
      <trkpt lat="46.26235" lon="6.79933">
        <ele>1830.6119</ele>
        <time>2014-08-29T11:37:59Z</time>
      </trkpt>
      <trkpt lat="46.26234" lon="6.7993">
        <ele>1834.9707</ele>
        <time>2014-08-29T11:38:04Z</time>
      </trkpt>
      <trkpt lat="46.26232" lon="6.79928">
        <ele>1834.9707</ele>
        <time>2014-08-29T11:38:09Z</time>
      </trkpt>
      <trkpt lat="46.26229" lon="6.79926">
        <ele>1834.9707</ele>
        <time>2014-08-29T11:38:14Z</time>
      </trkpt>
      <trkpt lat="46.26228" lon="6.79927">
        <ele>1834.9707</ele>
        <time>2014-08-29T11:38:19Z</time>
      </trkpt>
      <trkpt lat="46.26227" lon="6.79926">
        <ele>1834.9707</ele>
        <time>2014-08-29T11:38:24Z</time>
      </trkpt>
      <trkpt lat="46.26227" lon="6.79924">
        <ele>1834.9707</ele>
        <time>2014-08-29T11:38:29Z</time>
      </trkpt>
      <trkpt lat="46.26227" lon="6.79922">
        <ele>1839.3167</ele>
        <time>2014-08-29T11:38:34Z</time>
      </trkpt>
      <trkpt lat="46.26227" lon="6.79921">
        <ele>1839.3167</ele>
        <time>2014-08-29T11:38:39Z</time>
      </trkpt>
      <trkpt lat="46.26227" lon="6.79917">
        <ele>1839.3167</ele>
        <time>2014-08-29T11:38:44Z</time>
      </trkpt>
      <trkpt lat="46.26228" lon="6.79914">
        <ele>1839.3167</ele>
        <time>2014-08-29T11:38:49Z</time>
      </trkpt>
      <trkpt lat="46.2623" lon="6.79913">
        <ele>1839.3167</ele>
        <time>2014-08-29T11:38:54Z</time>
      </trkpt>
      <trkpt lat="46.2623" lon="6.79913">
        <ele>1839.3167</ele>
        <time>2014-08-29T11:38:59Z</time>
      </trkpt>
      <trkpt lat="46.2623" lon="6.79912">
        <ele>1839.3167</ele>
        <time>2014-08-29T11:39:04Z</time>
      </trkpt>
      <trkpt lat="46.26231" lon="6.7991">
        <ele>1843.2081</ele>
        <time>2014-08-29T11:39:09Z</time>
      </trkpt>
      <trkpt lat="46.2623" lon="6.7991">
        <ele>1843.2081</ele>
        <time>2014-08-29T11:39:14Z</time>
      </trkpt>
      <trkpt lat="46.2623" lon="6.7991">
        <ele>1843.2081</ele>
        <time>2014-08-29T11:39:19Z</time>
      </trkpt>
      <trkpt lat="46.2623" lon="6.79909">
        <ele>1843.2081</ele>
        <time>2014-08-29T11:39:24Z</time>
      </trkpt>
      <trkpt lat="46.26228" lon="6.79907">
        <ele>1843.2081</ele>
        <time>2014-08-29T11:39:29Z</time>
      </trkpt>
      <trkpt lat="46.26227" lon="6.79906">
        <ele>1843.2081</ele>
        <time>2014-08-29T11:39:34Z</time>
      </trkpt>
      <trkpt lat="46.26224" lon="6.79904">
        <ele>1843.2081</ele>
        <time>2014-08-29T11:39:39Z</time>
      </trkpt>
      <trkpt lat="46.26222" lon="6.79903">
        <ele>1846.7992</ele>
        <time>2014-08-29T11:39:44Z</time>
      </trkpt>
      <trkpt lat="46.2622" lon="6.799">
        <ele>1846.7992</ele>
        <time>2014-08-29T11:39:49Z</time>
      </trkpt>
      <trkpt lat="46.2622" lon="6.79899">
        <ele>1846.7992</ele>
        <time>2014-08-29T11:39:54Z</time>
      </trkpt>
      <trkpt lat="46.26222" lon="6.79892">
        <ele>1846.7992</ele>
        <time>2014-08-29T11:39:59Z</time>
      </trkpt>
      <trkpt lat="46.26222" lon="6.79891">
        <ele>1850.2196</ele>
        <time>2014-08-29T11:40:04Z</time>
      </trkpt>
      <trkpt lat="46.26222" lon="6.79891">
        <ele>1850.2196</ele>
        <time>2014-08-29T11:40:09Z</time>
      </trkpt>
      <trkpt lat="46.26221" lon="6.79891">
        <ele>1850.2196</ele>
        <time>2014-08-29T11:40:24Z</time>
      </trkpt>
      <trkpt lat="46.2622" lon="6.7989">
        <ele>1850.2196</ele>
        <time>2014-08-29T11:40:29Z</time>
      </trkpt>
      <trkpt lat="46.26219" lon="6.79889">
        <ele>1850.2196</ele>
        <time>2014-08-29T11:40:34Z</time>
      </trkpt>
      <trkpt lat="46.26217" lon="6.79888">
        <ele>1850.2196</ele>
        <time>2014-08-29T11:40:39Z</time>
      </trkpt>
      <trkpt lat="46.26217" lon="6.79888">
        <ele>1850.2196</ele>
        <time>2014-08-29T11:40:44Z</time>
      </trkpt>
      <trkpt lat="46.26216" lon="6.79887">
        <ele>1850.2196</ele>
        <time>2014-08-29T11:41:19Z</time>
      </trkpt>
      <trkpt lat="46.26214" lon="6.79884">
        <ele>1854.3971</ele>
        <time>2014-08-29T11:41:24Z</time>
      </trkpt>
      <trkpt lat="46.26213" lon="6.79883">
        <ele>1854.3971</ele>
        <time>2014-08-29T11:41:29Z</time>
      </trkpt>
      <trkpt lat="46.26213" lon="6.79882">
        <ele>1854.3971</ele>
        <time>2014-08-29T11:41:34Z</time>
      </trkpt>
      <trkpt lat="46.26212" lon="6.7988">
        <ele>1854.3971</ele>
        <time>2014-08-29T11:41:39Z</time>
      </trkpt>
      <trkpt lat="46.26211" lon="6.79878">
        <ele>1854.3971</ele>
        <time>2014-08-29T11:41:44Z</time>
      </trkpt>
      <trkpt lat="46.2621" lon="6.79878">
        <ele>1854.3971</ele>
        <time>2014-08-29T11:41:49Z</time>
      </trkpt>
      <trkpt lat="46.26207" lon="6.79876">
        <ele>1858.5896</ele>
        <time>2014-08-29T11:41:54Z</time>
      </trkpt>
      <trkpt lat="46.26206" lon="6.79876">
        <ele>1858.5896</ele>
        <time>2014-08-29T11:41:59Z</time>
      </trkpt>
      <trkpt lat="46.26206" lon="6.79875">
        <ele>1858.5896</ele>
        <time>2014-08-29T11:42:04Z</time>
      </trkpt>
      <trkpt lat="46.26205" lon="6.79875">
        <ele>1858.5896</ele>
        <time>2014-08-29T11:42:09Z</time>
      </trkpt>
      <trkpt lat="46.26205" lon="6.79875">
        <ele>1858.5896</ele>
        <time>2014-08-29T11:42:14Z</time>
      </trkpt>
      <trkpt lat="46.26205" lon="6.79873">
        <ele>1858.5896</ele>
        <time>2014-08-29T11:42:49Z</time>
      </trkpt>
      <trkpt lat="46.26203" lon="6.79871">
        <ele>1858.5896</ele>
        <time>2014-08-29T11:42:54Z</time>
      </trkpt>
      <trkpt lat="46.26202" lon="6.7987">
        <ele>1858.5896</ele>
        <time>2014-08-29T11:42:59Z</time>
      </trkpt>
      <trkpt lat="46.26202" lon="6.7987">
        <ele>1858.5896</ele>
        <time>2014-08-29T11:43:04Z</time>
      </trkpt>
      <trkpt lat="46.26201" lon="6.79866">
        <ele>1862.7587</ele>
        <time>2014-08-29T11:43:34Z</time>
      </trkpt>
      <trkpt lat="46.26198" lon="6.79864">
        <ele>1862.7587</ele>
        <time>2014-08-29T11:43:39Z</time>
      </trkpt>
      <trkpt lat="46.26198" lon="6.79863">
        <ele>1862.7587</ele>
        <time>2014-08-29T11:43:44Z</time>
      </trkpt>
      <trkpt lat="46.26195" lon="6.79863">
        <ele>1862.7587</ele>
        <time>2014-08-29T11:43:49Z</time>
      </trkpt>
      <trkpt lat="46.26194" lon="6.79863">
        <ele>1862.7587</ele>
        <time>2014-08-29T11:43:54Z</time>
      </trkpt>
      <trkpt lat="46.26193" lon="6.79859">
        <ele>1866.3643</ele>
        <time>2014-08-29T11:43:59Z</time>
      </trkpt>
      <trkpt lat="46.26193" lon="6.79858">
        <ele>1866.3643</ele>
        <time>2014-08-29T11:44:04Z</time>
      </trkpt>
      <trkpt lat="46.26189" lon="6.79858">
        <ele>1866.3643</ele>
        <time>2014-08-29T11:44:09Z</time>
      </trkpt>
      <trkpt lat="46.26187" lon="6.79858">
        <ele>1866.3643</ele>
        <time>2014-08-29T11:44:14Z</time>
      </trkpt>
      <trkpt lat="46.26181" lon="6.79856">
        <ele>1869.8737</ele>
        <time>2014-08-29T11:44:19Z</time>
      </trkpt>
      <trkpt lat="46.26177" lon="6.79857">
        <ele>1869.8737</ele>
        <time>2014-08-29T11:44:24Z</time>
      </trkpt>
      <trkpt lat="46.26174" lon="6.79856">
        <ele>1869.8737</ele>
        <time>2014-08-29T11:44:29Z</time>
      </trkpt>
      <trkpt lat="46.26172" lon="6.79854">
        <ele>1873.1149</ele>
        <time>2014-08-29T11:44:34Z</time>
      </trkpt>
      <trkpt lat="46.26171" lon="6.79855">
        <ele>1873.1149</ele>
        <time>2014-08-29T11:44:39Z</time>
      </trkpt>
      <trkpt lat="46.26171" lon="6.79855">
        <ele>1873.1149</ele>
        <time>2014-08-29T11:44:44Z</time>
      </trkpt>
      <trkpt lat="46.26168" lon="6.79857">
        <ele>1873.1149</ele>
        <time>2014-08-29T11:44:54Z</time>
      </trkpt>
      <trkpt lat="46.26166" lon="6.79858">
        <ele>1873.1149</ele>
        <time>2014-08-29T11:44:59Z</time>
      </trkpt>
      <trkpt lat="46.26162" lon="6.79865">
        <ele>1876.5493</ele>
        <time>2014-08-29T11:45:04Z</time>
      </trkpt>
      <trkpt lat="46.26162" lon="6.79865">
        <ele>1876.5493</ele>
        <time>2014-08-29T11:45:09Z</time>
      </trkpt>
      <trkpt lat="46.26162" lon="6.79866">
        <ele>1876.5493</ele>
        <time>2014-08-29T11:45:14Z</time>
      </trkpt>
      <trkpt lat="46.2616" lon="6.79867">
        <ele>1876.5493</ele>
        <time>2014-08-29T11:45:19Z</time>
      </trkpt>
      <trkpt lat="46.26158" lon="6.79871">
        <ele>1876.5493</ele>
        <time>2014-08-29T11:45:24Z</time>
      </trkpt>
      <trkpt lat="46.26158" lon="6.79872">
        <ele>1876.5493</ele>
        <time>2014-08-29T11:45:29Z</time>
      </trkpt>
      <trkpt lat="46.26157" lon="6.79874">
        <ele>1876.5493</ele>
        <time>2014-08-29T11:45:34Z</time>
      </trkpt>
      <trkpt lat="46.26157" lon="6.79875">
        <ele>1880.0422</ele>
        <time>2014-08-29T11:45:39Z</time>
      </trkpt>
      <trkpt lat="46.26156" lon="6.79876">
        <ele>1880.0422</ele>
        <time>2014-08-29T11:45:44Z</time>
      </trkpt>
      <trkpt lat="46.26155" lon="6.79877">
        <ele>1880.0422</ele>
        <time>2014-08-29T11:45:49Z</time>
      </trkpt>
      <trkpt lat="46.26154" lon="6.79878">
        <ele>1880.0422</ele>
        <time>2014-08-29T11:45:54Z</time>
      </trkpt>
      <trkpt lat="46.26153" lon="6.7988">
        <ele>1880.0422</ele>
        <time>2014-08-29T11:45:59Z</time>
      </trkpt>
      <trkpt lat="46.26152" lon="6.79876">
        <ele>1880.0422</ele>
        <time>2014-08-29T11:46:04Z</time>
      </trkpt>
      <trkpt lat="46.26152" lon="6.79874">
        <ele>1883.613</ele>
        <time>2014-08-29T11:46:09Z</time>
      </trkpt>
      <trkpt lat="46.26151" lon="6.79868">
        <ele>1883.613</ele>
        <time>2014-08-29T11:46:14Z</time>
      </trkpt>
      <trkpt lat="46.26151" lon="6.79865">
        <ele>1883.613</ele>
        <time>2014-08-29T11:46:19Z</time>
      </trkpt>
      <trkpt lat="46.26154" lon="6.79861">
        <ele>1887.1931</ele>
        <time>2014-08-29T11:46:24Z</time>
      </trkpt>
      <trkpt lat="46.26153" lon="6.79857">
        <ele>1887.1931</ele>
        <time>2014-08-29T11:46:29Z</time>
      </trkpt>
      <trkpt lat="46.26154" lon="6.79851">
        <ele>1887.1931</ele>
        <time>2014-08-29T11:46:34Z</time>
      </trkpt>
      <trkpt lat="46.26153" lon="6.79845">
        <ele>1890.5461</ele>
        <time>2014-08-29T11:46:39Z</time>
      </trkpt>
      <trkpt lat="46.26153" lon="6.79843">
        <ele>1890.5461</ele>
        <time>2014-08-29T11:46:44Z</time>
      </trkpt>
      <trkpt lat="46.26153" lon="6.79842">
        <ele>1890.5461</ele>
        <time>2014-08-29T11:46:49Z</time>
      </trkpt>
      <trkpt lat="46.26153" lon="6.79842">
        <ele>1890.5461</ele>
        <time>2014-08-29T11:46:54Z</time>
      </trkpt>
      <trkpt lat="46.26153" lon="6.79841">
        <ele>1890.5461</ele>
        <time>2014-08-29T11:46:59Z</time>
      </trkpt>
      <trkpt lat="46.26154" lon="6.79838">
        <ele>1890.5461</ele>
        <time>2014-08-29T11:47:04Z</time>
      </trkpt>
      <trkpt lat="46.26155" lon="6.79839">
        <ele>1890.5461</ele>
        <time>2014-08-29T11:47:09Z</time>
      </trkpt>
      <trkpt lat="46.26156" lon="6.7984">
        <ele>1890.5461</ele>
        <time>2014-08-29T11:47:14Z</time>
      </trkpt>
      <trkpt lat="46.26158" lon="6.79841">
        <ele>1893.8434</ele>
        <time>2014-08-29T11:47:19Z</time>
      </trkpt>
      <trkpt lat="46.26158" lon="6.79841">
        <ele>1893.8434</ele>
        <time>2014-08-29T11:47:24Z</time>
      </trkpt>
      <trkpt lat="46.26158" lon="6.7984">
        <ele>1893.8434</ele>
        <time>2014-08-29T11:47:34Z</time>
      </trkpt>
      <trkpt lat="46.26158" lon="6.7984">
        <ele>1893.8434</ele>
        <time>2014-08-29T11:47:39Z</time>
      </trkpt>
      <trkpt lat="46.2616" lon="6.79833">
        <ele>1893.8434</ele>
        <time>2014-08-29T11:47:44Z</time>
      </trkpt>
      <trkpt lat="46.2616" lon="6.79831">
        <ele>1893.8434</ele>
        <time>2014-08-29T11:47:49Z</time>
      </trkpt>
      <trkpt lat="46.2616" lon="6.79825">
        <ele>1896.6962</ele>
        <time>2014-08-29T11:47:54Z</time>
      </trkpt>
      <trkpt lat="46.26161" lon="6.79824">
        <ele>1896.6962</ele>
        <time>2014-08-29T11:47:59Z</time>
      </trkpt>
      <trkpt lat="46.26162" lon="6.79823">
        <ele>1896.6962</ele>
        <time>2014-08-29T11:48:04Z</time>
      </trkpt>
      <trkpt lat="46.26162" lon="6.79819">
        <ele>1896.6962</ele>
        <time>2014-08-29T11:48:09Z</time>
      </trkpt>
      <trkpt lat="46.26161" lon="6.79816">
        <ele>1896.6962</ele>
        <time>2014-08-29T11:48:14Z</time>
      </trkpt>
      <trkpt lat="46.26158" lon="6.79816">
        <ele>1899.3367</ele>
        <time>2014-08-29T11:48:19Z</time>
      </trkpt>
      <trkpt lat="46.26157" lon="6.79817">
        <ele>1899.3367</ele>
        <time>2014-08-29T11:48:24Z</time>
      </trkpt>
      <trkpt lat="46.26156" lon="6.79818">
        <ele>1899.3367</ele>
        <time>2014-08-29T11:48:29Z</time>
      </trkpt>
      <trkpt lat="46.26156" lon="6.79819">
        <ele>1899.3367</ele>
        <time>2014-08-29T11:48:34Z</time>
      </trkpt>
      <trkpt lat="46.26157" lon="6.7982">
        <ele>1899.3367</ele>
        <time>2014-08-29T11:48:39Z</time>
      </trkpt>
      <trkpt lat="46.26158" lon="6.7982">
        <ele>1899.3367</ele>
        <time>2014-08-29T11:48:44Z</time>
      </trkpt>
      <trkpt lat="46.26159" lon="6.79819">
        <ele>1899.3367</ele>
        <time>2014-08-29T11:48:49Z</time>
      </trkpt>
      <trkpt lat="46.26159" lon="6.79818">
        <ele>1899.3367</ele>
        <time>2014-08-29T11:48:54Z</time>
      </trkpt>
      <trkpt lat="46.26159" lon="6.79817">
        <ele>1902.2402</ele>
        <time>2014-08-29T11:48:59Z</time>
      </trkpt>
      <trkpt lat="46.26159" lon="6.79814">
        <ele>1902.2402</ele>
        <time>2014-08-29T11:49:04Z</time>
      </trkpt>
      <trkpt lat="46.26159" lon="6.79811">
        <ele>1902.2402</ele>
        <time>2014-08-29T11:49:09Z</time>
      </trkpt>
      <trkpt lat="46.26158" lon="6.79808">
        <ele>1902.2402</ele>
        <time>2014-08-29T11:49:14Z</time>
      </trkpt>
      <trkpt lat="46.26156" lon="6.79808">
        <ele>1902.2402</ele>
        <time>2014-08-29T11:49:19Z</time>
      </trkpt>
      <trkpt lat="46.26154" lon="6.7981">
        <ele>1905.2559</ele>
        <time>2014-08-29T11:49:24Z</time>
      </trkpt>
      <trkpt lat="46.26153" lon="6.79811">
        <ele>1905.2559</ele>
        <time>2014-08-29T11:49:29Z</time>
      </trkpt>
      <trkpt lat="46.26153" lon="6.79811">
        <ele>1905.2559</ele>
        <time>2014-08-29T11:49:34Z</time>
      </trkpt>
      <trkpt lat="46.26152" lon="6.79811">
        <ele>1905.2559</ele>
        <time>2014-08-29T11:49:39Z</time>
      </trkpt>
      <trkpt lat="46.26152" lon="6.79809">
        <ele>1905.2559</ele>
        <time>2014-08-29T11:49:44Z</time>
      </trkpt>
      <trkpt lat="46.26151" lon="6.79806">
        <ele>1905.2559</ele>
        <time>2014-08-29T11:49:49Z</time>
      </trkpt>
      <trkpt lat="46.2615" lon="6.79805">
        <ele>1905.2559</ele>
        <time>2014-08-29T11:49:54Z</time>
      </trkpt>
      <trkpt lat="46.26149" lon="6.79806">
        <ele>1905.2559</ele>
        <time>2014-08-29T11:49:59Z</time>
      </trkpt>
      <trkpt lat="46.26149" lon="6.79802">
        <ele>1908.7338</ele>
        <time>2014-08-29T11:50:04Z</time>
      </trkpt>
      <trkpt lat="46.26149" lon="6.798">
        <ele>1908.7338</ele>
        <time>2014-08-29T11:50:09Z</time>
      </trkpt>
      <trkpt lat="46.26148" lon="6.79796">
        <ele>1908.7338</ele>
        <time>2014-08-29T11:50:14Z</time>
      </trkpt>
      <trkpt lat="46.26146" lon="6.79795">
        <ele>1908.7338</ele>
        <time>2014-08-29T11:50:19Z</time>
      </trkpt>
      <trkpt lat="46.26145" lon="6.79794">
        <ele>1908.7338</ele>
        <time>2014-08-29T11:50:24Z</time>
      </trkpt>
      <trkpt lat="46.26143" lon="6.79789">
        <ele>1912.19</ele>
        <time>2014-08-29T11:50:29Z</time>
      </trkpt>
      <trkpt lat="46.26142" lon="6.79786">
        <ele>1912.19</ele>
        <time>2014-08-29T11:50:34Z</time>
      </trkpt>
      <trkpt lat="46.2614" lon="6.79783">
        <ele>1912.19</ele>
        <time>2014-08-29T11:50:39Z</time>
      </trkpt>
      <trkpt lat="46.26137" lon="6.79782">
        <ele>1912.19</ele>
        <time>2014-08-29T11:50:44Z</time>
      </trkpt>
      <trkpt lat="46.26136" lon="6.79781">
        <ele>1915.7095</ele>
        <time>2014-08-29T11:50:49Z</time>
      </trkpt>
      <trkpt lat="46.26137" lon="6.79781">
        <ele>1915.7095</ele>
        <time>2014-08-29T11:50:54Z</time>
      </trkpt>
      <trkpt lat="46.26137" lon="6.7978">
        <ele>1915.7095</ele>
        <time>2014-08-29T11:50:59Z</time>
      </trkpt>
      <trkpt lat="46.26137" lon="6.7978">
        <ele>1915.7095</ele>
        <time>2014-08-29T11:51:04Z</time>
      </trkpt>
      <trkpt lat="46.26137" lon="6.7978">
        <ele>1915.7095</ele>
        <time>2014-08-29T11:51:09Z</time>
      </trkpt>
      <trkpt lat="46.26137" lon="6.7978">
        <ele>1915.7095</ele>
        <time>2014-08-29T11:51:14Z</time>
      </trkpt>
      <trkpt lat="46.26138" lon="6.7978">
        <ele>1915.7095</ele>
        <time>2014-08-29T11:51:19Z</time>
      </trkpt>
      <trkpt lat="46.2614" lon="6.79777">
        <ele>1915.7095</ele>
        <time>2014-08-29T11:51:24Z</time>
      </trkpt>
      <trkpt lat="46.2614" lon="6.79776">
        <ele>1915.7095</ele>
        <time>2014-08-29T11:51:29Z</time>
      </trkpt>
      <trkpt lat="46.26139" lon="6.79775">
        <ele>1915.7095</ele>
        <time>2014-08-29T11:51:34Z</time>
      </trkpt>
      <trkpt lat="46.26136" lon="6.79775">
        <ele>1918.9968</ele>
        <time>2014-08-29T11:51:39Z</time>
      </trkpt>
      <trkpt lat="46.26133" lon="6.79773">
        <ele>1918.9968</ele>
        <time>2014-08-29T11:51:44Z</time>
      </trkpt>
      <trkpt lat="46.26127" lon="6.79772">
        <ele>1918.9968</ele>
        <time>2014-08-29T11:51:49Z</time>
      </trkpt>
      <trkpt lat="46.26121" lon="6.7977">
        <ele>1921.9515</ele>
        <time>2014-08-29T11:51:54Z</time>
      </trkpt>
      <trkpt lat="46.26117" lon="6.79769">
        <ele>1921.9515</ele>
        <time>2014-08-29T11:51:59Z</time>
      </trkpt>
      <trkpt lat="46.26113" lon="6.79768">
        <ele>1921.9515</ele>
        <time>2014-08-29T11:52:04Z</time>
      </trkpt>
      <trkpt lat="46.2611" lon="6.79765">
        <ele>1924.5251</ele>
        <time>2014-08-29T11:52:09Z</time>
      </trkpt>
      <trkpt lat="46.26104" lon="6.79762">
        <ele>1924.5251</ele>
        <time>2014-08-29T11:52:14Z</time>
      </trkpt>
      <trkpt lat="46.26098" lon="6.79759">
        <ele>1926.6017</ele>
        <time>2014-08-29T11:52:19Z</time>
      </trkpt>
      <trkpt lat="46.26094" lon="6.79757">
        <ele>1926.6017</ele>
        <time>2014-08-29T11:52:24Z</time>
      </trkpt>
      <trkpt lat="46.2609" lon="6.79754">
        <ele>1926.6017</ele>
        <time>2014-08-29T11:52:29Z</time>
      </trkpt>
      <trkpt lat="46.26086" lon="6.79752">
        <ele>1928.3203</ele>
        <time>2014-08-29T11:52:34Z</time>
      </trkpt>
      <trkpt lat="46.26081" lon="6.79748">
        <ele>1928.3203</ele>
        <time>2014-08-29T11:52:39Z</time>
      </trkpt>
      <trkpt lat="46.26076" lon="6.79745">
        <ele>1929.6671</ele>
        <time>2014-08-29T11:52:44Z</time>
      </trkpt>
      <trkpt lat="46.26072" lon="6.79742">
        <ele>1929.6671</ele>
        <time>2014-08-29T11:52:49Z</time>
      </trkpt>
      <trkpt lat="46.26068" lon="6.7974">
        <ele>1929.6671</ele>
        <time>2014-08-29T11:52:54Z</time>
      </trkpt>
      <trkpt lat="46.26063" lon="6.79737">
        <ele>1930.6157</ele>
        <time>2014-08-29T11:52:59Z</time>
      </trkpt>
      <trkpt lat="46.26059" lon="6.79735">
        <ele>1930.6157</ele>
        <time>2014-08-29T11:53:04Z</time>
      </trkpt>
      <trkpt lat="46.26053" lon="6.79732">
        <ele>1931.2007</ele>
        <time>2014-08-29T11:53:09Z</time>
      </trkpt>
      <trkpt lat="46.2605" lon="6.79729">
        <ele>1931.2007</ele>
        <time>2014-08-29T11:53:14Z</time>
      </trkpt>
      <trkpt lat="46.26048" lon="6.79726">
        <ele>1931.2007</ele>
        <time>2014-08-29T11:53:19Z</time>
      </trkpt>
      <trkpt lat="46.26045" lon="6.79723">
        <ele>1931.4263</ele>
        <time>2014-08-29T11:53:24Z</time>
      </trkpt>
      <trkpt lat="46.26038" lon="6.79723">
        <ele>1931.4263</ele>
        <time>2014-08-29T11:53:29Z</time>
      </trkpt>
      <trkpt lat="46.26034" lon="6.79724">
        <ele>1931.3695</ele>
        <time>2014-08-29T11:53:34Z</time>
      </trkpt>
      <trkpt lat="46.26032" lon="6.79726">
        <ele>1931.3695</ele>
        <time>2014-08-29T11:53:39Z</time>
      </trkpt>
      <trkpt lat="46.26031" lon="6.79727">
        <ele>1931.3695</ele>
        <time>2014-08-29T11:53:44Z</time>
      </trkpt>
      <trkpt lat="46.2603" lon="6.79727">
        <ele>1931.3695</ele>
        <time>2014-08-29T11:53:49Z</time>
      </trkpt>
      <trkpt lat="46.26025" lon="6.79728">
        <ele>1931.1171</ele>
        <time>2014-08-29T11:53:54Z</time>
      </trkpt>
      <trkpt lat="46.26021" lon="6.79727">
        <ele>1931.1171</ele>
        <time>2014-08-29T11:53:59Z</time>
      </trkpt>
      <trkpt lat="46.2602" lon="6.79728">
        <ele>1931.1171</ele>
        <time>2014-08-29T11:54:04Z</time>
      </trkpt>
      <trkpt lat="46.26021" lon="6.79727">
        <ele>1931.1171</ele>
        <time>2014-08-29T11:54:09Z</time>
      </trkpt>
      <trkpt lat="46.26022" lon="6.79726">
        <ele>1931.1171</ele>
        <time>2014-08-29T11:54:14Z</time>
      </trkpt>
      <trkpt lat="46.26024" lon="6.79721">
        <ele>1930.7063</ele>
        <time>2014-08-29T11:54:19Z</time>
      </trkpt>
      <trkpt lat="46.26024" lon="6.7972">
        <ele>1930.7063</ele>
        <time>2014-08-29T11:54:24Z</time>
      </trkpt>
      <trkpt lat="46.26025" lon="6.79722">
        <ele>1930.7063</ele>
        <time>2014-08-29T11:54:29Z</time>
      </trkpt>
      <trkpt lat="46.26024" lon="6.79724">
        <ele>1930.7063</ele>
        <time>2014-08-29T11:54:34Z</time>
      </trkpt>
      <trkpt lat="46.26024" lon="6.79726">
        <ele>1930.7063</ele>
        <time>2014-08-29T11:54:39Z</time>
      </trkpt>
      <trkpt lat="46.26023" lon="6.79728">
        <ele>1930.7063</ele>
        <time>2014-08-29T11:54:44Z</time>
      </trkpt>
      <trkpt lat="46.26023" lon="6.79728">
        <ele>1930.7063</ele>
        <time>2014-08-29T11:54:49Z</time>
      </trkpt>
      <trkpt lat="46.26023" lon="6.79731">
        <ele>1930.7063</ele>
        <time>2014-08-29T11:54:54Z</time>
      </trkpt>
      <trkpt lat="46.26008" lon="6.79721">
        <ele>1931.1669</ele>
        <time>2014-08-29T12:31:31Z</time>
      </trkpt>
      <trkpt lat="46.26014" lon="6.79714">
        <ele>1931.1669</ele>
        <time>2014-08-29T12:32:01Z</time>
      </trkpt>
      <trkpt lat="46.26017" lon="6.79711">
        <ele>1930.0637</ele>
        <time>2014-08-29T12:32:06Z</time>
      </trkpt>
      <trkpt lat="46.26018" lon="6.79704">
        <ele>1930.0637</ele>
        <time>2014-08-29T12:32:11Z</time>
      </trkpt>
      <trkpt lat="46.26016" lon="6.79695">
        <ele>1928.9635</ele>
        <time>2014-08-29T12:32:16Z</time>
      </trkpt>
      <trkpt lat="46.26014" lon="6.79687">
        <ele>1928.9635</ele>
        <time>2014-08-29T12:32:21Z</time>
      </trkpt>
      <trkpt lat="46.26012" lon="6.7968">
        <ele>1927.6754</ele>
        <time>2014-08-29T12:32:26Z</time>
      </trkpt>
      <trkpt lat="46.26012" lon="6.79673">
        <ele>1927.6754</ele>
        <time>2014-08-29T12:32:31Z</time>
      </trkpt>
      <trkpt lat="46.26014" lon="6.79668">
        <ele>1927.6754</ele>
        <time>2014-08-29T12:32:36Z</time>
      </trkpt>
      <trkpt lat="46.26017" lon="6.7966">
        <ele>1926.2242</ele>
        <time>2014-08-29T12:32:41Z</time>
      </trkpt>
      <trkpt lat="46.26017" lon="6.79655">
        <ele>1926.2242</ele>
        <time>2014-08-29T12:32:46Z</time>
      </trkpt>
      <trkpt lat="46.26018" lon="6.79652">
        <ele>1926.2242</ele>
        <time>2014-08-29T12:32:51Z</time>
      </trkpt>
      <trkpt lat="46.26018" lon="6.79655">
        <ele>1926.2242</ele>
        <time>2014-08-29T12:32:56Z</time>
      </trkpt>
      <trkpt lat="46.26023" lon="6.79652">
        <ele>1924.5616</ele>
        <time>2014-08-29T12:33:01Z</time>
      </trkpt>
      <trkpt lat="46.26023" lon="6.79652">
        <ele>1924.5616</ele>
        <time>2014-08-29T12:33:06Z</time>
      </trkpt>
      <trkpt lat="46.26024" lon="6.79652">
        <ele>1924.5616</ele>
        <time>2014-08-29T12:33:11Z</time>
      </trkpt>
      <trkpt lat="46.26025" lon="6.79651">
        <ele>1924.5616</ele>
        <time>2014-08-29T12:33:16Z</time>
      </trkpt>
      <trkpt lat="46.26027" lon="6.79647">
        <ele>1924.5616</ele>
        <time>2014-08-29T12:33:21Z</time>
      </trkpt>
      <trkpt lat="46.26025" lon="6.79644">
        <ele>1924.5616</ele>
        <time>2014-08-29T12:33:26Z</time>
      </trkpt>
      <trkpt lat="46.26023" lon="6.79637">
        <ele>1922.9744</ele>
        <time>2014-08-29T12:33:31Z</time>
      </trkpt>
      <trkpt lat="46.26023" lon="6.79631">
        <ele>1922.9744</ele>
        <time>2014-08-29T12:33:36Z</time>
      </trkpt>
      <trkpt lat="46.26021" lon="6.79624">
        <ele>1921.2957</ele>
        <time>2014-08-29T12:33:41Z</time>
      </trkpt>
      <trkpt lat="46.2602" lon="6.79618">
        <ele>1921.2957</ele>
        <time>2014-08-29T12:33:46Z</time>
      </trkpt>
      <trkpt lat="46.26022" lon="6.79612">
        <ele>1919.5437</ele>
        <time>2014-08-29T12:33:51Z</time>
      </trkpt>
      <trkpt lat="46.26022" lon="6.79604">
        <ele>1919.5437</ele>
        <time>2014-08-29T12:33:56Z</time>
      </trkpt>
      <trkpt lat="46.26024" lon="6.79601">
        <ele>1919.5437</ele>
        <time>2014-08-29T12:34:01Z</time>
      </trkpt>
      <trkpt lat="46.26025" lon="6.79596">
        <ele>1917.649</ele>
        <time>2014-08-29T12:34:06Z</time>
      </trkpt>
      <trkpt lat="46.26025" lon="6.79592">
        <ele>1917.649</ele>
        <time>2014-08-29T12:34:11Z</time>
      </trkpt>
      <trkpt lat="46.26026" lon="6.79586">
        <ele>1917.649</ele>
        <time>2014-08-29T12:34:16Z</time>
      </trkpt>
      <trkpt lat="46.26027" lon="6.79584">
        <ele>1915.4753</ele>
        <time>2014-08-29T12:34:21Z</time>
      </trkpt>
      <trkpt lat="46.26028" lon="6.79582">
        <ele>1915.4753</ele>
        <time>2014-08-29T12:34:26Z</time>
      </trkpt>
      <trkpt lat="46.26029" lon="6.79581">
        <ele>1915.4753</ele>
        <time>2014-08-29T12:34:31Z</time>
      </trkpt>
      <trkpt lat="46.26028" lon="6.79581">
        <ele>1915.4753</ele>
        <time>2014-08-29T12:34:36Z</time>
      </trkpt>
      <trkpt lat="46.26027" lon="6.79581">
        <ele>1915.4753</ele>
        <time>2014-08-29T12:34:41Z</time>
      </trkpt>
      <trkpt lat="46.26028" lon="6.79575">
        <ele>1915.4753</ele>
        <time>2014-08-29T12:34:46Z</time>
      </trkpt>
      <trkpt lat="46.26029" lon="6.79569">
        <ele>1913.0841</ele>
        <time>2014-08-29T12:34:51Z</time>
      </trkpt>
      <trkpt lat="46.26031" lon="6.79563">
        <ele>1913.0841</ele>
        <time>2014-08-29T12:34:56Z</time>
      </trkpt>
      <trkpt lat="46.26033" lon="6.79558">
        <ele>1910.7201</ele>
        <time>2014-08-29T12:35:01Z</time>
      </trkpt>
      <trkpt lat="46.26035" lon="6.79552">
        <ele>1910.7201</ele>
        <time>2014-08-29T12:35:06Z</time>
      </trkpt>
      <trkpt lat="46.26037" lon="6.79546">
        <ele>1910.7201</ele>
        <time>2014-08-29T12:35:11Z</time>
      </trkpt>
      <trkpt lat="46.26041" lon="6.79541">
        <ele>1908.1052</ele>
        <time>2014-08-29T12:35:16Z</time>
      </trkpt>
      <trkpt lat="46.26043" lon="6.79535">
        <ele>1908.1052</ele>
        <time>2014-08-29T12:35:21Z</time>
      </trkpt>
      <trkpt lat="46.26045" lon="6.79531">
        <ele>1908.1052</ele>
        <time>2014-08-29T12:35:26Z</time>
      </trkpt>
      <trkpt lat="46.26046" lon="6.79525">
        <ele>1905.5731</ele>
        <time>2014-08-29T12:35:31Z</time>
      </trkpt>
      <trkpt lat="46.26048" lon="6.79519">
        <ele>1905.5731</ele>
        <time>2014-08-29T12:35:36Z</time>
      </trkpt>
      <trkpt lat="46.26052" lon="6.79512">
        <ele>1902.9567</ele>
        <time>2014-08-29T12:35:41Z</time>
      </trkpt>
      <trkpt lat="46.26058" lon="6.79508">
        <ele>1902.9567</ele>
        <time>2014-08-29T12:35:46Z</time>
      </trkpt>
      <trkpt lat="46.26065" lon="6.79505">
        <ele>1900.1588</ele>
        <time>2014-08-29T12:35:51Z</time>
      </trkpt>
      <trkpt lat="46.26068" lon="6.795">
        <ele>1900.1588</ele>
        <time>2014-08-29T12:35:56Z</time>
      </trkpt>
      <trkpt lat="46.26069" lon="6.79494">
        <ele>1900.1588</ele>
        <time>2014-08-29T12:36:01Z</time>
      </trkpt>
      <trkpt lat="46.26072" lon="6.79487">
        <ele>1896.9023</ele>
        <time>2014-08-29T12:36:06Z</time>
      </trkpt>
      <trkpt lat="46.26076" lon="6.79481">
        <ele>1896.9023</ele>
        <time>2014-08-29T12:36:11Z</time>
      </trkpt>
      <trkpt lat="46.26078" lon="6.79473">
        <ele>1893.5507</ele>
        <time>2014-08-29T12:36:16Z</time>
      </trkpt>
      <trkpt lat="46.26081" lon="6.79467">
        <ele>1893.5507</ele>
        <time>2014-08-29T12:36:21Z</time>
      </trkpt>
      <trkpt lat="46.26084" lon="6.79455">
        <ele>1890.3113</ele>
        <time>2014-08-29T12:36:26Z</time>
      </trkpt>
      <trkpt lat="46.26085" lon="6.79449">
        <ele>1890.3113</ele>
        <time>2014-08-29T12:36:31Z</time>
      </trkpt>
      <trkpt lat="46.26088" lon="6.79443">
        <ele>1887.2168</ele>
        <time>2014-08-29T12:36:36Z</time>
      </trkpt>
      <trkpt lat="46.26088" lon="6.79437">
        <ele>1887.2168</ele>
        <time>2014-08-29T12:36:41Z</time>
      </trkpt>
      <trkpt lat="46.2609" lon="6.79429">
        <ele>1884.1959</ele>
        <time>2014-08-29T12:36:46Z</time>
      </trkpt>
      <trkpt lat="46.26091" lon="6.79421">
        <ele>1884.1959</ele>
        <time>2014-08-29T12:36:51Z</time>
      </trkpt>
      <trkpt lat="46.26092" lon="6.79412">
        <ele>1881.254</ele>
        <time>2014-08-29T12:36:56Z</time>
      </trkpt>
      <trkpt lat="46.26092" lon="6.79406">
        <ele>1881.254</ele>
        <time>2014-08-29T12:37:01Z</time>
      </trkpt>
      <trkpt lat="46.26092" lon="6.79402">
        <ele>1881.254</ele>
        <time>2014-08-29T12:37:06Z</time>
      </trkpt>
      <trkpt lat="46.26093" lon="6.79396">
        <ele>1877.7758</ele>
        <time>2014-08-29T12:37:11Z</time>
      </trkpt>
      <trkpt lat="46.26095" lon="6.79388">
        <ele>1877.7758</ele>
        <time>2014-08-29T12:37:16Z</time>
      </trkpt>
      <trkpt lat="46.26097" lon="6.79376">
        <ele>1874.3739</ele>
        <time>2014-08-29T12:37:21Z</time>
      </trkpt>
      <trkpt lat="46.26099" lon="6.79367">
        <ele>1874.3739</ele>
        <time>2014-08-29T12:37:26Z</time>
      </trkpt>
      <trkpt lat="46.261" lon="6.79359">
        <ele>1871.1542</ele>
        <time>2014-08-29T12:37:31Z</time>
      </trkpt>
      <trkpt lat="46.261" lon="6.79355">
        <ele>1871.1542</ele>
        <time>2014-08-29T12:37:36Z</time>
      </trkpt>
      <trkpt lat="46.26098" lon="6.7935">
        <ele>1871.1542</ele>
        <time>2014-08-29T12:37:41Z</time>
      </trkpt>
      <trkpt lat="46.261" lon="6.79346">
        <ele>1868.4878</ele>
        <time>2014-08-29T12:37:46Z</time>
      </trkpt>
      <trkpt lat="46.26102" lon="6.7934">
        <ele>1868.4878</ele>
        <time>2014-08-29T12:37:51Z</time>
      </trkpt>
      <trkpt lat="46.26103" lon="6.79333">
        <ele>1866.1544</ele>
        <time>2014-08-29T12:37:56Z</time>
      </trkpt>
      <trkpt lat="46.26104" lon="6.79328">
        <ele>1866.1544</ele>
        <time>2014-08-29T12:38:01Z</time>
      </trkpt>
      <trkpt lat="46.26105" lon="6.79326">
        <ele>1866.1544</ele>
        <time>2014-08-29T12:38:06Z</time>
      </trkpt>
      <trkpt lat="46.26104" lon="6.79317">
        <ele>1864.0353</ele>
        <time>2014-08-29T12:38:11Z</time>
      </trkpt>
      <trkpt lat="46.26104" lon="6.79306">
        <ele>1864.0353</ele>
        <time>2014-08-29T12:38:16Z</time>
      </trkpt>
      <trkpt lat="46.26103" lon="6.79301">
        <ele>1862.1633</ele>
        <time>2014-08-29T12:38:21Z</time>
      </trkpt>
      <trkpt lat="46.26103" lon="6.79292">
        <ele>1862.1633</ele>
        <time>2014-08-29T12:38:26Z</time>
      </trkpt>
      <trkpt lat="46.26103" lon="6.79284">
        <ele>1860.5104</ele>
        <time>2014-08-29T12:38:31Z</time>
      </trkpt>
      <trkpt lat="46.26103" lon="6.79277">
        <ele>1860.5104</ele>
        <time>2014-08-29T12:38:36Z</time>
      </trkpt>
      <trkpt lat="46.26102" lon="6.79272">
        <ele>1858.7611</ele>
        <time>2014-08-29T12:38:41Z</time>
      </trkpt>
      <trkpt lat="46.261" lon="6.79264">
        <ele>1858.7611</ele>
        <time>2014-08-29T12:38:46Z</time>
      </trkpt>
      <trkpt lat="46.26098" lon="6.79258">
        <ele>1857.1709</ele>
        <time>2014-08-29T12:38:51Z</time>
      </trkpt>
      <trkpt lat="46.26096" lon="6.79257">
        <ele>1857.1709</ele>
        <time>2014-08-29T12:38:56Z</time>
      </trkpt>
      <trkpt lat="46.26093" lon="6.79258">
        <ele>1857.1709</ele>
        <time>2014-08-29T12:39:01Z</time>
      </trkpt>
      <trkpt lat="46.26089" lon="6.79262">
        <ele>1855.8317</ele>
        <time>2014-08-29T12:39:06Z</time>
      </trkpt>
      <trkpt lat="46.26086" lon="6.79267">
        <ele>1855.8317</ele>
        <time>2014-08-29T12:39:11Z</time>
      </trkpt>
      <trkpt lat="46.26081" lon="6.79271">
        <ele>1854.6545</ele>
        <time>2014-08-29T12:39:16Z</time>
      </trkpt>
      <trkpt lat="46.26077" lon="6.79276">
        <ele>1854.6545</ele>
        <time>2014-08-29T12:39:21Z</time>
      </trkpt>
      <trkpt lat="46.26073" lon="6.79278">
        <ele>1853.6283</ele>
        <time>2014-08-29T12:39:26Z</time>
      </trkpt>
      <trkpt lat="46.26071" lon="6.79282">
        <ele>1853.6283</ele>
        <time>2014-08-29T12:39:31Z</time>
      </trkpt>
      <trkpt lat="46.26071" lon="6.79282">
        <ele>1853.6283</ele>
        <time>2014-08-29T12:39:36Z</time>
      </trkpt>
      <trkpt lat="46.2607" lon="6.79281">
        <ele>1853.6283</ele>
        <time>2014-08-29T12:40:01Z</time>
      </trkpt>
      <trkpt lat="46.2607" lon="6.79281">
        <ele>1853.6283</ele>
        <time>2014-08-29T12:40:06Z</time>
      </trkpt>
      <trkpt lat="46.26071" lon="6.79281">
        <ele>1853.6283</ele>
        <time>2014-08-29T12:40:26Z</time>
      </trkpt>
      <trkpt lat="46.2607" lon="6.79283">
        <ele>1853.6283</ele>
        <time>2014-08-29T12:40:31Z</time>
      </trkpt>
      <trkpt lat="46.26069" lon="6.79289">
        <ele>1851.8198</ele>
        <time>2014-08-29T12:40:36Z</time>
      </trkpt>
      <trkpt lat="46.26071" lon="6.79295">
        <ele>1851.8198</ele>
        <time>2014-08-29T12:40:41Z</time>
      </trkpt>
      <trkpt lat="46.26071" lon="6.79303">
        <ele>1850.0524</ele>
        <time>2014-08-29T12:40:46Z</time>
      </trkpt>
      <trkpt lat="46.26071" lon="6.79307">
        <ele>1850.0524</ele>
        <time>2014-08-29T12:40:51Z</time>
      </trkpt>
      <trkpt lat="46.26072" lon="6.79311">
        <ele>1850.0524</ele>
        <time>2014-08-29T12:40:56Z</time>
      </trkpt>
      <trkpt lat="46.26072" lon="6.79311">
        <ele>1850.0524</ele>
        <time>2014-08-29T12:41:01Z</time>
      </trkpt>
      <trkpt lat="46.26073" lon="6.79313">
        <ele>1850.0524</ele>
        <time>2014-08-29T12:41:21Z</time>
      </trkpt>
      <trkpt lat="46.26072" lon="6.79317">
        <ele>1848.5842</ele>
        <time>2014-08-29T12:41:26Z</time>
      </trkpt>
      <trkpt lat="46.26071" lon="6.79321">
        <ele>1848.5842</ele>
        <time>2014-08-29T12:41:31Z</time>
      </trkpt>
      <trkpt lat="46.2607" lon="6.79325">
        <ele>1848.5842</ele>
        <time>2014-08-29T12:41:36Z</time>
      </trkpt>
      <trkpt lat="46.26069" lon="6.79328">
        <ele>1848.5842</ele>
        <time>2014-08-29T12:41:41Z</time>
      </trkpt>
      <trkpt lat="46.26068" lon="6.7933">
        <ele>1847.466</ele>
        <time>2014-08-29T12:41:46Z</time>
      </trkpt>
      <trkpt lat="46.26066" lon="6.79333">
        <ele>1847.466</ele>
        <time>2014-08-29T12:41:51Z</time>
      </trkpt>
      <trkpt lat="46.26064" lon="6.79338">
        <ele>1847.466</ele>
        <time>2014-08-29T12:41:56Z</time>
      </trkpt>
      <trkpt lat="46.26063" lon="6.79342">
        <ele>1846.1958</ele>
        <time>2014-08-29T12:42:01Z</time>
      </trkpt>
      <trkpt lat="46.26061" lon="6.79352">
        <ele>1846.1958</ele>
        <time>2014-08-29T12:42:06Z</time>
      </trkpt>
      <trkpt lat="46.26057" lon="6.7936">
        <ele>1845.1018</ele>
        <time>2014-08-29T12:42:11Z</time>
      </trkpt>
      <trkpt lat="46.26055" lon="6.79367">
        <ele>1845.1018</ele>
        <time>2014-08-29T12:42:16Z</time>
      </trkpt>
      <trkpt lat="46.26052" lon="6.79373">
        <ele>1844.1268</ele>
        <time>2014-08-29T12:42:21Z</time>
      </trkpt>
      <trkpt lat="46.2605" lon="6.79381">
        <ele>1844.1268</ele>
        <time>2014-08-29T12:42:26Z</time>
      </trkpt>
      <trkpt lat="46.26048" lon="6.79387">
        <ele>1843.2317</ele>
        <time>2014-08-29T12:42:31Z</time>
      </trkpt>
      <trkpt lat="46.26045" lon="6.79392">
        <ele>1843.2317</ele>
        <time>2014-08-29T12:42:36Z</time>
      </trkpt>
      <trkpt lat="46.26042" lon="6.79398">
        <ele>1842.3225</ele>
        <time>2014-08-29T12:42:41Z</time>
      </trkpt>
      <trkpt lat="46.26038" lon="6.79405">
        <ele>1842.3225</ele>
        <time>2014-08-29T12:42:46Z</time>
      </trkpt>
      <trkpt lat="46.26033" lon="6.79411">
        <ele>1841.3983</ele>
        <time>2014-08-29T12:42:51Z</time>
      </trkpt>
      <trkpt lat="46.26031" lon="6.79413">
        <ele>1841.3983</ele>
        <time>2014-08-29T12:42:56Z</time>
      </trkpt>
      <trkpt lat="46.26029" lon="6.79414">
        <ele>1841.3983</ele>
        <time>2014-08-29T12:43:01Z</time>
      </trkpt>
      <trkpt lat="46.26026" lon="6.79415">
        <ele>1841.3983</ele>
        <time>2014-08-29T12:43:06Z</time>
      </trkpt>
      <trkpt lat="46.2602" lon="6.79417">
        <ele>1840.3141</ele>
        <time>2014-08-29T12:43:11Z</time>
      </trkpt>
      <trkpt lat="46.26014" lon="6.79418">
        <ele>1840.3141</ele>
        <time>2014-08-29T12:43:16Z</time>
      </trkpt>
      <trkpt lat="46.26009" lon="6.79425">
        <ele>1839.2675</ele>
        <time>2014-08-29T12:43:21Z</time>
      </trkpt>
      <trkpt lat="46.26004" lon="6.79428">
        <ele>1839.2675</ele>
        <time>2014-08-29T12:43:26Z</time>
      </trkpt>
      <trkpt lat="46.25999" lon="6.79431">
        <ele>1838.3546</ele>
        <time>2014-08-29T12:43:31Z</time>
      </trkpt>
      <trkpt lat="46.25993" lon="6.79431">
        <ele>1838.3546</ele>
        <time>2014-08-29T12:43:36Z</time>
      </trkpt>
      <trkpt lat="46.25986" lon="6.79432">
        <ele>1837.5923</ele>
        <time>2014-08-29T12:43:41Z</time>
      </trkpt>
      <trkpt lat="46.25982" lon="6.79433">
        <ele>1837.5923</ele>
        <time>2014-08-29T12:43:46Z</time>
      </trkpt>
      <trkpt lat="46.25979" lon="6.79432">
        <ele>1837.5923</ele>
        <time>2014-08-29T12:43:51Z</time>
      </trkpt>
      <trkpt lat="46.25976" lon="6.79431">
        <ele>1836.7362</ele>
        <time>2014-08-29T12:43:56Z</time>
      </trkpt>
      <trkpt lat="46.25971" lon="6.79432">
        <ele>1836.7362</ele>
        <time>2014-08-29T12:44:01Z</time>
      </trkpt>
      <trkpt lat="46.25966" lon="6.79432">
        <ele>1835.8196</ele>
        <time>2014-08-29T12:44:06Z</time>
      </trkpt>
      <trkpt lat="46.2596" lon="6.79434">
        <ele>1835.8196</ele>
        <time>2014-08-29T12:44:11Z</time>
      </trkpt>
      <trkpt lat="46.25954" lon="6.79433">
        <ele>1834.9452</ele>
        <time>2014-08-29T12:44:16Z</time>
      </trkpt>
      <trkpt lat="46.2595" lon="6.79434">
        <ele>1834.9452</ele>
        <time>2014-08-29T12:44:21Z</time>
      </trkpt>
      <trkpt lat="46.25944" lon="6.79436">
        <ele>1834.0355</ele>
        <time>2014-08-29T12:44:26Z</time>
      </trkpt>
      <trkpt lat="46.2594" lon="6.79439">
        <ele>1834.0355</ele>
        <time>2014-08-29T12:44:31Z</time>
      </trkpt>
      <trkpt lat="46.25939" lon="6.79441">
        <ele>1834.0355</ele>
        <time>2014-08-29T12:44:36Z</time>
      </trkpt>
      <trkpt lat="46.25936" lon="6.79446">
        <ele>1833.1627</ele>
        <time>2014-08-29T12:44:41Z</time>
      </trkpt>
      <trkpt lat="46.25934" lon="6.79454">
        <ele>1833.1627</ele>
        <time>2014-08-29T12:44:46Z</time>
      </trkpt>
      <trkpt lat="46.25933" lon="6.79459">
        <ele>1832.5089</ele>
        <time>2014-08-29T12:44:51Z</time>
      </trkpt>
      <trkpt lat="46.25935" lon="6.79465">
        <ele>1832.5089</ele>
        <time>2014-08-29T12:44:56Z</time>
      </trkpt>
      <trkpt lat="46.25935" lon="6.79469">
        <ele>1832.5089</ele>
        <time>2014-08-29T12:45:01Z</time>
      </trkpt>
      <trkpt lat="46.25935" lon="6.79471">
        <ele>1832.5089</ele>
        <time>2014-08-29T12:45:06Z</time>
      </trkpt>
      <trkpt lat="46.25932" lon="6.79476">
        <ele>1832.0691</ele>
        <time>2014-08-29T12:45:11Z</time>
      </trkpt>
      <trkpt lat="46.25931" lon="6.7948">
        <ele>1832.0691</ele>
        <time>2014-08-29T12:45:16Z</time>
      </trkpt>
      <trkpt lat="46.25929" lon="6.79483">
        <ele>1832.0691</ele>
        <time>2014-08-29T12:45:21Z</time>
      </trkpt>
      <trkpt lat="46.25929" lon="6.7949">
        <ele>1831.6655</ele>
        <time>2014-08-29T12:45:26Z</time>
      </trkpt>
      <trkpt lat="46.25929" lon="6.79496">
        <ele>1831.6655</ele>
        <time>2014-08-29T12:45:31Z</time>
      </trkpt>
      <trkpt lat="46.25928" lon="6.79503">
        <ele>1831.6655</ele>
        <time>2014-08-29T12:45:36Z</time>
      </trkpt>
      <trkpt lat="46.25929" lon="6.79513">
        <ele>1830.8735</ele>
        <time>2014-08-29T12:45:41Z</time>
      </trkpt>
      <trkpt lat="46.25928" lon="6.79517">
        <ele>1830.8735</ele>
        <time>2014-08-29T12:45:46Z</time>
      </trkpt>
      <trkpt lat="46.25925" lon="6.79523">
        <ele>1830.8735</ele>
        <time>2014-08-29T12:45:51Z</time>
      </trkpt>
      <trkpt lat="46.25919" lon="6.7953">
        <ele>1829.9064</ele>
        <time>2014-08-29T12:45:56Z</time>
      </trkpt>
      <trkpt lat="46.25916" lon="6.79539">
        <ele>1829.9064</ele>
        <time>2014-08-29T12:46:01Z</time>
      </trkpt>
      <trkpt lat="46.25914" lon="6.79543">
        <ele>1829.1638</ele>
        <time>2014-08-29T12:46:06Z</time>
      </trkpt>
      <trkpt lat="46.25914" lon="6.79544">
        <ele>1829.1638</ele>
        <time>2014-08-29T12:46:11Z</time>
      </trkpt>
      <trkpt lat="46.25912" lon="6.79544">
        <ele>1829.1638</ele>
        <time>2014-08-29T12:46:16Z</time>
      </trkpt>
      <trkpt lat="46.2591" lon="6.79541">
        <ele>1829.1638</ele>
        <time>2014-08-29T12:46:21Z</time>
      </trkpt>
      <trkpt lat="46.25907" lon="6.79537">
        <ele>1828.2231</ele>
        <time>2014-08-29T12:46:26Z</time>
      </trkpt>
      <trkpt lat="46.25907" lon="6.79534">
        <ele>1828.2231</ele>
        <time>2014-08-29T12:46:31Z</time>
      </trkpt>
      <trkpt lat="46.25907" lon="6.79534">
        <ele>1828.2231</ele>
        <time>2014-08-29T12:46:36Z</time>
      </trkpt>
      <trkpt lat="46.25907" lon="6.7953">
        <ele>1828.2231</ele>
        <time>2014-08-29T12:46:41Z</time>
      </trkpt>
      <trkpt lat="46.25907" lon="6.79522">
        <ele>1827.1831</ele>
        <time>2014-08-29T12:46:46Z</time>
      </trkpt>
      <trkpt lat="46.25906" lon="6.79515">
        <ele>1827.1831</ele>
        <time>2014-08-29T12:46:51Z</time>
      </trkpt>
      <trkpt lat="46.25904" lon="6.79513">
        <ele>1827.1831</ele>
        <time>2014-08-29T12:46:56Z</time>
      </trkpt>
      <trkpt lat="46.25901" lon="6.79517">
        <ele>1825.9194</ele>
        <time>2014-08-29T12:47:01Z</time>
      </trkpt>
      <trkpt lat="46.25899" lon="6.79525">
        <ele>1825.9194</ele>
        <time>2014-08-29T12:47:06Z</time>
      </trkpt>
      <trkpt lat="46.25897" lon="6.7953">
        <ele>1824.4474</ele>
        <time>2014-08-29T12:47:11Z</time>
      </trkpt>
      <trkpt lat="46.25895" lon="6.79535">
        <ele>1824.4474</ele>
        <time>2014-08-29T12:47:16Z</time>
      </trkpt>
      <trkpt lat="46.25893" lon="6.79539">
        <ele>1824.4474</ele>
        <time>2014-08-29T12:47:21Z</time>
      </trkpt>
      <trkpt lat="46.2589" lon="6.79541">
        <ele>1822.7097</ele>
        <time>2014-08-29T12:47:26Z</time>
      </trkpt>
      <trkpt lat="46.25889" lon="6.79537">
        <ele>1822.7097</ele>
        <time>2014-08-29T12:47:31Z</time>
      </trkpt>
      <trkpt lat="46.25887" lon="6.7953">
        <ele>1822.7097</ele>
        <time>2014-08-29T12:47:36Z</time>
      </trkpt>
      <trkpt lat="46.25886" lon="6.79525">
        <ele>1821.1584</ele>
        <time>2014-08-29T12:47:41Z</time>
      </trkpt>
      <trkpt lat="46.25885" lon="6.7952">
        <ele>1821.1584</ele>
        <time>2014-08-29T12:47:46Z</time>
      </trkpt>
      <trkpt lat="46.25886" lon="6.79516">
        <ele>1821.1584</ele>
        <time>2014-08-29T12:47:51Z</time>
      </trkpt>
      <trkpt lat="46.25885" lon="6.79509">
        <ele>1819.7366</ele>
        <time>2014-08-29T12:47:56Z</time>
      </trkpt>
      <trkpt lat="46.25882" lon="6.79502">
        <ele>1819.7366</ele>
        <time>2014-08-29T12:48:01Z</time>
      </trkpt>
      <trkpt lat="46.25879" lon="6.79499">
        <ele>1818.2897</ele>
        <time>2014-08-29T12:48:06Z</time>
      </trkpt>
      <trkpt lat="46.25877" lon="6.79494">
        <ele>1818.2897</ele>
        <time>2014-08-29T12:48:11Z</time>
      </trkpt>
      <trkpt lat="46.25876" lon="6.7949">
        <ele>1818.2897</ele>
        <time>2014-08-29T12:48:16Z</time>
      </trkpt>
      <trkpt lat="46.25874" lon="6.79488">
        <ele>1816.2285</ele>
        <time>2014-08-29T12:48:21Z</time>
      </trkpt>
      <trkpt lat="46.25872" lon="6.79482">
        <ele>1816.2285</ele>
        <time>2014-08-29T12:48:26Z</time>
      </trkpt>
      <trkpt lat="46.25871" lon="6.79478">
        <ele>1816.2285</ele>
        <time>2014-08-29T12:48:31Z</time>
      </trkpt>
      <trkpt lat="46.25869" lon="6.79473">
        <ele>1814.0605</ele>
        <time>2014-08-29T12:48:36Z</time>
      </trkpt>
      <trkpt lat="46.25868" lon="6.79474">
        <ele>1814.0605</ele>
        <time>2014-08-29T12:48:41Z</time>
      </trkpt>
      <trkpt lat="46.25866" lon="6.79466">
        <ele>1814.0605</ele>
        <time>2014-08-29T12:48:46Z</time>
      </trkpt>
      <trkpt lat="46.25865" lon="6.79454">
        <ele>1811.8673</ele>
        <time>2014-08-29T12:48:51Z</time>
      </trkpt>
      <trkpt lat="46.25863" lon="6.79447">
        <ele>1811.8673</ele>
        <time>2014-08-29T12:48:56Z</time>
      </trkpt>
      <trkpt lat="46.2586" lon="6.79444">
        <ele>1811.8673</ele>
        <time>2014-08-29T12:49:01Z</time>
      </trkpt>
      <trkpt lat="46.25858" lon="6.79442">
        <ele>1809.2778</ele>
        <time>2014-08-29T12:49:06Z</time>
      </trkpt>
      <trkpt lat="46.25856" lon="6.79442">
        <ele>1809.2778</ele>
        <time>2014-08-29T12:49:11Z</time>
      </trkpt>
      <trkpt lat="46.25854" lon="6.79443">
        <ele>1809.2778</ele>
        <time>2014-08-29T12:49:16Z</time>
      </trkpt>
      <trkpt lat="46.25851" lon="6.79449">
        <ele>1806.3096</ele>
        <time>2014-08-29T12:49:21Z</time>
      </trkpt>
      <trkpt lat="46.25848" lon="6.79454">
        <ele>1806.3096</ele>
        <time>2014-08-29T12:49:26Z</time>
      </trkpt>
      <trkpt lat="46.25846" lon="6.79458">
        <ele>1806.3096</ele>
        <time>2014-08-29T12:49:31Z</time>
      </trkpt>
      <trkpt lat="46.25841" lon="6.7946">
        <ele>1803.4556</ele>
        <time>2014-08-29T12:49:36Z</time>
      </trkpt>
      <trkpt lat="46.25837" lon="6.79464">
        <ele>1803.4556</ele>
        <time>2014-08-29T12:49:41Z</time>
      </trkpt>
      <trkpt lat="46.25834" lon="6.79465">
        <ele>1803.4556</ele>
        <time>2014-08-29T12:49:46Z</time>
      </trkpt>
      <trkpt lat="46.25831" lon="6.79467">
        <ele>1800.7108</ele>
        <time>2014-08-29T12:49:51Z</time>
      </trkpt>
      <trkpt lat="46.25829" lon="6.79472">
        <ele>1800.7108</ele>
        <time>2014-08-29T12:49:56Z</time>
      </trkpt>
      <trkpt lat="46.25826" lon="6.79476">
        <ele>1800.7108</ele>
        <time>2014-08-29T12:50:01Z</time>
      </trkpt>
      <trkpt lat="46.25822" lon="6.79474">
        <ele>1797.9843</ele>
        <time>2014-08-29T12:50:06Z</time>
      </trkpt>
      <trkpt lat="46.2582" lon="6.7947">
        <ele>1797.9843</ele>
        <time>2014-08-29T12:50:11Z</time>
      </trkpt>
      <trkpt lat="46.25817" lon="6.79466">
        <ele>1797.9843</ele>
        <time>2014-08-29T12:50:16Z</time>
      </trkpt>
      <trkpt lat="46.25815" lon="6.79464">
        <ele>1795.0472</ele>
        <time>2014-08-29T12:50:21Z</time>
      </trkpt>
      <trkpt lat="46.25813" lon="6.79459">
        <ele>1795.0472</ele>
        <time>2014-08-29T12:50:26Z</time>
      </trkpt>
      <trkpt lat="46.25811" lon="6.79454">
        <ele>1795.0472</ele>
        <time>2014-08-29T12:50:31Z</time>
      </trkpt>
      <trkpt lat="46.2581" lon="6.7945">
        <ele>1791.8756</ele>
        <time>2014-08-29T12:50:36Z</time>
      </trkpt>
      <trkpt lat="46.25809" lon="6.79449">
        <ele>1791.8756</ele>
        <time>2014-08-29T12:50:41Z</time>
      </trkpt>
      <trkpt lat="46.25808" lon="6.79444">
        <ele>1791.8756</ele>
        <time>2014-08-29T12:50:46Z</time>
      </trkpt>
      <trkpt lat="46.25808" lon="6.79438">
        <ele>1788.6063</ele>
        <time>2014-08-29T12:50:51Z</time>
      </trkpt>
      <trkpt lat="46.25806" lon="6.79433">
        <ele>1788.6063</ele>
        <time>2014-08-29T12:50:56Z</time>
      </trkpt>
      <trkpt lat="46.25807" lon="6.79431">
        <ele>1788.6063</ele>
        <time>2014-08-29T12:51:01Z</time>
      </trkpt>
      <trkpt lat="46.25807" lon="6.79425">
        <ele>1785.1216</ele>
        <time>2014-08-29T12:51:06Z</time>
      </trkpt>
      <trkpt lat="46.25806" lon="6.79423">
        <ele>1785.1216</ele>
        <time>2014-08-29T12:51:11Z</time>
      </trkpt>
      <trkpt lat="46.25806" lon="6.79422">
        <ele>1785.1216</ele>
        <time>2014-08-29T12:51:16Z</time>
      </trkpt>
      <trkpt lat="46.25804" lon="6.79425">
        <ele>1785.1216</ele>
        <time>2014-08-29T12:51:21Z</time>
      </trkpt>
      <trkpt lat="46.258" lon="6.79431">
        <ele>1781.2692</ele>
        <time>2014-08-29T12:51:26Z</time>
      </trkpt>
      <trkpt lat="46.25797" lon="6.79434">
        <ele>1781.2692</ele>
        <time>2014-08-29T12:51:31Z</time>
      </trkpt>
      <trkpt lat="46.25794" lon="6.79441">
        <ele>1781.2692</ele>
        <time>2014-08-29T12:51:36Z</time>
      </trkpt>
      <trkpt lat="46.25793" lon="6.79445">
        <ele>1777.558</ele>
        <time>2014-08-29T12:51:41Z</time>
      </trkpt>
      <trkpt lat="46.25792" lon="6.79448">
        <ele>1777.558</ele>
        <time>2014-08-29T12:51:46Z</time>
      </trkpt>
      <trkpt lat="46.25792" lon="6.79451">
        <ele>1777.558</ele>
        <time>2014-08-29T12:51:51Z</time>
      </trkpt>
      <trkpt lat="46.25792" lon="6.79453">
        <ele>1777.558</ele>
        <time>2014-08-29T12:51:56Z</time>
      </trkpt>
      <trkpt lat="46.2579" lon="6.79456">
        <ele>1777.558</ele>
        <time>2014-08-29T12:52:01Z</time>
      </trkpt>
      <trkpt lat="46.25791" lon="6.79461">
        <ele>1773.1041</ele>
        <time>2014-08-29T12:52:06Z</time>
      </trkpt>
      <trkpt lat="46.25792" lon="6.79469">
        <ele>1773.1041</ele>
        <time>2014-08-29T12:52:11Z</time>
      </trkpt>
      <trkpt lat="46.25793" lon="6.79473">
        <ele>1773.1041</ele>
        <time>2014-08-29T12:52:16Z</time>
      </trkpt>
      <trkpt lat="46.25793" lon="6.79476">
        <ele>1768.6903</ele>
        <time>2014-08-29T12:52:21Z</time>
      </trkpt>
      <trkpt lat="46.25793" lon="6.79479">
        <ele>1768.6903</ele>
        <time>2014-08-29T12:52:26Z</time>
      </trkpt>
      <trkpt lat="46.25793" lon="6.79482">
        <ele>1768.6903</ele>
        <time>2014-08-29T12:52:31Z</time>
      </trkpt>
      <trkpt lat="46.25791" lon="6.79491">
        <ele>1764.3354</ele>
        <time>2014-08-29T12:52:36Z</time>
      </trkpt>
      <trkpt lat="46.2579" lon="6.79501">
        <ele>1764.3354</ele>
        <time>2014-08-29T12:52:41Z</time>
      </trkpt>
      <trkpt lat="46.25788" lon="6.79504">
        <ele>1760.3448</ele>
        <time>2014-08-29T12:52:46Z</time>
      </trkpt>
      <trkpt lat="46.25788" lon="6.79504">
        <ele>1760.3448</ele>
        <time>2014-08-29T12:52:51Z</time>
      </trkpt>
      <trkpt lat="46.25784" lon="6.79503">
        <ele>1760.3448</ele>
        <time>2014-08-29T12:52:56Z</time>
      </trkpt>
      <trkpt lat="46.25782" lon="6.79507">
        <ele>1760.3448</ele>
        <time>2014-08-29T12:53:01Z</time>
      </trkpt>
      <trkpt lat="46.25781" lon="6.79508">
        <ele>1760.3448</ele>
        <time>2014-08-29T12:53:06Z</time>
      </trkpt>
      <trkpt lat="46.2578" lon="6.79509">
        <ele>1756.568</ele>
        <time>2014-08-29T12:53:21Z</time>
      </trkpt>
      <trkpt lat="46.25777" lon="6.79506">
        <ele>1756.568</ele>
        <time>2014-08-29T12:53:26Z</time>
      </trkpt>
      <trkpt lat="46.25774" lon="6.79499">
        <ele>1752.908</ele>
        <time>2014-08-29T12:53:31Z</time>
      </trkpt>
      <trkpt lat="46.25773" lon="6.79497">
        <ele>1752.908</ele>
        <time>2014-08-29T12:53:36Z</time>
      </trkpt>
      <trkpt lat="46.25773" lon="6.79498">
        <ele>1752.908</ele>
        <time>2014-08-29T12:53:41Z</time>
      </trkpt>
      <trkpt lat="46.25771" lon="6.79494">
        <ele>1752.908</ele>
        <time>2014-08-29T12:53:46Z</time>
      </trkpt>
      <trkpt lat="46.25768" lon="6.79488">
        <ele>1749.5193</ele>
        <time>2014-08-29T12:53:51Z</time>
      </trkpt>
      <trkpt lat="46.25768" lon="6.79484">
        <ele>1749.5193</ele>
        <time>2014-08-29T12:53:56Z</time>
      </trkpt>
      <trkpt lat="46.25767" lon="6.79482">
        <ele>1749.5193</ele>
        <time>2014-08-29T12:54:01Z</time>
      </trkpt>
      <trkpt lat="46.25765" lon="6.79477">
        <ele>1749.5193</ele>
        <time>2014-08-29T12:54:06Z</time>
      </trkpt>
      <trkpt lat="46.25762" lon="6.79466">
        <ele>1746.1843</ele>
        <time>2014-08-29T12:54:11Z</time>
      </trkpt>
      <trkpt lat="46.25759" lon="6.79456">
        <ele>1746.1843</ele>
        <time>2014-08-29T12:54:16Z</time>
      </trkpt>
      <trkpt lat="46.25759" lon="6.79449">
        <ele>1743.1619</ele>
        <time>2014-08-29T12:54:21Z</time>
      </trkpt>
      <trkpt lat="46.25758" lon="6.79438">
        <ele>1743.1619</ele>
        <time>2014-08-29T12:54:26Z</time>
      </trkpt>
      <trkpt lat="46.25757" lon="6.7943">
        <ele>1740.5466</ele>
        <time>2014-08-29T12:54:31Z</time>
      </trkpt>
      <trkpt lat="46.25755" lon="6.7942">
        <ele>1740.5466</ele>
        <time>2014-08-29T12:54:36Z</time>
      </trkpt>
      <trkpt lat="46.25753" lon="6.79413">
        <ele>1738.1516</ele>
        <time>2014-08-29T12:54:41Z</time>
      </trkpt>
      <trkpt lat="46.25751" lon="6.79404">
        <ele>1738.1516</ele>
        <time>2014-08-29T12:54:46Z</time>
      </trkpt>
      <trkpt lat="46.25748" lon="6.79396">
        <ele>1735.8745</ele>
        <time>2014-08-29T12:54:51Z</time>
      </trkpt>
      <trkpt lat="46.25745" lon="6.79397">
        <ele>1735.8745</ele>
        <time>2014-08-29T12:54:56Z</time>
      </trkpt>
      <trkpt lat="46.25744" lon="6.79401">
        <ele>1735.8745</ele>
        <time>2014-08-29T12:55:01Z</time>
      </trkpt>
      <trkpt lat="46.25742" lon="6.79412">
        <ele>1733.2743</ele>
        <time>2014-08-29T12:55:06Z</time>
      </trkpt>
      <trkpt lat="46.25739" lon="6.79424">
        <ele>1733.2743</ele>
        <time>2014-08-29T12:55:11Z</time>
      </trkpt>
      <trkpt lat="46.25736" lon="6.79427">
        <ele>1730.923</ele>
        <time>2014-08-29T12:55:16Z</time>
      </trkpt>
      <trkpt lat="46.25734" lon="6.79427">
        <ele>1730.923</ele>
        <time>2014-08-29T12:55:21Z</time>
      </trkpt>
      <trkpt lat="46.25732" lon="6.79425">
        <ele>1730.923</ele>
        <time>2014-08-29T12:55:26Z</time>
      </trkpt>
      <trkpt lat="46.25731" lon="6.79424">
        <ele>1730.923</ele>
        <time>2014-08-29T12:55:31Z</time>
      </trkpt>
      <trkpt lat="46.2573" lon="6.79423">
        <ele>1730.923</ele>
        <time>2014-08-29T12:55:36Z</time>
      </trkpt>
      <trkpt lat="46.25727" lon="6.79425">
        <ele>1727.5919</ele>
        <time>2014-08-29T12:55:41Z</time>
      </trkpt>
      <trkpt lat="46.25727" lon="6.79424">
        <ele>1727.5919</ele>
        <time>2014-08-29T12:55:46Z</time>
      </trkpt>
      <trkpt lat="46.25725" lon="6.79421">
        <ele>1727.5919</ele>
        <time>2014-08-29T12:55:51Z</time>
      </trkpt>
      <trkpt lat="46.25719" lon="6.79419">
        <ele>1723.9607</ele>
        <time>2014-08-29T12:55:56Z</time>
      </trkpt>
      <trkpt lat="46.25715" lon="6.79418">
        <ele>1723.9607</ele>
        <time>2014-08-29T12:56:01Z</time>
      </trkpt>
      <trkpt lat="46.25711" lon="6.79417">
        <ele>1723.9607</ele>
        <time>2014-08-29T12:56:06Z</time>
      </trkpt>
      <trkpt lat="46.25709" lon="6.79417">
        <ele>1720.1414</ele>
        <time>2014-08-29T12:56:11Z</time>
      </trkpt>
      <trkpt lat="46.25707" lon="6.79419">
        <ele>1720.1414</ele>
        <time>2014-08-29T12:56:16Z</time>
      </trkpt>
      <trkpt lat="46.25703" lon="6.79421">
        <ele>1720.1414</ele>
        <time>2014-08-29T12:56:21Z</time>
      </trkpt>
      <trkpt lat="46.25703" lon="6.7942">
        <ele>1720.1414</ele>
        <time>2014-08-29T12:56:26Z</time>
      </trkpt>
      <trkpt lat="46.25703" lon="6.7942">
        <ele>1720.1414</ele>
        <time>2014-08-29T12:56:31Z</time>
      </trkpt>
      <trkpt lat="46.25703" lon="6.79417">
        <ele>1716.7134</ele>
        <time>2014-08-29T12:56:56Z</time>
      </trkpt>
      <trkpt lat="46.25703" lon="6.79417">
        <ele>1716.7134</ele>
        <time>2014-08-29T12:57:01Z</time>
      </trkpt>
      <trkpt lat="46.25703" lon="6.79413">
        <ele>1716.7134</ele>
        <time>2014-08-29T12:57:11Z</time>
      </trkpt>
      <trkpt lat="46.25703" lon="6.79412">
        <ele>1716.7134</ele>
        <time>2014-08-29T12:57:16Z</time>
      </trkpt>
      <trkpt lat="46.25704" lon="6.79405">
        <ele>1716.7134</ele>
        <time>2014-08-29T12:57:21Z</time>
      </trkpt>
      <trkpt lat="46.25705" lon="6.79398">
        <ele>1714.1693</ele>
        <time>2014-08-29T12:57:26Z</time>
      </trkpt>
      <trkpt lat="46.25707" lon="6.79394">
        <ele>1714.1693</ele>
        <time>2014-08-29T12:57:31Z</time>
      </trkpt>
      <trkpt lat="46.2571" lon="6.79385">
        <ele>1711.767</ele>
        <time>2014-08-29T12:57:36Z</time>
      </trkpt>
      <trkpt lat="46.2571" lon="6.79385">
        <ele>1711.767</ele>
        <time>2014-08-29T12:57:41Z</time>
      </trkpt>
      <trkpt lat="46.25712" lon="6.79382">
        <ele>1711.767</ele>
        <time>2014-08-29T12:57:46Z</time>
      </trkpt>
      <trkpt lat="46.25715" lon="6.79379">
        <ele>1711.767</ele>
        <time>2014-08-29T12:57:51Z</time>
      </trkpt>
      <trkpt lat="46.25715" lon="6.79375">
        <ele>1711.767</ele>
        <time>2014-08-29T12:57:56Z</time>
      </trkpt>
      <trkpt lat="46.25715" lon="6.79372">
        <ele>1709.6539</ele>
        <time>2014-08-29T12:58:01Z</time>
      </trkpt>
      <trkpt lat="46.25715" lon="6.79369">
        <ele>1709.6539</ele>
        <time>2014-08-29T12:58:06Z</time>
      </trkpt>
      <trkpt lat="46.25716" lon="6.79367">
        <ele>1709.6539</ele>
        <time>2014-08-29T12:58:11Z</time>
      </trkpt>
      <trkpt lat="46.25717" lon="6.79361">
        <ele>1709.6539</ele>
        <time>2014-08-29T12:58:16Z</time>
      </trkpt>
      <trkpt lat="46.25717" lon="6.79355">
        <ele>1707.3319</ele>
        <time>2014-08-29T12:58:21Z</time>
      </trkpt>
      <trkpt lat="46.25718" lon="6.7935">
        <ele>1707.3319</ele>
        <time>2014-08-29T12:58:26Z</time>
      </trkpt>
      <trkpt lat="46.25719" lon="6.79347">
        <ele>1707.3319</ele>
        <time>2014-08-29T12:58:31Z</time>
      </trkpt>
      <trkpt lat="46.25719" lon="6.79345">
        <ele>1707.3319</ele>
        <time>2014-08-29T12:58:36Z</time>
      </trkpt>
      <trkpt lat="46.25722" lon="6.79343">
        <ele>1705.3052</ele>
        <time>2014-08-29T12:58:41Z</time>
      </trkpt>
      <trkpt lat="46.25724" lon="6.79338">
        <ele>1705.3052</ele>
        <time>2014-08-29T12:58:46Z</time>
      </trkpt>
      <trkpt lat="46.25725" lon="6.79333">
        <ele>1705.3052</ele>
        <time>2014-08-29T12:58:51Z</time>
      </trkpt>
      <trkpt lat="46.25727" lon="6.79327">
        <ele>1703.3053</ele>
        <time>2014-08-29T12:58:56Z</time>
      </trkpt>
      <trkpt lat="46.25729" lon="6.7932">
        <ele>1703.3053</ele>
        <time>2014-08-29T12:59:01Z</time>
      </trkpt>
      <trkpt lat="46.2573" lon="6.79317">
        <ele>1703.3053</ele>
        <time>2014-08-29T12:59:06Z</time>
      </trkpt>
      <trkpt lat="46.2573" lon="6.79315">
        <ele>1701.2708</ele>
        <time>2014-08-29T12:59:11Z</time>
      </trkpt>
      <trkpt lat="46.25732" lon="6.79308">
        <ele>1701.2708</ele>
        <time>2014-08-29T12:59:16Z</time>
      </trkpt>
      <trkpt lat="46.25734" lon="6.79298">
        <ele>1699.2452</ele>
        <time>2014-08-29T12:59:21Z</time>
      </trkpt>
      <trkpt lat="46.25736" lon="6.7929">
        <ele>1699.2452</ele>
        <time>2014-08-29T12:59:26Z</time>
      </trkpt>
      <trkpt lat="46.25736" lon="6.79286">
        <ele>1699.2452</ele>
        <time>2014-08-29T12:59:31Z</time>
      </trkpt>
      <trkpt lat="46.25737" lon="6.79278">
        <ele>1697.1543</ele>
        <time>2014-08-29T12:59:36Z</time>
      </trkpt>
      <trkpt lat="46.25738" lon="6.7927">
        <ele>1697.1543</ele>
        <time>2014-08-29T12:59:41Z</time>
      </trkpt>
      <trkpt lat="46.25739" lon="6.7926">
        <ele>1695.0582</ele>
        <time>2014-08-29T12:59:46Z</time>
      </trkpt>
      <trkpt lat="46.25738" lon="6.79255">
        <ele>1695.0582</ele>
        <time>2014-08-29T12:59:51Z</time>
      </trkpt>
      <trkpt lat="46.25737" lon="6.79248">
        <ele>1695.0582</ele>
        <time>2014-08-29T12:59:56Z</time>
      </trkpt>
      <trkpt lat="46.25738" lon="6.79236">
        <ele>1692.7252</ele>
        <time>2014-08-29T13:00:01Z</time>
      </trkpt>
      <trkpt lat="46.25739" lon="6.79228">
        <ele>1692.7252</ele>
        <time>2014-08-29T13:00:06Z</time>
      </trkpt>
      <trkpt lat="46.25739" lon="6.79226">
        <ele>1692.7252</ele>
        <time>2014-08-29T13:00:11Z</time>
      </trkpt>
      <trkpt lat="46.25739" lon="6.79226">
        <ele>1692.7252</ele>
        <time>2014-08-29T13:00:16Z</time>
      </trkpt>
      <trkpt lat="46.25739" lon="6.79224">
        <ele>1692.7252</ele>
        <time>2014-08-29T13:00:21Z</time>
      </trkpt>
      <trkpt lat="46.25741" lon="6.79221">
        <ele>1690.3876</ele>
        <time>2014-08-29T13:00:26Z</time>
      </trkpt>
      <trkpt lat="46.25743" lon="6.79215">
        <ele>1690.3876</ele>
        <time>2014-08-29T13:00:31Z</time>
      </trkpt>
      <trkpt lat="46.25746" lon="6.79208">
        <ele>1688.376</ele>
        <time>2014-08-29T13:00:36Z</time>
      </trkpt>
      <trkpt lat="46.25747" lon="6.79206">
        <ele>1688.376</ele>
        <time>2014-08-29T13:00:41Z</time>
      </trkpt>
      <trkpt lat="46.25747" lon="6.79199">
        <ele>1688.376</ele>
        <time>2014-08-29T13:00:46Z</time>
      </trkpt>
      <trkpt lat="46.25746" lon="6.79197">
        <ele>1688.376</ele>
        <time>2014-08-29T13:00:51Z</time>
      </trkpt>
      <trkpt lat="46.25744" lon="6.79191">
        <ele>1686.7794</ele>
        <time>2014-08-29T13:00:56Z</time>
      </trkpt>
      <trkpt lat="46.25744" lon="6.79188">
        <ele>1686.7794</ele>
        <time>2014-08-29T13:01:01Z</time>
      </trkpt>
      <trkpt lat="46.25743" lon="6.79187">
        <ele>1686.7794</ele>
        <time>2014-08-29T13:01:06Z</time>
      </trkpt>
      <trkpt lat="46.25741" lon="6.79187">
        <ele>1686.7794</ele>
        <time>2014-08-29T13:01:11Z</time>
      </trkpt>
      <trkpt lat="46.2574" lon="6.79186">
        <ele>1686.7794</ele>
        <time>2014-08-29T13:01:16Z</time>
      </trkpt>
      <trkpt lat="46.25739" lon="6.79186">
        <ele>1686.7794</ele>
        <time>2014-08-29T13:01:21Z</time>
      </trkpt>
      <trkpt lat="46.25737" lon="6.79188">
        <ele>1684.8582</ele>
        <time>2014-08-29T13:01:26Z</time>
      </trkpt>
      <trkpt lat="46.25735" lon="6.79189">
        <ele>1684.8582</ele>
        <time>2014-08-29T13:01:31Z</time>
      </trkpt>
      <trkpt lat="46.25731" lon="6.79189">
        <ele>1684.8582</ele>
        <time>2014-08-29T13:01:36Z</time>
      </trkpt>
      <trkpt lat="46.25727" lon="6.7919">
        <ele>1683.1525</ele>
        <time>2014-08-29T13:01:41Z</time>
      </trkpt>
      <trkpt lat="46.25722" lon="6.79191">
        <ele>1683.1525</ele>
        <time>2014-08-29T13:01:46Z</time>
      </trkpt>
      <trkpt lat="46.25718" lon="6.79191">
        <ele>1681.658</ele>
        <time>2014-08-29T13:01:51Z</time>
      </trkpt>
      <trkpt lat="46.25716" lon="6.79189">
        <ele>1681.658</ele>
        <time>2014-08-29T13:01:56Z</time>
      </trkpt>
      <trkpt lat="46.25711" lon="6.79185">
        <ele>1681.658</ele>
        <time>2014-08-29T13:02:01Z</time>
      </trkpt>
      <trkpt lat="46.25708" lon="6.79186">
        <ele>1680.1251</ele>
        <time>2014-08-29T13:02:06Z</time>
      </trkpt>
      <trkpt lat="46.25706" lon="6.79187">
        <ele>1680.1251</ele>
        <time>2014-08-29T13:02:11Z</time>
      </trkpt>
      <trkpt lat="46.25705" lon="6.79191">
        <ele>1680.1251</ele>
        <time>2014-08-29T13:02:16Z</time>
      </trkpt>
      <trkpt lat="46.25704" lon="6.79196">
        <ele>1680.1251</ele>
        <time>2014-08-29T13:02:21Z</time>
      </trkpt>
      <trkpt lat="46.25703" lon="6.79199">
        <ele>1678.8992</ele>
        <time>2014-08-29T13:02:26Z</time>
      </trkpt>
      <trkpt lat="46.25701" lon="6.79201">
        <ele>1678.8992</ele>
        <time>2014-08-29T13:02:31Z</time>
      </trkpt>
      <trkpt lat="46.25697" lon="6.79205">
        <ele>1678.8992</ele>
        <time>2014-08-29T13:02:36Z</time>
      </trkpt>
      <trkpt lat="46.25692" lon="6.79208">
        <ele>1678.0398</ele>
        <time>2014-08-29T13:02:41Z</time>
      </trkpt>
      <trkpt lat="46.25689" lon="6.79212">
        <ele>1678.0398</ele>
        <time>2014-08-29T13:02:46Z</time>
      </trkpt>
      <trkpt lat="46.25686" lon="6.79214">
        <ele>1678.0398</ele>
        <time>2014-08-29T13:02:51Z</time>
      </trkpt>
      <trkpt lat="46.25684" lon="6.79216">
        <ele>1677.4141</ele>
        <time>2014-08-29T13:02:56Z</time>
      </trkpt>
      <trkpt lat="46.25679" lon="6.79221">
        <ele>1677.4141</ele>
        <time>2014-08-29T13:03:01Z</time>
      </trkpt>
      <trkpt lat="46.25675" lon="6.79224">
        <ele>1677.0135</ele>
        <time>2014-08-29T13:03:06Z</time>
      </trkpt>
      <trkpt lat="46.2567" lon="6.79224">
        <ele>1677.0135</ele>
        <time>2014-08-29T13:03:11Z</time>
      </trkpt>
      <trkpt lat="46.25668" lon="6.79225">
        <ele>1677.0135</ele>
        <time>2014-08-29T13:03:16Z</time>
      </trkpt>
      <trkpt lat="46.25666" lon="6.79228">
        <ele>1676.2388</ele>
        <time>2014-08-29T13:03:21Z</time>
      </trkpt>
      <trkpt lat="46.25665" lon="6.79229">
        <ele>1676.2388</ele>
        <time>2014-08-29T13:03:26Z</time>
      </trkpt>
      <trkpt lat="46.25663" lon="6.79228">
        <ele>1676.2388</ele>
        <time>2014-08-29T13:03:31Z</time>
      </trkpt>
      <trkpt lat="46.2566" lon="6.79228">
        <ele>1676.2388</ele>
        <time>2014-08-29T13:03:36Z</time>
      </trkpt>
      <trkpt lat="46.25659" lon="6.79228">
        <ele>1676.2388</ele>
        <time>2014-08-29T13:03:41Z</time>
      </trkpt>
      <trkpt lat="46.25656" lon="6.79228">
        <ele>1674.5791</ele>
        <time>2014-08-29T13:03:46Z</time>
      </trkpt>
      <trkpt lat="46.25649" lon="6.79229">
        <ele>1674.5791</ele>
        <time>2014-08-29T13:03:51Z</time>
      </trkpt>
      <trkpt lat="46.25644" lon="6.7923">
        <ele>1673.1055</ele>
        <time>2014-08-29T13:03:56Z</time>
      </trkpt>
      <trkpt lat="46.25641" lon="6.79229">
        <ele>1673.1055</ele>
        <time>2014-08-29T13:04:01Z</time>
      </trkpt>
      <trkpt lat="46.25638" lon="6.7923">
        <ele>1673.1055</ele>
        <time>2014-08-29T13:04:06Z</time>
      </trkpt>
      <trkpt lat="46.25634" lon="6.79229">
        <ele>1671.2825</ele>
        <time>2014-08-29T13:04:11Z</time>
      </trkpt>
      <trkpt lat="46.2563" lon="6.79228">
        <ele>1671.2825</ele>
        <time>2014-08-29T13:04:16Z</time>
      </trkpt>
      <trkpt lat="46.25627" lon="6.79229">
        <ele>1671.2825</ele>
        <time>2014-08-29T13:04:21Z</time>
      </trkpt>
      <trkpt lat="46.25624" lon="6.79231">
        <ele>1668.8888</ele>
        <time>2014-08-29T13:04:26Z</time>
      </trkpt>
      <trkpt lat="46.25624" lon="6.79233">
        <ele>1668.8888</ele>
        <time>2014-08-29T13:04:31Z</time>
      </trkpt>
      <trkpt lat="46.25618" lon="6.79233">
        <ele>1668.8888</ele>
        <time>2014-08-29T13:04:36Z</time>
      </trkpt>
      <trkpt lat="46.25616" lon="6.79233">
        <ele>1666.2112</ele>
        <time>2014-08-29T13:04:41Z</time>
      </trkpt>
      <trkpt lat="46.25616" lon="6.79233">
        <ele>1666.2112</ele>
        <time>2014-08-29T13:04:46Z</time>
      </trkpt>
      <trkpt lat="46.25615" lon="6.79232">
        <ele>1666.2112</ele>
        <time>2014-08-29T13:04:56Z</time>
      </trkpt>
      <trkpt lat="46.25615" lon="6.79232">
        <ele>1666.2112</ele>
        <time>2014-08-29T13:05:01Z</time>
      </trkpt>
      <trkpt lat="46.25615" lon="6.79232">
        <ele>1666.2112</ele>
        <time>2014-08-29T13:07:36Z</time>
      </trkpt>
      <trkpt lat="46.25615" lon="6.79233">
        <ele>1666.2112</ele>
        <time>2014-08-29T13:07:41Z</time>
      </trkpt>
      <trkpt lat="46.25615" lon="6.79233">
        <ele>1666.2112</ele>
        <time>2014-08-29T13:07:46Z</time>
      </trkpt>
      <trkpt lat="46.25615" lon="6.79233">
        <ele>1666.2112</ele>
        <time>2014-08-29T13:08:06Z</time>
      </trkpt>
      <trkpt lat="46.25615" lon="6.79233">
        <ele>1666.2112</ele>
        <time>2014-08-29T13:08:11Z</time>
      </trkpt>
      <trkpt lat="46.25615" lon="6.79232">
        <ele>1666.2112</ele>
        <time>2014-08-29T13:09:16Z</time>
      </trkpt>
      <trkpt lat="46.25615" lon="6.79232">
        <ele>1666.2112</ele>
        <time>2014-08-29T13:09:21Z</time>
      </trkpt>
      <trkpt lat="46.25613" lon="6.79225">
        <ele>1662.2911</ele>
        <time>2014-08-29T13:09:36Z</time>
      </trkpt>
      <trkpt lat="46.25609" lon="6.7922">
        <ele>1662.2911</ele>
        <time>2014-08-29T13:09:41Z</time>
      </trkpt>
      <trkpt lat="46.25607" lon="6.79213">
        <ele>1658.5066</ele>
        <time>2014-08-29T13:09:46Z</time>
      </trkpt>
      <trkpt lat="46.25603" lon="6.79207">
        <ele>1658.5066</ele>
        <time>2014-08-29T13:09:51Z</time>
      </trkpt>
      <trkpt lat="46.25598" lon="6.79202">
        <ele>1655.2118</ele>
        <time>2014-08-29T13:09:56Z</time>
      </trkpt>
      <trkpt lat="46.25593" lon="6.79196">
        <ele>1655.2118</ele>
        <time>2014-08-29T13:10:01Z</time>
      </trkpt>
      <trkpt lat="46.25588" lon="6.79188">
        <ele>1652.287</ele>
        <time>2014-08-29T13:10:06Z</time>
      </trkpt>
      <trkpt lat="46.25584" lon="6.79184">
        <ele>1652.287</ele>
        <time>2014-08-29T13:10:11Z</time>
      </trkpt>
      <trkpt lat="46.25582" lon="6.79181">
        <ele>1652.287</ele>
        <time>2014-08-29T13:10:16Z</time>
      </trkpt>
      <trkpt lat="46.25579" lon="6.79179">
        <ele>1649.9369</ele>
        <time>2014-08-29T13:10:21Z</time>
      </trkpt>
      <trkpt lat="46.25576" lon="6.79174">
        <ele>1649.9369</ele>
        <time>2014-08-29T13:10:26Z</time>
      </trkpt>
      <trkpt lat="46.25574" lon="6.79169">
        <ele>1649.9369</ele>
        <time>2014-08-29T13:10:31Z</time>
      </trkpt>
      <trkpt lat="46.25571" lon="6.79164">
        <ele>1647.8889</ele>
        <time>2014-08-29T13:10:36Z</time>
      </trkpt>
      <trkpt lat="46.25568" lon="6.79158">
        <ele>1647.8889</ele>
        <time>2014-08-29T13:10:41Z</time>
      </trkpt>
      <trkpt lat="46.25565" lon="6.79154">
        <ele>1646.4368</ele>
        <time>2014-08-29T13:10:46Z</time>
      </trkpt>
      <trkpt lat="46.25561" lon="6.7915">
        <ele>1646.4368</ele>
        <time>2014-08-29T13:10:51Z</time>
      </trkpt>
      <trkpt lat="46.25557" lon="6.79145">
        <ele>1645.2607</ele>
        <time>2014-08-29T13:10:56Z</time>
      </trkpt>
      <trkpt lat="46.25555" lon="6.79143">
        <ele>1645.2607</ele>
        <time>2014-08-29T13:11:01Z</time>
      </trkpt>
      <trkpt lat="46.25553" lon="6.79141">
        <ele>1645.2607</ele>
        <time>2014-08-29T13:11:06Z</time>
      </trkpt>
      <trkpt lat="46.25552" lon="6.7914">
        <ele>1645.2607</ele>
        <time>2014-08-29T13:11:11Z</time>
      </trkpt>
      <trkpt lat="46.2555" lon="6.79137">
        <ele>1644.3226</ele>
        <time>2014-08-29T13:11:16Z</time>
      </trkpt>
      <trkpt lat="46.25546" lon="6.79134">
        <ele>1644.3226</ele>
        <time>2014-08-29T13:11:21Z</time>
      </trkpt>
      <trkpt lat="46.25543" lon="6.7913">
        <ele>1643.63</ele>
        <time>2014-08-29T13:11:26Z</time>
      </trkpt>
      <trkpt lat="46.2554" lon="6.79125">
        <ele>1643.63</ele>
        <time>2014-08-29T13:11:31Z</time>
      </trkpt>
      <trkpt lat="46.25537" lon="6.79121">
        <ele>1643.63</ele>
        <time>2014-08-29T13:11:36Z</time>
      </trkpt>
      <trkpt lat="46.25534" lon="6.79117">
        <ele>1643.1027</ele>
        <time>2014-08-29T13:11:41Z</time>
      </trkpt>
      <trkpt lat="46.25531" lon="6.79115">
        <ele>1643.1027</ele>
        <time>2014-08-29T13:11:46Z</time>
      </trkpt>
      <trkpt lat="46.25529" lon="6.79111">
        <ele>1643.1027</ele>
        <time>2014-08-29T13:11:51Z</time>
      </trkpt>
      <trkpt lat="46.25526" lon="6.79109">
        <ele>1642.666</ele>
        <time>2014-08-29T13:11:56Z</time>
      </trkpt>
      <trkpt lat="46.25523" lon="6.79102">
        <ele>1642.666</ele>
        <time>2014-08-29T13:12:01Z</time>
      </trkpt>
      <trkpt lat="46.25521" lon="6.79099">
        <ele>1642.666</ele>
        <time>2014-08-29T13:12:06Z</time>
      </trkpt>
      <trkpt lat="46.25518" lon="6.79094">
        <ele>1642.4956</ele>
        <time>2014-08-29T13:12:11Z</time>
      </trkpt>
      <trkpt lat="46.25517" lon="6.79093">
        <ele>1642.4956</ele>
        <time>2014-08-29T13:12:16Z</time>
      </trkpt>
      <trkpt lat="46.25516" lon="6.79093">
        <ele>1642.4956</ele>
        <time>2014-08-29T13:12:21Z</time>
      </trkpt>
      <trkpt lat="46.25516" lon="6.79093">
        <ele>1642.4956</ele>
        <time>2014-08-29T13:12:26Z</time>
      </trkpt>
      <trkpt lat="46.25515" lon="6.79091">
        <ele>1642.4956</ele>
        <time>2014-08-29T13:12:36Z</time>
      </trkpt>
      <trkpt lat="46.25512" lon="6.79085">
        <ele>1642.4956</ele>
        <time>2014-08-29T13:12:41Z</time>
      </trkpt>
      <trkpt lat="46.2551" lon="6.79082">
        <ele>1642.6526</ele>
        <time>2014-08-29T13:12:46Z</time>
      </trkpt>
      <trkpt lat="46.25509" lon="6.7908">
        <ele>1642.6526</ele>
        <time>2014-08-29T13:12:51Z</time>
      </trkpt>
      <trkpt lat="46.25508" lon="6.79077">
        <ele>1642.6526</ele>
        <time>2014-08-29T13:12:56Z</time>
      </trkpt>
      <trkpt lat="46.25504" lon="6.7907">
        <ele>1643.2072</ele>
        <time>2014-08-29T13:13:01Z</time>
      </trkpt>
      <trkpt lat="46.25498" lon="6.79064">
        <ele>1643.2072</ele>
        <time>2014-08-29T13:13:06Z</time>
      </trkpt>
      <trkpt lat="46.25497" lon="6.7906">
        <ele>1644.1514</ele>
        <time>2014-08-29T13:13:11Z</time>
      </trkpt>
      <trkpt lat="46.25496" lon="6.7906">
        <ele>1644.1514</ele>
        <time>2014-08-29T13:13:16Z</time>
      </trkpt>
      <trkpt lat="46.25496" lon="6.79059">
        <ele>1644.1514</ele>
        <time>2014-08-29T13:13:21Z</time>
      </trkpt>
      <trkpt lat="46.25494" lon="6.79059">
        <ele>1644.1514</ele>
        <time>2014-08-29T13:13:26Z</time>
      </trkpt>
      <trkpt lat="46.25492" lon="6.79058">
        <ele>1644.1514</ele>
        <time>2014-08-29T13:13:31Z</time>
      </trkpt>
      <trkpt lat="46.25492" lon="6.79058">
        <ele>1644.1514</ele>
        <time>2014-08-29T13:13:36Z</time>
      </trkpt>
      <trkpt lat="46.25491" lon="6.79057">
        <ele>1644.1514</ele>
        <time>2014-08-29T13:13:41Z</time>
      </trkpt>
      <trkpt lat="46.25491" lon="6.79057">
        <ele>1644.1514</ele>
        <time>2014-08-29T13:13:46Z</time>
      </trkpt>
      <trkpt lat="46.25487" lon="6.7906">
        <ele>1646.0966</ele>
        <time>2014-08-29T13:14:21Z</time>
      </trkpt>
      <trkpt lat="46.25483" lon="6.79066">
        <ele>1646.0966</ele>
        <time>2014-08-29T13:14:26Z</time>
      </trkpt>
      <trkpt lat="46.25479" lon="6.79071">
        <ele>1648.3672</ele>
        <time>2014-08-29T13:14:31Z</time>
      </trkpt>
      <trkpt lat="46.25476" lon="6.79072">
        <ele>1648.3672</ele>
        <time>2014-08-29T13:14:36Z</time>
      </trkpt>
      <trkpt lat="46.25473" lon="6.79075">
        <ele>1648.3672</ele>
        <time>2014-08-29T13:14:41Z</time>
      </trkpt>
      <trkpt lat="46.25471" lon="6.79077">
        <ele>1648.3672</ele>
        <time>2014-08-29T13:14:46Z</time>
      </trkpt>
      <trkpt lat="46.25469" lon="6.79079">
        <ele>1651.2587</ele>
        <time>2014-08-29T13:14:51Z</time>
      </trkpt>
      <trkpt lat="46.25464" lon="6.79084">
        <ele>1651.2587</ele>
        <time>2014-08-29T13:14:56Z</time>
      </trkpt>
      <trkpt lat="46.25462" lon="6.79085">
        <ele>1651.2587</ele>
        <time>2014-08-29T13:15:01Z</time>
      </trkpt>
      <trkpt lat="46.25462" lon="6.79085">
        <ele>1651.2587</ele>
        <time>2014-08-29T13:15:06Z</time>
      </trkpt>
      <trkpt lat="46.25461" lon="6.79086">
        <ele>1651.2587</ele>
        <time>2014-08-29T13:15:11Z</time>
      </trkpt>
      <trkpt lat="46.25461" lon="6.79086">
        <ele>1651.2587</ele>
        <time>2014-08-29T13:15:16Z</time>
      </trkpt>
      <trkpt lat="46.2546" lon="6.79086">
        <ele>1654.539</ele>
        <time>2014-08-29T13:15:21Z</time>
      </trkpt>
      <trkpt lat="46.25458" lon="6.79091">
        <ele>1654.539</ele>
        <time>2014-08-29T13:15:26Z</time>
      </trkpt>
      <trkpt lat="46.25455" lon="6.79097">
        <ele>1654.539</ele>
        <time>2014-08-29T13:15:31Z</time>
      </trkpt>
      <trkpt lat="46.25454" lon="6.79098">
        <ele>1657.5887</ele>
        <time>2014-08-29T13:15:36Z</time>
      </trkpt>
      <trkpt lat="46.25454" lon="6.79098">
        <ele>1657.5887</ele>
        <time>2014-08-29T13:15:41Z</time>
      </trkpt>
      <trkpt lat="46.25452" lon="6.79102">
        <ele>1657.5887</ele>
        <time>2014-08-29T13:15:46Z</time>
      </trkpt>
      <trkpt lat="46.25449" lon="6.79106">
        <ele>1657.5887</ele>
        <time>2014-08-29T13:15:51Z</time>
      </trkpt>
      <trkpt lat="46.25449" lon="6.79106">
        <ele>1657.5887</ele>
        <time>2014-08-29T13:15:56Z</time>
      </trkpt>
      <trkpt lat="46.25442" lon="6.79108">
        <ele>1660.9302</ele>
        <time>2014-08-29T13:16:01Z</time>
      </trkpt>
      <trkpt lat="46.25439" lon="6.79107">
        <ele>1660.9302</ele>
        <time>2014-08-29T13:16:06Z</time>
      </trkpt>
      <trkpt lat="46.25436" lon="6.79106">
        <ele>1660.9302</ele>
        <time>2014-08-29T13:16:11Z</time>
      </trkpt>
      <trkpt lat="46.25432" lon="6.79105">
        <ele>1664.0088</ele>
        <time>2014-08-29T13:16:16Z</time>
      </trkpt>
      <trkpt lat="46.25429" lon="6.79109">
        <ele>1664.0088</ele>
        <time>2014-08-29T13:16:21Z</time>
      </trkpt>
      <trkpt lat="46.25426" lon="6.79118">
        <ele>1667.0615</ele>
        <time>2014-08-29T13:16:26Z</time>
      </trkpt>
      <trkpt lat="46.25423" lon="6.79127">
        <ele>1667.0615</ele>
        <time>2014-08-29T13:16:31Z</time>
      </trkpt>
      <trkpt lat="46.25419" lon="6.79131">
        <ele>1670.1641</ele>
        <time>2014-08-29T13:16:36Z</time>
      </trkpt>
      <trkpt lat="46.25419" lon="6.79132">
        <ele>1670.1641</ele>
        <time>2014-08-29T13:16:41Z</time>
      </trkpt>
      <trkpt lat="46.25418" lon="6.79133">
        <ele>1670.1641</ele>
        <time>2014-08-29T13:16:46Z</time>
      </trkpt>
      <trkpt lat="46.25416" lon="6.79137">
        <ele>1670.1641</ele>
        <time>2014-08-29T13:16:51Z</time>
      </trkpt>
      <trkpt lat="46.25413" lon="6.79141">
        <ele>1673.3435</ele>
        <time>2014-08-29T13:16:56Z</time>
      </trkpt>
      <trkpt lat="46.25408" lon="6.79147">
        <ele>1673.3435</ele>
        <time>2014-08-29T13:17:01Z</time>
      </trkpt>
      <trkpt lat="46.25403" lon="6.79156">
        <ele>1676.4663</ele>
        <time>2014-08-29T13:17:06Z</time>
      </trkpt>
      <trkpt lat="46.25398" lon="6.7916">
        <ele>1676.4663</ele>
        <time>2014-08-29T13:17:11Z</time>
      </trkpt>
      <trkpt lat="46.25393" lon="6.79162">
        <ele>1679.3663</ele>
        <time>2014-08-29T13:17:16Z</time>
      </trkpt>
      <trkpt lat="46.25389" lon="6.79161">
        <ele>1679.3663</ele>
        <time>2014-08-29T13:17:21Z</time>
      </trkpt>
      <trkpt lat="46.25385" lon="6.79162">
        <ele>1679.3663</ele>
        <time>2014-08-29T13:17:26Z</time>
      </trkpt>
      <trkpt lat="46.2538" lon="6.79162">
        <ele>1681.6454</ele>
        <time>2014-08-29T13:17:31Z</time>
      </trkpt>
      <trkpt lat="46.25375" lon="6.79161">
        <ele>1681.6454</ele>
        <time>2014-08-29T13:17:36Z</time>
      </trkpt>
      <trkpt lat="46.2537" lon="6.79161">
        <ele>1683.4989</ele>
        <time>2014-08-29T13:17:41Z</time>
      </trkpt>
      <trkpt lat="46.25367" lon="6.79163">
        <ele>1683.4989</ele>
        <time>2014-08-29T13:17:46Z</time>
      </trkpt>
      <trkpt lat="46.25363" lon="6.79166">
        <ele>1683.4989</ele>
        <time>2014-08-29T13:17:51Z</time>
      </trkpt>
      <trkpt lat="46.25362" lon="6.79167">
        <ele>1685.2246</ele>
        <time>2014-08-29T13:17:56Z</time>
      </trkpt>
      <trkpt lat="46.25359" lon="6.79167">
        <ele>1685.2246</ele>
        <time>2014-08-29T13:18:01Z</time>
      </trkpt>
      <trkpt lat="46.25356" lon="6.79169">
        <ele>1685.2246</ele>
        <time>2014-08-29T13:18:06Z</time>
      </trkpt>
      <trkpt lat="46.25351" lon="6.79174">
        <ele>1686.7532</ele>
        <time>2014-08-29T13:18:11Z</time>
      </trkpt>
      <trkpt lat="46.25351" lon="6.79172">
        <ele>1686.7532</ele>
        <time>2014-08-29T13:18:16Z</time>
      </trkpt>
      <trkpt lat="46.25351" lon="6.79172">
        <ele>1686.7532</ele>
        <time>2014-08-29T13:18:21Z</time>
      </trkpt>
      <trkpt lat="46.25353" lon="6.79173">
        <ele>1686.7532</ele>
        <time>2014-08-29T13:18:26Z</time>
      </trkpt>
      <trkpt lat="46.25354" lon="6.79175">
        <ele>1686.7532</ele>
        <time>2014-08-29T13:18:31Z</time>
      </trkpt>
      <trkpt lat="46.25355" lon="6.79176">
        <ele>1686.7532</ele>
        <time>2014-08-29T13:18:36Z</time>
      </trkpt>
      <trkpt lat="46.25354" lon="6.79175">
        <ele>1686.7532</ele>
        <time>2014-08-29T13:18:41Z</time>
      </trkpt>
      <trkpt lat="46.25353" lon="6.79175">
        <ele>1686.7532</ele>
        <time>2014-08-29T13:18:46Z</time>
      </trkpt>
      <trkpt lat="46.25353" lon="6.79175">
        <ele>1686.7532</ele>
        <time>2014-08-29T13:18:51Z</time>
      </trkpt>
      <trkpt lat="46.25353" lon="6.79176">
        <ele>1686.7532</ele>
        <time>2014-08-29T13:18:56Z</time>
      </trkpt>
      <trkpt lat="46.25353" lon="6.79176">
        <ele>1686.7532</ele>
        <time>2014-08-29T13:19:01Z</time>
      </trkpt>
      <trkpt lat="46.25353" lon="6.79175">
        <ele>1688.1943</ele>
        <time>2014-08-29T13:19:06Z</time>
      </trkpt>
      <trkpt lat="46.25349" lon="6.79171">
        <ele>1688.1943</ele>
        <time>2014-08-29T13:19:11Z</time>
      </trkpt>
      <trkpt lat="46.25348" lon="6.7917">
        <ele>1688.1943</ele>
        <time>2014-08-29T13:19:16Z</time>
      </trkpt>
      <trkpt lat="46.25347" lon="6.79171">
        <ele>1688.1943</ele>
        <time>2014-08-29T13:19:21Z</time>
      </trkpt>
      <trkpt lat="46.25341" lon="6.79175">
        <ele>1689.7656</ele>
        <time>2014-08-29T13:19:26Z</time>
      </trkpt>
      <trkpt lat="46.25337" lon="6.79177">
        <ele>1689.7656</ele>
        <time>2014-08-29T13:19:31Z</time>
      </trkpt>
      <trkpt lat="46.25334" lon="6.79179">
        <ele>1689.7656</ele>
        <time>2014-08-29T13:19:36Z</time>
      </trkpt>
      <trkpt lat="46.25333" lon="6.7918">
        <ele>1691.2937</ele>
        <time>2014-08-29T13:19:41Z</time>
      </trkpt>
      <trkpt lat="46.25333" lon="6.7918">
        <ele>1691.2937</ele>
        <time>2014-08-29T13:19:46Z</time>
      </trkpt>
      <trkpt lat="46.25332" lon="6.7918">
        <ele>1691.2937</ele>
        <time>2014-08-29T13:19:51Z</time>
      </trkpt>
      <trkpt lat="46.2533" lon="6.7918">
        <ele>1691.2937</ele>
        <time>2014-08-29T13:19:56Z</time>
      </trkpt>
      <trkpt lat="46.25326" lon="6.79176">
        <ele>1691.2937</ele>
        <time>2014-08-29T13:20:01Z</time>
      </trkpt>
      <trkpt lat="46.25323" lon="6.79175">
        <ele>1692.9357</ele>
        <time>2014-08-29T13:20:06Z</time>
      </trkpt>
      <trkpt lat="46.25321" lon="6.79174">
        <ele>1692.9357</ele>
        <time>2014-08-29T13:20:11Z</time>
      </trkpt>
      <trkpt lat="46.25318" lon="6.79173">
        <ele>1692.9357</ele>
        <time>2014-08-29T13:20:16Z</time>
      </trkpt>
      <trkpt lat="46.25317" lon="6.79172">
        <ele>1692.9357</ele>
        <time>2014-08-29T13:20:21Z</time>
      </trkpt>
      <trkpt lat="46.25315" lon="6.7917">
        <ele>1692.9357</ele>
        <time>2014-08-29T13:20:26Z</time>
      </trkpt>
      <trkpt lat="46.25313" lon="6.79169">
        <ele>1694.4045</ele>
        <time>2014-08-29T13:20:31Z</time>
      </trkpt>
      <trkpt lat="46.25312" lon="6.79168">
        <ele>1694.4045</ele>
        <time>2014-08-29T13:20:36Z</time>
      </trkpt>
      <trkpt lat="46.25312" lon="6.79168">
        <ele>1694.4045</ele>
        <time>2014-08-29T13:20:41Z</time>
      </trkpt>
      <trkpt lat="46.25312" lon="6.79167">
        <ele>1694.4045</ele>
        <time>2014-08-29T13:20:56Z</time>
      </trkpt>
      <trkpt lat="46.25312" lon="6.79167">
        <ele>1694.4045</ele>
        <time>2014-08-29T13:21:01Z</time>
      </trkpt>
      <trkpt lat="46.25311" lon="6.79167">
        <ele>1694.4045</ele>
        <time>2014-08-29T13:21:06Z</time>
      </trkpt>
      <trkpt lat="46.25311" lon="6.79167">
        <ele>1694.4045</ele>
        <time>2014-08-29T13:21:11Z</time>
      </trkpt>
      <trkpt lat="46.25305" lon="6.79163">
        <ele>1696.1559</ele>
        <time>2014-08-29T13:21:16Z</time>
      </trkpt>
      <trkpt lat="46.253" lon="6.7916">
        <ele>1696.1559</ele>
        <time>2014-08-29T13:21:21Z</time>
      </trkpt>
      <trkpt lat="46.25297" lon="6.79157">
        <ele>1697.8618</ele>
        <time>2014-08-29T13:21:26Z</time>
      </trkpt>
      <trkpt lat="46.25293" lon="6.79155">
        <ele>1697.8618</ele>
        <time>2014-08-29T13:21:31Z</time>
      </trkpt>
      <trkpt lat="46.2529" lon="6.79152">
        <ele>1697.8618</ele>
        <time>2014-08-29T13:21:36Z</time>
      </trkpt>
      <trkpt lat="46.25287" lon="6.79152">
        <ele>1699.5074</ele>
        <time>2014-08-29T13:21:41Z</time>
      </trkpt>
      <trkpt lat="46.25283" lon="6.79152">
        <ele>1699.5074</ele>
        <time>2014-08-29T13:21:46Z</time>
      </trkpt>
      <trkpt lat="46.2528" lon="6.79151">
        <ele>1699.5074</ele>
        <time>2014-08-29T13:21:51Z</time>
      </trkpt>
      <trkpt lat="46.25275" lon="6.7915">
        <ele>1700.906</ele>
        <time>2014-08-29T13:21:56Z</time>
      </trkpt>
      <trkpt lat="46.25271" lon="6.79151">
        <ele>1700.906</ele>
        <time>2014-08-29T13:22:01Z</time>
      </trkpt>
      <trkpt lat="46.25268" lon="6.79156">
        <ele>1702.2028</ele>
        <time>2014-08-29T13:22:06Z</time>
      </trkpt>
      <trkpt lat="46.25262" lon="6.79158">
        <ele>1702.2028</ele>
        <time>2014-08-29T13:22:11Z</time>
      </trkpt>
      <trkpt lat="46.25259" lon="6.79158">
        <ele>1702.2028</ele>
        <time>2014-08-29T13:22:16Z</time>
      </trkpt>
      <trkpt lat="46.25255" lon="6.79158">
        <ele>1703.504</ele>
        <time>2014-08-29T13:22:21Z</time>
      </trkpt>
      <trkpt lat="46.25252" lon="6.79156">
        <ele>1703.504</ele>
        <time>2014-08-29T13:22:26Z</time>
      </trkpt>
      <trkpt lat="46.25252" lon="6.79155">
        <ele>1703.504</ele>
        <time>2014-08-29T13:22:31Z</time>
      </trkpt>
      <trkpt lat="46.25252" lon="6.79154">
        <ele>1703.504</ele>
        <time>2014-08-29T13:22:36Z</time>
      </trkpt>
      <trkpt lat="46.2525" lon="6.79151">
        <ele>1703.504</ele>
        <time>2014-08-29T13:22:41Z</time>
      </trkpt>
      <trkpt lat="46.25249" lon="6.7915">
        <ele>1703.504</ele>
        <time>2014-08-29T13:22:46Z</time>
      </trkpt>
      <trkpt lat="46.25246" lon="6.79147">
        <ele>1704.5626</ele>
        <time>2014-08-29T13:22:51Z</time>
      </trkpt>
      <trkpt lat="46.25244" lon="6.79146">
        <ele>1704.5626</ele>
        <time>2014-08-29T13:22:56Z</time>
      </trkpt>
      <trkpt lat="46.2524" lon="6.79146">
        <ele>1704.5626</ele>
        <time>2014-08-29T13:23:01Z</time>
      </trkpt>
      <trkpt lat="46.25238" lon="6.79145">
        <ele>1704.5626</ele>
        <time>2014-08-29T13:23:06Z</time>
      </trkpt>
      <trkpt lat="46.25235" lon="6.79143">
        <ele>1705.6404</ele>
        <time>2014-08-29T13:23:11Z</time>
      </trkpt>
      <trkpt lat="46.25232" lon="6.79141">
        <ele>1705.6404</ele>
        <time>2014-08-29T13:23:16Z</time>
      </trkpt>
      <trkpt lat="46.25229" lon="6.7914">
        <ele>1705.6404</ele>
        <time>2014-08-29T13:23:21Z</time>
      </trkpt>
      <trkpt lat="46.25226" lon="6.79141">
        <ele>1705.6404</ele>
        <time>2014-08-29T13:23:26Z</time>
      </trkpt>
      <trkpt lat="46.25223" lon="6.79139">
        <ele>1706.7637</ele>
        <time>2014-08-29T13:23:31Z</time>
      </trkpt>
      <trkpt lat="46.25219" lon="6.79137">
        <ele>1706.7637</ele>
        <time>2014-08-29T13:23:36Z</time>
      </trkpt>
      <trkpt lat="46.25215" lon="6.79138">
        <ele>1706.7637</ele>
        <time>2014-08-29T13:23:41Z</time>
      </trkpt>
      <trkpt lat="46.25212" lon="6.79138">
        <ele>1707.9287</ele>
        <time>2014-08-29T13:23:46Z</time>
      </trkpt>
      <trkpt lat="46.25209" lon="6.79137">
        <ele>1707.9287</ele>
        <time>2014-08-29T13:23:51Z</time>
      </trkpt>
      <trkpt lat="46.25209" lon="6.79137">
        <ele>1707.9287</ele>
        <time>2014-08-29T13:23:56Z</time>
      </trkpt>
      <trkpt lat="46.25208" lon="6.79137">
        <ele>1707.9287</ele>
        <time>2014-08-29T13:24:01Z</time>
      </trkpt>
      <trkpt lat="46.25209" lon="6.79137">
        <ele>1707.9287</ele>
        <time>2014-08-29T13:24:06Z</time>
      </trkpt>
      <trkpt lat="46.25209" lon="6.79138">
        <ele>1707.9287</ele>
        <time>2014-08-29T13:24:11Z</time>
      </trkpt>
      <trkpt lat="46.25211" lon="6.79138">
        <ele>1707.9287</ele>
        <time>2014-08-29T13:24:16Z</time>
      </trkpt>
      <trkpt lat="46.25211" lon="6.79138">
        <ele>1707.9287</ele>
        <time>2014-08-29T13:24:21Z</time>
      </trkpt>
      <trkpt lat="46.2521" lon="6.7914">
        <ele>1707.9287</ele>
        <time>2014-08-29T13:24:26Z</time>
      </trkpt>
      <trkpt lat="46.25205" lon="6.79137">
        <ele>1709.3188</ele>
        <time>2014-08-29T13:24:31Z</time>
      </trkpt>
      <trkpt lat="46.25199" lon="6.79137">
        <ele>1709.3188</ele>
        <time>2014-08-29T13:24:36Z</time>
      </trkpt>
      <trkpt lat="46.25192" lon="6.79135">
        <ele>1710.9742</ele>
        <time>2014-08-29T13:24:41Z</time>
      </trkpt>
      <trkpt lat="46.25186" lon="6.79135">
        <ele>1710.9742</ele>
        <time>2014-08-29T13:24:46Z</time>
      </trkpt>
      <trkpt lat="46.25184" lon="6.79135">
        <ele>1710.9742</ele>
        <time>2014-08-29T13:24:51Z</time>
      </trkpt>
      <trkpt lat="46.25183" lon="6.79138">
        <ele>1712.6285</ele>
        <time>2014-08-29T13:24:56Z</time>
      </trkpt>
      <trkpt lat="46.25185" lon="6.79139">
        <ele>1712.6285</ele>
        <time>2014-08-29T13:25:01Z</time>
      </trkpt>
      <trkpt lat="46.25186" lon="6.7914">
        <ele>1712.6285</ele>
        <time>2014-08-29T13:25:06Z</time>
      </trkpt>
      <trkpt lat="46.25185" lon="6.79137">
        <ele>1712.6285</ele>
        <time>2014-08-29T13:25:11Z</time>
      </trkpt>
      <trkpt lat="46.25184" lon="6.79137">
        <ele>1712.6285</ele>
        <time>2014-08-29T13:25:16Z</time>
      </trkpt>
      <trkpt lat="46.25181" lon="6.79137">
        <ele>1712.6285</ele>
        <time>2014-08-29T13:25:21Z</time>
      </trkpt>
      <trkpt lat="46.25177" lon="6.79137">
        <ele>1714.5251</ele>
        <time>2014-08-29T13:25:26Z</time>
      </trkpt>
      <trkpt lat="46.25172" lon="6.79135">
        <ele>1714.5251</ele>
        <time>2014-08-29T13:25:31Z</time>
      </trkpt>
      <trkpt lat="46.25167" lon="6.7913">
        <ele>1716.1976</ele>
        <time>2014-08-29T13:25:36Z</time>
      </trkpt>
      <trkpt lat="46.25163" lon="6.79127">
        <ele>1716.1976</ele>
        <time>2014-08-29T13:25:41Z</time>
      </trkpt>
      <trkpt lat="46.25159" lon="6.79125">
        <ele>1716.1976</ele>
        <time>2014-08-29T13:25:46Z</time>
      </trkpt>
      <trkpt lat="46.25157" lon="6.79124">
        <ele>1717.834</ele>
        <time>2014-08-29T13:25:51Z</time>
      </trkpt>
      <trkpt lat="46.25154" lon="6.79121">
        <ele>1717.834</ele>
        <time>2014-08-29T13:25:56Z</time>
      </trkpt>
      <trkpt lat="46.25151" lon="6.79118">
        <ele>1717.834</ele>
        <time>2014-08-29T13:26:01Z</time>
      </trkpt>
      <trkpt lat="46.25147" lon="6.79115">
        <ele>1719.5222</ele>
        <time>2014-08-29T13:26:06Z</time>
      </trkpt>
      <trkpt lat="46.25145" lon="6.79111">
        <ele>1719.5222</ele>
        <time>2014-08-29T13:26:11Z</time>
      </trkpt>
      <trkpt lat="46.25145" lon="6.7911">
        <ele>1719.5222</ele>
        <time>2014-08-29T13:26:16Z</time>
      </trkpt>
      <trkpt lat="46.25142" lon="6.79109">
        <ele>1719.5222</ele>
        <time>2014-08-29T13:26:21Z</time>
      </trkpt>
      <trkpt lat="46.2514" lon="6.79108">
        <ele>1720.8683</ele>
        <time>2014-08-29T13:26:26Z</time>
      </trkpt>
      <trkpt lat="46.25139" lon="6.79107">
        <ele>1720.8683</ele>
        <time>2014-08-29T13:26:31Z</time>
      </trkpt>
      <trkpt lat="46.25137" lon="6.79108">
        <ele>1720.8683</ele>
        <time>2014-08-29T13:26:36Z</time>
      </trkpt>
      <trkpt lat="46.25133" lon="6.79106">
        <ele>1720.8683</ele>
        <time>2014-08-29T13:26:41Z</time>
      </trkpt>
      <trkpt lat="46.25131" lon="6.79104">
        <ele>1722.2432</ele>
        <time>2014-08-29T13:26:46Z</time>
      </trkpt>
      <trkpt lat="46.2513" lon="6.79102">
        <ele>1722.2432</ele>
        <time>2014-08-29T13:26:51Z</time>
      </trkpt>
      <trkpt lat="46.25128" lon="6.79101">
        <ele>1722.2432</ele>
        <time>2014-08-29T13:26:56Z</time>
      </trkpt>
      <trkpt lat="46.25126" lon="6.791">
        <ele>1722.2432</ele>
        <time>2014-08-29T13:27:01Z</time>
      </trkpt>
      <trkpt lat="46.25123" lon="6.79098">
        <ele>1722.2432</ele>
        <time>2014-08-29T13:27:06Z</time>
      </trkpt>
      <trkpt lat="46.25119" lon="6.79097">
        <ele>1723.5728</ele>
        <time>2014-08-29T13:27:11Z</time>
      </trkpt>
      <trkpt lat="46.25116" lon="6.79096">
        <ele>1723.5728</ele>
        <time>2014-08-29T13:27:16Z</time>
      </trkpt>
      <trkpt lat="46.25112" lon="6.79094">
        <ele>1723.5728</ele>
        <time>2014-08-29T13:27:21Z</time>
      </trkpt>
      <trkpt lat="46.25109" lon="6.79094">
        <ele>1724.7164</ele>
        <time>2014-08-29T13:27:26Z</time>
      </trkpt>
      <trkpt lat="46.25105" lon="6.79094">
        <ele>1724.7164</ele>
        <time>2014-08-29T13:27:31Z</time>
      </trkpt>
      <trkpt lat="46.25101" lon="6.79091">
        <ele>1724.7164</ele>
        <time>2014-08-29T13:27:36Z</time>
      </trkpt>
      <trkpt lat="46.25099" lon="6.7909">
        <ele>1725.7031</ele>
        <time>2014-08-29T13:27:41Z</time>
      </trkpt>
      <trkpt lat="46.25097" lon="6.7909">
        <ele>1725.7031</ele>
        <time>2014-08-29T13:27:46Z</time>
      </trkpt>
      <trkpt lat="46.25095" lon="6.79088">
        <ele>1725.7031</ele>
        <time>2014-08-29T13:27:51Z</time>
      </trkpt>
      <trkpt lat="46.25093" lon="6.79088">
        <ele>1725.7031</ele>
        <time>2014-08-29T13:27:56Z</time>
      </trkpt>
      <trkpt lat="46.25091" lon="6.79089">
        <ele>1726.661</ele>
        <time>2014-08-29T13:28:01Z</time>
      </trkpt>
      <trkpt lat="46.25087" lon="6.79086">
        <ele>1726.661</ele>
        <time>2014-08-29T13:28:06Z</time>
      </trkpt>
      <trkpt lat="46.25084" lon="6.79084">
        <ele>1726.661</ele>
        <time>2014-08-29T13:28:11Z</time>
      </trkpt>
      <trkpt lat="46.25083" lon="6.79083">
        <ele>1726.661</ele>
        <time>2014-08-29T13:28:16Z</time>
      </trkpt>
      <trkpt lat="46.2508" lon="6.79084">
        <ele>1727.6514</ele>
        <time>2014-08-29T13:28:21Z</time>
      </trkpt>
      <trkpt lat="46.25077" lon="6.79083">
        <ele>1727.6514</ele>
        <time>2014-08-29T13:28:26Z</time>
      </trkpt>
      <trkpt lat="46.25074" lon="6.79084">
        <ele>1727.6514</ele>
        <time>2014-08-29T13:28:31Z</time>
      </trkpt>
      <trkpt lat="46.25073" lon="6.79083">
        <ele>1727.6514</ele>
        <time>2014-08-29T13:28:36Z</time>
      </trkpt>
      <trkpt lat="46.25072" lon="6.79084">
        <ele>1727.6514</ele>
        <time>2014-08-29T13:28:41Z</time>
      </trkpt>
      <trkpt lat="46.25071" lon="6.7908">
        <ele>1728.8606</ele>
        <time>2014-08-29T13:28:46Z</time>
      </trkpt>
      <trkpt lat="46.2507" lon="6.79079">
        <ele>1728.8606</ele>
        <time>2014-08-29T13:28:51Z</time>
      </trkpt>
      <trkpt lat="46.25065" lon="6.79078">
        <ele>1728.8606</ele>
        <time>2014-08-29T13:28:56Z</time>
      </trkpt>
      <trkpt lat="46.25061" lon="6.79076">
        <ele>1730.0864</ele>
        <time>2014-08-29T13:29:01Z</time>
      </trkpt>
      <trkpt lat="46.25058" lon="6.79075">
        <ele>1730.0864</ele>
        <time>2014-08-29T13:29:06Z</time>
      </trkpt>
      <trkpt lat="46.25053" lon="6.79075">
        <ele>1730.0864</ele>
        <time>2014-08-29T13:29:11Z</time>
      </trkpt>
      <trkpt lat="46.25048" lon="6.79075">
        <ele>1731.4437</ele>
        <time>2014-08-29T13:29:16Z</time>
      </trkpt>
      <trkpt lat="46.25046" lon="6.79075">
        <ele>1731.4437</ele>
        <time>2014-08-29T13:29:21Z</time>
      </trkpt>
      <trkpt lat="46.25046" lon="6.79075">
        <ele>1731.4437</ele>
        <time>2014-08-29T13:29:26Z</time>
      </trkpt>
      <trkpt lat="46.25048" lon="6.79075">
        <ele>1731.4437</ele>
        <time>2014-08-29T13:29:31Z</time>
      </trkpt>
      <trkpt lat="46.25048" lon="6.79077">
        <ele>1731.4437</ele>
        <time>2014-08-29T13:29:36Z</time>
      </trkpt>
      <trkpt lat="46.25049" lon="6.79077">
        <ele>1731.4437</ele>
        <time>2014-08-29T13:29:41Z</time>
      </trkpt>
      <trkpt lat="46.25049" lon="6.79077">
        <ele>1731.4437</ele>
        <time>2014-08-29T13:29:46Z</time>
      </trkpt>
      <trkpt lat="46.25049" lon="6.79076">
        <ele>1731.4437</ele>
        <time>2014-08-29T13:29:51Z</time>
      </trkpt>
      <trkpt lat="46.25049" lon="6.79075">
        <ele>1731.4437</ele>
        <time>2014-08-29T13:29:56Z</time>
      </trkpt>
      <trkpt lat="46.2505" lon="6.79076">
        <ele>1731.4437</ele>
        <time>2014-08-29T13:30:01Z</time>
      </trkpt>
      <trkpt lat="46.2505" lon="6.79076">
        <ele>1731.4437</ele>
        <time>2014-08-29T13:30:06Z</time>
      </trkpt>
      <trkpt lat="46.25049" lon="6.79077">
        <ele>1732.8947</ele>
        <time>2014-08-29T13:30:11Z</time>
      </trkpt>
      <trkpt lat="46.25046" lon="6.79077">
        <ele>1732.8947</ele>
        <time>2014-08-29T13:30:16Z</time>
      </trkpt>
      <trkpt lat="46.25042" lon="6.79077">
        <ele>1732.8947</ele>
        <time>2014-08-29T13:30:21Z</time>
      </trkpt>
      <trkpt lat="46.2504" lon="6.79074">
        <ele>1734.3751</ele>
        <time>2014-08-29T13:30:26Z</time>
      </trkpt>
      <trkpt lat="46.25037" lon="6.79071">
        <ele>1734.3751</ele>
        <time>2014-08-29T13:30:31Z</time>
      </trkpt>
      <trkpt lat="46.25033" lon="6.7907">
        <ele>1734.3751</ele>
        <time>2014-08-29T13:30:36Z</time>
      </trkpt>
      <trkpt lat="46.2503" lon="6.79068">
        <ele>1735.8545</ele>
        <time>2014-08-29T13:30:41Z</time>
      </trkpt>
      <trkpt lat="46.25026" lon="6.79068">
        <ele>1735.8545</ele>
        <time>2014-08-29T13:30:46Z</time>
      </trkpt>
      <trkpt lat="46.25021" lon="6.79071">
        <ele>1737.3187</ele>
        <time>2014-08-29T13:30:51Z</time>
      </trkpt>
      <trkpt lat="46.25016" lon="6.79073">
        <ele>1737.3187</ele>
        <time>2014-08-29T13:30:56Z</time>
      </trkpt>
      <trkpt lat="46.25012" lon="6.79072">
        <ele>1738.6974</ele>
        <time>2014-08-29T13:31:01Z</time>
      </trkpt>
      <trkpt lat="46.25007" lon="6.79072">
        <ele>1738.6974</ele>
        <time>2014-08-29T13:31:06Z</time>
      </trkpt>
      <trkpt lat="46.25002" lon="6.79069">
        <ele>1739.9398</ele>
        <time>2014-08-29T13:31:11Z</time>
      </trkpt>
      <trkpt lat="46.25" lon="6.79068">
        <ele>1739.9398</ele>
        <time>2014-08-29T13:31:16Z</time>
      </trkpt>
      <trkpt lat="46.24998" lon="6.79065">
        <ele>1739.9398</ele>
        <time>2014-08-29T13:31:21Z</time>
      </trkpt>
      <trkpt lat="46.24996" lon="6.79063">
        <ele>1739.9398</ele>
        <time>2014-08-29T13:31:26Z</time>
      </trkpt>
      <trkpt lat="46.24993" lon="6.79061">
        <ele>1740.9851</ele>
        <time>2014-08-29T13:31:31Z</time>
      </trkpt>
      <trkpt lat="46.24989" lon="6.79058">
        <ele>1740.9851</ele>
        <time>2014-08-29T13:31:36Z</time>
      </trkpt>
      <trkpt lat="46.24986" lon="6.79055">
        <ele>1740.9851</ele>
        <time>2014-08-29T13:31:41Z</time>
      </trkpt>
      <trkpt lat="46.24983" lon="6.79055">
        <ele>1741.9502</ele>
        <time>2014-08-29T13:31:46Z</time>
      </trkpt>
      <trkpt lat="46.24981" lon="6.79054">
        <ele>1741.9502</ele>
        <time>2014-08-29T13:31:51Z</time>
      </trkpt>
      <trkpt lat="46.24978" lon="6.79051">
        <ele>1741.9502</ele>
        <time>2014-08-29T13:31:56Z</time>
      </trkpt>
      <trkpt lat="46.24975" lon="6.79049">
        <ele>1743.0592</ele>
        <time>2014-08-29T13:32:01Z</time>
      </trkpt>
      <trkpt lat="46.24971" lon="6.79047">
        <ele>1743.0592</ele>
        <time>2014-08-29T13:32:06Z</time>
      </trkpt>
      <trkpt lat="46.24968" lon="6.79045">
        <ele>1743.0592</ele>
        <time>2014-08-29T13:32:11Z</time>
      </trkpt>
      <trkpt lat="46.24965" lon="6.79044">
        <ele>1744.3606</ele>
        <time>2014-08-29T13:32:16Z</time>
      </trkpt>
      <trkpt lat="46.2496" lon="6.79045">
        <ele>1744.3606</ele>
        <time>2014-08-29T13:32:21Z</time>
      </trkpt>
      <trkpt lat="46.24957" lon="6.79045">
        <ele>1744.3606</ele>
        <time>2014-08-29T13:32:26Z</time>
      </trkpt>
      <trkpt lat="46.24954" lon="6.79045">
        <ele>1745.798</ele>
        <time>2014-08-29T13:32:31Z</time>
      </trkpt>
      <trkpt lat="46.24951" lon="6.79045">
        <ele>1745.798</ele>
        <time>2014-08-29T13:32:36Z</time>
      </trkpt>
      <trkpt lat="46.24948" lon="6.79046">
        <ele>1745.798</ele>
        <time>2014-08-29T13:32:41Z</time>
      </trkpt>
      <trkpt lat="46.24945" lon="6.79046">
        <ele>1747.261</ele>
        <time>2014-08-29T13:32:46Z</time>
      </trkpt>
      <trkpt lat="46.24942" lon="6.79045">
        <ele>1747.261</ele>
        <time>2014-08-29T13:32:51Z</time>
      </trkpt>
      <trkpt lat="46.24938" lon="6.79045">
        <ele>1747.261</ele>
        <time>2014-08-29T13:32:56Z</time>
      </trkpt>
      <trkpt lat="46.24935" lon="6.79045">
        <ele>1748.6332</ele>
        <time>2014-08-29T13:33:01Z</time>
      </trkpt>
      <trkpt lat="46.24932" lon="6.79044">
        <ele>1748.6332</ele>
        <time>2014-08-29T13:33:06Z</time>
      </trkpt>
      <trkpt lat="46.24929" lon="6.79044">
        <ele>1748.6332</ele>
        <time>2014-08-29T13:33:11Z</time>
      </trkpt>
      <trkpt lat="46.24925" lon="6.79044">
        <ele>1749.9073</ele>
        <time>2014-08-29T13:33:16Z</time>
      </trkpt>
      <trkpt lat="46.24921" lon="6.79044">
        <ele>1749.9073</ele>
        <time>2014-08-29T13:33:21Z</time>
      </trkpt>
      <trkpt lat="46.24917" lon="6.79042">
        <ele>1749.9073</ele>
        <time>2014-08-29T13:33:26Z</time>
      </trkpt>
      <trkpt lat="46.24914" lon="6.79039">
        <ele>1751.2646</ele>
        <time>2014-08-29T13:33:31Z</time>
      </trkpt>
      <trkpt lat="46.24912" lon="6.79037">
        <ele>1751.2646</ele>
        <time>2014-08-29T13:33:36Z</time>
      </trkpt>
      <trkpt lat="46.24909" lon="6.79037">
        <ele>1751.2646</ele>
        <time>2014-08-29T13:33:41Z</time>
      </trkpt>
      <trkpt lat="46.24907" lon="6.79034">
        <ele>1751.2646</ele>
        <time>2014-08-29T13:33:46Z</time>
      </trkpt>
      <trkpt lat="46.24906" lon="6.7903">
        <ele>1752.772</ele>
        <time>2014-08-29T13:33:51Z</time>
      </trkpt>
      <trkpt lat="46.24904" lon="6.79029">
        <ele>1752.772</ele>
        <time>2014-08-29T13:33:56Z</time>
      </trkpt>
      <trkpt lat="46.24901" lon="6.7903">
        <ele>1752.772</ele>
        <time>2014-08-29T13:34:01Z</time>
      </trkpt>
      <trkpt lat="46.24898" lon="6.79034">
        <ele>1754.4185</ele>
        <time>2014-08-29T13:34:06Z</time>
      </trkpt>
      <trkpt lat="46.24894" lon="6.79039">
        <ele>1754.4185</ele>
        <time>2014-08-29T13:34:11Z</time>
      </trkpt>
      <trkpt lat="46.24889" lon="6.79043">
        <ele>1756.165</ele>
        <time>2014-08-29T13:34:16Z</time>
      </trkpt>
      <trkpt lat="46.24888" lon="6.79044">
        <ele>1756.165</ele>
        <time>2014-08-29T13:34:21Z</time>
      </trkpt>
      <trkpt lat="46.24889" lon="6.79043">
        <ele>1756.165</ele>
        <time>2014-08-29T13:34:26Z</time>
      </trkpt>
      <trkpt lat="46.2489" lon="6.79042">
        <ele>1756.165</ele>
        <time>2014-08-29T13:34:31Z</time>
      </trkpt>
      <trkpt lat="46.2489" lon="6.79041">
        <ele>1756.165</ele>
        <time>2014-08-29T13:34:36Z</time>
      </trkpt>
      <trkpt lat="46.2489" lon="6.79041">
        <ele>1756.165</ele>
        <time>2014-08-29T13:34:41Z</time>
      </trkpt>
      <trkpt lat="46.2489" lon="6.7904">
        <ele>1756.165</ele>
        <time>2014-08-29T13:34:46Z</time>
      </trkpt>
      <trkpt lat="46.2489" lon="6.79041">
        <ele>1756.165</ele>
        <time>2014-08-29T13:34:51Z</time>
      </trkpt>
      <trkpt lat="46.2489" lon="6.79041">
        <ele>1756.165</ele>
        <time>2014-08-29T13:34:56Z</time>
      </trkpt>
      <trkpt lat="46.24891" lon="6.79041">
        <ele>1756.165</ele>
        <time>2014-08-29T13:35:01Z</time>
      </trkpt>
      <trkpt lat="46.24892" lon="6.79042">
        <ele>1756.165</ele>
        <time>2014-08-29T13:35:06Z</time>
      </trkpt>
      <trkpt lat="46.24893" lon="6.79041">
        <ele>1756.165</ele>
        <time>2014-08-29T13:35:11Z</time>
      </trkpt>
      <trkpt lat="46.24895" lon="6.79041">
        <ele>1757.8167</ele>
        <time>2014-08-29T13:35:16Z</time>
      </trkpt>
      <trkpt lat="46.24895" lon="6.79041">
        <ele>1757.8167</ele>
        <time>2014-08-29T13:35:21Z</time>
      </trkpt>
      <trkpt lat="46.24891" lon="6.7904">
        <ele>1757.8167</ele>
        <time>2014-08-29T13:35:26Z</time>
      </trkpt>
      <trkpt lat="46.24887" lon="6.7904">
        <ele>1757.8167</ele>
        <time>2014-08-29T13:35:31Z</time>
      </trkpt>
      <trkpt lat="46.24883" lon="6.79041">
        <ele>1759.3225</ele>
        <time>2014-08-29T13:35:36Z</time>
      </trkpt>
      <trkpt lat="46.24879" lon="6.79042">
        <ele>1759.3225</ele>
        <time>2014-08-29T13:35:41Z</time>
      </trkpt>
      <trkpt lat="46.24876" lon="6.79042">
        <ele>1759.3225</ele>
        <time>2014-08-29T13:35:46Z</time>
      </trkpt>
      <trkpt lat="46.24872" lon="6.79043">
        <ele>1760.7513</ele>
        <time>2014-08-29T13:35:51Z</time>
      </trkpt>
      <trkpt lat="46.24869" lon="6.79046">
        <ele>1760.7513</ele>
        <time>2014-08-29T13:35:56Z</time>
      </trkpt>
      <trkpt lat="46.24869" lon="6.79046">
        <ele>1760.7513</ele>
        <time>2014-08-29T13:36:01Z</time>
      </trkpt>
      <trkpt lat="46.24869" lon="6.79046">
        <ele>1760.7513</ele>
        <time>2014-08-29T13:36:06Z</time>
      </trkpt>
      <trkpt lat="46.2487" lon="6.79047">
        <ele>1760.7513</ele>
        <time>2014-08-29T13:36:11Z</time>
      </trkpt>
      <trkpt lat="46.24871" lon="6.79048">
        <ele>1760.7513</ele>
        <time>2014-08-29T13:36:16Z</time>
      </trkpt>
      <trkpt lat="46.24872" lon="6.7905">
        <ele>1762.1235</ele>
        <time>2014-08-29T13:36:21Z</time>
      </trkpt>
      <trkpt lat="46.24872" lon="6.79051">
        <ele>1762.1235</ele>
        <time>2014-08-29T13:36:26Z</time>
      </trkpt>
      <trkpt lat="46.24873" lon="6.79051">
        <ele>1762.1235</ele>
        <time>2014-08-29T13:36:31Z</time>
      </trkpt>
      <trkpt lat="46.24873" lon="6.79051">
        <ele>1762.1235</ele>
        <time>2014-08-29T13:36:36Z</time>
      </trkpt>
      <trkpt lat="46.24874" lon="6.79051">
        <ele>1762.1235</ele>
        <time>2014-08-29T13:36:41Z</time>
      </trkpt>
      <trkpt lat="46.24875" lon="6.7905">
        <ele>1762.1235</ele>
        <time>2014-08-29T13:36:46Z</time>
      </trkpt>
      <trkpt lat="46.24875" lon="6.79049">
        <ele>1762.1235</ele>
        <time>2014-08-29T13:36:51Z</time>
      </trkpt>
      <trkpt lat="46.24875" lon="6.79048">
        <ele>1762.1235</ele>
        <time>2014-08-29T13:36:56Z</time>
      </trkpt>
      <trkpt lat="46.24874" lon="6.79047">
        <ele>1762.1235</ele>
        <time>2014-08-29T13:37:01Z</time>
      </trkpt>
      <trkpt lat="46.24873" lon="6.79045">
        <ele>1762.1235</ele>
        <time>2014-08-29T13:37:06Z</time>
      </trkpt>
      <trkpt lat="46.24873" lon="6.79045">
        <ele>1762.1235</ele>
        <time>2014-08-29T13:37:11Z</time>
      </trkpt>
      <trkpt lat="46.24868" lon="6.79046">
        <ele>1763.6458</ele>
        <time>2014-08-29T13:37:31Z</time>
      </trkpt>
      <trkpt lat="46.24862" lon="6.79047">
        <ele>1763.6458</ele>
        <time>2014-08-29T13:37:36Z</time>
      </trkpt>
      <trkpt lat="46.24859" lon="6.79048">
        <ele>1765.1631</ele>
        <time>2014-08-29T13:37:41Z</time>
      </trkpt>
      <trkpt lat="46.24859" lon="6.79049">
        <ele>1765.1631</ele>
        <time>2014-08-29T13:37:46Z</time>
      </trkpt>
      <trkpt lat="46.24859" lon="6.79051">
        <ele>1765.1631</ele>
        <time>2014-08-29T13:37:51Z</time>
      </trkpt>
      <trkpt lat="46.24859" lon="6.79052">
        <ele>1765.1631</ele>
        <time>2014-08-29T13:37:56Z</time>
      </trkpt>
      <trkpt lat="46.2486" lon="6.79052">
        <ele>1765.1631</ele>
        <time>2014-08-29T13:38:01Z</time>
      </trkpt>
      <trkpt lat="46.24858" lon="6.79051">
        <ele>1765.1631</ele>
        <time>2014-08-29T13:38:06Z</time>
      </trkpt>
      <trkpt lat="46.24855" lon="6.79052">
        <ele>1765.1631</ele>
        <time>2014-08-29T13:38:11Z</time>
      </trkpt>
      <trkpt lat="46.24854" lon="6.79048">
        <ele>1766.6906</ele>
        <time>2014-08-29T13:38:16Z</time>
      </trkpt>
      <trkpt lat="46.24852" lon="6.79046">
        <ele>1766.6906</ele>
        <time>2014-08-29T13:38:21Z</time>
      </trkpt>
      <trkpt lat="46.24848" lon="6.79043">
        <ele>1766.6906</ele>
        <time>2014-08-29T13:38:26Z</time>
      </trkpt>
      <trkpt lat="46.24844" lon="6.79039">
        <ele>1768.0114</ele>
        <time>2014-08-29T13:38:31Z</time>
      </trkpt>
      <trkpt lat="46.24841" lon="6.79034">
        <ele>1768.0114</ele>
        <time>2014-08-29T13:38:36Z</time>
      </trkpt>
      <trkpt lat="46.2484" lon="6.7903">
        <ele>1768.0114</ele>
        <time>2014-08-29T13:38:41Z</time>
      </trkpt>
      <trkpt lat="46.24837" lon="6.79028">
        <ele>1769.1991</ele>
        <time>2014-08-29T13:38:46Z</time>
      </trkpt>
      <trkpt lat="46.24835" lon="6.79023">
        <ele>1769.1991</ele>
        <time>2014-08-29T13:38:51Z</time>
      </trkpt>
      <trkpt lat="46.24831" lon="6.7902">
        <ele>1769.1991</ele>
        <time>2014-08-29T13:38:56Z</time>
      </trkpt>
      <trkpt lat="46.24829" lon="6.79016">
        <ele>1770.3799</ele>
        <time>2014-08-29T13:39:01Z</time>
      </trkpt>
      <trkpt lat="46.24826" lon="6.79013">
        <ele>1770.3799</ele>
        <time>2014-08-29T13:39:06Z</time>
      </trkpt>
      <trkpt lat="46.24823" lon="6.7901">
        <ele>1770.3799</ele>
        <time>2014-08-29T13:39:11Z</time>
      </trkpt>
      <trkpt lat="46.24819" lon="6.79011">
        <ele>1771.5842</ele>
        <time>2014-08-29T13:39:16Z</time>
      </trkpt>
      <trkpt lat="46.24817" lon="6.79009">
        <ele>1771.5842</ele>
        <time>2014-08-29T13:39:21Z</time>
      </trkpt>
      <trkpt lat="46.24813" lon="6.79005">
        <ele>1771.5842</ele>
        <time>2014-08-29T13:39:26Z</time>
      </trkpt>
      <trkpt lat="46.24811" lon="6.79">
        <ele>1772.9266</ele>
        <time>2014-08-29T13:39:31Z</time>
      </trkpt>
      <trkpt lat="46.24809" lon="6.78998">
        <ele>1772.9266</ele>
        <time>2014-08-29T13:39:36Z</time>
      </trkpt>
      <trkpt lat="46.24807" lon="6.78994">
        <ele>1772.9266</ele>
        <time>2014-08-29T13:39:41Z</time>
      </trkpt>
      <trkpt lat="46.24803" lon="6.7899">
        <ele>1774.2391</ele>
        <time>2014-08-29T13:39:46Z</time>
      </trkpt>
      <trkpt lat="46.24798" lon="6.78985">
        <ele>1774.2391</ele>
        <time>2014-08-29T13:39:51Z</time>
      </trkpt>
      <trkpt lat="46.24795" lon="6.78984">
        <ele>1775.5967</ele>
        <time>2014-08-29T13:39:56Z</time>
      </trkpt>
      <trkpt lat="46.24793" lon="6.78981">
        <ele>1775.5967</ele>
        <time>2014-08-29T13:40:01Z</time>
      </trkpt>
      <trkpt lat="46.24794" lon="6.78981">
        <ele>1775.5967</ele>
        <time>2014-08-29T13:40:06Z</time>
      </trkpt>
      <trkpt lat="46.24794" lon="6.78983">
        <ele>1775.5967</ele>
        <time>2014-08-29T13:40:11Z</time>
      </trkpt>
      <trkpt lat="46.24794" lon="6.78985">
        <ele>1775.5967</ele>
        <time>2014-08-29T13:40:16Z</time>
      </trkpt>
      <trkpt lat="46.24794" lon="6.78988">
        <ele>1775.5967</ele>
        <time>2014-08-29T13:40:21Z</time>
      </trkpt>
      <trkpt lat="46.24794" lon="6.78988">
        <ele>1775.5967</ele>
        <time>2014-08-29T13:40:26Z</time>
      </trkpt>
      <trkpt lat="46.24794" lon="6.78988">
        <ele>1775.5967</ele>
        <time>2014-08-29T13:40:31Z</time>
      </trkpt>
      <trkpt lat="46.24794" lon="6.78988">
        <ele>1775.5967</ele>
        <time>2014-08-29T13:40:36Z</time>
      </trkpt>
      <trkpt lat="46.24795" lon="6.78987">
        <ele>1777.2703</ele>
        <time>2014-08-29T13:40:41Z</time>
      </trkpt>
      <trkpt lat="46.24798" lon="6.78988">
        <ele>1777.2703</ele>
        <time>2014-08-29T13:40:46Z</time>
      </trkpt>
      <trkpt lat="46.248" lon="6.78984">
        <ele>1777.2703</ele>
        <time>2014-08-29T13:40:51Z</time>
      </trkpt>
      <trkpt lat="46.24802" lon="6.78986">
        <ele>1778.9337</ele>
        <time>2014-08-29T13:40:56Z</time>
      </trkpt>
      <trkpt lat="46.24805" lon="6.78987">
        <ele>1778.9337</ele>
        <time>2014-08-29T13:41:01Z</time>
      </trkpt>
      <trkpt lat="46.24809" lon="6.7899">
        <ele>1778.9337</ele>
        <time>2014-08-29T13:41:06Z</time>
      </trkpt>
      <trkpt lat="46.24813" lon="6.78992">
        <ele>1780.5874</ele>
        <time>2014-08-29T13:41:11Z</time>
      </trkpt>
      <trkpt lat="46.24816" lon="6.78993">
        <ele>1780.5874</ele>
        <time>2014-08-29T13:41:16Z</time>
      </trkpt>
      <trkpt lat="46.2482" lon="6.78994">
        <ele>1780.5874</ele>
        <time>2014-08-29T13:41:21Z</time>
      </trkpt>
      <trkpt lat="46.24822" lon="6.78995">
        <ele>1782.2461</ele>
        <time>2014-08-29T13:41:26Z</time>
      </trkpt>
      <trkpt lat="46.24825" lon="6.78994">
        <ele>1782.2461</ele>
        <time>2014-08-29T13:41:31Z</time>
      </trkpt>
      <trkpt lat="46.24829" lon="6.78995">
        <ele>1782.2461</ele>
        <time>2014-08-29T13:41:36Z</time>
      </trkpt>
      <trkpt lat="46.24832" lon="6.78996">
        <ele>1783.9235</ele>
        <time>2014-08-29T13:41:41Z</time>
      </trkpt>
      <trkpt lat="46.24835" lon="6.78995">
        <ele>1783.9235</ele>
        <time>2014-08-29T13:41:46Z</time>
      </trkpt>
      <trkpt lat="46.24837" lon="6.78996">
        <ele>1783.9235</ele>
        <time>2014-08-29T13:41:51Z</time>
      </trkpt>
      <trkpt lat="46.24841" lon="6.78995">
        <ele>1783.9235</ele>
        <time>2014-08-29T13:41:56Z</time>
      </trkpt>
      <trkpt lat="46.24842" lon="6.78995">
        <ele>1785.7618</ele>
        <time>2014-08-29T13:42:01Z</time>
      </trkpt>
      <trkpt lat="46.24842" lon="6.78997">
        <ele>1785.7618</ele>
        <time>2014-08-29T13:42:06Z</time>
      </trkpt>
      <trkpt lat="46.24843" lon="6.78997">
        <ele>1785.7618</ele>
        <time>2014-08-29T13:42:11Z</time>
      </trkpt>
      <trkpt lat="46.24844" lon="6.78997">
        <ele>1785.7618</ele>
        <time>2014-08-29T13:42:16Z</time>
      </trkpt>
      <trkpt lat="46.24845" lon="6.78996">
        <ele>1785.7618</ele>
        <time>2014-08-29T13:42:21Z</time>
      </trkpt>
      <trkpt lat="46.24846" lon="6.78989">
        <ele>1785.7618</ele>
        <time>2014-08-29T13:42:26Z</time>
      </trkpt>
      <trkpt lat="46.24844" lon="6.78988">
        <ele>1787.5469</ele>
        <time>2014-08-29T13:42:31Z</time>
      </trkpt>
      <trkpt lat="46.24842" lon="6.78985">
        <ele>1787.5469</ele>
        <time>2014-08-29T13:42:36Z</time>
      </trkpt>
      <trkpt lat="46.24838" lon="6.78984">
        <ele>1787.5469</ele>
        <time>2014-08-29T13:42:41Z</time>
      </trkpt>
      <trkpt lat="46.24834" lon="6.78981">
        <ele>1789.0221</ele>
        <time>2014-08-29T13:42:46Z</time>
      </trkpt>
      <trkpt lat="46.24829" lon="6.78977">
        <ele>1789.0221</ele>
        <time>2014-08-29T13:42:51Z</time>
      </trkpt>
      <trkpt lat="46.24827" lon="6.78975">
        <ele>1789.0221</ele>
        <time>2014-08-29T13:42:56Z</time>
      </trkpt>
      <trkpt lat="46.24826" lon="6.78972">
        <ele>1790.4412</ele>
        <time>2014-08-29T13:43:01Z</time>
      </trkpt>
      <trkpt lat="46.24827" lon="6.78967">
        <ele>1790.4412</ele>
        <time>2014-08-29T13:43:06Z</time>
      </trkpt>
      <trkpt lat="46.24827" lon="6.78962">
        <ele>1790.4412</ele>
        <time>2014-08-29T13:43:11Z</time>
      </trkpt>
      <trkpt lat="46.24827" lon="6.78959">
        <ele>1791.7363</ele>
        <time>2014-08-29T13:43:16Z</time>
      </trkpt>
      <trkpt lat="46.24826" lon="6.78957">
        <ele>1791.7363</ele>
        <time>2014-08-29T13:43:21Z</time>
      </trkpt>
      <trkpt lat="46.24823" lon="6.78953">
        <ele>1791.7363</ele>
        <time>2014-08-29T13:43:26Z</time>
      </trkpt>
      <trkpt lat="46.24816" lon="6.78948">
        <ele>1793.0902</ele>
        <time>2014-08-29T13:43:31Z</time>
      </trkpt>
      <trkpt lat="46.24815" lon="6.78947">
        <ele>1793.0902</ele>
        <time>2014-08-29T13:43:36Z</time>
      </trkpt>
      <trkpt lat="46.24813" lon="6.78945">
        <ele>1793.0902</ele>
        <time>2014-08-29T13:43:41Z</time>
      </trkpt>
      <trkpt lat="46.2481" lon="6.78942">
        <ele>1793.0902</ele>
        <time>2014-08-29T13:43:46Z</time>
      </trkpt>
      <trkpt lat="46.24807" lon="6.78941">
        <ele>1794.5568</ele>
        <time>2014-08-29T13:43:51Z</time>
      </trkpt>
      <trkpt lat="46.24806" lon="6.78939">
        <ele>1794.5568</ele>
        <time>2014-08-29T13:43:56Z</time>
      </trkpt>
      <trkpt lat="46.24804" lon="6.78938">
        <ele>1794.5568</ele>
        <time>2014-08-29T13:44:01Z</time>
      </trkpt>
      <trkpt lat="46.24801" lon="6.78933">
        <ele>1794.5568</ele>
        <time>2014-08-29T13:44:06Z</time>
      </trkpt>
      <trkpt lat="46.24798" lon="6.7893">
        <ele>1796.0555</ele>
        <time>2014-08-29T13:44:11Z</time>
      </trkpt>
      <trkpt lat="46.24795" lon="6.78926">
        <ele>1796.0555</ele>
        <time>2014-08-29T13:44:16Z</time>
      </trkpt>
      <trkpt lat="46.24794" lon="6.78923">
        <ele>1796.0555</ele>
        <time>2014-08-29T13:44:21Z</time>
      </trkpt>
      <trkpt lat="46.24793" lon="6.78922">
        <ele>1796.0555</ele>
        <time>2014-08-29T13:44:26Z</time>
      </trkpt>
      <trkpt lat="46.24789" lon="6.78918">
        <ele>1797.7717</ele>
        <time>2014-08-29T13:44:31Z</time>
      </trkpt>
      <trkpt lat="46.24783" lon="6.78911">
        <ele>1797.7717</ele>
        <time>2014-08-29T13:44:36Z</time>
      </trkpt>
      <trkpt lat="46.24781" lon="6.78908">
        <ele>1799.4581</ele>
        <time>2014-08-29T13:44:41Z</time>
      </trkpt>
      <trkpt lat="46.24778" lon="6.78905">
        <ele>1799.4581</ele>
        <time>2014-08-29T13:44:46Z</time>
      </trkpt>
      <trkpt lat="46.24776" lon="6.78903">
        <ele>1799.4581</ele>
        <time>2014-08-29T13:44:51Z</time>
      </trkpt>
      <trkpt lat="46.24776" lon="6.78905">
        <ele>1799.4581</ele>
        <time>2014-08-29T13:44:56Z</time>
      </trkpt>
      <trkpt lat="46.24776" lon="6.78906">
        <ele>1799.4581</ele>
        <time>2014-08-29T13:45:01Z</time>
      </trkpt>
      <trkpt lat="46.24777" lon="6.78906">
        <ele>1799.4581</ele>
        <time>2014-08-29T13:45:06Z</time>
      </trkpt>
      <trkpt lat="46.24777" lon="6.78906">
        <ele>1799.4581</ele>
        <time>2014-08-29T13:45:11Z</time>
      </trkpt>
      <trkpt lat="46.24778" lon="6.78905">
        <ele>1801.5776</ele>
        <time>2014-08-29T13:45:16Z</time>
      </trkpt>
      <trkpt lat="46.24782" lon="6.78903">
        <ele>1801.5776</ele>
        <time>2014-08-29T13:45:21Z</time>
      </trkpt>
      <trkpt lat="46.24786" lon="6.78903">
        <ele>1801.5776</ele>
        <time>2014-08-29T13:45:26Z</time>
      </trkpt>
      <trkpt lat="46.2479" lon="6.78906">
        <ele>1803.8083</ele>
        <time>2014-08-29T13:45:31Z</time>
      </trkpt>
      <trkpt lat="46.24793" lon="6.78911">
        <ele>1803.8083</ele>
        <time>2014-08-29T13:45:36Z</time>
      </trkpt>
      <trkpt lat="46.24794" lon="6.78915">
        <ele>1803.8083</ele>
        <time>2014-08-29T13:45:41Z</time>
      </trkpt>
      <trkpt lat="46.24795" lon="6.78919">
        <ele>1805.8232</ele>
        <time>2014-08-29T13:45:46Z</time>
      </trkpt>
      <trkpt lat="46.24798" lon="6.78922">
        <ele>1805.8232</ele>
        <time>2014-08-29T13:45:51Z</time>
      </trkpt>
      <trkpt lat="46.24801" lon="6.78923">
        <ele>1805.8232</ele>
        <time>2014-08-29T13:45:56Z</time>
      </trkpt>
      <trkpt lat="46.24805" lon="6.78925">
        <ele>1807.8816</ele>
        <time>2014-08-29T13:46:01Z</time>
      </trkpt>
      <trkpt lat="46.24808" lon="6.78925">
        <ele>1807.8816</ele>
        <time>2014-08-29T13:46:06Z</time>
      </trkpt>
      <trkpt lat="46.2481" lon="6.78926">
        <ele>1807.8816</ele>
        <time>2014-08-29T13:46:11Z</time>
      </trkpt>
      <trkpt lat="46.24813" lon="6.78927">
        <ele>1807.8816</ele>
        <time>2014-08-29T13:46:16Z</time>
      </trkpt>
      <trkpt lat="46.24815" lon="6.78927">
        <ele>1810.2094</ele>
        <time>2014-08-29T13:46:21Z</time>
      </trkpt>
      <trkpt lat="46.2482" lon="6.78928">
        <ele>1810.2094</ele>
        <time>2014-08-29T13:46:26Z</time>
      </trkpt>
      <trkpt lat="46.24825" lon="6.7893">
        <ele>1812.4674</ele>
        <time>2014-08-29T13:46:31Z</time>
      </trkpt>
      <trkpt lat="46.2483" lon="6.78933">
        <ele>1812.4674</ele>
        <time>2014-08-29T13:46:36Z</time>
      </trkpt>
      <trkpt lat="46.24832" lon="6.78935">
        <ele>1812.4674</ele>
        <time>2014-08-29T13:46:41Z</time>
      </trkpt>
      <trkpt lat="46.24834" lon="6.78937">
        <ele>1814.8605</ele>
        <time>2014-08-29T13:46:46Z</time>
      </trkpt>
      <trkpt lat="46.24836" lon="6.7894">
        <ele>1814.8605</ele>
        <time>2014-08-29T13:46:51Z</time>
      </trkpt>
      <trkpt lat="46.24838" lon="6.78941">
        <ele>1814.8605</ele>
        <time>2014-08-29T13:46:56Z</time>
      </trkpt>
      <trkpt lat="46.24839" lon="6.7894">
        <ele>1814.8605</ele>
        <time>2014-08-29T13:47:01Z</time>
      </trkpt>
      <trkpt lat="46.2484" lon="6.78939">
        <ele>1814.8605</ele>
        <time>2014-08-29T13:47:06Z</time>
      </trkpt>
      <trkpt lat="46.2484" lon="6.78937">
        <ele>1817.3044</ele>
        <time>2014-08-29T13:47:11Z</time>
      </trkpt>
      <trkpt lat="46.2484" lon="6.78937">
        <ele>1817.3044</ele>
        <time>2014-08-29T13:47:16Z</time>
      </trkpt>
      <trkpt lat="46.24841" lon="6.78937">
        <ele>1817.3044</ele>
        <time>2014-08-29T13:47:21Z</time>
      </trkpt>
      <trkpt lat="46.24842" lon="6.78936">
        <ele>1817.3044</ele>
        <time>2014-08-29T13:47:26Z</time>
      </trkpt>
      <trkpt lat="46.24843" lon="6.78936">
        <ele>1817.3044</ele>
        <time>2014-08-29T13:47:31Z</time>
      </trkpt>
      <trkpt lat="46.24846" lon="6.78934">
        <ele>1817.3044</ele>
        <time>2014-08-29T13:47:36Z</time>
      </trkpt>
      <trkpt lat="46.24846" lon="6.78933">
        <ele>1817.3044</ele>
        <time>2014-08-29T13:47:41Z</time>
      </trkpt>
      <trkpt lat="46.24847" lon="6.7893">
        <ele>1819.4758</ele>
        <time>2014-08-29T13:47:46Z</time>
      </trkpt>
      <trkpt lat="46.24848" lon="6.78929">
        <ele>1819.4758</ele>
        <time>2014-08-29T13:47:51Z</time>
      </trkpt>
      <trkpt lat="46.24848" lon="6.78929">
        <ele>1819.4758</ele>
        <time>2014-08-29T13:47:56Z</time>
      </trkpt>
      <trkpt lat="46.24847" lon="6.78929">
        <ele>1819.4758</ele>
        <time>2014-08-29T13:49:41Z</time>
      </trkpt>
      <trkpt lat="46.24847" lon="6.78929">
        <ele>1819.4758</ele>
        <time>2014-08-29T13:49:46Z</time>
      </trkpt>
      <trkpt lat="46.24846" lon="6.78931">
        <ele>1819.4758</ele>
        <time>2014-08-29T13:51:31Z</time>
      </trkpt>
      <trkpt lat="46.24845" lon="6.78931">
        <ele>1819.4758</ele>
        <time>2014-08-29T13:51:36Z</time>
      </trkpt>
      <trkpt lat="46.24845" lon="6.78931">
        <ele>1819.4758</ele>
        <time>2014-08-29T13:51:41Z</time>
      </trkpt>
      <trkpt lat="46.24844" lon="6.78929">
        <ele>1819.4758</ele>
        <time>2014-08-29T13:51:46Z</time>
      </trkpt>
      <trkpt lat="46.24844" lon="6.78924">
        <ele>1821.2345</ele>
        <time>2014-08-29T13:51:51Z</time>
      </trkpt>
      <trkpt lat="46.24843" lon="6.7892">
        <ele>1821.2345</ele>
        <time>2014-08-29T13:51:56Z</time>
      </trkpt>
      <trkpt lat="46.2484" lon="6.78918">
        <ele>1821.2345</ele>
        <time>2014-08-29T13:52:01Z</time>
      </trkpt>
      <trkpt lat="46.24836" lon="6.78916">
        <ele>1822.6534</ele>
        <time>2014-08-29T13:52:06Z</time>
      </trkpt>
      <trkpt lat="46.24829" lon="6.78912">
        <ele>1822.6534</ele>
        <time>2014-08-29T13:52:11Z</time>
      </trkpt>
      <trkpt lat="46.24825" lon="6.7891">
        <ele>1823.888</ele>
        <time>2014-08-29T13:52:16Z</time>
      </trkpt>
      <trkpt lat="46.24822" lon="6.78907">
        <ele>1823.888</ele>
        <time>2014-08-29T13:52:21Z</time>
      </trkpt>
      <trkpt lat="46.24819" lon="6.78905">
        <ele>1823.888</ele>
        <time>2014-08-29T13:52:26Z</time>
      </trkpt>
      <trkpt lat="46.24817" lon="6.78902">
        <ele>1825.0532</ele>
        <time>2014-08-29T13:52:31Z</time>
      </trkpt>
      <trkpt lat="46.24813" lon="6.78899">
        <ele>1825.0532</ele>
        <time>2014-08-29T13:52:36Z</time>
      </trkpt>
      <trkpt lat="46.24811" lon="6.78893">
        <ele>1825.0532</ele>
        <time>2014-08-29T13:52:41Z</time>
      </trkpt>
      <trkpt lat="46.2481" lon="6.78892">
        <ele>1826.4009</ele>
        <time>2014-08-29T13:52:46Z</time>
      </trkpt>
      <trkpt lat="46.24806" lon="6.78888">
        <ele>1826.4009</ele>
        <time>2014-08-29T13:52:51Z</time>
      </trkpt>
      <trkpt lat="46.24802" lon="6.78883">
        <ele>1827.846</ele>
        <time>2014-08-29T13:52:56Z</time>
      </trkpt>
      <trkpt lat="46.24799" lon="6.78883">
        <ele>1827.846</ele>
        <time>2014-08-29T13:53:01Z</time>
      </trkpt>
      <trkpt lat="46.24797" lon="6.78877">
        <ele>1827.846</ele>
        <time>2014-08-29T13:53:06Z</time>
      </trkpt>
      <trkpt lat="46.24793" lon="6.78874">
        <ele>1829.6127</ele>
        <time>2014-08-29T13:53:11Z</time>
      </trkpt>
      <trkpt lat="46.24791" lon="6.7887">
        <ele>1829.6127</ele>
        <time>2014-08-29T13:53:16Z</time>
      </trkpt>
      <trkpt lat="46.24789" lon="6.78864">
        <ele>1829.6127</ele>
        <time>2014-08-29T13:53:21Z</time>
      </trkpt>
      <trkpt lat="46.24787" lon="6.78861">
        <ele>1831.5758</ele>
        <time>2014-08-29T13:53:26Z</time>
      </trkpt>
      <trkpt lat="46.24786" lon="6.78858">
        <ele>1831.5758</ele>
        <time>2014-08-29T13:53:31Z</time>
      </trkpt>
      <trkpt lat="46.24785" lon="6.78857">
        <ele>1831.5758</ele>
        <time>2014-08-29T13:53:36Z</time>
      </trkpt>
      <trkpt lat="46.24783" lon="6.78855">
        <ele>1831.5758</ele>
        <time>2014-08-29T13:53:41Z</time>
      </trkpt>
      <trkpt lat="46.24782" lon="6.78852">
        <ele>1831.5758</ele>
        <time>2014-08-29T13:53:46Z</time>
      </trkpt>
      <trkpt lat="46.24782" lon="6.78847">
        <ele>1833.778</ele>
        <time>2014-08-29T13:53:51Z</time>
      </trkpt>
      <trkpt lat="46.24779" lon="6.78844">
        <ele>1833.778</ele>
        <time>2014-08-29T13:53:56Z</time>
      </trkpt>
      <trkpt lat="46.24777" lon="6.78843">
        <ele>1833.778</ele>
        <time>2014-08-29T13:54:01Z</time>
      </trkpt>
      <trkpt lat="46.24774" lon="6.78843">
        <ele>1835.8108</ele>
        <time>2014-08-29T13:54:06Z</time>
      </trkpt>
      <trkpt lat="46.24771" lon="6.78843">
        <ele>1835.8108</ele>
        <time>2014-08-29T13:54:11Z</time>
      </trkpt>
      <trkpt lat="46.2477" lon="6.78838">
        <ele>1835.8108</ele>
        <time>2014-08-29T13:54:16Z</time>
      </trkpt>
      <trkpt lat="46.24766" lon="6.78833">
        <ele>1837.6714</ele>
        <time>2014-08-29T13:54:21Z</time>
      </trkpt>
      <trkpt lat="46.24765" lon="6.7883">
        <ele>1837.6714</ele>
        <time>2014-08-29T13:54:26Z</time>
      </trkpt>
      <trkpt lat="46.24763" lon="6.78827">
        <ele>1837.6714</ele>
        <time>2014-08-29T13:54:31Z</time>
      </trkpt>
      <trkpt lat="46.24761" lon="6.78825">
        <ele>1837.6714</ele>
        <time>2014-08-29T13:54:36Z</time>
      </trkpt>
      <trkpt lat="46.24759" lon="6.78821">
        <ele>1839.5734</ele>
        <time>2014-08-29T13:54:41Z</time>
      </trkpt>
      <trkpt lat="46.24757" lon="6.78815">
        <ele>1839.5734</ele>
        <time>2014-08-29T13:54:46Z</time>
      </trkpt>
      <trkpt lat="46.24755" lon="6.78807">
        <ele>1841.5131</ele>
        <time>2014-08-29T13:54:51Z</time>
      </trkpt>
      <trkpt lat="46.24754" lon="6.78803">
        <ele>1841.5131</ele>
        <time>2014-08-29T13:54:56Z</time>
      </trkpt>
      <trkpt lat="46.24754" lon="6.78802">
        <ele>1841.5131</ele>
        <time>2014-08-29T13:55:01Z</time>
      </trkpt>
      <trkpt lat="46.24754" lon="6.78798">
        <ele>1841.5131</ele>
        <time>2014-08-29T13:55:06Z</time>
      </trkpt>
      <trkpt lat="46.24753" lon="6.78797">
        <ele>1841.5131</ele>
        <time>2014-08-29T13:55:11Z</time>
      </trkpt>
      <trkpt lat="46.24752" lon="6.78796">
        <ele>1843.5448</ele>
        <time>2014-08-29T13:55:16Z</time>
      </trkpt>
      <trkpt lat="46.24752" lon="6.78795">
        <ele>1843.5448</ele>
        <time>2014-08-29T13:55:21Z</time>
      </trkpt>
      <trkpt lat="46.2475" lon="6.78792">
        <ele>1843.5448</ele>
        <time>2014-08-29T13:55:26Z</time>
      </trkpt>
      <trkpt lat="46.24749" lon="6.78787">
        <ele>1843.5448</ele>
        <time>2014-08-29T13:55:31Z</time>
      </trkpt>
      <trkpt lat="46.24746" lon="6.78781">
        <ele>1845.5599</ele>
        <time>2014-08-29T13:55:36Z</time>
      </trkpt>
      <trkpt lat="46.24745" lon="6.78777">
        <ele>1845.5599</ele>
        <time>2014-08-29T13:55:41Z</time>
      </trkpt>
      <trkpt lat="46.24743" lon="6.7877">
        <ele>1845.5599</ele>
        <time>2014-08-29T13:55:46Z</time>
      </trkpt>
      <trkpt lat="46.24743" lon="6.78769">
        <ele>1845.5599</ele>
        <time>2014-08-29T13:55:51Z</time>
      </trkpt>
      <trkpt lat="46.24743" lon="6.7877">
        <ele>1847.5442</ele>
        <time>2014-08-29T13:55:56Z</time>
      </trkpt>
      <trkpt lat="46.24741" lon="6.78766">
        <ele>1847.5442</ele>
        <time>2014-08-29T13:56:01Z</time>
      </trkpt>
      <trkpt lat="46.2474" lon="6.78759">
        <ele>1847.5442</ele>
        <time>2014-08-29T13:56:06Z</time>
      </trkpt>
      <trkpt lat="46.24738" lon="6.7875">
        <ele>1849.2686</ele>
        <time>2014-08-29T13:56:11Z</time>
      </trkpt>
      <trkpt lat="46.24737" lon="6.7874">
        <ele>1849.2686</ele>
        <time>2014-08-29T13:56:16Z</time>
      </trkpt>
      <trkpt lat="46.24738" lon="6.78734">
        <ele>1850.8097</ele>
        <time>2014-08-29T13:56:21Z</time>
      </trkpt>
      <trkpt lat="46.24737" lon="6.78724">
        <ele>1850.8097</ele>
        <time>2014-08-29T13:56:26Z</time>
      </trkpt>
      <trkpt lat="46.24734" lon="6.78717">
        <ele>1852.1528</ele>
        <time>2014-08-29T13:56:31Z</time>
      </trkpt>
      <trkpt lat="46.24736" lon="6.78708">
        <ele>1852.1528</ele>
        <time>2014-08-29T13:56:36Z</time>
      </trkpt>
      <trkpt lat="46.24735" lon="6.78702">
        <ele>1853.3135</ele>
        <time>2014-08-29T13:56:41Z</time>
      </trkpt>
      <trkpt lat="46.24735" lon="6.78697">
        <ele>1853.3135</ele>
        <time>2014-08-29T13:56:46Z</time>
      </trkpt>
      <trkpt lat="46.24736" lon="6.7869">
        <ele>1853.3135</ele>
        <time>2014-08-29T13:56:51Z</time>
      </trkpt>
      <trkpt lat="46.24738" lon="6.78681">
        <ele>1854.1915</ele>
        <time>2014-08-29T13:56:56Z</time>
      </trkpt>
      <trkpt lat="46.24738" lon="6.78677">
        <ele>1854.1915</ele>
        <time>2014-08-29T13:57:01Z</time>
      </trkpt>
      <trkpt lat="46.24738" lon="6.78672">
        <ele>1854.1915</ele>
        <time>2014-08-29T13:57:06Z</time>
      </trkpt>
      <trkpt lat="46.24737" lon="6.78665">
        <ele>1854.6802</ele>
        <time>2014-08-29T13:57:11Z</time>
      </trkpt>
      <trkpt lat="46.24737" lon="6.78657">
        <ele>1854.6802</ele>
        <time>2014-08-29T13:57:16Z</time>
      </trkpt>
      <trkpt lat="46.24738" lon="6.78649">
        <ele>1854.8981</ele>
        <time>2014-08-29T13:57:21Z</time>
      </trkpt>
      <trkpt lat="46.2474" lon="6.78642">
        <ele>1854.8981</ele>
        <time>2014-08-29T13:57:26Z</time>
      </trkpt>
      <trkpt lat="46.24741" lon="6.78634">
        <ele>1855.028</ele>
        <time>2014-08-29T13:57:31Z</time>
      </trkpt>
      <trkpt lat="46.24746" lon="6.78625">
        <ele>1855.028</ele>
        <time>2014-08-29T13:57:36Z</time>
      </trkpt>
      <trkpt lat="46.24748" lon="6.78621">
        <ele>1855.0087</ele>
        <time>2014-08-29T13:57:41Z</time>
      </trkpt>
      <trkpt lat="46.24751" lon="6.78616">
        <ele>1855.0087</ele>
        <time>2014-08-29T13:57:46Z</time>
      </trkpt>
      <trkpt lat="46.24755" lon="6.78613">
        <ele>1855.0087</ele>
        <time>2014-08-29T13:57:51Z</time>
      </trkpt>
      <trkpt lat="46.24758" lon="6.78608">
        <ele>1854.856</ele>
        <time>2014-08-29T13:57:56Z</time>
      </trkpt>
      <trkpt lat="46.24761" lon="6.78599">
        <ele>1854.856</ele>
        <time>2014-08-29T13:58:01Z</time>
      </trkpt>
      <trkpt lat="46.24762" lon="6.78589">
        <ele>1854.4407</ele>
        <time>2014-08-29T13:58:06Z</time>
      </trkpt>
      <trkpt lat="46.24763" lon="6.78582">
        <ele>1854.4407</ele>
        <time>2014-08-29T13:58:11Z</time>
      </trkpt>
      <trkpt lat="46.24764" lon="6.78578">
        <ele>1854.4407</ele>
        <time>2014-08-29T13:58:16Z</time>
      </trkpt>
      <trkpt lat="46.24765" lon="6.78575">
        <ele>1854.105</ele>
        <time>2014-08-29T13:58:21Z</time>
      </trkpt>
      <trkpt lat="46.24765" lon="6.78572">
        <ele>1854.105</ele>
        <time>2014-08-29T13:58:26Z</time>
      </trkpt>
      <trkpt lat="46.24765" lon="6.78567">
        <ele>1854.105</ele>
        <time>2014-08-29T13:58:31Z</time>
      </trkpt>
      <trkpt lat="46.2477" lon="6.78554">
        <ele>1853.8776</ele>
        <time>2014-08-29T13:58:36Z</time>
      </trkpt>
      <trkpt lat="46.24772" lon="6.78543">
        <ele>1853.8776</ele>
        <time>2014-08-29T13:58:41Z</time>
      </trkpt>
      <trkpt lat="46.24773" lon="6.78538">
        <ele>1853.4817</ele>
        <time>2014-08-29T13:58:46Z</time>
      </trkpt>
      <trkpt lat="46.24773" lon="6.78531">
        <ele>1853.4817</ele>
        <time>2014-08-29T13:58:51Z</time>
      </trkpt>
      <trkpt lat="46.24773" lon="6.78526">
        <ele>1853.4817</ele>
        <time>2014-08-29T13:58:56Z</time>
      </trkpt>
      <trkpt lat="46.24776" lon="6.78517">
        <ele>1852.8633</ele>
        <time>2014-08-29T13:59:01Z</time>
      </trkpt>
      <trkpt lat="46.24776" lon="6.78511">
        <ele>1852.8633</ele>
        <time>2014-08-29T13:59:06Z</time>
      </trkpt>
      <trkpt lat="46.24777" lon="6.78504">
        <ele>1852.2178</ele>
        <time>2014-08-29T13:59:11Z</time>
      </trkpt>
      <trkpt lat="46.24778" lon="6.78501">
        <ele>1852.2178</ele>
        <time>2014-08-29T13:59:16Z</time>
      </trkpt>
      <trkpt lat="46.24778" lon="6.78496">
        <ele>1852.2178</ele>
        <time>2014-08-29T13:59:21Z</time>
      </trkpt>
      <trkpt lat="46.24778" lon="6.78491">
        <ele>1851.5963</ele>
        <time>2014-08-29T13:59:26Z</time>
      </trkpt>
      <trkpt lat="46.24779" lon="6.78481">
        <ele>1851.5963</ele>
        <time>2014-08-29T13:59:31Z</time>
      </trkpt>
      <trkpt lat="46.24781" lon="6.78477">
        <ele>1850.8445</ele>
        <time>2014-08-29T13:59:36Z</time>
      </trkpt>
      <trkpt lat="46.24781" lon="6.78476">
        <ele>1850.8445</ele>
        <time>2014-08-29T13:59:41Z</time>
      </trkpt>
      <trkpt lat="46.24782" lon="6.78469">
        <ele>1850.8445</ele>
        <time>2014-08-29T13:59:46Z</time>
      </trkpt>
      <trkpt lat="46.24784" lon="6.78459">
        <ele>1849.488</ele>
        <time>2014-08-29T13:59:51Z</time>
      </trkpt>
      <trkpt lat="46.24786" lon="6.78451">
        <ele>1849.488</ele>
        <time>2014-08-29T13:59:56Z</time>
      </trkpt>
      <trkpt lat="46.24786" lon="6.78445">
        <ele>1847.8815</ele>
        <time>2014-08-29T14:00:01Z</time>
      </trkpt>
      <trkpt lat="46.24787" lon="6.78434">
        <ele>1847.8815</ele>
        <time>2014-08-29T14:00:06Z</time>
      </trkpt>
      <trkpt lat="46.24788" lon="6.78425">
        <ele>1846.3254</ele>
        <time>2014-08-29T14:00:11Z</time>
      </trkpt>
      <trkpt lat="46.2479" lon="6.78418">
        <ele>1846.3254</ele>
        <time>2014-08-29T14:00:16Z</time>
      </trkpt>
      <trkpt lat="46.2479" lon="6.78415">
        <ele>1846.3254</ele>
        <time>2014-08-29T14:00:21Z</time>
      </trkpt>
      <trkpt lat="46.2479" lon="6.78414">
        <ele>1846.3254</ele>
        <time>2014-08-29T14:00:26Z</time>
      </trkpt>
      <trkpt lat="46.24791" lon="6.78409">
        <ele>1845.0546</ele>
        <time>2014-08-29T14:00:31Z</time>
      </trkpt>
      <trkpt lat="46.24791" lon="6.78404">
        <ele>1845.0546</ele>
        <time>2014-08-29T14:00:36Z</time>
      </trkpt>
      <trkpt lat="46.24791" lon="6.78397">
        <ele>1845.0546</ele>
        <time>2014-08-29T14:00:41Z</time>
      </trkpt>
      <trkpt lat="46.24794" lon="6.78387">
        <ele>1843.4927</ele>
        <time>2014-08-29T14:00:46Z</time>
      </trkpt>
      <trkpt lat="46.24794" lon="6.78378">
        <ele>1843.4927</ele>
        <time>2014-08-29T14:00:51Z</time>
      </trkpt>
      <trkpt lat="46.24794" lon="6.78371">
        <ele>1841.7554</ele>
        <time>2014-08-29T14:00:56Z</time>
      </trkpt>
      <trkpt lat="46.24796" lon="6.78364">
        <ele>1841.7554</ele>
        <time>2014-08-29T14:01:01Z</time>
      </trkpt>
      <trkpt lat="46.24796" lon="6.78358">
        <ele>1839.8633</ele>
        <time>2014-08-29T14:01:06Z</time>
      </trkpt>
      <trkpt lat="46.24796" lon="6.78352">
        <ele>1839.8633</ele>
        <time>2014-08-29T14:01:11Z</time>
      </trkpt>
      <trkpt lat="46.24797" lon="6.78345">
        <ele>1837.9077</ele>
        <time>2014-08-29T14:01:16Z</time>
      </trkpt>
      <trkpt lat="46.24799" lon="6.78338">
        <ele>1837.9077</ele>
        <time>2014-08-29T14:01:21Z</time>
      </trkpt>
      <trkpt lat="46.248" lon="6.78332">
        <ele>1835.8729</ele>
        <time>2014-08-29T14:01:26Z</time>
      </trkpt>
      <trkpt lat="46.248" lon="6.78327">
        <ele>1835.8729</ele>
        <time>2014-08-29T14:01:31Z</time>
      </trkpt>
      <trkpt lat="46.248" lon="6.78324">
        <ele>1835.8729</ele>
        <time>2014-08-29T14:01:36Z</time>
      </trkpt>
      <trkpt lat="46.248" lon="6.7832">
        <ele>1835.8729</ele>
        <time>2014-08-29T14:01:41Z</time>
      </trkpt>
      <trkpt lat="46.24801" lon="6.78317">
        <ele>1833.3402</ele>
        <time>2014-08-29T14:01:46Z</time>
      </trkpt>
      <trkpt lat="46.24802" lon="6.78311">
        <ele>1833.3402</ele>
        <time>2014-08-29T14:01:51Z</time>
      </trkpt>
      <trkpt lat="46.24806" lon="6.78305">
        <ele>1830.5282</ele>
        <time>2014-08-29T14:01:56Z</time>
      </trkpt>
      <trkpt lat="46.24807" lon="6.783">
        <ele>1830.5282</ele>
        <time>2014-08-29T14:02:01Z</time>
      </trkpt>
      <trkpt lat="46.24808" lon="6.78297">
        <ele>1830.5282</ele>
        <time>2014-08-29T14:02:06Z</time>
      </trkpt>
      <trkpt lat="46.2481" lon="6.7829">
        <ele>1827.3234</ele>
        <time>2014-08-29T14:02:11Z</time>
      </trkpt>
      <trkpt lat="46.24812" lon="6.78281">
        <ele>1827.3234</ele>
        <time>2014-08-29T14:02:16Z</time>
      </trkpt>
      <trkpt lat="46.24815" lon="6.78272">
        <ele>1824.0243</ele>
        <time>2014-08-29T14:02:21Z</time>
      </trkpt>
      <trkpt lat="46.24816" lon="6.78265">
        <ele>1824.0243</ele>
        <time>2014-08-29T14:02:26Z</time>
      </trkpt>
      <trkpt lat="46.24818" lon="6.78257">
        <ele>1820.836</ele>
        <time>2014-08-29T14:02:31Z</time>
      </trkpt>
      <trkpt lat="46.24819" lon="6.78252">
        <ele>1820.836</ele>
        <time>2014-08-29T14:02:36Z</time>
      </trkpt>
      <trkpt lat="46.24822" lon="6.78246">
        <ele>1820.836</ele>
        <time>2014-08-29T14:02:41Z</time>
      </trkpt>
      <trkpt lat="46.24825" lon="6.78239">
        <ele>1817.9045</ele>
        <time>2014-08-29T14:02:46Z</time>
      </trkpt>
      <trkpt lat="46.24829" lon="6.78233">
        <ele>1817.9045</ele>
        <time>2014-08-29T14:02:51Z</time>
      </trkpt>
      <trkpt lat="46.24829" lon="6.78225">
        <ele>1815.1768</ele>
        <time>2014-08-29T14:02:56Z</time>
      </trkpt>
      <trkpt lat="46.2483" lon="6.78217">
        <ele>1815.1768</ele>
        <time>2014-08-29T14:03:01Z</time>
      </trkpt>
      <trkpt lat="46.2483" lon="6.78212">
        <ele>1815.1768</ele>
        <time>2014-08-29T14:03:06Z</time>
      </trkpt>
      <trkpt lat="46.24831" lon="6.78206">
        <ele>1812.6891</ele>
        <time>2014-08-29T14:03:11Z</time>
      </trkpt>
      <trkpt lat="46.24833" lon="6.782">
        <ele>1812.6891</ele>
        <time>2014-08-29T14:03:16Z</time>
      </trkpt>
      <trkpt lat="46.24834" lon="6.78192">
        <ele>1810.5464</ele>
        <time>2014-08-29T14:03:21Z</time>
      </trkpt>
      <trkpt lat="46.24835" lon="6.78185">
        <ele>1810.5464</ele>
        <time>2014-08-29T14:03:26Z</time>
      </trkpt>
      <trkpt lat="46.24836" lon="6.78178">
        <ele>1808.5996</ele>
        <time>2014-08-29T14:03:31Z</time>
      </trkpt>
      <trkpt lat="46.24836" lon="6.7817">
        <ele>1808.5996</ele>
        <time>2014-08-29T14:03:36Z</time>
      </trkpt>
      <trkpt lat="46.24836" lon="6.78163">
        <ele>1806.8251</ele>
        <time>2014-08-29T14:03:41Z</time>
      </trkpt>
      <trkpt lat="46.24837" lon="6.78154">
        <ele>1806.8251</ele>
        <time>2014-08-29T14:03:46Z</time>
      </trkpt>
      <trkpt lat="46.24838" lon="6.7815">
        <ele>1805.3153</ele>
        <time>2014-08-29T14:03:51Z</time>
      </trkpt>
      <trkpt lat="46.24839" lon="6.78146">
        <ele>1805.3153</ele>
        <time>2014-08-29T14:03:56Z</time>
      </trkpt>
      <trkpt lat="46.2484" lon="6.78144">
        <ele>1805.3153</ele>
        <time>2014-08-29T14:04:01Z</time>
      </trkpt>
      <trkpt lat="46.24841" lon="6.78138">
        <ele>1805.3153</ele>
        <time>2014-08-29T14:04:06Z</time>
      </trkpt>
      <trkpt lat="46.24843" lon="6.78132">
        <ele>1803.3193</ele>
        <time>2014-08-29T14:04:11Z</time>
      </trkpt>
      <trkpt lat="46.24845" lon="6.78126">
        <ele>1803.3193</ele>
        <time>2014-08-29T14:04:16Z</time>
      </trkpt>
      <trkpt lat="46.24847" lon="6.78116">
        <ele>1801.2374</ele>
        <time>2014-08-29T14:04:21Z</time>
      </trkpt>
      <trkpt lat="46.24848" lon="6.78109">
        <ele>1801.2374</ele>
        <time>2014-08-29T14:04:26Z</time>
      </trkpt>
      <trkpt lat="46.24848" lon="6.78105">
        <ele>1801.2374</ele>
        <time>2014-08-29T14:04:31Z</time>
      </trkpt>
      <trkpt lat="46.24847" lon="6.781">
        <ele>1798.9076</ele>
        <time>2014-08-29T14:04:36Z</time>
      </trkpt>
      <trkpt lat="46.24846" lon="6.78095">
        <ele>1798.9076</ele>
        <time>2014-08-29T14:04:41Z</time>
      </trkpt>
      <trkpt lat="46.24848" lon="6.78085">
        <ele>1796.5402</ele>
        <time>2014-08-29T14:04:46Z</time>
      </trkpt>
      <trkpt lat="46.24848" lon="6.78076">
        <ele>1796.5402</ele>
        <time>2014-08-29T14:04:51Z</time>
      </trkpt>
      <trkpt lat="46.24848" lon="6.78068">
        <ele>1794.3154</ele>
        <time>2014-08-29T14:04:56Z</time>
      </trkpt>
      <trkpt lat="46.24848" lon="6.78061">
        <ele>1794.3154</ele>
        <time>2014-08-29T14:05:01Z</time>
      </trkpt>
      <trkpt lat="46.24848" lon="6.78053">
        <ele>1792.3281</ele>
        <time>2014-08-29T14:05:06Z</time>
      </trkpt>
      <trkpt lat="46.24846" lon="6.78046">
        <ele>1792.3281</ele>
        <time>2014-08-29T14:05:11Z</time>
      </trkpt>
      <trkpt lat="46.24845" lon="6.7804">
        <ele>1790.636</ele>
        <time>2014-08-29T14:05:16Z</time>
      </trkpt>
      <trkpt lat="46.24844" lon="6.78032">
        <ele>1790.636</ele>
        <time>2014-08-29T14:05:21Z</time>
      </trkpt>
      <trkpt lat="46.24844" lon="6.78025">
        <ele>1789.1761</ele>
        <time>2014-08-29T14:05:26Z</time>
      </trkpt>
      <trkpt lat="46.24843" lon="6.7802">
        <ele>1789.1761</ele>
        <time>2014-08-29T14:05:31Z</time>
      </trkpt>
      <trkpt lat="46.24845" lon="6.78019">
        <ele>1789.1761</ele>
        <time>2014-08-29T14:05:36Z</time>
      </trkpt>
      <trkpt lat="46.24845" lon="6.78014">
        <ele>1787.6013</ele>
        <time>2014-08-29T14:05:41Z</time>
      </trkpt>
      <trkpt lat="46.24845" lon="6.78008">
        <ele>1787.6013</ele>
        <time>2014-08-29T14:05:46Z</time>
      </trkpt>
      <trkpt lat="46.24845" lon="6.78">
        <ele>1785.9072</ele>
        <time>2014-08-29T14:05:51Z</time>
      </trkpt>
      <trkpt lat="46.24848" lon="6.77993">
        <ele>1785.9072</ele>
        <time>2014-08-29T14:05:56Z</time>
      </trkpt>
      <trkpt lat="46.2485" lon="6.77988">
        <ele>1784.1038</ele>
        <time>2014-08-29T14:06:01Z</time>
      </trkpt>
      <trkpt lat="46.24849" lon="6.77982">
        <ele>1784.1038</ele>
        <time>2014-08-29T14:06:06Z</time>
      </trkpt>
      <trkpt lat="46.2485" lon="6.77976">
        <ele>1784.1038</ele>
        <time>2014-08-29T14:06:11Z</time>
      </trkpt>
      <trkpt lat="46.2485" lon="6.77971">
        <ele>1782.1577</ele>
        <time>2014-08-29T14:06:16Z</time>
      </trkpt>
      <trkpt lat="46.24849" lon="6.77965">
        <ele>1782.1577</ele>
        <time>2014-08-29T14:06:21Z</time>
      </trkpt>
      <trkpt lat="46.24852" lon="6.77957">
        <ele>1780.1678</ele>
        <time>2014-08-29T14:06:26Z</time>
      </trkpt>
      <trkpt lat="46.24854" lon="6.7795">
        <ele>1780.1678</ele>
        <time>2014-08-29T14:06:31Z</time>
      </trkpt>
      <trkpt lat="46.24855" lon="6.77946">
        <ele>1780.1678</ele>
        <time>2014-08-29T14:06:36Z</time>
      </trkpt>
      <trkpt lat="46.24857" lon="6.7794">
        <ele>1777.8508</ele>
        <time>2014-08-29T14:06:41Z</time>
      </trkpt>
      <trkpt lat="46.24858" lon="6.77933">
        <ele>1777.8508</ele>
        <time>2014-08-29T14:06:46Z</time>
      </trkpt>
      <trkpt lat="46.24858" lon="6.77929">
        <ele>1777.8508</ele>
        <time>2014-08-29T14:06:51Z</time>
      </trkpt>
      <trkpt lat="46.24857" lon="6.77924">
        <ele>1775.4064</ele>
        <time>2014-08-29T14:06:56Z</time>
      </trkpt>
      <trkpt lat="46.24856" lon="6.77918">
        <ele>1775.4064</ele>
        <time>2014-08-29T14:07:01Z</time>
      </trkpt>
      <trkpt lat="46.24855" lon="6.7791">
        <ele>1773.0771</ele>
        <time>2014-08-29T14:07:06Z</time>
      </trkpt>
      <trkpt lat="46.24853" lon="6.77904">
        <ele>1773.0771</ele>
        <time>2014-08-29T14:07:11Z</time>
      </trkpt>
      <trkpt lat="46.24851" lon="6.77899">
        <ele>1773.0771</ele>
        <time>2014-08-29T14:07:16Z</time>
      </trkpt>
      <trkpt lat="46.24849" lon="6.77891">
        <ele>1770.8572</ele>
        <time>2014-08-29T14:07:21Z</time>
      </trkpt>
      <trkpt lat="46.24849" lon="6.77887">
        <ele>1770.8572</ele>
        <time>2014-08-29T14:07:26Z</time>
      </trkpt>
      <trkpt lat="46.24848" lon="6.77881">
        <ele>1770.8572</ele>
        <time>2014-08-29T14:07:31Z</time>
      </trkpt>
      <trkpt lat="46.24847" lon="6.77875">
        <ele>1768.7689</ele>
        <time>2014-08-29T14:07:36Z</time>
      </trkpt>
      <trkpt lat="46.24844" lon="6.77871">
        <ele>1768.7689</ele>
        <time>2014-08-29T14:07:41Z</time>
      </trkpt>
      <trkpt lat="46.24839" lon="6.77873">
        <ele>1768.7689</ele>
        <time>2014-08-29T14:07:46Z</time>
      </trkpt>
      <trkpt lat="46.24836" lon="6.77876">
        <ele>1766.66</ele>
        <time>2014-08-29T14:07:51Z</time>
      </trkpt>
      <trkpt lat="46.24834" lon="6.7788">
        <ele>1766.66</ele>
        <time>2014-08-29T14:07:56Z</time>
      </trkpt>
      <trkpt lat="46.24833" lon="6.77886">
        <ele>1766.66</ele>
        <time>2014-08-29T14:08:01Z</time>
      </trkpt>
      <trkpt lat="46.24832" lon="6.77892">
        <ele>1764.2163</ele>
        <time>2014-08-29T14:08:06Z</time>
      </trkpt>
      <trkpt lat="46.24832" lon="6.77896">
        <ele>1764.2163</ele>
        <time>2014-08-29T14:08:11Z</time>
      </trkpt>
      <trkpt lat="46.24827" lon="6.77899">
        <ele>1764.2163</ele>
        <time>2014-08-29T14:08:16Z</time>
      </trkpt>
      <trkpt lat="46.24819" lon="6.77899">
        <ele>1761.6086</ele>
        <time>2014-08-29T14:08:21Z</time>
      </trkpt>
      <trkpt lat="46.24815" lon="6.77892">
        <ele>1761.6086</ele>
        <time>2014-08-29T14:08:26Z</time>
      </trkpt>
      <trkpt lat="46.24813" lon="6.77885">
        <ele>1759.2549</ele>
        <time>2014-08-29T14:08:31Z</time>
      </trkpt>
      <trkpt lat="46.24812" lon="6.77879">
        <ele>1759.2549</ele>
        <time>2014-08-29T14:08:36Z</time>
      </trkpt>
      <trkpt lat="46.24811" lon="6.77872">
        <ele>1757.1525</ele>
        <time>2014-08-29T14:08:41Z</time>
      </trkpt>
      <trkpt lat="46.2481" lon="6.77866">
        <ele>1757.1525</ele>
        <time>2014-08-29T14:08:46Z</time>
      </trkpt>
      <trkpt lat="46.24809" lon="6.7786">
        <ele>1757.1525</ele>
        <time>2014-08-29T14:08:51Z</time>
      </trkpt>
      <trkpt lat="46.24807" lon="6.77853">
        <ele>1755.1395</ele>
        <time>2014-08-29T14:08:56Z</time>
      </trkpt>
      <trkpt lat="46.24807" lon="6.77848">
        <ele>1755.1395</ele>
        <time>2014-08-29T14:09:01Z</time>
      </trkpt>
      <trkpt lat="46.24807" lon="6.77844">
        <ele>1755.1395</ele>
        <time>2014-08-29T14:09:06Z</time>
      </trkpt>
      <trkpt lat="46.24805" lon="6.77837">
        <ele>1753.0946</ele>
        <time>2014-08-29T14:09:11Z</time>
      </trkpt>
      <trkpt lat="46.24802" lon="6.7783">
        <ele>1753.0946</ele>
        <time>2014-08-29T14:09:16Z</time>
      </trkpt>
      <trkpt lat="46.248" lon="6.77824">
        <ele>1751.2079</ele>
        <time>2014-08-29T14:09:21Z</time>
      </trkpt>
      <trkpt lat="46.24798" lon="6.77816">
        <ele>1751.2079</ele>
        <time>2014-08-29T14:09:26Z</time>
      </trkpt>
      <trkpt lat="46.24795" lon="6.77809">
        <ele>1749.3668</ele>
        <time>2014-08-29T14:09:31Z</time>
      </trkpt>
      <trkpt lat="46.24793" lon="6.77803">
        <ele>1749.3668</ele>
        <time>2014-08-29T14:09:36Z</time>
      </trkpt>
      <trkpt lat="46.24789" lon="6.77796">
        <ele>1747.6251</ele>
        <time>2014-08-29T14:09:41Z</time>
      </trkpt>
      <trkpt lat="46.24786" lon="6.77793">
        <ele>1747.6251</ele>
        <time>2014-08-29T14:09:46Z</time>
      </trkpt>
      <trkpt lat="46.24782" lon="6.77789">
        <ele>1747.6251</ele>
        <time>2014-08-29T14:09:51Z</time>
      </trkpt>
      <trkpt lat="46.24778" lon="6.77784">
        <ele>1745.8596</ele>
        <time>2014-08-29T14:09:56Z</time>
      </trkpt>
      <trkpt lat="46.24775" lon="6.77779">
        <ele>1745.8596</ele>
        <time>2014-08-29T14:10:01Z</time>
      </trkpt>
      <trkpt lat="46.24772" lon="6.77774">
        <ele>1744.1722</ele>
        <time>2014-08-29T14:10:06Z</time>
      </trkpt>
      <trkpt lat="46.24768" lon="6.77765">
        <ele>1744.1722</ele>
        <time>2014-08-29T14:10:11Z</time>
      </trkpt>
      <trkpt lat="46.24764" lon="6.77758">
        <ele>1742.6859</ele>
        <time>2014-08-29T14:10:16Z</time>
      </trkpt>
      <trkpt lat="46.24762" lon="6.77754">
        <ele>1742.6859</ele>
        <time>2014-08-29T14:10:21Z</time>
      </trkpt>
      <trkpt lat="46.24763" lon="6.77756">
        <ele>1742.6859</ele>
        <time>2014-08-29T14:10:26Z</time>
      </trkpt>
      <trkpt lat="46.24763" lon="6.77757">
        <ele>1742.6859</ele>
        <time>2014-08-29T14:10:31Z</time>
      </trkpt>
      <trkpt lat="46.24765" lon="6.7776">
        <ele>1742.6859</ele>
        <time>2014-08-29T14:10:36Z</time>
      </trkpt>
      <trkpt lat="46.24766" lon="6.7776">
        <ele>1742.6859</ele>
        <time>2014-08-29T14:10:41Z</time>
      </trkpt>
      <trkpt lat="46.24767" lon="6.77762">
        <ele>1741.3699</ele>
        <time>2014-08-29T14:10:46Z</time>
      </trkpt>
      <trkpt lat="46.24771" lon="6.77766">
        <ele>1741.3699</ele>
        <time>2014-08-29T14:10:51Z</time>
      </trkpt>
      <trkpt lat="46.24775" lon="6.77765">
        <ele>1741.3699</ele>
        <time>2014-08-29T14:10:56Z</time>
      </trkpt>
      <trkpt lat="46.24774" lon="6.77764">
        <ele>1740.0508</ele>
        <time>2014-08-29T14:11:01Z</time>
      </trkpt>
      <trkpt lat="46.24773" lon="6.77765">
        <ele>1740.0508</ele>
        <time>2014-08-29T14:11:06Z</time>
      </trkpt>
      <trkpt lat="46.24771" lon="6.77766">
        <ele>1740.0508</ele>
        <time>2014-08-29T14:11:11Z</time>
      </trkpt>
      <trkpt lat="46.24769" lon="6.77767">
        <ele>1740.0508</ele>
        <time>2014-08-29T14:11:16Z</time>
      </trkpt>
      <trkpt lat="46.24768" lon="6.77767">
        <ele>1740.0508</ele>
        <time>2014-08-29T14:11:21Z</time>
      </trkpt>
      <trkpt lat="46.24767" lon="6.77766">
        <ele>1740.0508</ele>
        <time>2014-08-29T14:11:26Z</time>
      </trkpt>
      <trkpt lat="46.24767" lon="6.77764">
        <ele>1740.0508</ele>
        <time>2014-08-29T14:11:31Z</time>
      </trkpt>
      <trkpt lat="46.24769" lon="6.77762">
        <ele>1739.0151</ele>
        <time>2014-08-29T14:11:36Z</time>
      </trkpt>
      <trkpt lat="46.2477" lon="6.77762">
        <ele>1739.0151</ele>
        <time>2014-08-29T14:11:41Z</time>
      </trkpt>
      <trkpt lat="46.2477" lon="6.77763">
        <ele>1739.0151</ele>
        <time>2014-08-29T14:11:46Z</time>
      </trkpt>
      <trkpt lat="46.24769" lon="6.77763">
        <ele>1739.0151</ele>
        <time>2014-08-29T14:11:51Z</time>
      </trkpt>
      <trkpt lat="46.2477" lon="6.77763">
        <ele>1739.0151</ele>
        <time>2014-08-29T14:11:56Z</time>
      </trkpt>
      <trkpt lat="46.24769" lon="6.77763">
        <ele>1739.0151</ele>
        <time>2014-08-29T14:12:01Z</time>
      </trkpt>
      <trkpt lat="46.24768" lon="6.77763">
        <ele>1739.0151</ele>
        <time>2014-08-29T14:12:06Z</time>
      </trkpt>
      <trkpt lat="46.24767" lon="6.77763">
        <ele>1739.0151</ele>
        <time>2014-08-29T14:12:11Z</time>
      </trkpt>
      <trkpt lat="46.24767" lon="6.77763">
        <ele>1739.0151</ele>
        <time>2014-08-29T14:12:16Z</time>
      </trkpt>
      <trkpt lat="46.24766" lon="6.77761">
        <ele>1739.0151</ele>
        <time>2014-08-29T14:12:21Z</time>
      </trkpt>
      <trkpt lat="46.24766" lon="6.77759">
        <ele>1739.0151</ele>
        <time>2014-08-29T14:12:26Z</time>
      </trkpt>
      <trkpt lat="46.24767" lon="6.7776">
        <ele>1739.0151</ele>
        <time>2014-08-29T14:12:31Z</time>
      </trkpt>
      <trkpt lat="46.24767" lon="6.77762">
        <ele>1737.9795</ele>
        <time>2014-08-29T14:12:36Z</time>
      </trkpt>
      <trkpt lat="46.24768" lon="6.77762">
        <ele>1737.9795</ele>
        <time>2014-08-29T14:12:41Z</time>
      </trkpt>
      <trkpt lat="46.24768" lon="6.77761">
        <ele>1737.9795</ele>
        <time>2014-08-29T14:12:46Z</time>
      </trkpt>
      <trkpt lat="46.24767" lon="6.77759">
        <ele>1737.9795</ele>
        <time>2014-08-29T14:12:51Z</time>
      </trkpt>
      <trkpt lat="46.24767" lon="6.7776">
        <ele>1737.9795</ele>
        <time>2014-08-29T14:12:56Z</time>
      </trkpt>
      <trkpt lat="46.24767" lon="6.7776">
        <ele>1737.9795</ele>
        <time>2014-08-29T14:13:01Z</time>
      </trkpt>
      <trkpt lat="46.24767" lon="6.7776">
        <ele>1737.9795</ele>
        <time>2014-08-29T14:13:06Z</time>
      </trkpt>
      <trkpt lat="46.24767" lon="6.7776">
        <ele>1737.9795</ele>
        <time>2014-08-29T14:13:11Z</time>
      </trkpt>
      <trkpt lat="46.24768" lon="6.77761">
        <ele>1737.9795</ele>
        <time>2014-08-29T14:13:16Z</time>
      </trkpt>
      <trkpt lat="46.24768" lon="6.77762">
        <ele>1737.9795</ele>
        <time>2014-08-29T14:13:21Z</time>
      </trkpt>
      <trkpt lat="46.24768" lon="6.77762">
        <ele>1737.9795</ele>
        <time>2014-08-29T14:13:26Z</time>
      </trkpt>
      <trkpt lat="46.24767" lon="6.77762">
        <ele>1737.9795</ele>
        <time>2014-08-29T14:13:31Z</time>
      </trkpt>
      <trkpt lat="46.24768" lon="6.77762">
        <ele>1737.9795</ele>
        <time>2014-08-29T14:13:36Z</time>
      </trkpt>
      <trkpt lat="46.24768" lon="6.77763">
        <ele>1737.9795</ele>
        <time>2014-08-29T14:13:41Z</time>
      </trkpt>
      <trkpt lat="46.24768" lon="6.77763">
        <ele>1737.9795</ele>
        <time>2014-08-29T14:13:46Z</time>
      </trkpt>
      <trkpt lat="46.24768" lon="6.77762">
        <ele>1737.9795</ele>
        <time>2014-08-29T14:13:51Z</time>
      </trkpt>
      <trkpt lat="46.24768" lon="6.77762">
        <ele>1737.0275</ele>
        <time>2014-08-29T14:13:56Z</time>
      </trkpt>
      <trkpt lat="46.24768" lon="6.77763">
        <ele>1737.0275</ele>
        <time>2014-08-29T14:14:01Z</time>
      </trkpt>
      <trkpt lat="46.24769" lon="6.77764">
        <ele>1737.0275</ele>
        <time>2014-08-29T14:14:06Z</time>
      </trkpt>
      <trkpt lat="46.24769" lon="6.77765">
        <ele>1737.0275</ele>
        <time>2014-08-29T14:14:11Z</time>
      </trkpt>
      <trkpt lat="46.24769" lon="6.77764">
        <ele>1737.0275</ele>
        <time>2014-08-29T14:14:16Z</time>
      </trkpt>
      <trkpt lat="46.24769" lon="6.77762">
        <ele>1737.0275</ele>
        <time>2014-08-29T14:14:21Z</time>
      </trkpt>
      <trkpt lat="46.24768" lon="6.77761">
        <ele>1737.0275</ele>
        <time>2014-08-29T14:14:26Z</time>
      </trkpt>
      <trkpt lat="46.24768" lon="6.77761">
        <ele>1737.0275</ele>
        <time>2014-08-29T14:14:31Z</time>
      </trkpt>
      <trkpt lat="46.24767" lon="6.77762">
        <ele>1737.0275</ele>
        <time>2014-08-29T14:14:36Z</time>
      </trkpt>
      <trkpt lat="46.24768" lon="6.77763">
        <ele>1737.0275</ele>
        <time>2014-08-29T14:14:41Z</time>
      </trkpt>
      <trkpt lat="46.24767" lon="6.77764">
        <ele>1737.0275</ele>
        <time>2014-08-29T14:14:46Z</time>
      </trkpt>
      <trkpt lat="46.24767" lon="6.77766">
        <ele>1736.0055</ele>
        <time>2014-08-29T14:14:51Z</time>
      </trkpt>
      <trkpt lat="46.24766" lon="6.77765">
        <ele>1736.0055</ele>
        <time>2014-08-29T14:14:56Z</time>
      </trkpt>
      <trkpt lat="46.24766" lon="6.77763">
        <ele>1736.0055</ele>
        <time>2014-08-29T14:15:01Z</time>
      </trkpt>
      <trkpt lat="46.24765" lon="6.77763">
        <ele>1736.0055</ele>
        <time>2014-08-29T14:15:06Z</time>
      </trkpt>
      <trkpt lat="46.24766" lon="6.77763">
        <ele>1736.0055</ele>
        <time>2014-08-29T14:15:11Z</time>
      </trkpt>
      <trkpt lat="46.24766" lon="6.77762">
        <ele>1736.0055</ele>
        <time>2014-08-29T14:15:16Z</time>
      </trkpt>
      <trkpt lat="46.24765" lon="6.77762">
        <ele>1736.0055</ele>
        <time>2014-08-29T14:15:21Z</time>
      </trkpt>
      <trkpt lat="46.24765" lon="6.77763">
        <ele>1736.0055</ele>
        <time>2014-08-29T14:15:26Z</time>
      </trkpt>
      <trkpt lat="46.24766" lon="6.77764">
        <ele>1736.0055</ele>
        <time>2014-08-29T14:15:31Z</time>
      </trkpt>
      <trkpt lat="46.2476" lon="6.77757">
        <ele>1734.9733</ele>
        <time>2014-08-29T14:15:36Z</time>
      </trkpt>
      <trkpt lat="46.24755" lon="6.77749">
        <ele>1734.9733</ele>
        <time>2014-08-29T14:15:41Z</time>
      </trkpt>
      <trkpt lat="46.24753" lon="6.77744">
        <ele>1734.0438</ele>
        <time>2014-08-29T14:15:46Z</time>
      </trkpt>
      <trkpt lat="46.24752" lon="6.77739">
        <ele>1734.0438</ele>
        <time>2014-08-29T14:15:51Z</time>
      </trkpt>
      <trkpt lat="46.24751" lon="6.77734">
        <ele>1734.0438</ele>
        <time>2014-08-29T14:15:56Z</time>
      </trkpt>
      <trkpt lat="46.24749" lon="6.77728">
        <ele>1733.0911</ele>
        <time>2014-08-29T14:16:01Z</time>
      </trkpt>
      <trkpt lat="46.24746" lon="6.77723">
        <ele>1733.0911</ele>
        <time>2014-08-29T14:16:06Z</time>
      </trkpt>
      <trkpt lat="46.24743" lon="6.77713">
        <ele>1732.2288</ele>
        <time>2014-08-29T14:16:11Z</time>
      </trkpt>
      <trkpt lat="46.24741" lon="6.77709">
        <ele>1732.2288</ele>
        <time>2014-08-29T14:16:16Z</time>
      </trkpt>
      <trkpt lat="46.24737" lon="6.77703">
        <ele>1731.5189</ele>
        <time>2014-08-29T14:16:21Z</time>
      </trkpt>
      <trkpt lat="46.24733" lon="6.77695">
        <ele>1731.5189</ele>
        <time>2014-08-29T14:16:26Z</time>
      </trkpt>
      <trkpt lat="46.24729" lon="6.77689">
        <ele>1731.0187</ele>
        <time>2014-08-29T14:16:31Z</time>
      </trkpt>
      <trkpt lat="46.24725" lon="6.77681">
        <ele>1731.0187</ele>
        <time>2014-08-29T14:16:36Z</time>
      </trkpt>
      <trkpt lat="46.24721" lon="6.77676">
        <ele>1730.7659</ele>
        <time>2014-08-29T14:16:41Z</time>
      </trkpt>
      <trkpt lat="46.24716" lon="6.77669">
        <ele>1730.7659</ele>
        <time>2014-08-29T14:16:46Z</time>
      </trkpt>
      <trkpt lat="46.24712" lon="6.77665">
        <ele>1730.795</ele>
        <time>2014-08-29T14:16:51Z</time>
      </trkpt>
      <trkpt lat="46.24708" lon="6.77663">
        <ele>1730.795</ele>
        <time>2014-08-29T14:16:56Z</time>
      </trkpt>
      <trkpt lat="46.24703" lon="6.7766">
        <ele>1731.0221</ele>
        <time>2014-08-29T14:17:01Z</time>
      </trkpt>
      <trkpt lat="46.24698" lon="6.7766">
        <ele>1731.0221</ele>
        <time>2014-08-29T14:17:06Z</time>
      </trkpt>
      <trkpt lat="46.24694" lon="6.77657">
        <ele>1731.34</ele>
        <time>2014-08-29T14:17:11Z</time>
      </trkpt>
      <trkpt lat="46.24687" lon="6.77656">
        <ele>1731.34</ele>
        <time>2014-08-29T14:17:16Z</time>
      </trkpt>
      <trkpt lat="46.24682" lon="6.77655">
        <ele>1731.8365</ele>
        <time>2014-08-29T14:17:21Z</time>
      </trkpt>
      <trkpt lat="46.24678" lon="6.77657">
        <ele>1731.8365</ele>
        <time>2014-08-29T14:17:26Z</time>
      </trkpt>
      <trkpt lat="46.24675" lon="6.77659">
        <ele>1731.8365</ele>
        <time>2014-08-29T14:17:31Z</time>
      </trkpt>
      <trkpt lat="46.24672" lon="6.77661">
        <ele>1732.3479</ele>
        <time>2014-08-29T14:17:36Z</time>
      </trkpt>
      <trkpt lat="46.24669" lon="6.77663">
        <ele>1732.3479</ele>
        <time>2014-08-29T14:17:41Z</time>
      </trkpt>
      <trkpt lat="46.24666" lon="6.77666">
        <ele>1732.3479</ele>
        <time>2014-08-29T14:17:46Z</time>
      </trkpt>
      <trkpt lat="46.24662" lon="6.77673">
        <ele>1732.7222</ele>
        <time>2014-08-29T14:17:51Z</time>
      </trkpt>
      <trkpt lat="46.24656" lon="6.77679">
        <ele>1732.7222</ele>
        <time>2014-08-29T14:17:56Z</time>
      </trkpt>
      <trkpt lat="46.24652" lon="6.77683">
        <ele>1732.949</ele>
        <time>2014-08-29T14:18:01Z</time>
      </trkpt>
      <trkpt lat="46.24647" lon="6.77687">
        <ele>1732.949</ele>
        <time>2014-08-29T14:18:06Z</time>
      </trkpt>
      <trkpt lat="46.24641" lon="6.77691">
        <ele>1733.1776</ele>
        <time>2014-08-29T14:18:11Z</time>
      </trkpt>
      <trkpt lat="46.24635" lon="6.77693">
        <ele>1733.1776</ele>
        <time>2014-08-29T14:18:16Z</time>
      </trkpt>
      <trkpt lat="46.24631" lon="6.77695">
        <ele>1733.3882</ele>
        <time>2014-08-29T14:18:21Z</time>
      </trkpt>
      <trkpt lat="46.24627" lon="6.77697">
        <ele>1733.3882</ele>
        <time>2014-08-29T14:18:26Z</time>
      </trkpt>
      <trkpt lat="46.24623" lon="6.77701">
        <ele>1733.4902</ele>
        <time>2014-08-29T14:18:31Z</time>
      </trkpt>
      <trkpt lat="46.24617" lon="6.77704">
        <ele>1733.4902</ele>
        <time>2014-08-29T14:18:36Z</time>
      </trkpt>
      <trkpt lat="46.24614" lon="6.77707">
        <ele>1733.4728</ele>
        <time>2014-08-29T14:18:41Z</time>
      </trkpt>
      <trkpt lat="46.24608" lon="6.77709">
        <ele>1733.4728</ele>
        <time>2014-08-29T14:18:46Z</time>
      </trkpt>
      <trkpt lat="46.24603" lon="6.77712">
        <ele>1733.513</ele>
        <time>2014-08-29T14:18:51Z</time>
      </trkpt>
      <trkpt lat="46.246" lon="6.77716">
        <ele>1733.513</ele>
        <time>2014-08-29T14:18:56Z</time>
      </trkpt>
      <trkpt lat="46.24595" lon="6.77719">
        <ele>1733.4584</ele>
        <time>2014-08-29T14:19:01Z</time>
      </trkpt>
      <trkpt lat="46.2459" lon="6.77721">
        <ele>1733.4584</ele>
        <time>2014-08-29T14:19:06Z</time>
      </trkpt>
      <trkpt lat="46.24587" lon="6.77724">
        <ele>1733.4584</ele>
        <time>2014-08-29T14:19:11Z</time>
      </trkpt>
      <trkpt lat="46.24581" lon="6.77727">
        <ele>1733.1969</ele>
        <time>2014-08-29T14:19:16Z</time>
      </trkpt>
      <trkpt lat="46.24578" lon="6.77731">
        <ele>1733.1969</ele>
        <time>2014-08-29T14:19:21Z</time>
      </trkpt>
      <trkpt lat="46.24573" lon="6.77733">
        <ele>1732.6829</ele>
        <time>2014-08-29T14:19:26Z</time>
      </trkpt>
      <trkpt lat="46.24569" lon="6.77736">
        <ele>1732.6829</ele>
        <time>2014-08-29T14:19:31Z</time>
      </trkpt>
      <trkpt lat="46.24564" lon="6.77738">
        <ele>1732.0045</ele>
        <time>2014-08-29T14:19:36Z</time>
      </trkpt>
      <trkpt lat="46.24559" lon="6.77741">
        <ele>1732.0045</ele>
        <time>2014-08-29T14:19:41Z</time>
      </trkpt>
      <trkpt lat="46.24551" lon="6.77748">
        <ele>1731.3167</ele>
        <time>2014-08-29T14:19:46Z</time>
      </trkpt>
      <trkpt lat="46.24546" lon="6.77752">
        <ele>1731.3167</ele>
        <time>2014-08-29T14:19:51Z</time>
      </trkpt>
      <trkpt lat="46.24544" lon="6.77758">
        <ele>1730.5895</ele>
        <time>2014-08-29T14:19:56Z</time>
      </trkpt>
      <trkpt lat="46.24541" lon="6.77761">
        <ele>1730.5895</ele>
        <time>2014-08-29T14:20:01Z</time>
      </trkpt>
      <trkpt lat="46.24537" lon="6.77763">
        <ele>1730.5895</ele>
        <time>2014-08-29T14:20:06Z</time>
      </trkpt>
      <trkpt lat="46.24533" lon="6.77765">
        <ele>1729.7816</ele>
        <time>2014-08-29T14:20:11Z</time>
      </trkpt>
      <trkpt lat="46.2453" lon="6.77767">
        <ele>1729.7816</ele>
        <time>2014-08-29T14:20:16Z</time>
      </trkpt>
      <trkpt lat="46.24526" lon="6.77769">
        <ele>1729.7816</ele>
        <time>2014-08-29T14:20:21Z</time>
      </trkpt>
      <trkpt lat="46.24521" lon="6.77774">
        <ele>1728.9124</ele>
        <time>2014-08-29T14:20:26Z</time>
      </trkpt>
      <trkpt lat="46.24517" lon="6.77776">
        <ele>1728.9124</ele>
        <time>2014-08-29T14:20:31Z</time>
      </trkpt>
      <trkpt lat="46.24511" lon="6.77781">
        <ele>1728.1875</ele>
        <time>2014-08-29T14:20:36Z</time>
      </trkpt>
      <trkpt lat="46.24509" lon="6.77784">
        <ele>1728.1875</ele>
        <time>2014-08-29T14:20:41Z</time>
      </trkpt>
      <trkpt lat="46.24504" lon="6.77788">
        <ele>1728.1875</ele>
        <time>2014-08-29T14:20:46Z</time>
      </trkpt>
      <trkpt lat="46.24499" lon="6.77792">
        <ele>1727.5812</ele>
        <time>2014-08-29T14:20:51Z</time>
      </trkpt>
      <trkpt lat="46.24493" lon="6.77795">
        <ele>1727.5812</ele>
        <time>2014-08-29T14:20:56Z</time>
      </trkpt>
      <trkpt lat="46.24489" lon="6.77797">
        <ele>1727.1268</ele>
        <time>2014-08-29T14:21:01Z</time>
      </trkpt>
      <trkpt lat="46.24483" lon="6.77797">
        <ele>1727.1268</ele>
        <time>2014-08-29T14:21:06Z</time>
      </trkpt>
      <trkpt lat="46.24478" lon="6.778">
        <ele>1726.6823</ele>
        <time>2014-08-29T14:21:11Z</time>
      </trkpt>
      <trkpt lat="46.24472" lon="6.77804">
        <ele>1726.6823</ele>
        <time>2014-08-29T14:21:16Z</time>
      </trkpt>
      <trkpt lat="46.24468" lon="6.77806">
        <ele>1726.2885</ele>
        <time>2014-08-29T14:21:21Z</time>
      </trkpt>
      <trkpt lat="46.24465" lon="6.77809">
        <ele>1726.2885</ele>
        <time>2014-08-29T14:21:26Z</time>
      </trkpt>
      <trkpt lat="46.24461" lon="6.77811">
        <ele>1726.2885</ele>
        <time>2014-08-29T14:21:31Z</time>
      </trkpt>
      <trkpt lat="46.24455" lon="6.77813">
        <ele>1725.9261</ele>
        <time>2014-08-29T14:21:36Z</time>
      </trkpt>
      <trkpt lat="46.24449" lon="6.77817">
        <ele>1725.9261</ele>
        <time>2014-08-29T14:21:41Z</time>
      </trkpt>
      <trkpt lat="46.24443" lon="6.7782">
        <ele>1725.6204</ele>
        <time>2014-08-29T14:21:46Z</time>
      </trkpt>
      <trkpt lat="46.24439" lon="6.77823">
        <ele>1725.6204</ele>
        <time>2014-08-29T14:21:51Z</time>
      </trkpt>
      <trkpt lat="46.24434" lon="6.77825">
        <ele>1725.6204</ele>
        <time>2014-08-29T14:21:56Z</time>
      </trkpt>
      <trkpt lat="46.24432" lon="6.77829">
        <ele>1725.452</ele>
        <time>2014-08-29T14:22:01Z</time>
      </trkpt>
      <trkpt lat="46.24425" lon="6.77831">
        <ele>1725.452</ele>
        <time>2014-08-29T14:22:06Z</time>
      </trkpt>
      <trkpt lat="46.24421" lon="6.77833">
        <ele>1725.4813</ele>
        <time>2014-08-29T14:22:11Z</time>
      </trkpt>
      <trkpt lat="46.24415" lon="6.77837">
        <ele>1725.4813</ele>
        <time>2014-08-29T14:22:16Z</time>
      </trkpt>
      <trkpt lat="46.2441" lon="6.77841">
        <ele>1725.5475</ele>
        <time>2014-08-29T14:22:21Z</time>
      </trkpt>
      <trkpt lat="46.24408" lon="6.77844">
        <ele>1725.5475</ele>
        <time>2014-08-29T14:22:26Z</time>
      </trkpt>
      <trkpt lat="46.24403" lon="6.77847">
        <ele>1725.5475</ele>
        <time>2014-08-29T14:22:31Z</time>
      </trkpt>
      <trkpt lat="46.24395" lon="6.77848">
        <ele>1725.5591</ele>
        <time>2014-08-29T14:22:36Z</time>
      </trkpt>
      <trkpt lat="46.24392" lon="6.77852">
        <ele>1725.5591</ele>
        <time>2014-08-29T14:22:41Z</time>
      </trkpt>
      <trkpt lat="46.24389" lon="6.77856">
        <ele>1725.5591</ele>
        <time>2014-08-29T14:22:46Z</time>
      </trkpt>
      <trkpt lat="46.24384" lon="6.77862">
        <ele>1725.547</ele>
        <time>2014-08-29T14:22:51Z</time>
      </trkpt>
      <trkpt lat="46.24379" lon="6.77867">
        <ele>1725.547</ele>
        <time>2014-08-29T14:22:56Z</time>
      </trkpt>
      <trkpt lat="46.24374" lon="6.77871">
        <ele>1725.6409</ele>
        <time>2014-08-29T14:23:01Z</time>
      </trkpt>
      <trkpt lat="46.2437" lon="6.77875">
        <ele>1725.6409</ele>
        <time>2014-08-29T14:23:06Z</time>
      </trkpt>
      <trkpt lat="46.24367" lon="6.77879">
        <ele>1725.6409</ele>
        <time>2014-08-29T14:23:11Z</time>
      </trkpt>
      <trkpt lat="46.24362" lon="6.77883">
        <ele>1725.7445</ele>
        <time>2014-08-29T14:23:16Z</time>
      </trkpt>
      <trkpt lat="46.24355" lon="6.77887">
        <ele>1725.7445</ele>
        <time>2014-08-29T14:23:21Z</time>
      </trkpt>
      <trkpt lat="46.24351" lon="6.77891">
        <ele>1725.8118</ele>
        <time>2014-08-29T14:23:26Z</time>
      </trkpt>
      <trkpt lat="46.24345" lon="6.77896">
        <ele>1725.8118</ele>
        <time>2014-08-29T14:23:31Z</time>
      </trkpt>
      <trkpt lat="46.2434" lon="6.779">
        <ele>1725.7716</ele>
        <time>2014-08-29T14:23:36Z</time>
      </trkpt>
      <trkpt lat="46.24335" lon="6.77902">
        <ele>1725.7716</ele>
        <time>2014-08-29T14:23:41Z</time>
      </trkpt>
      <trkpt lat="46.24331" lon="6.77906">
        <ele>1725.6738</ele>
        <time>2014-08-29T14:23:46Z</time>
      </trkpt>
      <trkpt lat="46.24326" lon="6.77909">
        <ele>1725.6738</ele>
        <time>2014-08-29T14:23:51Z</time>
      </trkpt>
      <trkpt lat="46.2432" lon="6.77913">
        <ele>1725.7518</ele>
        <time>2014-08-29T14:23:56Z</time>
      </trkpt>
      <trkpt lat="46.24315" lon="6.77917">
        <ele>1725.7518</ele>
        <time>2014-08-29T14:24:01Z</time>
      </trkpt>
      <trkpt lat="46.24307" lon="6.77921">
        <ele>1725.8906</ele>
        <time>2014-08-29T14:24:06Z</time>
      </trkpt>
      <trkpt lat="46.24302" lon="6.77925">
        <ele>1725.8906</ele>
        <time>2014-08-29T14:24:11Z</time>
      </trkpt>
      <trkpt lat="46.24299" lon="6.77927">
        <ele>1726.1702</ele>
        <time>2014-08-29T14:24:16Z</time>
      </trkpt>
      <trkpt lat="46.24296" lon="6.7793">
        <ele>1726.1702</ele>
        <time>2014-08-29T14:24:21Z</time>
      </trkpt>
      <trkpt lat="46.2429" lon="6.77934">
        <ele>1726.4199</ele>
        <time>2014-08-29T14:24:26Z</time>
      </trkpt>
      <trkpt lat="46.24286" lon="6.77936">
        <ele>1726.4199</ele>
        <time>2014-08-29T14:24:31Z</time>
      </trkpt>
      <trkpt lat="46.24281" lon="6.77939">
        <ele>1726.568</ele>
        <time>2014-08-29T14:24:36Z</time>
      </trkpt>
      <trkpt lat="46.24278" lon="6.77941">
        <ele>1726.568</ele>
        <time>2014-08-29T14:24:41Z</time>
      </trkpt>
      <trkpt lat="46.24275" lon="6.77943">
        <ele>1726.568</ele>
        <time>2014-08-29T14:24:46Z</time>
      </trkpt>
      <trkpt lat="46.24269" lon="6.77945">
        <ele>1726.5483</ele>
        <time>2014-08-29T14:24:51Z</time>
      </trkpt>
      <trkpt lat="46.24264" lon="6.77949">
        <ele>1726.5483</ele>
        <time>2014-08-29T14:24:56Z</time>
      </trkpt>
      <trkpt lat="46.24258" lon="6.77954">
        <ele>1726.6752</ele>
        <time>2014-08-29T14:25:01Z</time>
      </trkpt>
      <trkpt lat="46.24252" lon="6.77958">
        <ele>1726.6752</ele>
        <time>2014-08-29T14:25:06Z</time>
      </trkpt>
      <trkpt lat="46.24247" lon="6.77961">
        <ele>1726.7921</ele>
        <time>2014-08-29T14:25:11Z</time>
      </trkpt>
      <trkpt lat="46.24243" lon="6.77964">
        <ele>1726.7921</ele>
        <time>2014-08-29T14:25:16Z</time>
      </trkpt>
      <trkpt lat="46.24238" lon="6.77966">
        <ele>1726.8413</ele>
        <time>2014-08-29T14:25:21Z</time>
      </trkpt>
      <trkpt lat="46.24232" lon="6.77969">
        <ele>1726.8413</ele>
        <time>2014-08-29T14:25:26Z</time>
      </trkpt>
      <trkpt lat="46.24228" lon="6.77972">
        <ele>1726.8412</ele>
        <time>2014-08-29T14:25:31Z</time>
      </trkpt>
      <trkpt lat="46.24226" lon="6.77973">
        <ele>1726.8412</ele>
        <time>2014-08-29T14:25:36Z</time>
      </trkpt>
      <trkpt lat="46.24223" lon="6.77977">
        <ele>1726.8412</ele>
        <time>2014-08-29T14:25:41Z</time>
      </trkpt>
      <trkpt lat="46.24217" lon="6.77984">
        <ele>1726.809</ele>
        <time>2014-08-29T14:25:46Z</time>
      </trkpt>
      <trkpt lat="46.24213" lon="6.77989">
        <ele>1726.809</ele>
        <time>2014-08-29T14:25:51Z</time>
      </trkpt>
      <trkpt lat="46.24207" lon="6.77993">
        <ele>1726.7754</ele>
        <time>2014-08-29T14:25:56Z</time>
      </trkpt>
      <trkpt lat="46.24201" lon="6.77997">
        <ele>1726.7754</ele>
        <time>2014-08-29T14:26:01Z</time>
      </trkpt>
      <trkpt lat="46.24196" lon="6.78">
        <ele>1726.6968</ele>
        <time>2014-08-29T14:26:06Z</time>
      </trkpt>
      <trkpt lat="46.2419" lon="6.78001">
        <ele>1726.6968</ele>
        <time>2014-08-29T14:26:11Z</time>
      </trkpt>
      <trkpt lat="46.24187" lon="6.78002">
        <ele>1726.6968</ele>
        <time>2014-08-29T14:26:16Z</time>
      </trkpt>
      <trkpt lat="46.24182" lon="6.78004">
        <ele>1726.3168</ele>
        <time>2014-08-29T14:26:21Z</time>
      </trkpt>
      <trkpt lat="46.24177" lon="6.78007">
        <ele>1726.3168</ele>
        <time>2014-08-29T14:26:26Z</time>
      </trkpt>
      <trkpt lat="46.24174" lon="6.78009">
        <ele>1725.759</ele>
        <time>2014-08-29T14:26:31Z</time>
      </trkpt>
      <trkpt lat="46.24169" lon="6.78016">
        <ele>1725.759</ele>
        <time>2014-08-29T14:26:36Z</time>
      </trkpt>
      <trkpt lat="46.24164" lon="6.78021">
        <ele>1725.1963</ele>
        <time>2014-08-29T14:26:41Z</time>
      </trkpt>
      <trkpt lat="46.24158" lon="6.78025">
        <ele>1725.1963</ele>
        <time>2014-08-29T14:26:46Z</time>
      </trkpt>
      <trkpt lat="46.24157" lon="6.78026">
        <ele>1725.1963</ele>
        <time>2014-08-29T14:26:51Z</time>
      </trkpt>
      <trkpt lat="46.2415" lon="6.78033">
        <ele>1724.4282</ele>
        <time>2014-08-29T14:26:56Z</time>
      </trkpt>
      <trkpt lat="46.24144" lon="6.78035">
        <ele>1724.4282</ele>
        <time>2014-08-29T14:27:01Z</time>
      </trkpt>
      <trkpt lat="46.24138" lon="6.78039">
        <ele>1723.6016</ele>
        <time>2014-08-29T14:27:06Z</time>
      </trkpt>
      <trkpt lat="46.24136" lon="6.78041">
        <ele>1723.6016</ele>
        <time>2014-08-29T14:27:11Z</time>
      </trkpt>
      <trkpt lat="46.24135" lon="6.78044">
        <ele>1723.6016</ele>
        <time>2014-08-29T14:27:16Z</time>
      </trkpt>
      <trkpt lat="46.24129" lon="6.7805">
        <ele>1722.636</ele>
        <time>2014-08-29T14:27:21Z</time>
      </trkpt>
      <trkpt lat="46.24125" lon="6.78053">
        <ele>1722.636</ele>
        <time>2014-08-29T14:27:26Z</time>
      </trkpt>
      <trkpt lat="46.24123" lon="6.78056">
        <ele>1722.636</ele>
        <time>2014-08-29T14:27:31Z</time>
      </trkpt>
      <trkpt lat="46.24117" lon="6.7806">
        <ele>1721.501</ele>
        <time>2014-08-29T14:27:36Z</time>
      </trkpt>
      <trkpt lat="46.24114" lon="6.78063">
        <ele>1721.501</ele>
        <time>2014-08-29T14:27:41Z</time>
      </trkpt>
      <trkpt lat="46.24108" lon="6.78067">
        <ele>1720.3705</ele>
        <time>2014-08-29T14:27:46Z</time>
      </trkpt>
      <trkpt lat="46.24102" lon="6.7807">
        <ele>1720.3705</ele>
        <time>2014-08-29T14:27:51Z</time>
      </trkpt>
      <trkpt lat="46.24096" lon="6.78073">
        <ele>1719.29</ele>
        <time>2014-08-29T14:27:56Z</time>
      </trkpt>
      <trkpt lat="46.2409" lon="6.78077">
        <ele>1719.29</ele>
        <time>2014-08-29T14:28:01Z</time>
      </trkpt>
      <trkpt lat="46.24088" lon="6.78078">
        <ele>1719.29</ele>
        <time>2014-08-29T14:28:06Z</time>
      </trkpt>
      <trkpt lat="46.24083" lon="6.78081">
        <ele>1718.2156</ele>
        <time>2014-08-29T14:28:11Z</time>
      </trkpt>
      <trkpt lat="46.24078" lon="6.78084">
        <ele>1718.2156</ele>
        <time>2014-08-29T14:28:16Z</time>
      </trkpt>
      <trkpt lat="46.24072" lon="6.78085">
        <ele>1717.0774</ele>
        <time>2014-08-29T14:28:21Z</time>
      </trkpt>
      <trkpt lat="46.24066" lon="6.78088">
        <ele>1717.0774</ele>
        <time>2014-08-29T14:28:26Z</time>
      </trkpt>
      <trkpt lat="46.24063" lon="6.78088">
        <ele>1715.955</ele>
        <time>2014-08-29T14:28:31Z</time>
      </trkpt>
      <trkpt lat="46.24057" lon="6.7809">
        <ele>1715.955</ele>
        <time>2014-08-29T14:28:36Z</time>
      </trkpt>
      <trkpt lat="46.24052" lon="6.78094">
        <ele>1714.9075</ele>
        <time>2014-08-29T14:28:41Z</time>
      </trkpt>
      <trkpt lat="46.24045" lon="6.78093">
        <ele>1714.9075</ele>
        <time>2014-08-29T14:28:46Z</time>
      </trkpt>
      <trkpt lat="46.24037" lon="6.78093">
        <ele>1713.9465</ele>
        <time>2014-08-29T14:28:51Z</time>
      </trkpt>
      <trkpt lat="46.24032" lon="6.78094">
        <ele>1713.9465</ele>
        <time>2014-08-29T14:28:56Z</time>
      </trkpt>
      <trkpt lat="46.24029" lon="6.78094">
        <ele>1713.9465</ele>
        <time>2014-08-29T14:29:01Z</time>
      </trkpt>
      <trkpt lat="46.24025" lon="6.78092">
        <ele>1712.9237</ele>
        <time>2014-08-29T14:29:06Z</time>
      </trkpt>
      <trkpt lat="46.24022" lon="6.78089">
        <ele>1712.9237</ele>
        <time>2014-08-29T14:29:11Z</time>
      </trkpt>
      <trkpt lat="46.24017" lon="6.78086">
        <ele>1711.9902</ele>
        <time>2014-08-29T14:29:16Z</time>
      </trkpt>
      <trkpt lat="46.24013" lon="6.78081">
        <ele>1711.9902</ele>
        <time>2014-08-29T14:29:21Z</time>
      </trkpt>
      <trkpt lat="46.24007" lon="6.78077">
        <ele>1711.0839</ele>
        <time>2014-08-29T14:29:26Z</time>
      </trkpt>
      <trkpt lat="46.23998" lon="6.78077">
        <ele>1710.291</ele>
        <time>2014-08-29T14:29:31Z</time>
      </trkpt>
      <trkpt lat="46.23992" lon="6.78076">
        <ele>1710.291</ele>
        <time>2014-08-29T14:29:36Z</time>
      </trkpt>
      <trkpt lat="46.23985" lon="6.78075">
        <ele>1709.6338</ele>
        <time>2014-08-29T14:29:41Z</time>
      </trkpt>
      <trkpt lat="46.23979" lon="6.78074">
        <ele>1709.6338</ele>
        <time>2014-08-29T14:29:46Z</time>
      </trkpt>
      <trkpt lat="46.23973" lon="6.78074">
        <ele>1709.089</ele>
        <time>2014-08-29T14:29:51Z</time>
      </trkpt>
      <trkpt lat="46.23969" lon="6.78073">
        <ele>1709.089</ele>
        <time>2014-08-29T14:29:56Z</time>
      </trkpt>
      <trkpt lat="46.23963" lon="6.7807">
        <ele>1708.6923</ele>
        <time>2014-08-29T14:30:01Z</time>
      </trkpt>
      <trkpt lat="46.23957" lon="6.78065">
        <ele>1708.6923</ele>
        <time>2014-08-29T14:30:06Z</time>
      </trkpt>
      <trkpt lat="46.23953" lon="6.78061">
        <ele>1708.3466</ele>
        <time>2014-08-29T14:30:11Z</time>
      </trkpt>
      <trkpt lat="46.23948" lon="6.78057">
        <ele>1708.3466</ele>
        <time>2014-08-29T14:30:16Z</time>
      </trkpt>
      <trkpt lat="46.23941" lon="6.78053">
        <ele>1708.0917</ele>
        <time>2014-08-29T14:30:21Z</time>
      </trkpt>
      <trkpt lat="46.23938" lon="6.7805">
        <ele>1708.0917</ele>
        <time>2014-08-29T14:30:26Z</time>
      </trkpt>
      <trkpt lat="46.23934" lon="6.78045">
        <ele>1708.0917</ele>
        <time>2014-08-29T14:30:31Z</time>
      </trkpt>
      <trkpt lat="46.2393" lon="6.78043">
        <ele>1707.8917</ele>
        <time>2014-08-29T14:30:36Z</time>
      </trkpt>
      <trkpt lat="46.23922" lon="6.78042">
        <ele>1707.8917</ele>
        <time>2014-08-29T14:30:41Z</time>
      </trkpt>
      <trkpt lat="46.23917" lon="6.78041">
        <ele>1707.7279</ele>
        <time>2014-08-29T14:30:46Z</time>
      </trkpt>
      <trkpt lat="46.23913" lon="6.7804">
        <ele>1707.7279</ele>
        <time>2014-08-29T14:30:51Z</time>
      </trkpt>
      <trkpt lat="46.23906" lon="6.78038">
        <ele>1707.4674</ele>
        <time>2014-08-29T14:30:56Z</time>
      </trkpt>
      <trkpt lat="46.23901" lon="6.78036">
        <ele>1707.4674</ele>
        <time>2014-08-29T14:31:01Z</time>
      </trkpt>
      <trkpt lat="46.23895" lon="6.78032">
        <ele>1707.1604</ele>
        <time>2014-08-29T14:31:06Z</time>
      </trkpt>
      <trkpt lat="46.23889" lon="6.78029">
        <ele>1707.1604</ele>
        <time>2014-08-29T14:31:11Z</time>
      </trkpt>
      <trkpt lat="46.23885" lon="6.78026">
        <ele>1706.8676</ele>
        <time>2014-08-29T14:31:16Z</time>
      </trkpt>
      <trkpt lat="46.23881" lon="6.78024">
        <ele>1706.8676</ele>
        <time>2014-08-29T14:31:21Z</time>
      </trkpt>
      <trkpt lat="46.23881" lon="6.78023">
        <ele>1706.8676</ele>
        <time>2014-08-29T14:31:26Z</time>
      </trkpt>
      <trkpt lat="46.23881" lon="6.78024">
        <ele>1706.8676</ele>
        <time>2014-08-29T14:31:31Z</time>
      </trkpt>
      <trkpt lat="46.23882" lon="6.78024">
        <ele>1706.8676</ele>
        <time>2014-08-29T14:31:36Z</time>
      </trkpt>
      <trkpt lat="46.23883" lon="6.78025">
        <ele>1706.8676</ele>
        <time>2014-08-29T14:31:41Z</time>
      </trkpt>
      <trkpt lat="46.23883" lon="6.78025">
        <ele>1706.8676</ele>
        <time>2014-08-29T14:31:46Z</time>
      </trkpt>
      <trkpt lat="46.23884" lon="6.78026">
        <ele>1706.8676</ele>
        <time>2014-08-29T14:31:51Z</time>
      </trkpt>
      <trkpt lat="46.23884" lon="6.78026">
        <ele>1706.8676</ele>
        <time>2014-08-29T14:31:56Z</time>
      </trkpt>
      <trkpt lat="46.23884" lon="6.78026">
        <ele>1706.8676</ele>
        <time>2014-08-29T14:32:01Z</time>
      </trkpt>
      <trkpt lat="46.23885" lon="6.78024">
        <ele>1706.3138</ele>
        <time>2014-08-29T14:32:06Z</time>
      </trkpt>
      <trkpt lat="46.2388" lon="6.78024">
        <ele>1706.3138</ele>
        <time>2014-08-29T14:32:11Z</time>
      </trkpt>
      <trkpt lat="46.23873" lon="6.78021">
        <ele>1705.6487</ele>
        <time>2014-08-29T14:32:16Z</time>
      </trkpt>
      <trkpt lat="46.23868" lon="6.78018">
        <ele>1705.6487</ele>
        <time>2014-08-29T14:32:21Z</time>
      </trkpt>
      <trkpt lat="46.23862" lon="6.78016">
        <ele>1705.0106</ele>
        <time>2014-08-29T14:32:26Z</time>
      </trkpt>
      <trkpt lat="46.23857" lon="6.78014">
        <ele>1705.0106</ele>
        <time>2014-08-29T14:32:31Z</time>
      </trkpt>
      <trkpt lat="46.23853" lon="6.7801">
        <ele>1704.4559</ele>
        <time>2014-08-29T14:32:36Z</time>
      </trkpt>
      <trkpt lat="46.23848" lon="6.78007">
        <ele>1704.4559</ele>
        <time>2014-08-29T14:32:41Z</time>
      </trkpt>
      <trkpt lat="46.23844" lon="6.78005">
        <ele>1703.8782</ele>
        <time>2014-08-29T14:32:46Z</time>
      </trkpt>
      <trkpt lat="46.23839" lon="6.78001">
        <ele>1703.8782</ele>
        <time>2014-08-29T14:32:51Z</time>
      </trkpt>
      <trkpt lat="46.23835" lon="6.77997">
        <ele>1703.1063</ele>
        <time>2014-08-29T14:32:56Z</time>
      </trkpt>
      <trkpt lat="46.23829" lon="6.77996">
        <ele>1703.1063</ele>
        <time>2014-08-29T14:33:01Z</time>
      </trkpt>
      <trkpt lat="46.23821" lon="6.77993">
        <ele>1702.2422</ele>
        <time>2014-08-29T14:33:06Z</time>
      </trkpt>
      <trkpt lat="46.23815" lon="6.7799">
        <ele>1702.2422</ele>
        <time>2014-08-29T14:33:11Z</time>
      </trkpt>
      <trkpt lat="46.23809" lon="6.77986">
        <ele>1701.3947</ele>
        <time>2014-08-29T14:33:16Z</time>
      </trkpt>
      <trkpt lat="46.23805" lon="6.77983">
        <ele>1701.3947</ele>
        <time>2014-08-29T14:33:21Z</time>
      </trkpt>
      <trkpt lat="46.23797" lon="6.77985">
        <ele>1700.6356</ele>
        <time>2014-08-29T14:33:26Z</time>
      </trkpt>
      <trkpt lat="46.23793" lon="6.77984">
        <ele>1700.6356</ele>
        <time>2014-08-29T14:33:31Z</time>
      </trkpt>
      <trkpt lat="46.23788" lon="6.77982">
        <ele>1699.8873</ele>
        <time>2014-08-29T14:33:36Z</time>
      </trkpt>
      <trkpt lat="46.23783" lon="6.77978">
        <ele>1699.8873</ele>
        <time>2014-08-29T14:33:41Z</time>
      </trkpt>
      <trkpt lat="46.23775" lon="6.77976">
        <ele>1699.1355</ele>
        <time>2014-08-29T14:33:46Z</time>
      </trkpt>
      <trkpt lat="46.23772" lon="6.77975">
        <ele>1699.1355</ele>
        <time>2014-08-29T14:33:51Z</time>
      </trkpt>
      <trkpt lat="46.23765" lon="6.77973">
        <ele>1698.4098</ele>
        <time>2014-08-29T14:33:56Z</time>
      </trkpt>
      <trkpt lat="46.23759" lon="6.77968">
        <ele>1698.4098</ele>
        <time>2014-08-29T14:34:01Z</time>
      </trkpt>
      <trkpt lat="46.23754" lon="6.77964">
        <ele>1697.8387</ele>
        <time>2014-08-29T14:34:06Z</time>
      </trkpt>
      <trkpt lat="46.23745" lon="6.77962">
        <ele>1697.4401</ele>
        <time>2014-08-29T14:34:11Z</time>
      </trkpt>
      <trkpt lat="46.23736" lon="6.77964">
        <ele>1697.4401</ele>
        <time>2014-08-29T14:34:16Z</time>
      </trkpt>
      <trkpt lat="46.23732" lon="6.77965">
        <ele>1697.2152</ele>
        <time>2014-08-29T14:34:21Z</time>
      </trkpt>
      <trkpt lat="46.23728" lon="6.77961">
        <ele>1697.2152</ele>
        <time>2014-08-29T14:34:26Z</time>
      </trkpt>
      <trkpt lat="46.23723" lon="6.77958">
        <ele>1697.0928</ele>
        <time>2014-08-29T14:34:31Z</time>
      </trkpt>
      <trkpt lat="46.23721" lon="6.77955">
        <ele>1697.0928</ele>
        <time>2014-08-29T14:34:36Z</time>
      </trkpt>
      <trkpt lat="46.23717" lon="6.77952">
        <ele>1697.0928</ele>
        <time>2014-08-29T14:34:41Z</time>
      </trkpt>
      <trkpt lat="46.2371" lon="6.77949">
        <ele>1696.9059</ele>
        <time>2014-08-29T14:34:46Z</time>
      </trkpt>
      <trkpt lat="46.23703" lon="6.77948">
        <ele>1696.9059</ele>
        <time>2014-08-29T14:34:51Z</time>
      </trkpt>
      <trkpt lat="46.23696" lon="6.7795">
        <ele>1696.7589</ele>
        <time>2014-08-29T14:34:56Z</time>
      </trkpt>
      <trkpt lat="46.23689" lon="6.77949">
        <ele>1696.7589</ele>
        <time>2014-08-29T14:35:01Z</time>
      </trkpt>
      <trkpt lat="46.23683" lon="6.77949">
        <ele>1696.504</ele>
        <time>2014-08-29T14:35:06Z</time>
      </trkpt>
      <trkpt lat="46.23678" lon="6.77948">
        <ele>1696.504</ele>
        <time>2014-08-29T14:35:11Z</time>
      </trkpt>
      <trkpt lat="46.2367" lon="6.77949">
        <ele>1696.1481</ele>
        <time>2014-08-29T14:35:16Z</time>
      </trkpt>
      <trkpt lat="46.2367" lon="6.7795">
        <ele>1696.1481</ele>
        <time>2014-08-29T14:35:21Z</time>
      </trkpt>
      <trkpt lat="46.23667" lon="6.77954">
        <ele>1696.1481</ele>
        <time>2014-08-29T14:35:26Z</time>
      </trkpt>
      <trkpt lat="46.23667" lon="6.77954">
        <ele>1696.1481</ele>
        <time>2014-08-29T14:35:31Z</time>
      </trkpt>
      <trkpt lat="46.23665" lon="6.77952">
        <ele>1696.1481</ele>
        <time>2014-08-29T14:35:36Z</time>
      </trkpt>
      <trkpt lat="46.23661" lon="6.7795">
        <ele>1695.6694</ele>
        <time>2014-08-29T14:35:41Z</time>
      </trkpt>
      <trkpt lat="46.23655" lon="6.77947">
        <ele>1695.6694</ele>
        <time>2014-08-29T14:35:46Z</time>
      </trkpt>
      <trkpt lat="46.23651" lon="6.77944">
        <ele>1695.2928</ele>
        <time>2014-08-29T14:35:51Z</time>
      </trkpt>
      <trkpt lat="46.23648" lon="6.77941">
        <ele>1695.2928</ele>
        <time>2014-08-29T14:35:56Z</time>
      </trkpt>
      <trkpt lat="46.23641" lon="6.77937">
        <ele>1694.8665</ele>
        <time>2014-08-29T14:36:01Z</time>
      </trkpt>
      <trkpt lat="46.23637" lon="6.77935">
        <ele>1694.8665</ele>
        <time>2014-08-29T14:36:06Z</time>
      </trkpt>
      <trkpt lat="46.2363" lon="6.7793">
        <ele>1694.3359</ele>
        <time>2014-08-29T14:36:11Z</time>
      </trkpt>
      <trkpt lat="46.23626" lon="6.77928">
        <ele>1694.3359</ele>
        <time>2014-08-29T14:36:16Z</time>
      </trkpt>
      <trkpt lat="46.23622" lon="6.77926">
        <ele>1694.3359</ele>
        <time>2014-08-29T14:36:21Z</time>
      </trkpt>
      <trkpt lat="46.23619" lon="6.77923">
        <ele>1693.6368</ele>
        <time>2014-08-29T14:36:26Z</time>
      </trkpt>
      <trkpt lat="46.23614" lon="6.77917">
        <ele>1693.6368</ele>
        <time>2014-08-29T14:36:31Z</time>
      </trkpt>
      <trkpt lat="46.23609" lon="6.77913">
        <ele>1693.027</ele>
        <time>2014-08-29T14:36:36Z</time>
      </trkpt>
      <trkpt lat="46.23605" lon="6.7791">
        <ele>1693.027</ele>
        <time>2014-08-29T14:36:41Z</time>
      </trkpt>
      <trkpt lat="46.236" lon="6.77904">
        <ele>1692.3704</ele>
        <time>2014-08-29T14:36:46Z</time>
      </trkpt>
      <trkpt lat="46.23591" lon="6.779">
        <ele>1692.3704</ele>
        <time>2014-08-29T14:36:51Z</time>
      </trkpt>
      <trkpt lat="46.23587" lon="6.77896">
        <ele>1691.7861</ele>
        <time>2014-08-29T14:36:56Z</time>
      </trkpt>
      <trkpt lat="46.23584" lon="6.77891">
        <ele>1691.7861</ele>
        <time>2014-08-29T14:37:01Z</time>
      </trkpt>
      <trkpt lat="46.23579" lon="6.77889">
        <ele>1691.2688</ele>
        <time>2014-08-29T14:37:06Z</time>
      </trkpt>
      <trkpt lat="46.23574" lon="6.77886">
        <ele>1691.2688</ele>
        <time>2014-08-29T14:37:11Z</time>
      </trkpt>
      <trkpt lat="46.23571" lon="6.77883">
        <ele>1690.7993</ele>
        <time>2014-08-29T14:37:16Z</time>
      </trkpt>
      <trkpt lat="46.23564" lon="6.77877">
        <ele>1690.7993</ele>
        <time>2014-08-29T14:37:21Z</time>
      </trkpt>
      <trkpt lat="46.23558" lon="6.77872">
        <ele>1690.4458</ele>
        <time>2014-08-29T14:37:26Z</time>
      </trkpt>
      <trkpt lat="46.23548" lon="6.77869">
        <ele>1690.3435</ele>
        <time>2014-08-29T14:37:31Z</time>
      </trkpt>
      <trkpt lat="46.23543" lon="6.77866">
        <ele>1690.3435</ele>
        <time>2014-08-29T14:37:36Z</time>
      </trkpt>
      <trkpt lat="46.23531" lon="6.77856">
        <ele>1690.7897</ele>
        <time>2014-08-29T14:37:41Z</time>
      </trkpt>
      <trkpt lat="46.23529" lon="6.77854">
        <ele>1690.7897</ele>
        <time>2014-08-29T14:37:46Z</time>
      </trkpt>
      <trkpt lat="46.23527" lon="6.77853">
        <ele>1690.7897</ele>
        <time>2014-08-29T14:37:51Z</time>
      </trkpt>
      <trkpt lat="46.23523" lon="6.77849">
        <ele>1690.7897</ele>
        <time>2014-08-29T14:37:56Z</time>
      </trkpt>
      <trkpt lat="46.23522" lon="6.77848">
        <ele>1691.9143</ele>
        <time>2014-08-29T14:38:01Z</time>
      </trkpt>
      <trkpt lat="46.23521" lon="6.77846">
        <ele>1691.9143</ele>
        <time>2014-08-29T14:38:06Z</time>
      </trkpt>
      <trkpt lat="46.2352" lon="6.77843">
        <ele>1691.9143</ele>
        <time>2014-08-29T14:38:11Z</time>
      </trkpt>
      <trkpt lat="46.23519" lon="6.77839">
        <ele>1691.9143</ele>
        <time>2014-08-29T14:38:16Z</time>
      </trkpt>
      <trkpt lat="46.23518" lon="6.77831">
        <ele>1693.0288</ele>
        <time>2014-08-29T14:38:21Z</time>
      </trkpt>
      <trkpt lat="46.23517" lon="6.77821">
        <ele>1693.0288</ele>
        <time>2014-08-29T14:38:26Z</time>
      </trkpt>
      <trkpt lat="46.23516" lon="6.77813">
        <ele>1694.086</ele>
        <time>2014-08-29T14:38:31Z</time>
      </trkpt>
      <trkpt lat="46.23514" lon="6.77806">
        <ele>1694.086</ele>
        <time>2014-08-29T14:38:36Z</time>
      </trkpt>
      <trkpt lat="46.23512" lon="6.77797">
        <ele>1694.9994</ele>
        <time>2014-08-29T14:38:41Z</time>
      </trkpt>
      <trkpt lat="46.23508" lon="6.77788">
        <ele>1694.9994</ele>
        <time>2014-08-29T14:38:46Z</time>
      </trkpt>
      <trkpt lat="46.23507" lon="6.77782">
        <ele>1695.6746</ele>
        <time>2014-08-29T14:38:51Z</time>
      </trkpt>
      <trkpt lat="46.23507" lon="6.77773">
        <ele>1695.6746</ele>
        <time>2014-08-29T14:38:56Z</time>
      </trkpt>
      <trkpt lat="46.23505" lon="6.77762">
        <ele>1696.1116</ele>
        <time>2014-08-29T14:39:01Z</time>
      </trkpt>
      <trkpt lat="46.23503" lon="6.77754">
        <ele>1696.1116</ele>
        <time>2014-08-29T14:39:06Z</time>
      </trkpt>
      <trkpt lat="46.23498" lon="6.77747">
        <ele>1696.4695</ele>
        <time>2014-08-29T14:39:11Z</time>
      </trkpt>
      <trkpt lat="46.23491" lon="6.77743">
        <ele>1696.4695</ele>
        <time>2014-08-29T14:39:16Z</time>
      </trkpt>
      <trkpt lat="46.23481" lon="6.77743">
        <ele>1696.8383</ele>
        <time>2014-08-29T14:39:21Z</time>
      </trkpt>
      <trkpt lat="46.23475" lon="6.77745">
        <ele>1696.8383</ele>
        <time>2014-08-29T14:39:26Z</time>
      </trkpt>
      <trkpt lat="46.23472" lon="6.77748">
        <ele>1697.2151</ele>
        <time>2014-08-29T14:39:31Z</time>
      </trkpt>
      <trkpt lat="46.23468" lon="6.77751">
        <ele>1697.2151</ele>
        <time>2014-08-29T14:39:36Z</time>
      </trkpt>
      <trkpt lat="46.23464" lon="6.77754">
        <ele>1697.5684</ele>
        <time>2014-08-29T14:39:41Z</time>
      </trkpt>
      <trkpt lat="46.23459" lon="6.77756">
        <ele>1697.5684</ele>
        <time>2014-08-29T14:39:46Z</time>
      </trkpt>
      <trkpt lat="46.23454" lon="6.77761">
        <ele>1697.941</ele>
        <time>2014-08-29T14:39:51Z</time>
      </trkpt>
      <trkpt lat="46.23448" lon="6.77766">
        <ele>1697.941</ele>
        <time>2014-08-29T14:39:56Z</time>
      </trkpt>
      <trkpt lat="46.23444" lon="6.77771">
        <ele>1698.3297</ele>
        <time>2014-08-29T14:40:01Z</time>
      </trkpt>
      <trkpt lat="46.2344" lon="6.77774">
        <ele>1698.3297</ele>
        <time>2014-08-29T14:40:06Z</time>
      </trkpt>
      <trkpt lat="46.23435" lon="6.77776">
        <ele>1698.6449</ele>
        <time>2014-08-29T14:40:11Z</time>
      </trkpt>
      <trkpt lat="46.23432" lon="6.77777">
        <ele>1698.6449</ele>
        <time>2014-08-29T14:40:16Z</time>
      </trkpt>
      <trkpt lat="46.23428" lon="6.77779">
        <ele>1698.6449</ele>
        <time>2014-08-29T14:40:21Z</time>
      </trkpt>
      <trkpt lat="46.23423" lon="6.77781">
        <ele>1698.7029</ele>
        <time>2014-08-29T14:40:26Z</time>
      </trkpt>
      <trkpt lat="46.23413" lon="6.77782">
        <ele>1698.637</ele>
        <time>2014-08-29T14:40:31Z</time>
      </trkpt>
      <trkpt lat="46.23406" lon="6.77779">
        <ele>1698.637</ele>
        <time>2014-08-29T14:40:36Z</time>
      </trkpt>
      <trkpt lat="46.23401" lon="6.77777">
        <ele>1698.5424</ele>
        <time>2014-08-29T14:40:41Z</time>
      </trkpt>
      <trkpt lat="46.23397" lon="6.77773">
        <ele>1698.5424</ele>
        <time>2014-08-29T14:40:46Z</time>
      </trkpt>
      <trkpt lat="46.23392" lon="6.7777">
        <ele>1698.464</ele>
        <time>2014-08-29T14:40:51Z</time>
      </trkpt>
      <trkpt lat="46.23387" lon="6.77761">
        <ele>1698.464</ele>
        <time>2014-08-29T14:40:56Z</time>
      </trkpt>
      <trkpt lat="46.23385" lon="6.77753">
        <ele>1698.357</ele>
        <time>2014-08-29T14:41:01Z</time>
      </trkpt>
      <trkpt lat="46.23381" lon="6.77748">
        <ele>1698.357</ele>
        <time>2014-08-29T14:41:06Z</time>
      </trkpt>
      <trkpt lat="46.23379" lon="6.77743">
        <ele>1698.1948</ele>
        <time>2014-08-29T14:41:11Z</time>
      </trkpt>
      <trkpt lat="46.23376" lon="6.77736">
        <ele>1698.1948</ele>
        <time>2014-08-29T14:41:16Z</time>
      </trkpt>
      <trkpt lat="46.23374" lon="6.77727">
        <ele>1697.7651</ele>
        <time>2014-08-29T14:41:21Z</time>
      </trkpt>
      <trkpt lat="46.23372" lon="6.77721">
        <ele>1697.7651</ele>
        <time>2014-08-29T14:41:26Z</time>
      </trkpt>
      <trkpt lat="46.23365" lon="6.77711">
        <ele>1697.1173</ele>
        <time>2014-08-29T14:41:31Z</time>
      </trkpt>
      <trkpt lat="46.2336" lon="6.77702">
        <ele>1697.1173</ele>
        <time>2014-08-29T14:41:36Z</time>
      </trkpt>
      <trkpt lat="46.23353" lon="6.77697">
        <ele>1696.4562</ele>
        <time>2014-08-29T14:41:41Z</time>
      </trkpt>
      <trkpt lat="46.23348" lon="6.77695">
        <ele>1696.4562</ele>
        <time>2014-08-29T14:41:46Z</time>
      </trkpt>
      <trkpt lat="46.23345" lon="6.77695">
        <ele>1696.4562</ele>
        <time>2014-08-29T14:41:51Z</time>
      </trkpt>
      <trkpt lat="46.23342" lon="6.77695">
        <ele>1695.6547</ele>
        <time>2014-08-29T14:41:56Z</time>
      </trkpt>
      <trkpt lat="46.23337" lon="6.77697">
        <ele>1695.6547</ele>
        <time>2014-08-29T14:42:01Z</time>
      </trkpt>
      <trkpt lat="46.23332" lon="6.77699">
        <ele>1694.6096</ele>
        <time>2014-08-29T14:42:06Z</time>
      </trkpt>
      <trkpt lat="46.23328" lon="6.77702">
        <ele>1694.6096</ele>
        <time>2014-08-29T14:42:11Z</time>
      </trkpt>
      <trkpt lat="46.23322" lon="6.77703">
        <ele>1693.3706</ele>
        <time>2014-08-29T14:42:16Z</time>
      </trkpt>
      <trkpt lat="46.23316" lon="6.77705">
        <ele>1693.3706</ele>
        <time>2014-08-29T14:42:21Z</time>
      </trkpt>
      <trkpt lat="46.23312" lon="6.77706">
        <ele>1692.0559</ele>
        <time>2014-08-29T14:42:26Z</time>
      </trkpt>
      <trkpt lat="46.23308" lon="6.77706">
        <ele>1692.0559</ele>
        <time>2014-08-29T14:42:31Z</time>
      </trkpt>
      <trkpt lat="46.23303" lon="6.77707">
        <ele>1690.7754</ele>
        <time>2014-08-29T14:42:36Z</time>
      </trkpt>
      <trkpt lat="46.23297" lon="6.77708">
        <ele>1690.7754</ele>
        <time>2014-08-29T14:42:41Z</time>
      </trkpt>
      <trkpt lat="46.2329" lon="6.7771">
        <ele>1689.6019</ele>
        <time>2014-08-29T14:42:46Z</time>
      </trkpt>
      <trkpt lat="46.23282" lon="6.77715">
        <ele>1688.545</ele>
        <time>2014-08-29T14:42:51Z</time>
      </trkpt>
      <trkpt lat="46.23277" lon="6.77719">
        <ele>1688.545</ele>
        <time>2014-08-29T14:42:56Z</time>
      </trkpt>
      <trkpt lat="46.2327" lon="6.77722">
        <ele>1687.5414</ele>
        <time>2014-08-29T14:43:01Z</time>
      </trkpt>
      <trkpt lat="46.23265" lon="6.77727">
        <ele>1687.5414</ele>
        <time>2014-08-29T14:43:06Z</time>
      </trkpt>
      <trkpt lat="46.2326" lon="6.7773">
        <ele>1686.618</ele>
        <time>2014-08-29T14:43:11Z</time>
      </trkpt>
      <trkpt lat="46.23255" lon="6.77728">
        <ele>1686.618</ele>
        <time>2014-08-29T14:43:16Z</time>
      </trkpt>
      <trkpt lat="46.2325" lon="6.7773">
        <ele>1685.8004</ele>
        <time>2014-08-29T14:43:21Z</time>
      </trkpt>
      <trkpt lat="46.23242" lon="6.77733">
        <ele>1685.8004</ele>
        <time>2014-08-29T14:43:26Z</time>
      </trkpt>
      <trkpt lat="46.23236" lon="6.77732">
        <ele>1685.1259</ele>
        <time>2014-08-29T14:43:31Z</time>
      </trkpt>
      <trkpt lat="46.23232" lon="6.77731">
        <ele>1685.1259</ele>
        <time>2014-08-29T14:43:36Z</time>
      </trkpt>
      <trkpt lat="46.23227" lon="6.77729">
        <ele>1684.4987</ele>
        <time>2014-08-29T14:43:41Z</time>
      </trkpt>
      <trkpt lat="46.23223" lon="6.77729">
        <ele>1684.4987</ele>
        <time>2014-08-29T14:43:46Z</time>
      </trkpt>
      <trkpt lat="46.23219" lon="6.77727">
        <ele>1684.4987</ele>
        <time>2014-08-29T14:43:51Z</time>
      </trkpt>
      <trkpt lat="46.23214" lon="6.77725">
        <ele>1683.8302</ele>
        <time>2014-08-29T14:43:56Z</time>
      </trkpt>
      <trkpt lat="46.23209" lon="6.77723">
        <ele>1683.8302</ele>
        <time>2014-08-29T14:44:01Z</time>
      </trkpt>
      <trkpt lat="46.23205" lon="6.77718">
        <ele>1683.1536</ele>
        <time>2014-08-29T14:44:06Z</time>
      </trkpt>
      <trkpt lat="46.23198" lon="6.77713">
        <ele>1683.1536</ele>
        <time>2014-08-29T14:44:11Z</time>
      </trkpt>
      <trkpt lat="46.23194" lon="6.77709">
        <ele>1682.5862</ele>
        <time>2014-08-29T14:44:16Z</time>
      </trkpt>
      <trkpt lat="46.23191" lon="6.77706">
        <ele>1682.5862</ele>
        <time>2014-08-29T14:44:21Z</time>
      </trkpt>
      <trkpt lat="46.23186" lon="6.77702">
        <ele>1682.1929</ele>
        <time>2014-08-29T14:44:26Z</time>
      </trkpt>
      <trkpt lat="46.2318" lon="6.77698">
        <ele>1682.1929</ele>
        <time>2014-08-29T14:44:31Z</time>
      </trkpt>
      <trkpt lat="46.23175" lon="6.77696">
        <ele>1681.9036</ele>
        <time>2014-08-29T14:44:36Z</time>
      </trkpt>
      <trkpt lat="46.23168" lon="6.77693">
        <ele>1681.9036</ele>
        <time>2014-08-29T14:44:41Z</time>
      </trkpt>
      <trkpt lat="46.23164" lon="6.77689">
        <ele>1681.6964</ele>
        <time>2014-08-29T14:44:46Z</time>
      </trkpt>
      <trkpt lat="46.2316" lon="6.77685">
        <ele>1681.6964</ele>
        <time>2014-08-29T14:44:51Z</time>
      </trkpt>
      <trkpt lat="46.23158" lon="6.77681">
        <ele>1681.6964</ele>
        <time>2014-08-29T14:44:56Z</time>
      </trkpt>
      <trkpt lat="46.23154" lon="6.77672">
        <ele>1681.4642</ele>
        <time>2014-08-29T14:45:01Z</time>
      </trkpt>
      <trkpt lat="46.23148" lon="6.77666">
        <ele>1681.4642</ele>
        <time>2014-08-29T14:45:06Z</time>
      </trkpt>
      <trkpt lat="46.23144" lon="6.77661">
        <ele>1681.2377</ele>
        <time>2014-08-29T14:45:11Z</time>
      </trkpt>
      <trkpt lat="46.23139" lon="6.77655">
        <ele>1681.2377</ele>
        <time>2014-08-29T14:45:16Z</time>
      </trkpt>
      <trkpt lat="46.23135" lon="6.77648">
        <ele>1681.0159</ele>
        <time>2014-08-29T14:45:21Z</time>
      </trkpt>
      <trkpt lat="46.23134" lon="6.77648">
        <ele>1681.0159</ele>
        <time>2014-08-29T14:45:26Z</time>
      </trkpt>
      <trkpt lat="46.23131" lon="6.77646">
        <ele>1681.0159</ele>
        <time>2014-08-29T14:45:31Z</time>
      </trkpt>
      <trkpt lat="46.23129" lon="6.77642">
        <ele>1681.0159</ele>
        <time>2014-08-29T14:45:36Z</time>
      </trkpt>
      <trkpt lat="46.23125" lon="6.77637">
        <ele>1680.8271</ele>
        <time>2014-08-29T14:45:41Z</time>
      </trkpt>
      <trkpt lat="46.23122" lon="6.77629">
        <ele>1680.8271</ele>
        <time>2014-08-29T14:45:46Z</time>
      </trkpt>
      <trkpt lat="46.2312" lon="6.77623">
        <ele>1680.8418</ele>
        <time>2014-08-29T14:45:51Z</time>
      </trkpt>
      <trkpt lat="46.23117" lon="6.77618">
        <ele>1680.8418</ele>
        <time>2014-08-29T14:45:56Z</time>
      </trkpt>
      <trkpt lat="46.23115" lon="6.77612">
        <ele>1681.0581</ele>
        <time>2014-08-29T14:46:01Z</time>
      </trkpt>
      <trkpt lat="46.23112" lon="6.77604">
        <ele>1681.0581</ele>
        <time>2014-08-29T14:46:06Z</time>
      </trkpt>
      <trkpt lat="46.23111" lon="6.77602">
        <ele>1681.0581</ele>
        <time>2014-08-29T14:46:11Z</time>
      </trkpt>
      <trkpt lat="46.23109" lon="6.77594">
        <ele>1681.2723</ele>
        <time>2014-08-29T14:46:16Z</time>
      </trkpt>
      <trkpt lat="46.23104" lon="6.7758">
        <ele>1681.469</ele>
        <time>2014-08-29T14:46:21Z</time>
      </trkpt>
      <trkpt lat="46.23097" lon="6.7757">
        <ele>1681.633</ele>
        <time>2014-08-29T14:46:26Z</time>
      </trkpt>
      <trkpt lat="46.23092" lon="6.77565">
        <ele>1681.633</ele>
        <time>2014-08-29T14:46:31Z</time>
      </trkpt>
      <trkpt lat="46.23088" lon="6.77561">
        <ele>1681.8234</ele>
        <time>2014-08-29T14:46:36Z</time>
      </trkpt>
      <trkpt lat="46.23085" lon="6.77556">
        <ele>1681.8234</ele>
        <time>2014-08-29T14:46:41Z</time>
      </trkpt>
      <trkpt lat="46.23081" lon="6.77553">
        <ele>1681.8234</ele>
        <time>2014-08-29T14:46:46Z</time>
      </trkpt>
      <trkpt lat="46.23078" lon="6.77549">
        <ele>1682.0365</ele>
        <time>2014-08-29T14:46:51Z</time>
      </trkpt>
      <trkpt lat="46.23073" lon="6.77541">
        <ele>1682.0365</ele>
        <time>2014-08-29T14:46:56Z</time>
      </trkpt>
      <trkpt lat="46.23069" lon="6.77532">
        <ele>1682.1537</ele>
        <time>2014-08-29T14:47:01Z</time>
      </trkpt>
      <trkpt lat="46.23067" lon="6.77521">
        <ele>1682.1537</ele>
        <time>2014-08-29T14:47:06Z</time>
      </trkpt>
      <trkpt lat="46.23067" lon="6.77514">
        <ele>1682.0514</ele>
        <time>2014-08-29T14:47:11Z</time>
      </trkpt>
      <trkpt lat="46.23067" lon="6.77507">
        <ele>1682.0514</ele>
        <time>2014-08-29T14:47:16Z</time>
      </trkpt>
      <trkpt lat="46.23065" lon="6.77498">
        <ele>1681.8456</ele>
        <time>2014-08-29T14:47:21Z</time>
      </trkpt>
      <trkpt lat="46.23064" lon="6.77486">
        <ele>1681.8456</ele>
        <time>2014-08-29T14:47:26Z</time>
      </trkpt>
      <trkpt lat="46.23061" lon="6.77478">
        <ele>1681.587</ele>
        <time>2014-08-29T14:47:31Z</time>
      </trkpt>
      <trkpt lat="46.23059" lon="6.77476">
        <ele>1681.587</ele>
        <time>2014-08-29T14:47:36Z</time>
      </trkpt>
      <trkpt lat="46.23057" lon="6.77466">
        <ele>1681.2792</ele>
        <time>2014-08-29T14:47:41Z</time>
      </trkpt>
      <trkpt lat="46.23054" lon="6.77453">
        <ele>1681.2792</ele>
        <time>2014-08-29T14:47:46Z</time>
      </trkpt>
      <trkpt lat="46.23053" lon="6.77446">
        <ele>1680.9403</ele>
        <time>2014-08-29T14:47:51Z</time>
      </trkpt>
      <trkpt lat="46.23048" lon="6.77441">
        <ele>1680.9403</ele>
        <time>2014-08-29T14:47:56Z</time>
      </trkpt>
      <trkpt lat="46.23045" lon="6.77439">
        <ele>1680.6157</ele>
        <time>2014-08-29T14:48:01Z</time>
      </trkpt>
      <trkpt lat="46.23039" lon="6.77439">
        <ele>1680.6157</ele>
        <time>2014-08-29T14:48:06Z</time>
      </trkpt>
      <trkpt lat="46.23036" lon="6.77437">
        <ele>1680.2325</ele>
        <time>2014-08-29T14:48:11Z</time>
      </trkpt>
      <trkpt lat="46.23031" lon="6.77434">
        <ele>1680.2325</ele>
        <time>2014-08-29T14:48:16Z</time>
      </trkpt>
      <trkpt lat="46.23026" lon="6.77431">
        <ele>1679.7664</ele>
        <time>2014-08-29T14:48:21Z</time>
      </trkpt>
      <trkpt lat="46.23023" lon="6.77427">
        <ele>1679.7664</ele>
        <time>2014-08-29T14:48:26Z</time>
      </trkpt>
      <trkpt lat="46.23017" lon="6.77421">
        <ele>1679.2382</ele>
        <time>2014-08-29T14:48:31Z</time>
      </trkpt>
      <trkpt lat="46.23008" lon="6.77417">
        <ele>1679.2382</ele>
        <time>2014-08-29T14:48:36Z</time>
      </trkpt>
      <trkpt lat="46.23003" lon="6.77412">
        <ele>1678.8406</ele>
        <time>2014-08-29T14:48:41Z</time>
      </trkpt>
      <trkpt lat="46.22997" lon="6.77408">
        <ele>1678.8406</ele>
        <time>2014-08-29T14:48:46Z</time>
      </trkpt>
      <trkpt lat="46.22992" lon="6.77407">
        <ele>1678.4633</ele>
        <time>2014-08-29T14:48:51Z</time>
      </trkpt>
      <trkpt lat="46.22988" lon="6.77399">
        <ele>1678.4633</ele>
        <time>2014-08-29T14:48:56Z</time>
      </trkpt>
      <trkpt lat="46.22984" lon="6.77394">
        <ele>1678.0186</ele>
        <time>2014-08-29T14:49:01Z</time>
      </trkpt>
      <trkpt lat="46.22981" lon="6.77391">
        <ele>1678.0186</ele>
        <time>2014-08-29T14:49:06Z</time>
      </trkpt>
      <trkpt lat="46.22977" lon="6.77384">
        <ele>1677.5262</ele>
        <time>2014-08-29T14:49:11Z</time>
      </trkpt>
      <trkpt lat="46.22974" lon="6.77374">
        <ele>1677.5262</ele>
        <time>2014-08-29T14:49:16Z</time>
      </trkpt>
      <trkpt lat="46.2297" lon="6.77368">
        <ele>1676.9904</ele>
        <time>2014-08-29T14:49:21Z</time>
      </trkpt>
      <trkpt lat="46.22967" lon="6.7736">
        <ele>1676.9904</ele>
        <time>2014-08-29T14:49:26Z</time>
      </trkpt>
      <trkpt lat="46.22963" lon="6.77358">
        <ele>1676.4292</ele>
        <time>2014-08-29T14:49:31Z</time>
      </trkpt>
      <trkpt lat="46.22961" lon="6.77357">
        <ele>1676.4292</ele>
        <time>2014-08-29T14:49:36Z</time>
      </trkpt>
      <trkpt lat="46.22962" lon="6.77358">
        <ele>1676.4292</ele>
        <time>2014-08-29T14:49:41Z</time>
      </trkpt>
      <trkpt lat="46.22962" lon="6.77359">
        <ele>1676.4292</ele>
        <time>2014-08-29T14:49:46Z</time>
      </trkpt>
      <trkpt lat="46.22963" lon="6.7736">
        <ele>1676.4292</ele>
        <time>2014-08-29T14:49:51Z</time>
      </trkpt>
      <trkpt lat="46.22962" lon="6.7736">
        <ele>1676.4292</ele>
        <time>2014-08-29T14:49:56Z</time>
      </trkpt>
      <trkpt lat="46.22963" lon="6.7736">
        <ele>1676.4292</ele>
        <time>2014-08-29T14:50:01Z</time>
      </trkpt>
      <trkpt lat="46.22964" lon="6.7736">
        <ele>1676.4292</ele>
        <time>2014-08-29T14:50:06Z</time>
      </trkpt>
      <trkpt lat="46.22964" lon="6.77362">
        <ele>1676.4292</ele>
        <time>2014-08-29T14:50:11Z</time>
      </trkpt>
      <trkpt lat="46.22964" lon="6.77361">
        <ele>1676.4292</ele>
        <time>2014-08-29T14:50:16Z</time>
      </trkpt>
      <trkpt lat="46.22962" lon="6.7736">
        <ele>1675.0382</ele>
        <time>2014-08-29T14:50:21Z</time>
      </trkpt>
      <trkpt lat="46.22959" lon="6.77359">
        <ele>1675.0382</ele>
        <time>2014-08-29T14:50:26Z</time>
      </trkpt>
      <trkpt lat="46.22957" lon="6.77356">
        <ele>1675.0382</ele>
        <time>2014-08-29T14:50:31Z</time>
      </trkpt>
      <trkpt lat="46.22956" lon="6.77354">
        <ele>1675.0382</ele>
        <time>2014-08-29T14:50:36Z</time>
      </trkpt>
      <trkpt lat="46.22956" lon="6.77355">
        <ele>1675.0382</ele>
        <time>2014-08-29T14:50:41Z</time>
      </trkpt>
      <trkpt lat="46.22956" lon="6.77356">
        <ele>1673.5446</ele>
        <time>2014-08-29T14:50:46Z</time>
      </trkpt>
      <trkpt lat="46.22955" lon="6.77356">
        <ele>1673.5446</ele>
        <time>2014-08-29T14:50:51Z</time>
      </trkpt>
      <trkpt lat="46.22954" lon="6.77354">
        <ele>1673.5446</ele>
        <time>2014-08-29T14:50:56Z</time>
      </trkpt>
      <trkpt lat="46.22953" lon="6.77354">
        <ele>1673.5446</ele>
        <time>2014-08-29T14:51:01Z</time>
      </trkpt>
      <trkpt lat="46.22953" lon="6.77353">
        <ele>1673.5446</ele>
        <time>2014-08-29T14:51:06Z</time>
      </trkpt>
      <trkpt lat="46.22949" lon="6.7735">
        <ele>1673.5446</ele>
        <time>2014-08-29T14:51:11Z</time>
      </trkpt>
      <trkpt lat="46.22945" lon="6.77345">
        <ele>1672.0454</ele>
        <time>2014-08-29T14:51:16Z</time>
      </trkpt>
      <trkpt lat="46.22939" lon="6.77334">
        <ele>1670.6742</ele>
        <time>2014-08-29T14:51:21Z</time>
      </trkpt>
      <trkpt lat="46.22935" lon="6.77326">
        <ele>1670.6742</ele>
        <time>2014-08-29T14:51:26Z</time>
      </trkpt>
      <trkpt lat="46.22935" lon="6.77325">
        <ele>1670.6742</ele>
        <time>2014-08-29T14:51:31Z</time>
      </trkpt>
      <trkpt lat="46.22932" lon="6.77321">
        <ele>1669.4677</ele>
        <time>2014-08-29T14:51:36Z</time>
      </trkpt>
      <trkpt lat="46.22929" lon="6.77315">
        <ele>1669.4677</ele>
        <time>2014-08-29T14:51:41Z</time>
      </trkpt>
      <trkpt lat="46.22928" lon="6.77313">
        <ele>1669.4677</ele>
        <time>2014-08-29T14:51:46Z</time>
      </trkpt>
      <trkpt lat="46.22924" lon="6.77309">
        <ele>1668.3153</ele>
        <time>2014-08-29T14:51:51Z</time>
      </trkpt>
      <trkpt lat="46.22918" lon="6.77305">
        <ele>1668.3153</ele>
        <time>2014-08-29T14:51:56Z</time>
      </trkpt>
      <trkpt lat="46.22914" lon="6.773">
        <ele>1667.2444</ele>
        <time>2014-08-29T14:52:01Z</time>
      </trkpt>
      <trkpt lat="46.22913" lon="6.77295">
        <ele>1667.2444</ele>
        <time>2014-08-29T14:52:06Z</time>
      </trkpt>
      <trkpt lat="46.22912" lon="6.77291">
        <ele>1667.2444</ele>
        <time>2014-08-29T14:52:11Z</time>
      </trkpt>
      <trkpt lat="46.22909" lon="6.77289">
        <ele>1666.5388</ele>
        <time>2014-08-29T14:52:16Z</time>
      </trkpt>
      <trkpt lat="46.22906" lon="6.77288">
        <ele>1666.5388</ele>
        <time>2014-08-29T14:52:21Z</time>
      </trkpt>
      <trkpt lat="46.22905" lon="6.77288">
        <ele>1666.5388</ele>
        <time>2014-08-29T14:52:26Z</time>
      </trkpt>
      <trkpt lat="46.22903" lon="6.77288">
        <ele>1666.5388</ele>
        <time>2014-08-29T14:52:31Z</time>
      </trkpt>
      <trkpt lat="46.22903" lon="6.77288">
        <ele>1666.5388</ele>
        <time>2014-08-29T14:52:36Z</time>
      </trkpt>
      <trkpt lat="46.22902" lon="6.77288">
        <ele>1666.5388</ele>
        <time>2014-08-29T14:52:41Z</time>
      </trkpt>
      <trkpt lat="46.22901" lon="6.77287">
        <ele>1666.5388</ele>
        <time>2014-08-29T14:52:46Z</time>
      </trkpt>
      <trkpt lat="46.22901" lon="6.77287">
        <ele>1666.5388</ele>
        <time>2014-08-29T14:52:51Z</time>
      </trkpt>
      <trkpt lat="46.22901" lon="6.77286">
        <ele>1666.0719</ele>
        <time>2014-08-29T14:52:56Z</time>
      </trkpt>
      <trkpt lat="46.229" lon="6.77286">
        <ele>1666.0719</ele>
        <time>2014-08-29T14:53:01Z</time>
      </trkpt>
      <trkpt lat="46.22893" lon="6.77287">
        <ele>1666.0719</ele>
        <time>2014-08-29T14:53:06Z</time>
      </trkpt>
      <trkpt lat="46.22888" lon="6.77288">
        <ele>1665.7112</ele>
        <time>2014-08-29T14:53:11Z</time>
      </trkpt>
      <trkpt lat="46.22885" lon="6.77286">
        <ele>1665.7112</ele>
        <time>2014-08-29T14:53:16Z</time>
      </trkpt>
      <trkpt lat="46.22883" lon="6.77284">
        <ele>1665.7112</ele>
        <time>2014-08-29T14:53:21Z</time>
      </trkpt>
      <trkpt lat="46.22879" lon="6.77282">
        <ele>1665.506</ele>
        <time>2014-08-29T14:53:26Z</time>
      </trkpt>
      <trkpt lat="46.22876" lon="6.77281">
        <ele>1665.506</ele>
        <time>2014-08-29T14:53:31Z</time>
      </trkpt>
      <trkpt lat="46.22873" lon="6.77281">
        <ele>1665.506</ele>
        <time>2014-08-29T14:53:36Z</time>
      </trkpt>
      <trkpt lat="46.22873" lon="6.77281">
        <ele>1665.506</ele>
        <time>2014-08-29T14:53:41Z</time>
      </trkpt>
      <trkpt lat="46.22871" lon="6.77281">
        <ele>1665.506</ele>
        <time>2014-08-29T14:53:46Z</time>
      </trkpt>
      <trkpt lat="46.22861" lon="6.77278">
        <ele>1665.5454</ele>
        <time>2014-08-29T14:53:51Z</time>
      </trkpt>
      <trkpt lat="46.22851" lon="6.77278">
        <ele>1665.6228</ele>
        <time>2014-08-29T14:53:56Z</time>
      </trkpt>
      <trkpt lat="46.22848" lon="6.77277">
        <ele>1665.6228</ele>
        <time>2014-08-29T14:54:01Z</time>
      </trkpt>
      <trkpt lat="46.22844" lon="6.77277">
        <ele>1665.6228</ele>
        <time>2014-08-29T14:54:06Z</time>
      </trkpt>
      <trkpt lat="46.22842" lon="6.77277">
        <ele>1665.849</ele>
        <time>2014-08-29T14:54:11Z</time>
      </trkpt>
      <trkpt lat="46.2284" lon="6.77275">
        <ele>1665.849</ele>
        <time>2014-08-29T14:54:16Z</time>
      </trkpt>
      <trkpt lat="46.22837" lon="6.77275">
        <ele>1665.849</ele>
        <time>2014-08-29T14:54:21Z</time>
      </trkpt>
      <trkpt lat="46.22833" lon="6.77276">
        <ele>1665.9951</ele>
        <time>2014-08-29T14:54:26Z</time>
      </trkpt>
      <trkpt lat="46.2283" lon="6.77275">
        <ele>1665.9951</ele>
        <time>2014-08-29T14:54:31Z</time>
      </trkpt>
      <trkpt lat="46.22825" lon="6.77276">
        <ele>1665.9951</ele>
        <time>2014-08-29T14:54:36Z</time>
      </trkpt>
      <trkpt lat="46.22823" lon="6.77273">
        <ele>1666.2958</ele>
        <time>2014-08-29T14:54:41Z</time>
      </trkpt>
      <trkpt lat="46.22819" lon="6.77269">
        <ele>1666.2958</ele>
        <time>2014-08-29T14:54:46Z</time>
      </trkpt>
      <trkpt lat="46.22818" lon="6.77269">
        <ele>1666.2958</ele>
        <time>2014-08-29T14:54:51Z</time>
      </trkpt>
      <trkpt lat="46.22815" lon="6.77267">
        <ele>1666.2958</ele>
        <time>2014-08-29T14:54:56Z</time>
      </trkpt>
      <trkpt lat="46.22811" lon="6.77261">
        <ele>1666.6799</ele>
        <time>2014-08-29T14:55:01Z</time>
      </trkpt>
      <trkpt lat="46.22809" lon="6.77258">
        <ele>1666.6799</ele>
        <time>2014-08-29T14:55:06Z</time>
      </trkpt>
      <trkpt lat="46.22805" lon="6.77253">
        <ele>1666.6799</ele>
        <time>2014-08-29T14:55:11Z</time>
      </trkpt>
      <trkpt lat="46.22802" lon="6.7725">
        <ele>1667.1102</ele>
        <time>2014-08-29T14:55:16Z</time>
      </trkpt>
      <trkpt lat="46.22801" lon="6.77251">
        <ele>1667.1102</ele>
        <time>2014-08-29T14:55:21Z</time>
      </trkpt>
      <trkpt lat="46.22801" lon="6.77258">
        <ele>1667.1102</ele>
        <time>2014-08-29T14:55:26Z</time>
      </trkpt>
      <trkpt lat="46.22801" lon="6.77264">
        <ele>1667.5231</ele>
        <time>2014-08-29T14:55:31Z</time>
      </trkpt>
      <trkpt lat="46.228" lon="6.77269">
        <ele>1667.5231</ele>
        <time>2014-08-29T14:55:36Z</time>
      </trkpt>
      <trkpt lat="46.22798" lon="6.77274">
        <ele>1667.5231</ele>
        <time>2014-08-29T14:55:41Z</time>
      </trkpt>
      <trkpt lat="46.22795" lon="6.77277">
        <ele>1667.903</ele>
        <time>2014-08-29T14:55:46Z</time>
      </trkpt>
      <trkpt lat="46.22794" lon="6.7728">
        <ele>1667.903</ele>
        <time>2014-08-29T14:55:51Z</time>
      </trkpt>
      <trkpt lat="46.22792" lon="6.77281">
        <ele>1667.903</ele>
        <time>2014-08-29T14:55:56Z</time>
      </trkpt>
      <trkpt lat="46.22793" lon="6.7728">
        <ele>1667.903</ele>
        <time>2014-08-29T14:56:01Z</time>
      </trkpt>
      <trkpt lat="46.2279" lon="6.77282">
        <ele>1667.903</ele>
        <time>2014-08-29T14:56:06Z</time>
      </trkpt>
      <trkpt lat="46.22785" lon="6.77285">
        <ele>1668.2643</ele>
        <time>2014-08-29T14:56:11Z</time>
      </trkpt>
      <trkpt lat="46.22782" lon="6.77288">
        <ele>1668.2643</ele>
        <time>2014-08-29T14:56:16Z</time>
      </trkpt>
      <trkpt lat="46.22778" lon="6.77294">
        <ele>1668.7502</ele>
        <time>2014-08-29T14:56:21Z</time>
      </trkpt>
      <trkpt lat="46.22775" lon="6.77298">
        <ele>1668.7502</ele>
        <time>2014-08-29T14:56:26Z</time>
      </trkpt>
      <trkpt lat="46.2277" lon="6.77301">
        <ele>1669.378</ele>
        <time>2014-08-29T14:56:31Z</time>
      </trkpt>
      <trkpt lat="46.22765" lon="6.77302">
        <ele>1669.378</ele>
        <time>2014-08-29T14:56:36Z</time>
      </trkpt>
      <trkpt lat="46.22761" lon="6.77302">
        <ele>1669.378</ele>
        <time>2014-08-29T14:56:41Z</time>
      </trkpt>
      <trkpt lat="46.22758" lon="6.77299">
        <ele>1670.1053</ele>
        <time>2014-08-29T14:56:46Z</time>
      </trkpt>
      <trkpt lat="46.22753" lon="6.77297">
        <ele>1670.1053</ele>
        <time>2014-08-29T14:56:51Z</time>
      </trkpt>
      <trkpt lat="46.22752" lon="6.77298">
        <ele>1670.1053</ele>
        <time>2014-08-29T14:56:56Z</time>
      </trkpt>
      <trkpt lat="46.2275" lon="6.77299">
        <ele>1670.1053</ele>
        <time>2014-08-29T14:57:01Z</time>
      </trkpt>
      <trkpt lat="46.22749" lon="6.77299">
        <ele>1671.0515</ele>
        <time>2014-08-29T14:57:06Z</time>
      </trkpt>
      <trkpt lat="46.22748" lon="6.77301">
        <ele>1671.0515</ele>
        <time>2014-08-29T14:57:11Z</time>
      </trkpt>
      <trkpt lat="46.22743" lon="6.77306">
        <ele>1671.0515</ele>
        <time>2014-08-29T14:57:16Z</time>
      </trkpt>
      <trkpt lat="46.22739" lon="6.77304">
        <ele>1672.0814</ele>
        <time>2014-08-29T14:57:21Z</time>
      </trkpt>
      <trkpt lat="46.22736" lon="6.77301">
        <ele>1672.0814</ele>
        <time>2014-08-29T14:57:26Z</time>
      </trkpt>
      <trkpt lat="46.22731" lon="6.77301">
        <ele>1672.0814</ele>
        <time>2014-08-29T14:57:31Z</time>
      </trkpt>
      <trkpt lat="46.22726" lon="6.77304">
        <ele>1673.2714</ele>
        <time>2014-08-29T14:57:36Z</time>
      </trkpt>
      <trkpt lat="46.22722" lon="6.77305">
        <ele>1673.2714</ele>
        <time>2014-08-29T14:57:41Z</time>
      </trkpt>
      <trkpt lat="46.22719" lon="6.77303">
        <ele>1673.2714</ele>
        <time>2014-08-29T14:57:46Z</time>
      </trkpt>
      <trkpt lat="46.22718" lon="6.77301">
        <ele>1674.4757</ele>
        <time>2014-08-29T14:57:51Z</time>
      </trkpt>
      <trkpt lat="46.22716" lon="6.773">
        <ele>1674.4757</ele>
        <time>2014-08-29T14:57:56Z</time>
      </trkpt>
      <trkpt lat="46.22715" lon="6.773">
        <ele>1674.4757</ele>
        <time>2014-08-29T14:58:01Z</time>
      </trkpt>
      <trkpt lat="46.22714" lon="6.77298">
        <ele>1674.4757</ele>
        <time>2014-08-29T14:58:06Z</time>
      </trkpt>
      <trkpt lat="46.22714" lon="6.77297">
        <ele>1674.4757</ele>
        <time>2014-08-29T14:58:11Z</time>
      </trkpt>
      <trkpt lat="46.22713" lon="6.77295">
        <ele>1674.4757</ele>
        <time>2014-08-29T14:58:16Z</time>
      </trkpt>
      <trkpt lat="46.22712" lon="6.77294">
        <ele>1674.4757</ele>
        <time>2014-08-29T14:58:21Z</time>
      </trkpt>
      <trkpt lat="46.22712" lon="6.77294">
        <ele>1674.4757</ele>
        <time>2014-08-29T14:58:26Z</time>
      </trkpt>
      <trkpt lat="46.22713" lon="6.77297">
        <ele>1675.7898</ele>
        <time>2014-08-29T14:58:31Z</time>
      </trkpt>
      <trkpt lat="46.22712" lon="6.77304">
        <ele>1675.7898</ele>
        <time>2014-08-29T14:58:36Z</time>
      </trkpt>
      <trkpt lat="46.22714" lon="6.7731">
        <ele>1676.9995</ele>
        <time>2014-08-29T14:58:41Z</time>
      </trkpt>
      <trkpt lat="46.22713" lon="6.77313">
        <ele>1676.9995</ele>
        <time>2014-08-29T14:58:46Z</time>
      </trkpt>
      <trkpt lat="46.22708" lon="6.77315">
        <ele>1676.9995</ele>
        <time>2014-08-29T14:58:51Z</time>
      </trkpt>
      <trkpt lat="46.22705" lon="6.77317">
        <ele>1678.0939</ele>
        <time>2014-08-29T14:58:56Z</time>
      </trkpt>
      <trkpt lat="46.22701" lon="6.77318">
        <ele>1678.0939</ele>
        <time>2014-08-29T14:59:01Z</time>
      </trkpt>
      <trkpt lat="46.22702" lon="6.77319">
        <ele>1678.0939</ele>
        <time>2014-08-29T14:59:06Z</time>
      </trkpt>
      <trkpt lat="46.22701" lon="6.77319">
        <ele>1678.0939</ele>
        <time>2014-08-29T14:59:11Z</time>
      </trkpt>
      <trkpt lat="46.22699" lon="6.77321">
        <ele>1678.0939</ele>
        <time>2014-08-29T14:59:16Z</time>
      </trkpt>
      <trkpt lat="46.22696" lon="6.77323">
        <ele>1678.876</ele>
        <time>2014-08-29T14:59:21Z</time>
      </trkpt>
      <trkpt lat="46.22692" lon="6.77325">
        <ele>1678.876</ele>
        <time>2014-08-29T14:59:26Z</time>
      </trkpt>
      <trkpt lat="46.22686" lon="6.77325">
        <ele>1679.5966</ele>
        <time>2014-08-29T14:59:31Z</time>
      </trkpt>
      <trkpt lat="46.2268" lon="6.77328">
        <ele>1679.5966</ele>
        <time>2014-08-29T14:59:36Z</time>
      </trkpt>
      <trkpt lat="46.22676" lon="6.77333">
        <ele>1680.445</ele>
        <time>2014-08-29T14:59:41Z</time>
      </trkpt>
      <trkpt lat="46.22671" lon="6.77336">
        <ele>1680.445</ele>
        <time>2014-08-29T14:59:46Z</time>
      </trkpt>
      <trkpt lat="46.22667" lon="6.77338">
        <ele>1680.445</ele>
        <time>2014-08-29T14:59:51Z</time>
      </trkpt>
      <trkpt lat="46.22663" lon="6.77341">
        <ele>1681.2505</ele>
        <time>2014-08-29T14:59:56Z</time>
      </trkpt>
      <trkpt lat="46.22658" lon="6.77348">
        <ele>1681.2505</ele>
        <time>2014-08-29T15:00:01Z</time>
      </trkpt>
      <trkpt lat="46.22654" lon="6.77352">
        <ele>1682.1581</ele>
        <time>2014-08-29T15:00:06Z</time>
      </trkpt>
      <trkpt lat="46.2265" lon="6.77358">
        <ele>1682.1581</ele>
        <time>2014-08-29T15:00:11Z</time>
      </trkpt>
      <trkpt lat="46.22646" lon="6.7736">
        <ele>1683.1141</ele>
        <time>2014-08-29T15:00:16Z</time>
      </trkpt>
      <trkpt lat="46.22639" lon="6.77364">
        <ele>1683.1141</ele>
        <time>2014-08-29T15:00:21Z</time>
      </trkpt>
      <trkpt lat="46.22634" lon="6.77364">
        <ele>1684.0261</ele>
        <time>2014-08-29T15:00:26Z</time>
      </trkpt>
      <trkpt lat="46.22632" lon="6.77365">
        <ele>1684.0261</ele>
        <time>2014-08-29T15:00:31Z</time>
      </trkpt>
      <trkpt lat="46.22627" lon="6.77367">
        <ele>1684.0261</ele>
        <time>2014-08-29T15:00:36Z</time>
      </trkpt>
      <trkpt lat="46.22624" lon="6.77369">
        <ele>1684.6927</ele>
        <time>2014-08-29T15:00:41Z</time>
      </trkpt>
      <trkpt lat="46.22619" lon="6.77373">
        <ele>1684.6927</ele>
        <time>2014-08-29T15:00:46Z</time>
      </trkpt>
      <trkpt lat="46.22615" lon="6.77376">
        <ele>1685.1016</ele>
        <time>2014-08-29T15:00:51Z</time>
      </trkpt>
      <trkpt lat="46.22612" lon="6.77381">
        <ele>1685.1016</ele>
        <time>2014-08-29T15:00:56Z</time>
      </trkpt>
      <trkpt lat="46.22609" lon="6.77386">
        <ele>1685.2562</ele>
        <time>2014-08-29T15:01:01Z</time>
      </trkpt>
      <trkpt lat="46.22607" lon="6.77389">
        <ele>1685.2562</ele>
        <time>2014-08-29T15:01:06Z</time>
      </trkpt>
      <trkpt lat="46.22605" lon="6.77393">
        <ele>1685.2562</ele>
        <time>2014-08-29T15:01:11Z</time>
      </trkpt>
      <trkpt lat="46.22603" lon="6.77394">
        <ele>1685.2562</ele>
        <time>2014-08-29T15:01:16Z</time>
      </trkpt>
      <trkpt lat="46.22598" lon="6.77393">
        <ele>1684.9735</ele>
        <time>2014-08-29T15:01:21Z</time>
      </trkpt>
      <trkpt lat="46.22595" lon="6.77396">
        <ele>1684.9735</ele>
        <time>2014-08-29T15:01:26Z</time>
      </trkpt>
      <trkpt lat="46.22591" lon="6.77399">
        <ele>1684.9735</ele>
        <time>2014-08-29T15:01:31Z</time>
      </trkpt>
      <trkpt lat="46.2259" lon="6.77403">
        <ele>1684.4742</ele>
        <time>2014-08-29T15:01:36Z</time>
      </trkpt>
      <trkpt lat="46.22589" lon="6.77407">
        <ele>1684.4742</ele>
        <time>2014-08-29T15:01:41Z</time>
      </trkpt>
      <trkpt lat="46.22589" lon="6.77411">
        <ele>1684.4742</ele>
        <time>2014-08-29T15:01:46Z</time>
      </trkpt>
      <trkpt lat="46.22588" lon="6.77415">
        <ele>1684.4742</ele>
        <time>2014-08-29T15:01:51Z</time>
      </trkpt>
      <trkpt lat="46.22588" lon="6.77415">
        <ele>1684.4742</ele>
        <time>2014-08-29T15:01:56Z</time>
      </trkpt>
      <trkpt lat="46.22588" lon="6.77416">
        <ele>1684.4742</ele>
        <time>2014-08-29T15:02:01Z</time>
      </trkpt>
      <trkpt lat="46.22588" lon="6.77416">
        <ele>1683.9778</ele>
        <time>2014-08-29T15:02:06Z</time>
      </trkpt>
      <trkpt lat="46.22585" lon="6.77416">
        <ele>1683.9778</ele>
        <time>2014-08-29T15:02:11Z</time>
      </trkpt>
      <trkpt lat="46.2258" lon="6.77416">
        <ele>1683.9778</ele>
        <time>2014-08-29T15:02:16Z</time>
      </trkpt>
      <trkpt lat="46.22577" lon="6.77416">
        <ele>1683.4716</ele>
        <time>2014-08-29T15:02:21Z</time>
      </trkpt>
      <trkpt lat="46.22574" lon="6.77413">
        <ele>1683.4716</ele>
        <time>2014-08-29T15:02:26Z</time>
      </trkpt>
      <trkpt lat="46.2257" lon="6.77411">
        <ele>1683.4716</ele>
        <time>2014-08-29T15:02:31Z</time>
      </trkpt>
      <trkpt lat="46.22568" lon="6.77409">
        <ele>1683.1744</ele>
        <time>2014-08-29T15:02:36Z</time>
      </trkpt>
      <trkpt lat="46.22564" lon="6.77403">
        <ele>1683.1744</ele>
        <time>2014-08-29T15:02:41Z</time>
      </trkpt>
      <trkpt lat="46.22561" lon="6.77403">
        <ele>1683.1744</ele>
        <time>2014-08-29T15:02:46Z</time>
      </trkpt>
      <trkpt lat="46.2256" lon="6.77403">
        <ele>1683.1014</ele>
        <time>2014-08-29T15:02:51Z</time>
      </trkpt>
      <trkpt lat="46.22557" lon="6.77406">
        <ele>1683.1014</ele>
        <time>2014-08-29T15:02:56Z</time>
      </trkpt>
      <trkpt lat="46.22554" lon="6.77409">
        <ele>1683.1014</ele>
        <time>2014-08-29T15:03:01Z</time>
      </trkpt>
      <trkpt lat="46.22552" lon="6.77409">
        <ele>1683.1014</ele>
        <time>2014-08-29T15:03:06Z</time>
      </trkpt>
      <trkpt lat="46.22549" lon="6.77408">
        <ele>1682.8622</ele>
        <time>2014-08-29T15:03:11Z</time>
      </trkpt>
      <trkpt lat="46.22545" lon="6.77409">
        <ele>1682.8622</ele>
        <time>2014-08-29T15:03:16Z</time>
      </trkpt>
      <trkpt lat="46.22542" lon="6.7741">
        <ele>1682.8622</ele>
        <time>2014-08-29T15:03:21Z</time>
      </trkpt>
      <trkpt lat="46.22538" lon="6.77412">
        <ele>1682.6721</ele>
        <time>2014-08-29T15:03:26Z</time>
      </trkpt>
      <trkpt lat="46.22534" lon="6.77414">
        <ele>1682.6721</ele>
        <time>2014-08-29T15:03:31Z</time>
      </trkpt>
      <trkpt lat="46.22532" lon="6.77412">
        <ele>1682.6721</ele>
        <time>2014-08-29T15:03:36Z</time>
      </trkpt>
      <trkpt lat="46.22528" lon="6.77411">
        <ele>1682.4857</ele>
        <time>2014-08-29T15:03:41Z</time>
      </trkpt>
      <trkpt lat="46.22526" lon="6.7741">
        <ele>1682.4857</ele>
        <time>2014-08-29T15:03:46Z</time>
      </trkpt>
      <trkpt lat="46.22522" lon="6.77411">
        <ele>1682.4857</ele>
        <time>2014-08-29T15:03:51Z</time>
      </trkpt>
      <trkpt lat="46.22518" lon="6.77409">
        <ele>1682.3328</ele>
        <time>2014-08-29T15:03:56Z</time>
      </trkpt>
      <trkpt lat="46.22516" lon="6.7741">
        <ele>1682.3328</ele>
        <time>2014-08-29T15:04:01Z</time>
      </trkpt>
      <trkpt lat="46.22514" lon="6.7741">
        <ele>1682.3328</ele>
        <time>2014-08-29T15:04:06Z</time>
      </trkpt>
      <trkpt lat="46.2251" lon="6.77409">
        <ele>1682.3328</ele>
        <time>2014-08-29T15:04:11Z</time>
      </trkpt>
      <trkpt lat="46.22504" lon="6.77409">
        <ele>1682.6443</ele>
        <time>2014-08-29T15:04:16Z</time>
      </trkpt>
      <trkpt lat="46.22501" lon="6.77407">
        <ele>1682.6443</ele>
        <time>2014-08-29T15:04:21Z</time>
      </trkpt>
      <trkpt lat="46.22501" lon="6.77405">
        <ele>1682.6443</ele>
        <time>2014-08-29T15:04:26Z</time>
      </trkpt>
      <trkpt lat="46.225" lon="6.77404">
        <ele>1682.6443</ele>
        <time>2014-08-29T15:04:31Z</time>
      </trkpt>
      <trkpt lat="46.22497" lon="6.77403">
        <ele>1682.6443</ele>
        <time>2014-08-29T15:04:36Z</time>
      </trkpt>
      <trkpt lat="46.22496" lon="6.77403">
        <ele>1683.008</ele>
        <time>2014-08-29T15:04:41Z</time>
      </trkpt>
      <trkpt lat="46.22497" lon="6.77403">
        <ele>1683.3718</ele>
        <time>2014-08-29T15:04:46Z</time>
      </trkpt>
      <trkpt lat="46.22497" lon="6.77403">
        <ele>1683.3718</ele>
        <time>2014-08-29T15:04:51Z</time>
      </trkpt>
      <trkpt lat="46.22497" lon="6.77403">
        <ele>1683.3718</ele>
        <time>2014-08-29T15:04:56Z</time>
      </trkpt>
      <trkpt lat="46.22496" lon="6.77402">
        <ele>1683.3718</ele>
        <time>2014-08-29T15:05:01Z</time>
      </trkpt>
      <trkpt lat="46.22494" lon="6.77401">
        <ele>1683.3718</ele>
        <time>2014-08-29T15:05:06Z</time>
      </trkpt>
      <trkpt lat="46.22492" lon="6.77401">
        <ele>1683.3718</ele>
        <time>2014-08-29T15:05:11Z</time>
      </trkpt>
      <trkpt lat="46.22488" lon="6.774">
        <ele>1684.123</ele>
        <time>2014-08-29T15:05:16Z</time>
      </trkpt>
      <trkpt lat="46.22483" lon="6.774">
        <ele>1684.123</ele>
        <time>2014-08-29T15:05:21Z</time>
      </trkpt>
      <trkpt lat="46.22479" lon="6.774">
        <ele>1684.123</ele>
        <time>2014-08-29T15:05:26Z</time>
      </trkpt>
      <trkpt lat="46.22475" lon="6.774">
        <ele>1685.2554</ele>
        <time>2014-08-29T15:05:31Z</time>
      </trkpt>
      <trkpt lat="46.22472" lon="6.77398">
        <ele>1685.2554</ele>
        <time>2014-08-29T15:05:36Z</time>
      </trkpt>
      <trkpt lat="46.22471" lon="6.77399">
        <ele>1685.2554</ele>
        <time>2014-08-29T15:05:41Z</time>
      </trkpt>
      <trkpt lat="46.2247" lon="6.77398">
        <ele>1685.2554</ele>
        <time>2014-08-29T15:05:46Z</time>
      </trkpt>
      <trkpt lat="46.2247" lon="6.77399">
        <ele>1685.2554</ele>
        <time>2014-08-29T15:05:51Z</time>
      </trkpt>
      <trkpt lat="46.22469" lon="6.774">
        <ele>1685.2554</ele>
        <time>2014-08-29T15:05:56Z</time>
      </trkpt>
      <trkpt lat="46.22467" lon="6.77402">
        <ele>1686.897</ele>
        <time>2014-08-29T15:06:01Z</time>
      </trkpt>
      <trkpt lat="46.22465" lon="6.77402">
        <ele>1686.897</ele>
        <time>2014-08-29T15:06:06Z</time>
      </trkpt>
      <trkpt lat="46.22462" lon="6.77403">
        <ele>1686.897</ele>
        <time>2014-08-29T15:06:11Z</time>
      </trkpt>
      <trkpt lat="46.22459" lon="6.77407">
        <ele>1688.5311</ele>
        <time>2014-08-29T15:06:16Z</time>
      </trkpt>
      <trkpt lat="46.22459" lon="6.77408">
        <ele>1688.5311</ele>
        <time>2014-08-29T15:06:21Z</time>
      </trkpt>
      <trkpt lat="46.22458" lon="6.77408">
        <ele>1688.5311</ele>
        <time>2014-08-29T15:06:26Z</time>
      </trkpt>
      <trkpt lat="46.22455" lon="6.77409">
        <ele>1688.5311</ele>
        <time>2014-08-29T15:06:31Z</time>
      </trkpt>
      <trkpt lat="46.22455" lon="6.77409">
        <ele>1688.5311</ele>
        <time>2014-08-29T15:06:36Z</time>
      </trkpt>
      <trkpt lat="46.22453" lon="6.7741">
        <ele>1688.5311</ele>
        <time>2014-08-29T15:06:41Z</time>
      </trkpt>
      <trkpt lat="46.22453" lon="6.7741">
        <ele>1688.5311</ele>
        <time>2014-08-29T15:06:46Z</time>
      </trkpt>
      <trkpt lat="46.22452" lon="6.77409">
        <ele>1688.5311</ele>
        <time>2014-08-29T15:06:51Z</time>
      </trkpt>
      <trkpt lat="46.2245" lon="6.77406">
        <ele>1690.3853</ele>
        <time>2014-08-29T15:06:56Z</time>
      </trkpt>
      <trkpt lat="46.22446" lon="6.77403">
        <ele>1690.3853</ele>
        <time>2014-08-29T15:07:01Z</time>
      </trkpt>
      <trkpt lat="46.22442" lon="6.77404">
        <ele>1690.3853</ele>
        <time>2014-08-29T15:07:06Z</time>
      </trkpt>
      <trkpt lat="46.2244" lon="6.77405">
        <ele>1692.4819</ele>
        <time>2014-08-29T15:07:11Z</time>
      </trkpt>
      <trkpt lat="46.22435" lon="6.77403">
        <ele>1692.4819</ele>
        <time>2014-08-29T15:07:16Z</time>
      </trkpt>
      <trkpt lat="46.22431" lon="6.77402">
        <ele>1694.7267</ele>
        <time>2014-08-29T15:07:21Z</time>
      </trkpt>
      <trkpt lat="46.22428" lon="6.77402">
        <ele>1694.7267</ele>
        <time>2014-08-29T15:07:26Z</time>
      </trkpt>
      <trkpt lat="46.22427" lon="6.77404">
        <ele>1694.7267</ele>
        <time>2014-08-29T15:07:31Z</time>
      </trkpt>
      <trkpt lat="46.22428" lon="6.77403">
        <ele>1694.7267</ele>
        <time>2014-08-29T15:07:36Z</time>
      </trkpt>
      <trkpt lat="46.22427" lon="6.77403">
        <ele>1694.7267</ele>
        <time>2014-08-29T15:07:41Z</time>
      </trkpt>
      <trkpt lat="46.22427" lon="6.77404">
        <ele>1694.7267</ele>
        <time>2014-08-29T15:07:46Z</time>
      </trkpt>
      <trkpt lat="46.22426" lon="6.77405">
        <ele>1694.7267</ele>
        <time>2014-08-29T15:07:51Z</time>
      </trkpt>
      <trkpt lat="46.22422" lon="6.77404">
        <ele>1697.2905</ele>
        <time>2014-08-29T15:07:56Z</time>
      </trkpt>
      <trkpt lat="46.22418" lon="6.77405">
        <ele>1697.2905</ele>
        <time>2014-08-29T15:08:01Z</time>
      </trkpt>
      <trkpt lat="46.22416" lon="6.77405">
        <ele>1697.2905</ele>
        <time>2014-08-29T15:08:06Z</time>
      </trkpt>
      <trkpt lat="46.22411" lon="6.77405">
        <ele>1699.899</ele>
        <time>2014-08-29T15:08:11Z</time>
      </trkpt>
      <trkpt lat="46.22407" lon="6.77405">
        <ele>1699.899</ele>
        <time>2014-08-29T15:08:16Z</time>
      </trkpt>
      <trkpt lat="46.22402" lon="6.77405">
        <ele>1699.899</ele>
        <time>2014-08-29T15:08:21Z</time>
      </trkpt>
      <trkpt lat="46.224" lon="6.77406">
        <ele>1702.4995</ele>
        <time>2014-08-29T15:08:26Z</time>
      </trkpt>
      <trkpt lat="46.22397" lon="6.77405">
        <ele>1702.4995</ele>
        <time>2014-08-29T15:08:31Z</time>
      </trkpt>
      <trkpt lat="46.22394" lon="6.77406">
        <ele>1702.4995</ele>
        <time>2014-08-29T15:08:36Z</time>
      </trkpt>
      <trkpt lat="46.2239" lon="6.7741">
        <ele>1704.8704</ele>
        <time>2014-08-29T15:08:41Z</time>
      </trkpt>
      <trkpt lat="46.22387" lon="6.77417">
        <ele>1704.8704</ele>
        <time>2014-08-29T15:08:46Z</time>
      </trkpt>
      <trkpt lat="46.22383" lon="6.77423">
        <ele>1707.052</ele>
        <time>2014-08-29T15:08:51Z</time>
      </trkpt>
      <trkpt lat="46.22383" lon="6.77424">
        <ele>1707.052</ele>
        <time>2014-08-29T15:08:56Z</time>
      </trkpt>
      <trkpt lat="46.22382" lon="6.77423">
        <ele>1707.052</ele>
        <time>2014-08-29T15:09:01Z</time>
      </trkpt>
      <trkpt lat="46.22379" lon="6.7742">
        <ele>1707.052</ele>
        <time>2014-08-29T15:09:06Z</time>
      </trkpt>
      <trkpt lat="46.22374" lon="6.77419">
        <ele>1708.8231</ele>
        <time>2014-08-29T15:09:11Z</time>
      </trkpt>
      <trkpt lat="46.2237" lon="6.77418">
        <ele>1708.8231</ele>
        <time>2014-08-29T15:09:16Z</time>
      </trkpt>
      <trkpt lat="46.22367" lon="6.77419">
        <ele>1708.8231</ele>
        <time>2014-08-29T15:09:21Z</time>
      </trkpt>
      <trkpt lat="46.22364" lon="6.77419">
        <ele>1710.369</ele>
        <time>2014-08-29T15:09:26Z</time>
      </trkpt>
      <trkpt lat="46.2236" lon="6.7742">
        <ele>1710.369</ele>
        <time>2014-08-29T15:09:31Z</time>
      </trkpt>
      <trkpt lat="46.22357" lon="6.77422">
        <ele>1710.369</ele>
        <time>2014-08-29T15:09:36Z</time>
      </trkpt>
      <trkpt lat="46.22354" lon="6.77425">
        <ele>1711.7039</ele>
        <time>2014-08-29T15:09:41Z</time>
      </trkpt>
      <trkpt lat="46.2235" lon="6.77428">
        <ele>1711.7039</ele>
        <time>2014-08-29T15:09:46Z</time>
      </trkpt>
      <trkpt lat="46.22345" lon="6.77432">
        <ele>1712.8842</ele>
        <time>2014-08-29T15:09:51Z</time>
      </trkpt>
      <trkpt lat="46.22342" lon="6.77436">
        <ele>1712.8842</ele>
        <time>2014-08-29T15:09:56Z</time>
      </trkpt>
      <trkpt lat="46.22341" lon="6.77437">
        <ele>1712.8842</ele>
        <time>2014-08-29T15:10:01Z</time>
      </trkpt>
      <trkpt lat="46.22338" lon="6.77441">
        <ele>1714.0355</ele>
        <time>2014-08-29T15:10:06Z</time>
      </trkpt>
      <trkpt lat="46.22335" lon="6.77445">
        <ele>1714.0355</ele>
        <time>2014-08-29T15:10:11Z</time>
      </trkpt>
      <trkpt lat="46.22333" lon="6.77449">
        <ele>1714.0355</ele>
        <time>2014-08-29T15:10:16Z</time>
      </trkpt>
      <trkpt lat="46.22331" lon="6.77452">
        <ele>1715.1155</ele>
        <time>2014-08-29T15:10:21Z</time>
      </trkpt>
      <trkpt lat="46.22328" lon="6.77455">
        <ele>1715.1155</ele>
        <time>2014-08-29T15:10:26Z</time>
      </trkpt>
      <trkpt lat="46.22326" lon="6.77457">
        <ele>1715.1155</ele>
        <time>2014-08-29T15:10:31Z</time>
      </trkpt>
      <trkpt lat="46.22323" lon="6.77457">
        <ele>1715.1155</ele>
        <time>2014-08-29T15:10:36Z</time>
      </trkpt>
      <trkpt lat="46.22321" lon="6.77457">
        <ele>1716.3302</ele>
        <time>2014-08-29T15:10:41Z</time>
      </trkpt>
      <trkpt lat="46.22319" lon="6.77458">
        <ele>1716.3302</ele>
        <time>2014-08-29T15:10:46Z</time>
      </trkpt>
      <trkpt lat="46.22319" lon="6.77459">
        <ele>1716.3302</ele>
        <time>2014-08-29T15:10:51Z</time>
      </trkpt>
      <trkpt lat="46.22318" lon="6.77459">
        <ele>1716.3302</ele>
        <time>2014-08-29T15:10:56Z</time>
      </trkpt>
      <trkpt lat="46.22315" lon="6.77461">
        <ele>1716.3302</ele>
        <time>2014-08-29T15:11:01Z</time>
      </trkpt>
      <trkpt lat="46.22313" lon="6.77462">
        <ele>1716.3302</ele>
        <time>2014-08-29T15:11:06Z</time>
      </trkpt>
      <trkpt lat="46.22312" lon="6.77462">
        <ele>1717.7697</ele>
        <time>2014-08-29T15:11:11Z</time>
      </trkpt>
      <trkpt lat="46.22309" lon="6.77464">
        <ele>1717.7697</ele>
        <time>2014-08-29T15:11:16Z</time>
      </trkpt>
      <trkpt lat="46.22306" lon="6.77466">
        <ele>1717.7697</ele>
        <time>2014-08-29T15:11:21Z</time>
      </trkpt>
      <trkpt lat="46.22304" lon="6.77469">
        <ele>1719.3436</ele>
        <time>2014-08-29T15:11:26Z</time>
      </trkpt>
      <trkpt lat="46.22302" lon="6.77471">
        <ele>1719.3436</ele>
        <time>2014-08-29T15:11:31Z</time>
      </trkpt>
      <trkpt lat="46.223" lon="6.77474">
        <ele>1719.3436</ele>
        <time>2014-08-29T15:11:36Z</time>
      </trkpt>
      <trkpt lat="46.22301" lon="6.77477">
        <ele>1719.3436</ele>
        <time>2014-08-29T15:11:41Z</time>
      </trkpt>
      <trkpt lat="46.22299" lon="6.77478">
        <ele>1721.0402</ele>
        <time>2014-08-29T15:11:46Z</time>
      </trkpt>
      <trkpt lat="46.22297" lon="6.77479">
        <ele>1721.0402</ele>
        <time>2014-08-29T15:11:51Z</time>
      </trkpt>
      <trkpt lat="46.22296" lon="6.77481">
        <ele>1721.0402</ele>
        <time>2014-08-29T15:11:56Z</time>
      </trkpt>
      <trkpt lat="46.22293" lon="6.77482">
        <ele>1721.0402</ele>
        <time>2014-08-29T15:12:01Z</time>
      </trkpt>
      <trkpt lat="46.22292" lon="6.77484">
        <ele>1721.0402</ele>
        <time>2014-08-29T15:12:06Z</time>
      </trkpt>
      <trkpt lat="46.22289" lon="6.77486">
        <ele>1722.8627</ele>
        <time>2014-08-29T15:12:11Z</time>
      </trkpt>
      <trkpt lat="46.2229" lon="6.77487">
        <ele>1722.8627</ele>
        <time>2014-08-29T15:12:16Z</time>
      </trkpt>
      <trkpt lat="46.22288" lon="6.77488">
        <ele>1722.8627</ele>
        <time>2014-08-29T15:12:21Z</time>
      </trkpt>
      <trkpt lat="46.22284" lon="6.77486">
        <ele>1722.8627</ele>
        <time>2014-08-29T15:12:26Z</time>
      </trkpt>
      <trkpt lat="46.22281" lon="6.77484">
        <ele>1725.0587</ele>
        <time>2014-08-29T15:12:31Z</time>
      </trkpt>
      <trkpt lat="46.22278" lon="6.77483">
        <ele>1725.0587</ele>
        <time>2014-08-29T15:12:36Z</time>
      </trkpt>
      <trkpt lat="46.22275" lon="6.7748">
        <ele>1725.0587</ele>
        <time>2014-08-29T15:12:41Z</time>
      </trkpt>
      <trkpt lat="46.22273" lon="6.77478">
        <ele>1727.367</ele>
        <time>2014-08-29T15:12:46Z</time>
      </trkpt>
      <trkpt lat="46.22273" lon="6.77477">
        <ele>1727.367</ele>
        <time>2014-08-29T15:12:51Z</time>
      </trkpt>
      <trkpt lat="46.22272" lon="6.77478">
        <ele>1727.367</ele>
        <time>2014-08-29T15:12:56Z</time>
      </trkpt>
      <trkpt lat="46.22271" lon="6.77477">
        <ele>1727.367</ele>
        <time>2014-08-29T15:13:01Z</time>
      </trkpt>
      <trkpt lat="46.22269" lon="6.77475">
        <ele>1727.367</ele>
        <time>2014-08-29T15:13:06Z</time>
      </trkpt>
      <trkpt lat="46.22265" lon="6.77474">
        <ele>1727.367</ele>
        <time>2014-08-29T15:13:11Z</time>
      </trkpt>
      <trkpt lat="46.22263" lon="6.7747">
        <ele>1729.9052</ele>
        <time>2014-08-29T15:13:16Z</time>
      </trkpt>
      <trkpt lat="46.22261" lon="6.77464">
        <ele>1729.9052</ele>
        <time>2014-08-29T15:13:21Z</time>
      </trkpt>
      <trkpt lat="46.22256" lon="6.7746">
        <ele>1732.4362</ele>
        <time>2014-08-29T15:13:26Z</time>
      </trkpt>
      <trkpt lat="46.22252" lon="6.77457">
        <ele>1732.4362</ele>
        <time>2014-08-29T15:13:31Z</time>
      </trkpt>
      <trkpt lat="46.2225" lon="6.77455">
        <ele>1732.4362</ele>
        <time>2014-08-29T15:13:36Z</time>
      </trkpt>
      <trkpt lat="46.22247" lon="6.77455">
        <ele>1735.1582</ele>
        <time>2014-08-29T15:13:41Z</time>
      </trkpt>
      <trkpt lat="46.22245" lon="6.77455">
        <ele>1735.1582</ele>
        <time>2014-08-29T15:13:46Z</time>
      </trkpt>
      <trkpt lat="46.22244" lon="6.77454">
        <ele>1735.1582</ele>
        <time>2014-08-29T15:13:51Z</time>
      </trkpt>
      <trkpt lat="46.22246" lon="6.77454">
        <ele>1735.1582</ele>
        <time>2014-08-29T15:13:56Z</time>
      </trkpt>
      <trkpt lat="46.22245" lon="6.77454">
        <ele>1735.1582</ele>
        <time>2014-08-29T15:14:01Z</time>
      </trkpt>
      <trkpt lat="46.22243" lon="6.77454">
        <ele>1735.1582</ele>
        <time>2014-08-29T15:14:06Z</time>
      </trkpt>
      <trkpt lat="46.2224" lon="6.77456">
        <ele>1738.1393</ele>
        <time>2014-08-29T15:14:11Z</time>
      </trkpt>
      <trkpt lat="46.22238" lon="6.77456">
        <ele>1738.1393</ele>
        <time>2014-08-29T15:14:16Z</time>
      </trkpt>
      <trkpt lat="46.22236" lon="6.77457">
        <ele>1738.1393</ele>
        <time>2014-08-29T15:14:21Z</time>
      </trkpt>
      <trkpt lat="46.22233" lon="6.77455">
        <ele>1738.1393</ele>
        <time>2014-08-29T15:14:26Z</time>
      </trkpt>
      <trkpt lat="46.22231" lon="6.77454">
        <ele>1741.0238</ele>
        <time>2014-08-29T15:14:31Z</time>
      </trkpt>
      <trkpt lat="46.22228" lon="6.77453">
        <ele>1741.0238</ele>
        <time>2014-08-29T15:14:36Z</time>
      </trkpt>
      <trkpt lat="46.22228" lon="6.77452">
        <ele>1741.0238</ele>
        <time>2014-08-29T15:14:41Z</time>
      </trkpt>
      <trkpt lat="46.22229" lon="6.77451">
        <ele>1741.0238</ele>
        <time>2014-08-29T15:14:46Z</time>
      </trkpt>
      <trkpt lat="46.2223" lon="6.77451">
        <ele>1741.0238</ele>
        <time>2014-08-29T15:14:51Z</time>
      </trkpt>
      <trkpt lat="46.22229" lon="6.7745">
        <ele>1741.0238</ele>
        <time>2014-08-29T15:14:56Z</time>
      </trkpt>
      <trkpt lat="46.22227" lon="6.77449">
        <ele>1743.4828</ele>
        <time>2014-08-29T15:15:01Z</time>
      </trkpt>
      <trkpt lat="46.22222" lon="6.77448">
        <ele>1743.4828</ele>
        <time>2014-08-29T15:15:06Z</time>
      </trkpt>
      <trkpt lat="46.22219" lon="6.77448">
        <ele>1743.4828</ele>
        <time>2014-08-29T15:15:11Z</time>
      </trkpt>
      <trkpt lat="46.22218" lon="6.77449">
        <ele>1745.7891</ele>
        <time>2014-08-29T15:15:16Z</time>
      </trkpt>
      <trkpt lat="46.22216" lon="6.77447">
        <ele>1745.7891</ele>
        <time>2014-08-29T15:15:21Z</time>
      </trkpt>
      <trkpt lat="46.22214" lon="6.77448">
        <ele>1745.7891</ele>
        <time>2014-08-29T15:15:26Z</time>
      </trkpt>
      <trkpt lat="46.22211" lon="6.77447">
        <ele>1745.7891</ele>
        <time>2014-08-29T15:15:31Z</time>
      </trkpt>
      <trkpt lat="46.22208" lon="6.77448">
        <ele>1748.0519</ele>
        <time>2014-08-29T15:15:36Z</time>
      </trkpt>
      <trkpt lat="46.22205" lon="6.77446">
        <ele>1748.0519</ele>
        <time>2014-08-29T15:15:41Z</time>
      </trkpt>
      <trkpt lat="46.22204" lon="6.77444">
        <ele>1748.0519</ele>
        <time>2014-08-29T15:15:46Z</time>
      </trkpt>
      <trkpt lat="46.22202" lon="6.77444">
        <ele>1748.0519</ele>
        <time>2014-08-29T15:15:51Z</time>
      </trkpt>
      <trkpt lat="46.22199" lon="6.77442">
        <ele>1750.445</ele>
        <time>2014-08-29T15:15:56Z</time>
      </trkpt>
      <trkpt lat="46.22195" lon="6.77442">
        <ele>1750.445</ele>
        <time>2014-08-29T15:16:01Z</time>
      </trkpt>
      <trkpt lat="46.22193" lon="6.77444">
        <ele>1750.445</ele>
        <time>2014-08-29T15:16:06Z</time>
      </trkpt>
      <trkpt lat="46.22192" lon="6.77445">
        <ele>1750.445</ele>
        <time>2014-08-29T15:16:11Z</time>
      </trkpt>
      <trkpt lat="46.2219" lon="6.77445">
        <ele>1752.9413</ele>
        <time>2014-08-29T15:16:16Z</time>
      </trkpt>
      <trkpt lat="46.2219" lon="6.77444">
        <ele>1752.9413</ele>
        <time>2014-08-29T15:16:21Z</time>
      </trkpt>
      <trkpt lat="46.22189" lon="6.77443">
        <ele>1752.9413</ele>
        <time>2014-08-29T15:16:26Z</time>
      </trkpt>
      <trkpt lat="46.22188" lon="6.77444">
        <ele>1752.9413</ele>
        <time>2014-08-29T15:16:31Z</time>
      </trkpt>
      <trkpt lat="46.22184" lon="6.77448">
        <ele>1752.9413</ele>
        <time>2014-08-29T15:16:36Z</time>
      </trkpt>
      <trkpt lat="46.22182" lon="6.77448">
        <ele>1755.2422</ele>
        <time>2014-08-29T15:16:41Z</time>
      </trkpt>
      <trkpt lat="46.22181" lon="6.77448">
        <ele>1755.2422</ele>
        <time>2014-08-29T15:16:46Z</time>
      </trkpt>
      <trkpt lat="46.2218" lon="6.77447">
        <ele>1755.2422</ele>
        <time>2014-08-29T15:16:51Z</time>
      </trkpt>
      <trkpt lat="46.22178" lon="6.77445">
        <ele>1755.2422</ele>
        <time>2014-08-29T15:16:56Z</time>
      </trkpt>
      <trkpt lat="46.22176" lon="6.77444">
        <ele>1755.2422</ele>
        <time>2014-08-29T15:17:01Z</time>
      </trkpt>
      <trkpt lat="46.22175" lon="6.77442">
        <ele>1755.2422</ele>
        <time>2014-08-29T15:17:06Z</time>
      </trkpt>
      <trkpt lat="46.22172" lon="6.7744">
        <ele>1757.9363</ele>
        <time>2014-08-29T15:17:11Z</time>
      </trkpt>
      <trkpt lat="46.2217" lon="6.77436">
        <ele>1757.9363</ele>
        <time>2014-08-29T15:17:16Z</time>
      </trkpt>
      <trkpt lat="46.22167" lon="6.77432">
        <ele>1757.9363</ele>
        <time>2014-08-29T15:17:21Z</time>
      </trkpt>
      <trkpt lat="46.22165" lon="6.77429">
        <ele>1760.6885</ele>
        <time>2014-08-29T15:17:26Z</time>
      </trkpt>
      <trkpt lat="46.22163" lon="6.77428">
        <ele>1760.6885</ele>
        <time>2014-08-29T15:17:31Z</time>
      </trkpt>
      <trkpt lat="46.2216" lon="6.77426">
        <ele>1760.6885</ele>
        <time>2014-08-29T15:17:36Z</time>
      </trkpt>
      <trkpt lat="46.22159" lon="6.77425">
        <ele>1760.6885</ele>
        <time>2014-08-29T15:17:41Z</time>
      </trkpt>
      <trkpt lat="46.22157" lon="6.77424">
        <ele>1763.506</ele>
        <time>2014-08-29T15:17:46Z</time>
      </trkpt>
      <trkpt lat="46.22154" lon="6.77424">
        <ele>1763.506</ele>
        <time>2014-08-29T15:17:51Z</time>
      </trkpt>
      <trkpt lat="46.22151" lon="6.77423">
        <ele>1763.506</ele>
        <time>2014-08-29T15:17:56Z</time>
      </trkpt>
      <trkpt lat="46.22149" lon="6.77424">
        <ele>1763.506</ele>
        <time>2014-08-29T15:18:01Z</time>
      </trkpt>
      <trkpt lat="46.22147" lon="6.77425">
        <ele>1766.4811</ele>
        <time>2014-08-29T15:18:06Z</time>
      </trkpt>
      <trkpt lat="46.22146" lon="6.77425">
        <ele>1766.4811</ele>
        <time>2014-08-29T15:18:11Z</time>
      </trkpt>
      <trkpt lat="46.22146" lon="6.77425">
        <ele>1766.4811</ele>
        <time>2014-08-29T15:18:16Z</time>
      </trkpt>
      <trkpt lat="46.22146" lon="6.77424">
        <ele>1766.4811</ele>
        <time>2014-08-29T15:18:21Z</time>
      </trkpt>
      <trkpt lat="46.22148" lon="6.77422">
        <ele>1766.4811</ele>
        <time>2014-08-29T15:18:26Z</time>
      </trkpt>
      <trkpt lat="46.22149" lon="6.77419">
        <ele>1766.4811</ele>
        <time>2014-08-29T15:18:31Z</time>
      </trkpt>
      <trkpt lat="46.22149" lon="6.77416">
        <ele>1769.642</ele>
        <time>2014-08-29T15:18:36Z</time>
      </trkpt>
      <trkpt lat="46.22152" lon="6.7741">
        <ele>1769.642</ele>
        <time>2014-08-29T15:18:41Z</time>
      </trkpt>
      <trkpt lat="46.2215" lon="6.77408">
        <ele>1769.642</ele>
        <time>2014-08-29T15:18:46Z</time>
      </trkpt>
      <trkpt lat="46.2215" lon="6.77404">
        <ele>1772.7836</ele>
        <time>2014-08-29T15:18:51Z</time>
      </trkpt>
      <trkpt lat="46.2215" lon="6.77401">
        <ele>1772.7836</ele>
        <time>2014-08-29T15:18:56Z</time>
      </trkpt>
      <trkpt lat="46.22149" lon="6.77399">
        <ele>1772.7836</ele>
        <time>2014-08-29T15:19:01Z</time>
      </trkpt>
      <trkpt lat="46.22149" lon="6.77395">
        <ele>1772.7836</ele>
        <time>2014-08-29T15:19:06Z</time>
      </trkpt>
      <trkpt lat="46.22148" lon="6.77392">
        <ele>1775.9609</ele>
        <time>2014-08-29T15:19:11Z</time>
      </trkpt>
      <trkpt lat="46.22148" lon="6.77389">
        <ele>1775.9609</ele>
        <time>2014-08-29T15:19:16Z</time>
      </trkpt>
      <trkpt lat="46.22146" lon="6.77387">
        <ele>1775.9609</ele>
        <time>2014-08-29T15:19:21Z</time>
      </trkpt>
      <trkpt lat="46.22145" lon="6.77384">
        <ele>1775.9609</ele>
        <time>2014-08-29T15:19:26Z</time>
      </trkpt>
      <trkpt lat="46.22145" lon="6.77378">
        <ele>1778.9513</ele>
        <time>2014-08-29T15:19:31Z</time>
      </trkpt>
      <trkpt lat="46.22145" lon="6.77375">
        <ele>1778.9513</ele>
        <time>2014-08-29T15:19:36Z</time>
      </trkpt>
      <trkpt lat="46.22144" lon="6.77374">
        <ele>1778.9513</ele>
        <time>2014-08-29T15:19:41Z</time>
      </trkpt>
      <trkpt lat="46.22145" lon="6.77373">
        <ele>1778.9513</ele>
        <time>2014-08-29T15:19:46Z</time>
      </trkpt>
      <trkpt lat="46.22148" lon="6.77368">
        <ele>1781.823</ele>
        <time>2014-08-29T15:19:51Z</time>
      </trkpt>
      <trkpt lat="46.2215" lon="6.77362">
        <ele>1781.823</ele>
        <time>2014-08-29T15:19:56Z</time>
      </trkpt>
      <trkpt lat="46.22151" lon="6.77356">
        <ele>1781.823</ele>
        <time>2014-08-29T15:20:01Z</time>
      </trkpt>
      <trkpt lat="46.22151" lon="6.77351">
        <ele>1784.5098</ele>
        <time>2014-08-29T15:20:06Z</time>
      </trkpt>
      <trkpt lat="46.22151" lon="6.77343">
        <ele>1784.5098</ele>
        <time>2014-08-29T15:20:11Z</time>
      </trkpt>
      <trkpt lat="46.22153" lon="6.77338">
        <ele>1786.9944</ele>
        <time>2014-08-29T15:20:16Z</time>
      </trkpt>
      <trkpt lat="46.22155" lon="6.77334">
        <ele>1786.9944</ele>
        <time>2014-08-29T15:20:21Z</time>
      </trkpt>
      <trkpt lat="46.22157" lon="6.7733">
        <ele>1786.9944</ele>
        <time>2014-08-29T15:20:26Z</time>
      </trkpt>
      <trkpt lat="46.22163" lon="6.77327">
        <ele>1789.3909</ele>
        <time>2014-08-29T15:20:31Z</time>
      </trkpt>
      <trkpt lat="46.2217" lon="6.77323">
        <ele>1789.3909</ele>
        <time>2014-08-29T15:20:36Z</time>
      </trkpt>
      <trkpt lat="46.22171" lon="6.77321">
        <ele>1789.3909</ele>
        <time>2014-08-29T15:20:41Z</time>
      </trkpt>
      <trkpt lat="46.22169" lon="6.77321">
        <ele>1791.6329</ele>
        <time>2014-08-29T15:20:46Z</time>
      </trkpt>
      <trkpt lat="46.22163" lon="6.77321">
        <ele>1791.6329</ele>
        <time>2014-08-29T15:20:51Z</time>
      </trkpt>
      <trkpt lat="46.22159" lon="6.77323">
        <ele>1793.7311</ele>
        <time>2014-08-29T15:20:56Z</time>
      </trkpt>
      <trkpt lat="46.22158" lon="6.77325">
        <ele>1793.7311</ele>
        <time>2014-08-29T15:21:01Z</time>
      </trkpt>
      <trkpt lat="46.22158" lon="6.77326">
        <ele>1793.7311</ele>
        <time>2014-08-29T15:21:06Z</time>
      </trkpt>
      <trkpt lat="46.22156" lon="6.7733">
        <ele>1793.7311</ele>
        <time>2014-08-29T15:21:11Z</time>
      </trkpt>
      <trkpt lat="46.22152" lon="6.77335">
        <ele>1795.6384</ele>
        <time>2014-08-29T15:21:16Z</time>
      </trkpt>
      <trkpt lat="46.22148" lon="6.7734">
        <ele>1795.6384</ele>
        <time>2014-08-29T15:21:21Z</time>
      </trkpt>
      <trkpt lat="46.22146" lon="6.77342">
        <ele>1795.6384</ele>
        <time>2014-08-29T15:21:26Z</time>
      </trkpt>
      <trkpt lat="46.22143" lon="6.77346">
        <ele>1797.3118</ele>
        <time>2014-08-29T15:21:31Z</time>
      </trkpt>
      <trkpt lat="46.22142" lon="6.77347">
        <ele>1797.3118</ele>
        <time>2014-08-29T15:21:36Z</time>
      </trkpt>
      <trkpt lat="46.22145" lon="6.77341">
        <ele>1797.3118</ele>
        <time>2014-08-29T15:21:41Z</time>
      </trkpt>
      <trkpt lat="46.22149" lon="6.77331">
        <ele>1798.7267</ele>
        <time>2014-08-29T15:21:46Z</time>
      </trkpt>
      <trkpt lat="46.22147" lon="6.77325">
        <ele>1798.7267</ele>
        <time>2014-08-29T15:21:51Z</time>
      </trkpt>
      <trkpt lat="46.22144" lon="6.77328">
        <ele>1798.7267</ele>
        <time>2014-08-29T15:21:56Z</time>
      </trkpt>
      <trkpt lat="46.22142" lon="6.77334">
        <ele>1799.9906</ele>
        <time>2014-08-29T15:22:01Z</time>
      </trkpt>
      <trkpt lat="46.22142" lon="6.77334">
        <ele>1800.0975</ele>
        <time>2014-08-29T15:22:06Z</time>
      </trkpt>
      <trkpt lat="46.22142" lon="6.77341">
        <ele>1800.2045</ele>
        <time>2014-08-29T15:23:21Z</time>
      </trkpt>
      <trkpt lat="46.22142" lon="6.77341">
        <ele>1800.3113</ele>
        <time>2014-08-29T15:23:26Z</time>
      </trkpt>
      <trkpt lat="46.22142" lon="6.7734">
        <ele>1800.4182</ele>
        <time>2014-08-29T15:23:36Z</time>
      </trkpt>
      <trkpt lat="46.22142" lon="6.7734">
        <ele>1800.5251</ele>
        <time>2014-08-29T15:23:41Z</time>
      </trkpt>
      <trkpt lat="46.22142" lon="6.7734">
        <ele>1800.6321</ele>
        <time>2014-08-29T15:23:46Z</time>
      </trkpt>
      <trkpt lat="46.22142" lon="6.7734">
        <ele>1800.739</ele>
        <time>2014-08-29T15:23:51Z</time>
      </trkpt>
      <trkpt lat="46.22141" lon="6.77341">
        <ele>1800.8458</ele>
        <time>2014-08-29T15:24:01Z</time>
      </trkpt>
      <trkpt lat="46.22142" lon="6.77342">
        <ele>1800.9528</ele>
        <time>2014-08-29T15:24:06Z</time>
      </trkpt>
      <trkpt lat="46.22143" lon="6.7734">
        <ele>1801.0597</ele>
        <time>2014-08-29T15:24:11Z</time>
      </trkpt>
      <trkpt lat="46.22143" lon="6.77341">
        <ele>1801.0597</ele>
        <time>2014-08-29T15:24:16Z</time>
      </trkpt>
      <trkpt lat="46.22139" lon="6.77332">
        <ele>1801.0597</ele>
        <time>2014-08-29T15:24:21Z</time>
      </trkpt>
      <trkpt lat="46.22141" lon="6.77325">
        <ele>1802.0956</ele>
        <time>2014-08-29T15:24:26Z</time>
      </trkpt>
      <trkpt lat="46.2214" lon="6.77324">
        <ele>1802.0956</ele>
        <time>2014-08-29T15:24:31Z</time>
      </trkpt>
      <trkpt lat="46.22144" lon="6.77321">
        <ele>1802.0956</ele>
        <time>2014-08-29T15:24:36Z</time>
      </trkpt>
      <trkpt lat="46.22145" lon="6.77322">
        <ele>1802.0956</ele>
        <time>2014-08-29T15:24:41Z</time>
      </trkpt>
      <trkpt lat="46.22149" lon="6.77324">
        <ele>1802.5854</ele>
        <time>2014-08-29T15:24:46Z</time>
      </trkpt>
      <trkpt lat="46.22151" lon="6.77327">
        <ele>1803.0753</ele>
        <time>2014-08-29T15:24:51Z</time>
      </trkpt>
      <trkpt lat="46.22151" lon="6.77328">
        <ele>1803.0753</ele>
        <time>2014-08-29T15:24:56Z</time>
      </trkpt>
      <trkpt lat="46.2215" lon="6.77329">
        <ele>1803.0753</ele>
        <time>2014-08-29T15:25:01Z</time>
      </trkpt>
      <trkpt lat="46.2215" lon="6.77329">
        <ele>1803.0753</ele>
        <time>2014-08-29T15:25:06Z</time>
      </trkpt>
      <trkpt lat="46.22151" lon="6.77328">
        <ele>1803.0753</ele>
        <time>2014-08-29T15:25:11Z</time>
      </trkpt>
      <trkpt lat="46.22152" lon="6.77326">
        <ele>1803.0753</ele>
        <time>2014-08-29T15:25:16Z</time>
      </trkpt>
      <trkpt lat="46.22154" lon="6.77322">
        <ele>1803.0753</ele>
        <time>2014-08-29T15:25:21Z</time>
      </trkpt>
      <trkpt lat="46.22155" lon="6.77318">
        <ele>1803.6031</ele>
        <time>2014-08-29T15:25:26Z</time>
      </trkpt>
      <trkpt lat="46.22157" lon="6.77314">
        <ele>1803.6031</ele>
        <time>2014-08-29T15:25:31Z</time>
      </trkpt>
      <trkpt lat="46.22158" lon="6.77313">
        <ele>1803.6031</ele>
        <time>2014-08-29T15:25:36Z</time>
      </trkpt>
      <trkpt lat="46.22159" lon="6.77311">
        <ele>1803.6031</ele>
        <time>2014-08-29T15:25:41Z</time>
      </trkpt>
      <trkpt lat="46.2216" lon="6.77309">
        <ele>1803.6031</ele>
        <time>2014-08-29T15:25:46Z</time>
      </trkpt>
      <trkpt lat="46.2216" lon="6.77309">
        <ele>1803.6031</ele>
        <time>2014-08-29T15:25:51Z</time>
      </trkpt>
    </trkseg>
  </trk>
</gpx>